<?xml version="1.0" encoding="UTF-8" standalone="no" ?>
<gpx xmlns="http://www.topografix.com/GPX/1/1" xmlns:xsi="http://www.w3.org/2001/XMLSchema-instance" xsi:schemaLocation="http://www.topografix.com/GPX/1/1 http://www.topografix.com/GPX/1/1/gpx.xsd" version="1.1" creator="VisuGPX - https://www.visugpx.com">
  <metadata>
    <name>rando gauriaguet 8.1 km</name>
    <desc><![CDATA[les photos de la rando sont visibles en suivant le lien [url]https://rando-pedestre-33.over-blog.com/2021/11/rando-gauriaguet-8.1-km.html[/url]]]></desc>
  </metadata>
  <trk>
    <name><![CDATA[rando gauriaguet 8.1 km]]></name>
    <trkseg>
      <trkpt lat="45.04187" lon="-0.39566">
        <ele>45.2</ele>
        <time>2021-11-27T12:56:02Z</time>
      </trkpt>
      <trkpt lat="45.04245" lon="-0.3958">
        <ele>45.1</ele>
        <time>2021-11-27T12:56:06Z</time>
      </trkpt>
      <trkpt lat="45.04245" lon="-0.39581">
        <ele>45.1</ele>
        <time>2021-11-27T12:56:07Z</time>
      </trkpt>
      <trkpt lat="45.04245" lon="-0.39581">
        <ele>45.1</ele>
        <time>2021-11-27T12:56:08Z</time>
      </trkpt>
      <trkpt lat="45.04244" lon="-0.39582">
        <ele>45.1</ele>
        <time>2021-11-27T12:56:09Z</time>
      </trkpt>
      <trkpt lat="45.04243" lon="-0.39585">
        <ele>45.1</ele>
        <time>2021-11-27T12:56:10Z</time>
      </trkpt>
      <trkpt lat="45.04242" lon="-0.39588">
        <ele>45.1</ele>
        <time>2021-11-27T12:56:11Z</time>
      </trkpt>
      <trkpt lat="45.04241" lon="-0.39589">
        <ele>45.1</ele>
        <time>2021-11-27T12:56:13Z</time>
      </trkpt>
      <trkpt lat="45.04241" lon="-0.3959">
        <ele>45.1</ele>
        <time>2021-11-27T12:56:15Z</time>
      </trkpt>
      <trkpt lat="45.0424" lon="-0.39592">
        <ele>45.1</ele>
        <time>2021-11-27T12:56:17Z</time>
      </trkpt>
      <trkpt lat="45.04239" lon="-0.39593">
        <ele>45.1</ele>
        <time>2021-11-27T12:56:19Z</time>
      </trkpt>
      <trkpt lat="45.04239" lon="-0.39594">
        <ele>45</ele>
        <time>2021-11-27T12:56:20Z</time>
      </trkpt>
      <trkpt lat="45.04238" lon="-0.39595">
        <ele>45</ele>
        <time>2021-11-27T12:56:21Z</time>
      </trkpt>
      <trkpt lat="45.04237" lon="-0.39598">
        <ele>45</ele>
        <time>2021-11-27T12:56:22Z</time>
      </trkpt>
      <trkpt lat="45.04235" lon="-0.39599">
        <ele>45</ele>
        <time>2021-11-27T12:56:24Z</time>
      </trkpt>
      <trkpt lat="45.04234" lon="-0.39601">
        <ele>45</ele>
        <time>2021-11-27T12:56:25Z</time>
      </trkpt>
      <trkpt lat="45.04232" lon="-0.39604">
        <ele>45</ele>
        <time>2021-11-27T12:56:27Z</time>
      </trkpt>
      <trkpt lat="45.0423" lon="-0.39607">
        <ele>44.9</ele>
        <time>2021-11-27T12:56:29Z</time>
      </trkpt>
      <trkpt lat="45.04229" lon="-0.39607">
        <ele>44.9</ele>
        <time>2021-11-27T12:56:30Z</time>
      </trkpt>
      <trkpt lat="45.04228" lon="-0.39608">
        <ele>44.9</ele>
        <time>2021-11-27T12:56:32Z</time>
      </trkpt>
      <trkpt lat="45.04227" lon="-0.39609">
        <ele>44.9</ele>
        <time>2021-11-27T12:56:33Z</time>
      </trkpt>
      <trkpt lat="45.04225" lon="-0.3961">
        <ele>44.9</ele>
        <time>2021-11-27T12:56:34Z</time>
      </trkpt>
      <trkpt lat="45.04225" lon="-0.39612">
        <ele>44.9</ele>
        <time>2021-11-27T12:56:35Z</time>
      </trkpt>
      <trkpt lat="45.04225" lon="-0.39617">
        <ele>44.8</ele>
        <time>2021-11-27T12:56:36Z</time>
      </trkpt>
      <trkpt lat="45.04226" lon="-0.39619">
        <ele>44.8</ele>
        <time>2021-11-27T12:56:38Z</time>
      </trkpt>
      <trkpt lat="45.04226" lon="-0.39621">
        <ele>44.8</ele>
        <time>2021-11-27T12:56:39Z</time>
      </trkpt>
      <trkpt lat="45.04226" lon="-0.39623">
        <ele>44.8</ele>
        <time>2021-11-27T12:56:40Z</time>
      </trkpt>
      <trkpt lat="45.04227" lon="-0.39625">
        <ele>44.8</ele>
        <time>2021-11-27T12:56:41Z</time>
      </trkpt>
      <trkpt lat="45.04228" lon="-0.39627">
        <ele>44.8</ele>
        <time>2021-11-27T12:56:42Z</time>
      </trkpt>
      <trkpt lat="45.0423" lon="-0.39629">
        <ele>44.7</ele>
        <time>2021-11-27T12:56:44Z</time>
      </trkpt>
      <trkpt lat="45.0423" lon="-0.3963">
        <ele>44.7</ele>
        <time>2021-11-27T12:56:45Z</time>
      </trkpt>
      <trkpt lat="45.0423" lon="-0.39631">
        <ele>44.7</ele>
        <time>2021-11-27T12:56:46Z</time>
      </trkpt>
      <trkpt lat="45.04231" lon="-0.39632">
        <ele>44.7</ele>
        <time>2021-11-27T12:56:47Z</time>
      </trkpt>
      <trkpt lat="45.04234" lon="-0.39637">
        <ele>44.7</ele>
        <time>2021-11-27T12:56:49Z</time>
      </trkpt>
      <trkpt lat="45.04235" lon="-0.39639">
        <ele>44.6</ele>
        <time>2021-11-27T12:56:51Z</time>
      </trkpt>
      <trkpt lat="45.04236" lon="-0.39641">
        <ele>44.6</ele>
        <time>2021-11-27T12:56:52Z</time>
      </trkpt>
      <trkpt lat="45.04237" lon="-0.39644">
        <ele>44.6</ele>
        <time>2021-11-27T12:56:54Z</time>
      </trkpt>
      <trkpt lat="45.04238" lon="-0.39645">
        <ele>44.6</ele>
        <time>2021-11-27T12:56:55Z</time>
      </trkpt>
      <trkpt lat="45.04238" lon="-0.39647">
        <ele>44.6</ele>
        <time>2021-11-27T12:56:56Z</time>
      </trkpt>
      <trkpt lat="45.04239" lon="-0.39648">
        <ele>44.6</ele>
        <time>2021-11-27T12:56:57Z</time>
      </trkpt>
      <trkpt lat="45.0424" lon="-0.3965">
        <ele>44.5</ele>
        <time>2021-11-27T12:56:59Z</time>
      </trkpt>
      <trkpt lat="45.0424" lon="-0.39651">
        <ele>44.5</ele>
        <time>2021-11-27T12:57:00Z</time>
      </trkpt>
      <trkpt lat="45.0424" lon="-0.39653">
        <ele>44.5</ele>
        <time>2021-11-27T12:57:01Z</time>
      </trkpt>
      <trkpt lat="45.04241" lon="-0.39655">
        <ele>44.5</ele>
        <time>2021-11-27T12:57:03Z</time>
      </trkpt>
      <trkpt lat="45.04242" lon="-0.39658">
        <ele>44.5</ele>
        <time>2021-11-27T12:57:04Z</time>
      </trkpt>
      <trkpt lat="45.04244" lon="-0.39661">
        <ele>44.5</ele>
        <time>2021-11-27T12:57:06Z</time>
      </trkpt>
      <trkpt lat="45.04244" lon="-0.39663">
        <ele>44.4</ele>
        <time>2021-11-27T12:57:07Z</time>
      </trkpt>
      <trkpt lat="45.04245" lon="-0.39665">
        <ele>44.4</ele>
        <time>2021-11-27T12:57:08Z</time>
      </trkpt>
      <trkpt lat="45.04247" lon="-0.39668">
        <ele>44.4</ele>
        <time>2021-11-27T12:57:10Z</time>
      </trkpt>
      <trkpt lat="45.04248" lon="-0.39669">
        <ele>44.4</ele>
        <time>2021-11-27T12:57:11Z</time>
      </trkpt>
      <trkpt lat="45.04249" lon="-0.3967">
        <ele>44.4</ele>
        <time>2021-11-27T12:57:12Z</time>
      </trkpt>
      <trkpt lat="45.04251" lon="-0.3967">
        <ele>44.4</ele>
        <time>2021-11-27T12:57:14Z</time>
      </trkpt>
      <trkpt lat="45.04252" lon="-0.39671">
        <ele>44.4</ele>
        <time>2021-11-27T12:57:15Z</time>
      </trkpt>
      <trkpt lat="45.04252" lon="-0.39672">
        <ele>44.4</ele>
        <time>2021-11-27T12:57:17Z</time>
      </trkpt>
      <trkpt lat="45.04253" lon="-0.39674">
        <ele>44.4</ele>
        <time>2021-11-27T12:57:18Z</time>
      </trkpt>
      <trkpt lat="45.04254" lon="-0.39677">
        <ele>44.4</ele>
        <time>2021-11-27T12:57:19Z</time>
      </trkpt>
      <trkpt lat="45.04254" lon="-0.39679">
        <ele>44.4</ele>
        <time>2021-11-27T12:57:20Z</time>
      </trkpt>
      <trkpt lat="45.04255" lon="-0.39682">
        <ele>44.4</ele>
        <time>2021-11-27T12:57:22Z</time>
      </trkpt>
      <trkpt lat="45.04255" lon="-0.39684">
        <ele>44.4</ele>
        <time>2021-11-27T12:57:23Z</time>
      </trkpt>
      <trkpt lat="45.04256" lon="-0.39686">
        <ele>44.4</ele>
        <time>2021-11-27T12:57:24Z</time>
      </trkpt>
      <trkpt lat="45.04256" lon="-0.39689">
        <ele>44.4</ele>
        <time>2021-11-27T12:57:26Z</time>
      </trkpt>
      <trkpt lat="45.04256" lon="-0.39692">
        <ele>44.4</ele>
        <time>2021-11-27T12:57:27Z</time>
      </trkpt>
      <trkpt lat="45.04256" lon="-0.39694">
        <ele>44.4</ele>
        <time>2021-11-27T12:57:29Z</time>
      </trkpt>
      <trkpt lat="45.04257" lon="-0.39697">
        <ele>44.4</ele>
        <time>2021-11-27T12:57:30Z</time>
      </trkpt>
      <trkpt lat="45.04257" lon="-0.39699">
        <ele>44.3</ele>
        <time>2021-11-27T12:57:31Z</time>
      </trkpt>
      <trkpt lat="45.04258" lon="-0.39701">
        <ele>44.2</ele>
        <time>2021-11-27T12:57:32Z</time>
      </trkpt>
      <trkpt lat="45.04258" lon="-0.39703">
        <ele>44.2</ele>
        <time>2021-11-27T12:57:34Z</time>
      </trkpt>
      <trkpt lat="45.04259" lon="-0.39704">
        <ele>44.2</ele>
        <time>2021-11-27T12:57:35Z</time>
      </trkpt>
      <trkpt lat="45.04261" lon="-0.39706">
        <ele>44.2</ele>
        <time>2021-11-27T12:57:36Z</time>
      </trkpt>
      <trkpt lat="45.04262" lon="-0.39707">
        <ele>44.1</ele>
        <time>2021-11-27T12:57:37Z</time>
      </trkpt>
      <trkpt lat="45.04264" lon="-0.39709">
        <ele>44.1</ele>
        <time>2021-11-27T12:57:39Z</time>
      </trkpt>
      <trkpt lat="45.04265" lon="-0.3971">
        <ele>44</ele>
        <time>2021-11-27T12:57:40Z</time>
      </trkpt>
      <trkpt lat="45.04266" lon="-0.39711">
        <ele>44</ele>
        <time>2021-11-27T12:57:41Z</time>
      </trkpt>
      <trkpt lat="45.04268" lon="-0.39711">
        <ele>44</ele>
        <time>2021-11-27T12:57:42Z</time>
      </trkpt>
      <trkpt lat="45.04269" lon="-0.39713">
        <ele>43.9</ele>
        <time>2021-11-27T12:57:44Z</time>
      </trkpt>
      <trkpt lat="45.04271" lon="-0.39714">
        <ele>43.9</ele>
        <time>2021-11-27T12:57:45Z</time>
      </trkpt>
      <trkpt lat="45.04274" lon="-0.39714">
        <ele>43.9</ele>
        <time>2021-11-27T12:57:47Z</time>
      </trkpt>
      <trkpt lat="45.04275" lon="-0.39713">
        <ele>43.8</ele>
        <time>2021-11-27T12:57:48Z</time>
      </trkpt>
      <trkpt lat="45.04277" lon="-0.39712">
        <ele>43.8</ele>
        <time>2021-11-27T12:57:50Z</time>
      </trkpt>
      <trkpt lat="45.04278" lon="-0.39712">
        <ele>43.8</ele>
        <time>2021-11-27T12:57:51Z</time>
      </trkpt>
      <trkpt lat="45.04279" lon="-0.39713">
        <ele>43.8</ele>
        <time>2021-11-27T12:57:52Z</time>
      </trkpt>
      <trkpt lat="45.0428" lon="-0.39714">
        <ele>43.8</ele>
        <time>2021-11-27T12:57:54Z</time>
      </trkpt>
      <trkpt lat="45.04281" lon="-0.39716">
        <ele>43.7</ele>
        <time>2021-11-27T12:57:55Z</time>
      </trkpt>
      <trkpt lat="45.04282" lon="-0.39719">
        <ele>43.7</ele>
        <time>2021-11-27T12:57:57Z</time>
      </trkpt>
      <trkpt lat="45.04284" lon="-0.3972">
        <ele>43.7</ele>
        <time>2021-11-27T12:57:58Z</time>
      </trkpt>
      <trkpt lat="45.04285" lon="-0.39721">
        <ele>43.6</ele>
        <time>2021-11-27T12:57:59Z</time>
      </trkpt>
      <trkpt lat="45.04287" lon="-0.39721">
        <ele>43.6</ele>
        <time>2021-11-27T12:58:00Z</time>
      </trkpt>
      <trkpt lat="45.04289" lon="-0.3972">
        <ele>43.6</ele>
        <time>2021-11-27T12:58:02Z</time>
      </trkpt>
      <trkpt lat="45.04292" lon="-0.3972">
        <ele>43.5</ele>
        <time>2021-11-27T12:58:04Z</time>
      </trkpt>
      <trkpt lat="45.04293" lon="-0.3972">
        <ele>43.5</ele>
        <time>2021-11-27T12:58:05Z</time>
      </trkpt>
      <trkpt lat="45.04296" lon="-0.39719">
        <ele>43.5</ele>
        <time>2021-11-27T12:58:07Z</time>
      </trkpt>
      <trkpt lat="45.04296" lon="-0.39719">
        <ele>43.5</ele>
        <time>2021-11-27T12:58:08Z</time>
      </trkpt>
      <trkpt lat="45.04298" lon="-0.39719">
        <ele>43.4</ele>
        <time>2021-11-27T12:58:10Z</time>
      </trkpt>
      <trkpt lat="45.043" lon="-0.39719">
        <ele>43.4</ele>
        <time>2021-11-27T12:58:11Z</time>
      </trkpt>
      <trkpt lat="45.04301" lon="-0.39719">
        <ele>43.4</ele>
        <time>2021-11-27T12:58:12Z</time>
      </trkpt>
      <trkpt lat="45.04302" lon="-0.39719">
        <ele>43.4</ele>
        <time>2021-11-27T12:58:14Z</time>
      </trkpt>
      <trkpt lat="45.04303" lon="-0.39719">
        <ele>43.4</ele>
        <time>2021-11-27T12:58:15Z</time>
      </trkpt>
      <trkpt lat="45.04306" lon="-0.39719">
        <ele>43.4</ele>
        <time>2021-11-27T12:58:16Z</time>
      </trkpt>
      <trkpt lat="45.04307" lon="-0.39719">
        <ele>43.4</ele>
        <time>2021-11-27T12:58:17Z</time>
      </trkpt>
      <trkpt lat="45.04308" lon="-0.39719">
        <ele>43.3</ele>
        <time>2021-11-27T12:58:18Z</time>
      </trkpt>
      <trkpt lat="45.0431" lon="-0.3972">
        <ele>43.3</ele>
        <time>2021-11-27T12:58:20Z</time>
      </trkpt>
      <trkpt lat="45.04311" lon="-0.39721">
        <ele>43.3</ele>
        <time>2021-11-27T12:58:21Z</time>
      </trkpt>
      <trkpt lat="45.04312" lon="-0.39721">
        <ele>43.3</ele>
        <time>2021-11-27T12:58:22Z</time>
      </trkpt>
      <trkpt lat="45.04314" lon="-0.39723">
        <ele>43.3</ele>
        <time>2021-11-27T12:58:24Z</time>
      </trkpt>
      <trkpt lat="45.04315" lon="-0.39724">
        <ele>43.3</ele>
        <time>2021-11-27T12:58:25Z</time>
      </trkpt>
      <trkpt lat="45.04316" lon="-0.39725">
        <ele>43.3</ele>
        <time>2021-11-27T12:58:26Z</time>
      </trkpt>
      <trkpt lat="45.04317" lon="-0.39726">
        <ele>43.2</ele>
        <time>2021-11-27T12:58:27Z</time>
      </trkpt>
      <trkpt lat="45.04318" lon="-0.39726">
        <ele>43.2</ele>
        <time>2021-11-27T12:58:28Z</time>
      </trkpt>
      <trkpt lat="45.04321" lon="-0.39728">
        <ele>43.2</ele>
        <time>2021-11-27T12:58:30Z</time>
      </trkpt>
      <trkpt lat="45.04322" lon="-0.39728">
        <ele>43.2</ele>
        <time>2021-11-27T12:58:32Z</time>
      </trkpt>
      <trkpt lat="45.04324" lon="-0.39729">
        <ele>43.2</ele>
        <time>2021-11-27T12:58:33Z</time>
      </trkpt>
      <trkpt lat="45.04325" lon="-0.39729">
        <ele>43.2</ele>
        <time>2021-11-27T12:58:34Z</time>
      </trkpt>
      <trkpt lat="45.04327" lon="-0.3973">
        <ele>43.2</ele>
        <time>2021-11-27T12:58:35Z</time>
      </trkpt>
      <trkpt lat="45.04329" lon="-0.39731">
        <ele>43.2</ele>
        <time>2021-11-27T12:58:37Z</time>
      </trkpt>
      <trkpt lat="45.0433" lon="-0.39732">
        <ele>43.2</ele>
        <time>2021-11-27T12:58:38Z</time>
      </trkpt>
      <trkpt lat="45.04331" lon="-0.39732">
        <ele>43.2</ele>
        <time>2021-11-27T12:58:39Z</time>
      </trkpt>
      <trkpt lat="45.04332" lon="-0.39733">
        <ele>43.1</ele>
        <time>2021-11-27T12:58:41Z</time>
      </trkpt>
      <trkpt lat="45.04333" lon="-0.39735">
        <ele>43.1</ele>
        <time>2021-11-27T12:58:42Z</time>
      </trkpt>
      <trkpt lat="45.04334" lon="-0.39736">
        <ele>43.1</ele>
        <time>2021-11-27T12:58:44Z</time>
      </trkpt>
      <trkpt lat="45.04333" lon="-0.39736">
        <ele>43.1</ele>
        <time>2021-11-27T12:58:46Z</time>
      </trkpt>
      <trkpt lat="45.04333" lon="-0.39737">
        <ele>43.1</ele>
        <time>2021-11-27T12:58:48Z</time>
      </trkpt>
      <trkpt lat="45.04335" lon="-0.39741">
        <ele>43.1</ele>
        <time>2021-11-27T12:58:50Z</time>
      </trkpt>
      <trkpt lat="45.04338" lon="-0.39742">
        <ele>43.1</ele>
        <time>2021-11-27T12:58:51Z</time>
      </trkpt>
      <trkpt lat="45.04339" lon="-0.39742">
        <ele>43.1</ele>
        <time>2021-11-27T12:58:53Z</time>
      </trkpt>
      <trkpt lat="45.04341" lon="-0.39743">
        <ele>43.1</ele>
        <time>2021-11-27T12:58:54Z</time>
      </trkpt>
      <trkpt lat="45.04342" lon="-0.39743">
        <ele>43.1</ele>
        <time>2021-11-27T12:58:55Z</time>
      </trkpt>
      <trkpt lat="45.04343" lon="-0.39742">
        <ele>43</ele>
        <time>2021-11-27T12:58:56Z</time>
      </trkpt>
      <trkpt lat="45.04345" lon="-0.39742">
        <ele>43</ele>
        <time>2021-11-27T12:58:58Z</time>
      </trkpt>
      <trkpt lat="45.04348" lon="-0.39741">
        <ele>43</ele>
        <time>2021-11-27T12:58:59Z</time>
      </trkpt>
      <trkpt lat="45.0435" lon="-0.3974">
        <ele>43</ele>
        <time>2021-11-27T12:59:00Z</time>
      </trkpt>
      <trkpt lat="45.04351" lon="-0.3974">
        <ele>43</ele>
        <time>2021-11-27T12:59:02Z</time>
      </trkpt>
      <trkpt lat="45.04353" lon="-0.3974">
        <ele>43</ele>
        <time>2021-11-27T12:59:03Z</time>
      </trkpt>
      <trkpt lat="45.04354" lon="-0.3974">
        <ele>43</ele>
        <time>2021-11-27T12:59:05Z</time>
      </trkpt>
      <trkpt lat="45.04356" lon="-0.3974">
        <ele>43</ele>
        <time>2021-11-27T12:59:06Z</time>
      </trkpt>
      <trkpt lat="45.04358" lon="-0.39741">
        <ele>42.9</ele>
        <time>2021-11-27T12:59:07Z</time>
      </trkpt>
      <trkpt lat="45.04359" lon="-0.39741">
        <ele>42.9</ele>
        <time>2021-11-27T12:59:08Z</time>
      </trkpt>
      <trkpt lat="45.04362" lon="-0.39741">
        <ele>42.9</ele>
        <time>2021-11-27T12:59:10Z</time>
      </trkpt>
      <trkpt lat="45.04363" lon="-0.39741">
        <ele>42.9</ele>
        <time>2021-11-27T12:59:11Z</time>
      </trkpt>
      <trkpt lat="45.04365" lon="-0.39741">
        <ele>42.9</ele>
        <time>2021-11-27T12:59:12Z</time>
      </trkpt>
      <trkpt lat="45.04367" lon="-0.39743">
        <ele>42.9</ele>
        <time>2021-11-27T12:59:14Z</time>
      </trkpt>
      <trkpt lat="45.04369" lon="-0.39743">
        <ele>42.9</ele>
        <time>2021-11-27T12:59:16Z</time>
      </trkpt>
      <trkpt lat="45.04371" lon="-0.39743">
        <ele>42.9</ele>
        <time>2021-11-27T12:59:18Z</time>
      </trkpt>
      <trkpt lat="45.04372" lon="-0.39743">
        <ele>42.9</ele>
        <time>2021-11-27T12:59:19Z</time>
      </trkpt>
      <trkpt lat="45.04374" lon="-0.39743">
        <ele>42.9</ele>
        <time>2021-11-27T12:59:20Z</time>
      </trkpt>
      <trkpt lat="45.04375" lon="-0.39743">
        <ele>42.9</ele>
        <time>2021-11-27T12:59:22Z</time>
      </trkpt>
      <trkpt lat="45.04377" lon="-0.39743">
        <ele>42.9</ele>
        <time>2021-11-27T12:59:23Z</time>
      </trkpt>
      <trkpt lat="45.04379" lon="-0.39743">
        <ele>42.9</ele>
        <time>2021-11-27T12:59:24Z</time>
      </trkpt>
      <trkpt lat="45.0438" lon="-0.39743">
        <ele>42.9</ele>
        <time>2021-11-27T12:59:26Z</time>
      </trkpt>
      <trkpt lat="45.04383" lon="-0.39743">
        <ele>42.9</ele>
        <time>2021-11-27T12:59:27Z</time>
      </trkpt>
      <trkpt lat="45.04384" lon="-0.39743">
        <ele>42.9</ele>
        <time>2021-11-27T12:59:28Z</time>
      </trkpt>
      <trkpt lat="45.04386" lon="-0.39742">
        <ele>42.9</ele>
        <time>2021-11-27T12:59:30Z</time>
      </trkpt>
      <trkpt lat="45.04387" lon="-0.39742">
        <ele>42.9</ele>
        <time>2021-11-27T12:59:31Z</time>
      </trkpt>
      <trkpt lat="45.04389" lon="-0.39742">
        <ele>42.9</ele>
        <time>2021-11-27T12:59:32Z</time>
      </trkpt>
      <trkpt lat="45.04391" lon="-0.39742">
        <ele>42.9</ele>
        <time>2021-11-27T12:59:34Z</time>
      </trkpt>
      <trkpt lat="45.04394" lon="-0.3974">
        <ele>42.9</ele>
        <time>2021-11-27T12:59:35Z</time>
      </trkpt>
      <trkpt lat="45.04394" lon="-0.3974">
        <ele>42.9</ele>
        <time>2021-11-27T12:59:36Z</time>
      </trkpt>
      <trkpt lat="45.04397" lon="-0.39738">
        <ele>42.9</ele>
        <time>2021-11-27T12:59:38Z</time>
      </trkpt>
      <trkpt lat="45.04398" lon="-0.39737">
        <ele>42.8</ele>
        <time>2021-11-27T12:59:39Z</time>
      </trkpt>
      <trkpt lat="45.044" lon="-0.39736">
        <ele>42.8</ele>
        <time>2021-11-27T12:59:40Z</time>
      </trkpt>
      <trkpt lat="45.04401" lon="-0.39735">
        <ele>42.8</ele>
        <time>2021-11-27T12:59:41Z</time>
      </trkpt>
      <trkpt lat="45.04403" lon="-0.39735">
        <ele>42.8</ele>
        <time>2021-11-27T12:59:42Z</time>
      </trkpt>
      <trkpt lat="45.04404" lon="-0.39735">
        <ele>42.8</ele>
        <time>2021-11-27T12:59:43Z</time>
      </trkpt>
      <trkpt lat="45.04406" lon="-0.39734">
        <ele>42.8</ele>
        <time>2021-11-27T12:59:44Z</time>
      </trkpt>
      <trkpt lat="45.04408" lon="-0.39735">
        <ele>42.8</ele>
        <time>2021-11-27T12:59:46Z</time>
      </trkpt>
      <trkpt lat="45.04411" lon="-0.39734">
        <ele>42.7</ele>
        <time>2021-11-27T12:59:48Z</time>
      </trkpt>
      <trkpt lat="45.04412" lon="-0.39733">
        <ele>42.7</ele>
        <time>2021-11-27T12:59:49Z</time>
      </trkpt>
      <trkpt lat="45.04414" lon="-0.39733">
        <ele>42.7</ele>
        <time>2021-11-27T12:59:50Z</time>
      </trkpt>
      <trkpt lat="45.04416" lon="-0.39734">
        <ele>42.6</ele>
        <time>2021-11-27T12:59:52Z</time>
      </trkpt>
      <trkpt lat="45.04417" lon="-0.39733">
        <ele>42.6</ele>
        <time>2021-11-27T12:59:53Z</time>
      </trkpt>
      <trkpt lat="45.04419" lon="-0.39732">
        <ele>42.6</ele>
        <time>2021-11-27T12:59:54Z</time>
      </trkpt>
      <trkpt lat="45.04421" lon="-0.39732">
        <ele>42.5</ele>
        <time>2021-11-27T12:59:56Z</time>
      </trkpt>
      <trkpt lat="45.04422" lon="-0.39731">
        <ele>42.5</ele>
        <time>2021-11-27T12:59:57Z</time>
      </trkpt>
      <trkpt lat="45.04423" lon="-0.3973">
        <ele>42.5</ele>
        <time>2021-11-27T12:59:58Z</time>
      </trkpt>
      <trkpt lat="45.04424" lon="-0.3973">
        <ele>42.5</ele>
        <time>2021-11-27T13:00:00Z</time>
      </trkpt>
      <trkpt lat="45.04425" lon="-0.39729">
        <ele>42.4</ele>
        <time>2021-11-27T13:00:01Z</time>
      </trkpt>
      <trkpt lat="45.04426" lon="-0.39728">
        <ele>42.4</ele>
        <time>2021-11-27T13:00:02Z</time>
      </trkpt>
      <trkpt lat="45.04427" lon="-0.39728">
        <ele>42.4</ele>
        <time>2021-11-27T13:00:03Z</time>
      </trkpt>
      <trkpt lat="45.04428" lon="-0.39727">
        <ele>42.4</ele>
        <time>2021-11-27T13:00:05Z</time>
      </trkpt>
      <trkpt lat="45.04429" lon="-0.39726">
        <ele>42.3</ele>
        <time>2021-11-27T13:00:06Z</time>
      </trkpt>
      <trkpt lat="45.04431" lon="-0.39726">
        <ele>42.3</ele>
        <time>2021-11-27T13:00:07Z</time>
      </trkpt>
      <trkpt lat="45.04433" lon="-0.39725">
        <ele>42.3</ele>
        <time>2021-11-27T13:00:08Z</time>
      </trkpt>
      <trkpt lat="45.04435" lon="-0.39724">
        <ele>42.2</ele>
        <time>2021-11-27T13:00:10Z</time>
      </trkpt>
      <trkpt lat="45.04436" lon="-0.39724">
        <ele>42.2</ele>
        <time>2021-11-27T13:00:11Z</time>
      </trkpt>
      <trkpt lat="45.04437" lon="-0.39723">
        <ele>42.2</ele>
        <time>2021-11-27T13:00:12Z</time>
      </trkpt>
      <trkpt lat="45.04439" lon="-0.39723">
        <ele>42.1</ele>
        <time>2021-11-27T13:00:13Z</time>
      </trkpt>
      <trkpt lat="45.04442" lon="-0.39722">
        <ele>42.1</ele>
        <time>2021-11-27T13:00:15Z</time>
      </trkpt>
      <trkpt lat="45.04443" lon="-0.39721">
        <ele>42.1</ele>
        <time>2021-11-27T13:00:16Z</time>
      </trkpt>
      <trkpt lat="45.04446" lon="-0.3972">
        <ele>42</ele>
        <time>2021-11-27T13:00:18Z</time>
      </trkpt>
      <trkpt lat="45.04447" lon="-0.3972">
        <ele>42</ele>
        <time>2021-11-27T13:00:19Z</time>
      </trkpt>
      <trkpt lat="45.0445" lon="-0.39719">
        <ele>41.9</ele>
        <time>2021-11-27T13:00:21Z</time>
      </trkpt>
      <trkpt lat="45.04451" lon="-0.39719">
        <ele>41.9</ele>
        <time>2021-11-27T13:00:22Z</time>
      </trkpt>
      <trkpt lat="45.04452" lon="-0.39721">
        <ele>41.8</ele>
        <time>2021-11-27T13:00:24Z</time>
      </trkpt>
      <trkpt lat="45.04453" lon="-0.39721">
        <ele>41.8</ele>
        <time>2021-11-27T13:00:25Z</time>
      </trkpt>
      <trkpt lat="45.04457" lon="-0.3972">
        <ele>41.7</ele>
        <time>2021-11-27T13:00:27Z</time>
      </trkpt>
      <trkpt lat="45.04458" lon="-0.3972">
        <ele>41.7</ele>
        <time>2021-11-27T13:00:28Z</time>
      </trkpt>
      <trkpt lat="45.04461" lon="-0.39718">
        <ele>41.6</ele>
        <time>2021-11-27T13:00:30Z</time>
      </trkpt>
      <trkpt lat="45.04463" lon="-0.39717">
        <ele>41.6</ele>
        <time>2021-11-27T13:00:31Z</time>
      </trkpt>
      <trkpt lat="45.04465" lon="-0.39716">
        <ele>41.5</ele>
        <time>2021-11-27T13:00:33Z</time>
      </trkpt>
      <trkpt lat="45.04466" lon="-0.39715">
        <ele>41.5</ele>
        <time>2021-11-27T13:00:34Z</time>
      </trkpt>
      <trkpt lat="45.04468" lon="-0.39714">
        <ele>41.5</ele>
        <time>2021-11-27T13:00:35Z</time>
      </trkpt>
      <trkpt lat="45.04469" lon="-0.39713">
        <ele>41.4</ele>
        <time>2021-11-27T13:00:37Z</time>
      </trkpt>
      <trkpt lat="45.0447" lon="-0.39712">
        <ele>41.4</ele>
        <time>2021-11-27T13:00:38Z</time>
      </trkpt>
      <trkpt lat="45.04472" lon="-0.39711">
        <ele>41.3</ele>
        <time>2021-11-27T13:00:39Z</time>
      </trkpt>
      <trkpt lat="45.04473" lon="-0.3971">
        <ele>41.3</ele>
        <time>2021-11-27T13:00:41Z</time>
      </trkpt>
      <trkpt lat="45.04475" lon="-0.39709">
        <ele>41.3</ele>
        <time>2021-11-27T13:00:42Z</time>
      </trkpt>
      <trkpt lat="45.04476" lon="-0.39708">
        <ele>41.2</ele>
        <time>2021-11-27T13:00:43Z</time>
      </trkpt>
      <trkpt lat="45.04478" lon="-0.39707">
        <ele>41.2</ele>
        <time>2021-11-27T13:00:44Z</time>
      </trkpt>
      <trkpt lat="45.04479" lon="-0.39707">
        <ele>41.2</ele>
        <time>2021-11-27T13:00:45Z</time>
      </trkpt>
      <trkpt lat="45.0448" lon="-0.39706">
        <ele>41.1</ele>
        <time>2021-11-27T13:00:47Z</time>
      </trkpt>
      <trkpt lat="45.04482" lon="-0.39705">
        <ele>41.1</ele>
        <time>2021-11-27T13:00:48Z</time>
      </trkpt>
      <trkpt lat="45.04483" lon="-0.39705">
        <ele>41.1</ele>
        <time>2021-11-27T13:00:50Z</time>
      </trkpt>
      <trkpt lat="45.04485" lon="-0.39705">
        <ele>41</ele>
        <time>2021-11-27T13:00:51Z</time>
      </trkpt>
      <trkpt lat="45.04487" lon="-0.39705">
        <ele>41</ele>
        <time>2021-11-27T13:00:52Z</time>
      </trkpt>
      <trkpt lat="45.04488" lon="-0.39704">
        <ele>40.9</ele>
        <time>2021-11-27T13:00:54Z</time>
      </trkpt>
      <trkpt lat="45.04491" lon="-0.39704">
        <ele>40.9</ele>
        <time>2021-11-27T13:00:55Z</time>
      </trkpt>
      <trkpt lat="45.04492" lon="-0.39705">
        <ele>40.9</ele>
        <time>2021-11-27T13:00:56Z</time>
      </trkpt>
      <trkpt lat="45.04495" lon="-0.39705">
        <ele>40.8</ele>
        <time>2021-11-27T13:00:58Z</time>
      </trkpt>
      <trkpt lat="45.04496" lon="-0.39704">
        <ele>40.8</ele>
        <time>2021-11-27T13:00:59Z</time>
      </trkpt>
      <trkpt lat="45.04499" lon="-0.39704">
        <ele>40.7</ele>
        <time>2021-11-27T13:01:01Z</time>
      </trkpt>
      <trkpt lat="45.045" lon="-0.39704">
        <ele>40.7</ele>
        <time>2021-11-27T13:01:02Z</time>
      </trkpt>
      <trkpt lat="45.04502" lon="-0.39703">
        <ele>40.6</ele>
        <time>2021-11-27T13:01:04Z</time>
      </trkpt>
      <trkpt lat="45.04503" lon="-0.39703">
        <ele>40.6</ele>
        <time>2021-11-27T13:01:05Z</time>
      </trkpt>
      <trkpt lat="45.04505" lon="-0.39703">
        <ele>40.6</ele>
        <time>2021-11-27T13:01:06Z</time>
      </trkpt>
      <trkpt lat="45.04507" lon="-0.39702">
        <ele>40.5</ele>
        <time>2021-11-27T13:01:08Z</time>
      </trkpt>
      <trkpt lat="45.04509" lon="-0.39701">
        <ele>40.5</ele>
        <time>2021-11-27T13:01:09Z</time>
      </trkpt>
      <trkpt lat="45.04511" lon="-0.397">
        <ele>40.5</ele>
        <time>2021-11-27T13:01:11Z</time>
      </trkpt>
      <trkpt lat="45.04512" lon="-0.39699">
        <ele>40.5</ele>
        <time>2021-11-27T13:01:13Z</time>
      </trkpt>
      <trkpt lat="45.04512" lon="-0.39699">
        <ele>40.4</ele>
        <time>2021-11-27T13:01:15Z</time>
      </trkpt>
      <trkpt lat="45.04513" lon="-0.39699">
        <ele>40.4</ele>
        <time>2021-11-27T13:01:17Z</time>
      </trkpt>
      <trkpt lat="45.04514" lon="-0.39699">
        <ele>40.4</ele>
        <time>2021-11-27T13:01:19Z</time>
      </trkpt>
      <trkpt lat="45.04515" lon="-0.39698">
        <ele>40.4</ele>
        <time>2021-11-27T13:01:20Z</time>
      </trkpt>
      <trkpt lat="45.04516" lon="-0.39699">
        <ele>40.4</ele>
        <time>2021-11-27T13:01:21Z</time>
      </trkpt>
      <trkpt lat="45.04518" lon="-0.39699">
        <ele>40.4</ele>
        <time>2021-11-27T13:01:23Z</time>
      </trkpt>
      <trkpt lat="45.04519" lon="-0.39699">
        <ele>40.4</ele>
        <time>2021-11-27T13:01:24Z</time>
      </trkpt>
      <trkpt lat="45.04521" lon="-0.39699">
        <ele>40.3</ele>
        <time>2021-11-27T13:01:25Z</time>
      </trkpt>
      <trkpt lat="45.04523" lon="-0.39698">
        <ele>40.3</ele>
        <time>2021-11-27T13:01:26Z</time>
      </trkpt>
      <trkpt lat="45.04524" lon="-0.39698">
        <ele>40.3</ele>
        <time>2021-11-27T13:01:28Z</time>
      </trkpt>
      <trkpt lat="45.04525" lon="-0.39697">
        <ele>40.3</ele>
        <time>2021-11-27T13:01:29Z</time>
      </trkpt>
      <trkpt lat="45.04526" lon="-0.39696">
        <ele>40.3</ele>
        <time>2021-11-27T13:01:30Z</time>
      </trkpt>
      <trkpt lat="45.04528" lon="-0.39696">
        <ele>40.3</ele>
        <time>2021-11-27T13:01:32Z</time>
      </trkpt>
      <trkpt lat="45.0453" lon="-0.39695">
        <ele>40.3</ele>
        <time>2021-11-27T13:01:33Z</time>
      </trkpt>
      <trkpt lat="45.04531" lon="-0.39695">
        <ele>40.3</ele>
        <time>2021-11-27T13:01:34Z</time>
      </trkpt>
      <trkpt lat="45.04534" lon="-0.39695">
        <ele>40.3</ele>
        <time>2021-11-27T13:01:36Z</time>
      </trkpt>
      <trkpt lat="45.04535" lon="-0.39695">
        <ele>40.3</ele>
        <time>2021-11-27T13:01:37Z</time>
      </trkpt>
      <trkpt lat="45.04538" lon="-0.39695">
        <ele>40.3</ele>
        <time>2021-11-27T13:01:39Z</time>
      </trkpt>
      <trkpt lat="45.04539" lon="-0.39695">
        <ele>40.3</ele>
        <time>2021-11-27T13:01:40Z</time>
      </trkpt>
      <trkpt lat="45.04541" lon="-0.39695">
        <ele>40.3</ele>
        <time>2021-11-27T13:01:41Z</time>
      </trkpt>
      <trkpt lat="45.04542" lon="-0.39695">
        <ele>40.3</ele>
        <time>2021-11-27T13:01:43Z</time>
      </trkpt>
      <trkpt lat="45.04544" lon="-0.39695">
        <ele>40.3</ele>
        <time>2021-11-27T13:01:44Z</time>
      </trkpt>
      <trkpt lat="45.04545" lon="-0.39694">
        <ele>40.3</ele>
        <time>2021-11-27T13:01:45Z</time>
      </trkpt>
      <trkpt lat="45.04546" lon="-0.39694">
        <ele>40.3</ele>
        <time>2021-11-27T13:01:46Z</time>
      </trkpt>
      <trkpt lat="45.04547" lon="-0.39694">
        <ele>40.3</ele>
        <time>2021-11-27T13:01:47Z</time>
      </trkpt>
      <trkpt lat="45.04549" lon="-0.39694">
        <ele>40.4</ele>
        <time>2021-11-27T13:01:48Z</time>
      </trkpt>
      <trkpt lat="45.04551" lon="-0.39695">
        <ele>40.4</ele>
        <time>2021-11-27T13:01:50Z</time>
      </trkpt>
      <trkpt lat="45.04552" lon="-0.39695">
        <ele>40.4</ele>
        <time>2021-11-27T13:01:51Z</time>
      </trkpt>
      <trkpt lat="45.04553" lon="-0.39695">
        <ele>40.4</ele>
        <time>2021-11-27T13:01:52Z</time>
      </trkpt>
      <trkpt lat="45.04554" lon="-0.39696">
        <ele>40.4</ele>
        <time>2021-11-27T13:01:54Z</time>
      </trkpt>
      <trkpt lat="45.04557" lon="-0.39697">
        <ele>40.5</ele>
        <time>2021-11-27T13:01:55Z</time>
      </trkpt>
      <trkpt lat="45.04558" lon="-0.39698">
        <ele>40.5</ele>
        <time>2021-11-27T13:01:57Z</time>
      </trkpt>
      <trkpt lat="45.0456" lon="-0.39699">
        <ele>40.5</ele>
        <time>2021-11-27T13:01:58Z</time>
      </trkpt>
      <trkpt lat="45.04561" lon="-0.39701">
        <ele>40.5</ele>
        <time>2021-11-27T13:02:00Z</time>
      </trkpt>
      <trkpt lat="45.04563" lon="-0.39705">
        <ele>40.5</ele>
        <time>2021-11-27T13:02:02Z</time>
      </trkpt>
      <trkpt lat="45.04563" lon="-0.39706">
        <ele>40.5</ele>
        <time>2021-11-27T13:02:03Z</time>
      </trkpt>
      <trkpt lat="45.04564" lon="-0.39708">
        <ele>40.6</ele>
        <time>2021-11-27T13:02:04Z</time>
      </trkpt>
      <trkpt lat="45.04564" lon="-0.3971">
        <ele>40.6</ele>
        <time>2021-11-27T13:02:05Z</time>
      </trkpt>
      <trkpt lat="45.04564" lon="-0.39712">
        <ele>40.6</ele>
        <time>2021-11-27T13:02:07Z</time>
      </trkpt>
      <trkpt lat="45.04565" lon="-0.39714">
        <ele>40.6</ele>
        <time>2021-11-27T13:02:08Z</time>
      </trkpt>
      <trkpt lat="45.04565" lon="-0.39717">
        <ele>40.6</ele>
        <time>2021-11-27T13:02:09Z</time>
      </trkpt>
      <trkpt lat="45.04565" lon="-0.39718">
        <ele>40.6</ele>
        <time>2021-11-27T13:02:10Z</time>
      </trkpt>
      <trkpt lat="45.04566" lon="-0.39722">
        <ele>40.6</ele>
        <time>2021-11-27T13:02:12Z</time>
      </trkpt>
      <trkpt lat="45.04567" lon="-0.39724">
        <ele>40.6</ele>
        <time>2021-11-27T13:02:14Z</time>
      </trkpt>
      <trkpt lat="45.04568" lon="-0.39726">
        <ele>40.7</ele>
        <time>2021-11-27T13:02:15Z</time>
      </trkpt>
      <trkpt lat="45.04568" lon="-0.39728">
        <ele>40.7</ele>
        <time>2021-11-27T13:02:16Z</time>
      </trkpt>
      <trkpt lat="45.0457" lon="-0.39732">
        <ele>40.7</ele>
        <time>2021-11-27T13:02:18Z</time>
      </trkpt>
      <trkpt lat="45.0457" lon="-0.39733">
        <ele>40.7</ele>
        <time>2021-11-27T13:02:19Z</time>
      </trkpt>
      <trkpt lat="45.04572" lon="-0.39736">
        <ele>40.7</ele>
        <time>2021-11-27T13:02:21Z</time>
      </trkpt>
      <trkpt lat="45.04572" lon="-0.39738">
        <ele>40.8</ele>
        <time>2021-11-27T13:02:22Z</time>
      </trkpt>
      <trkpt lat="45.04573" lon="-0.3974">
        <ele>40.8</ele>
        <time>2021-11-27T13:02:24Z</time>
      </trkpt>
      <trkpt lat="45.04573" lon="-0.39742">
        <ele>40.8</ele>
        <time>2021-11-27T13:02:25Z</time>
      </trkpt>
      <trkpt lat="45.04573" lon="-0.39744">
        <ele>40.8</ele>
        <time>2021-11-27T13:02:26Z</time>
      </trkpt>
      <trkpt lat="45.04574" lon="-0.39747">
        <ele>40.9</ele>
        <time>2021-11-27T13:02:28Z</time>
      </trkpt>
      <trkpt lat="45.04574" lon="-0.39749">
        <ele>40.9</ele>
        <time>2021-11-27T13:02:29Z</time>
      </trkpt>
      <trkpt lat="45.04575" lon="-0.3975">
        <ele>40.9</ele>
        <time>2021-11-27T13:02:30Z</time>
      </trkpt>
      <trkpt lat="45.04576" lon="-0.39755">
        <ele>41</ele>
        <time>2021-11-27T13:02:32Z</time>
      </trkpt>
      <trkpt lat="45.04576" lon="-0.39756">
        <ele>41</ele>
        <time>2021-11-27T13:02:33Z</time>
      </trkpt>
      <trkpt lat="45.04576" lon="-0.39758">
        <ele>41</ele>
        <time>2021-11-27T13:02:34Z</time>
      </trkpt>
      <trkpt lat="45.04577" lon="-0.39761">
        <ele>41</ele>
        <time>2021-11-27T13:02:36Z</time>
      </trkpt>
      <trkpt lat="45.04577" lon="-0.39763">
        <ele>41.1</ele>
        <time>2021-11-27T13:02:37Z</time>
      </trkpt>
      <trkpt lat="45.04577" lon="-0.39766">
        <ele>41.1</ele>
        <time>2021-11-27T13:02:38Z</time>
      </trkpt>
      <trkpt lat="45.04577" lon="-0.3977">
        <ele>41.2</ele>
        <time>2021-11-27T13:02:40Z</time>
      </trkpt>
      <trkpt lat="45.04578" lon="-0.39771">
        <ele>41.2</ele>
        <time>2021-11-27T13:02:41Z</time>
      </trkpt>
      <trkpt lat="45.04578" lon="-0.39775">
        <ele>41.2</ele>
        <time>2021-11-27T13:02:43Z</time>
      </trkpt>
      <trkpt lat="45.04579" lon="-0.39777">
        <ele>41.2</ele>
        <time>2021-11-27T13:02:44Z</time>
      </trkpt>
      <trkpt lat="45.0458" lon="-0.39779">
        <ele>41.3</ele>
        <time>2021-11-27T13:02:45Z</time>
      </trkpt>
      <trkpt lat="45.04581" lon="-0.39783">
        <ele>41.3</ele>
        <time>2021-11-27T13:02:47Z</time>
      </trkpt>
      <trkpt lat="45.04581" lon="-0.39784">
        <ele>41.4</ele>
        <time>2021-11-27T13:02:48Z</time>
      </trkpt>
      <trkpt lat="45.04582" lon="-0.39787">
        <ele>41.4</ele>
        <time>2021-11-27T13:02:49Z</time>
      </trkpt>
      <trkpt lat="45.04582" lon="-0.39788">
        <ele>41.4</ele>
        <time>2021-11-27T13:02:51Z</time>
      </trkpt>
      <trkpt lat="45.04582" lon="-0.39789">
        <ele>41.5</ele>
        <time>2021-11-27T13:02:52Z</time>
      </trkpt>
      <trkpt lat="45.04583" lon="-0.39792">
        <ele>41.5</ele>
        <time>2021-11-27T13:02:53Z</time>
      </trkpt>
      <trkpt lat="45.04583" lon="-0.39793">
        <ele>41.5</ele>
        <time>2021-11-27T13:02:54Z</time>
      </trkpt>
      <trkpt lat="45.04583" lon="-0.39795">
        <ele>41.5</ele>
        <time>2021-11-27T13:02:55Z</time>
      </trkpt>
      <trkpt lat="45.04583" lon="-0.39797">
        <ele>41.6</ele>
        <time>2021-11-27T13:02:57Z</time>
      </trkpt>
      <trkpt lat="45.04584" lon="-0.39799">
        <ele>41.6</ele>
        <time>2021-11-27T13:02:58Z</time>
      </trkpt>
      <trkpt lat="45.04584" lon="-0.398">
        <ele>41.6</ele>
        <time>2021-11-27T13:02:59Z</time>
      </trkpt>
      <trkpt lat="45.04586" lon="-0.39802">
        <ele>41.7</ele>
        <time>2021-11-27T13:03:01Z</time>
      </trkpt>
      <trkpt lat="45.04587" lon="-0.39805">
        <ele>41.7</ele>
        <time>2021-11-27T13:03:02Z</time>
      </trkpt>
      <trkpt lat="45.04587" lon="-0.39805">
        <ele>41.7</ele>
        <time>2021-11-27T13:03:03Z</time>
      </trkpt>
      <trkpt lat="45.04588" lon="-0.39807">
        <ele>41.8</ele>
        <time>2021-11-27T13:03:04Z</time>
      </trkpt>
      <trkpt lat="45.04588" lon="-0.39809">
        <ele>41.8</ele>
        <time>2021-11-27T13:03:05Z</time>
      </trkpt>
      <trkpt lat="45.0459" lon="-0.39813">
        <ele>41.8</ele>
        <time>2021-11-27T13:03:07Z</time>
      </trkpt>
      <trkpt lat="45.04591" lon="-0.39815">
        <ele>41.8</ele>
        <time>2021-11-27T13:03:08Z</time>
      </trkpt>
      <trkpt lat="45.04591" lon="-0.39815">
        <ele>41.8</ele>
        <time>2021-11-27T13:03:09Z</time>
      </trkpt>
      <trkpt lat="45.04591" lon="-0.39817">
        <ele>41.9</ele>
        <time>2021-11-27T13:03:10Z</time>
      </trkpt>
      <trkpt lat="45.04591" lon="-0.39819">
        <ele>41.9</ele>
        <time>2021-11-27T13:03:12Z</time>
      </trkpt>
      <trkpt lat="45.04592" lon="-0.39822">
        <ele>41.9</ele>
        <time>2021-11-27T13:03:13Z</time>
      </trkpt>
      <trkpt lat="45.04593" lon="-0.39823">
        <ele>41.9</ele>
        <time>2021-11-27T13:03:14Z</time>
      </trkpt>
      <trkpt lat="45.04594" lon="-0.39825">
        <ele>41.9</ele>
        <time>2021-11-27T13:03:15Z</time>
      </trkpt>
      <trkpt lat="45.04594" lon="-0.39826">
        <ele>41.9</ele>
        <time>2021-11-27T13:03:16Z</time>
      </trkpt>
      <trkpt lat="45.04595" lon="-0.39828">
        <ele>41.9</ele>
        <time>2021-11-27T13:03:17Z</time>
      </trkpt>
      <trkpt lat="45.04595" lon="-0.39828">
        <ele>41.9</ele>
        <time>2021-11-27T13:03:18Z</time>
      </trkpt>
      <trkpt lat="45.04595" lon="-0.3983">
        <ele>41.9</ele>
        <time>2021-11-27T13:03:20Z</time>
      </trkpt>
      <trkpt lat="45.04596" lon="-0.39832">
        <ele>42</ele>
        <time>2021-11-27T13:03:21Z</time>
      </trkpt>
      <trkpt lat="45.04597" lon="-0.39835">
        <ele>42</ele>
        <time>2021-11-27T13:03:22Z</time>
      </trkpt>
      <trkpt lat="45.04597" lon="-0.39836">
        <ele>42</ele>
        <time>2021-11-27T13:03:24Z</time>
      </trkpt>
      <trkpt lat="45.04598" lon="-0.39837">
        <ele>42</ele>
        <time>2021-11-27T13:03:25Z</time>
      </trkpt>
      <trkpt lat="45.04598" lon="-0.39839">
        <ele>42</ele>
        <time>2021-11-27T13:03:26Z</time>
      </trkpt>
      <trkpt lat="45.046" lon="-0.39841">
        <ele>42</ele>
        <time>2021-11-27T13:03:28Z</time>
      </trkpt>
      <trkpt lat="45.046" lon="-0.39843">
        <ele>42</ele>
        <time>2021-11-27T13:03:29Z</time>
      </trkpt>
      <trkpt lat="45.04601" lon="-0.39844">
        <ele>42</ele>
        <time>2021-11-27T13:03:30Z</time>
      </trkpt>
      <trkpt lat="45.04602" lon="-0.39846">
        <ele>42</ele>
        <time>2021-11-27T13:03:32Z</time>
      </trkpt>
      <trkpt lat="45.04603" lon="-0.39848">
        <ele>42.1</ele>
        <time>2021-11-27T13:03:33Z</time>
      </trkpt>
      <trkpt lat="45.04604" lon="-0.39851">
        <ele>42.1</ele>
        <time>2021-11-27T13:03:35Z</time>
      </trkpt>
      <trkpt lat="45.04604" lon="-0.39852">
        <ele>42.1</ele>
        <time>2021-11-27T13:03:36Z</time>
      </trkpt>
      <trkpt lat="45.04605" lon="-0.39855">
        <ele>42.1</ele>
        <time>2021-11-27T13:03:38Z</time>
      </trkpt>
      <trkpt lat="45.04605" lon="-0.39857">
        <ele>42.1</ele>
        <time>2021-11-27T13:03:39Z</time>
      </trkpt>
      <trkpt lat="45.04606" lon="-0.39858">
        <ele>42.1</ele>
        <time>2021-11-27T13:03:40Z</time>
      </trkpt>
      <trkpt lat="45.04607" lon="-0.39859">
        <ele>42.1</ele>
        <time>2021-11-27T13:03:41Z</time>
      </trkpt>
      <trkpt lat="45.04608" lon="-0.39862">
        <ele>42.1</ele>
        <time>2021-11-27T13:03:43Z</time>
      </trkpt>
      <trkpt lat="45.04608" lon="-0.39864">
        <ele>42.1</ele>
        <time>2021-11-27T13:03:44Z</time>
      </trkpt>
      <trkpt lat="45.04608" lon="-0.39866">
        <ele>42.1</ele>
        <time>2021-11-27T13:03:45Z</time>
      </trkpt>
      <trkpt lat="45.04608" lon="-0.39868">
        <ele>42.2</ele>
        <time>2021-11-27T13:03:46Z</time>
      </trkpt>
      <trkpt lat="45.04609" lon="-0.39871">
        <ele>42.2</ele>
        <time>2021-11-27T13:03:48Z</time>
      </trkpt>
      <trkpt lat="45.04609" lon="-0.39873">
        <ele>42.2</ele>
        <time>2021-11-27T13:03:50Z</time>
      </trkpt>
      <trkpt lat="45.04609" lon="-0.39876">
        <ele>42.2</ele>
        <time>2021-11-27T13:03:51Z</time>
      </trkpt>
      <trkpt lat="45.04609" lon="-0.39879">
        <ele>42.2</ele>
        <time>2021-11-27T13:03:53Z</time>
      </trkpt>
      <trkpt lat="45.04609" lon="-0.39881">
        <ele>42.2</ele>
        <time>2021-11-27T13:03:54Z</time>
      </trkpt>
      <trkpt lat="45.04609" lon="-0.39882">
        <ele>42.2</ele>
        <time>2021-11-27T13:03:55Z</time>
      </trkpt>
      <trkpt lat="45.04609" lon="-0.39884">
        <ele>42.2</ele>
        <time>2021-11-27T13:03:56Z</time>
      </trkpt>
      <trkpt lat="45.04609" lon="-0.39889">
        <ele>42.3</ele>
        <time>2021-11-27T13:03:58Z</time>
      </trkpt>
      <trkpt lat="45.04609" lon="-0.3989">
        <ele>42.3</ele>
        <time>2021-11-27T13:04:00Z</time>
      </trkpt>
      <trkpt lat="45.04609" lon="-0.39894">
        <ele>42.3</ele>
        <time>2021-11-27T13:04:01Z</time>
      </trkpt>
      <trkpt lat="45.04608" lon="-0.39898">
        <ele>42.3</ele>
        <time>2021-11-27T13:04:02Z</time>
      </trkpt>
      <trkpt lat="45.04608" lon="-0.39899">
        <ele>42.3</ele>
        <time>2021-11-27T13:04:03Z</time>
      </trkpt>
      <trkpt lat="45.04608" lon="-0.39901">
        <ele>42.4</ele>
        <time>2021-11-27T13:04:05Z</time>
      </trkpt>
      <trkpt lat="45.04607" lon="-0.39904">
        <ele>42.4</ele>
        <time>2021-11-27T13:04:06Z</time>
      </trkpt>
      <trkpt lat="45.04607" lon="-0.39906">
        <ele>42.4</ele>
        <time>2021-11-27T13:04:07Z</time>
      </trkpt>
      <trkpt lat="45.04607" lon="-0.39909">
        <ele>42.5</ele>
        <time>2021-11-27T13:04:09Z</time>
      </trkpt>
      <trkpt lat="45.04606" lon="-0.39911">
        <ele>42.5</ele>
        <time>2021-11-27T13:04:10Z</time>
      </trkpt>
      <trkpt lat="45.04606" lon="-0.39914">
        <ele>42.5</ele>
        <time>2021-11-27T13:04:12Z</time>
      </trkpt>
      <trkpt lat="45.04605" lon="-0.39917">
        <ele>42.6</ele>
        <time>2021-11-27T13:04:13Z</time>
      </trkpt>
      <trkpt lat="45.04605" lon="-0.39918">
        <ele>42.6</ele>
        <time>2021-11-27T13:04:14Z</time>
      </trkpt>
      <trkpt lat="45.04604" lon="-0.39922">
        <ele>42.6</ele>
        <time>2021-11-27T13:04:16Z</time>
      </trkpt>
      <trkpt lat="45.04603" lon="-0.39923">
        <ele>42.7</ele>
        <time>2021-11-27T13:04:17Z</time>
      </trkpt>
      <trkpt lat="45.04603" lon="-0.39925">
        <ele>42.7</ele>
        <time>2021-11-27T13:04:18Z</time>
      </trkpt>
      <trkpt lat="45.04602" lon="-0.39928">
        <ele>42.7</ele>
        <time>2021-11-27T13:04:20Z</time>
      </trkpt>
      <trkpt lat="45.04601" lon="-0.3993">
        <ele>42.8</ele>
        <time>2021-11-27T13:04:21Z</time>
      </trkpt>
      <trkpt lat="45.046" lon="-0.39932">
        <ele>42.8</ele>
        <time>2021-11-27T13:04:22Z</time>
      </trkpt>
      <trkpt lat="45.046" lon="-0.39937">
        <ele>42.9</ele>
        <time>2021-11-27T13:04:24Z</time>
      </trkpt>
      <trkpt lat="45.046" lon="-0.39938">
        <ele>42.9</ele>
        <time>2021-11-27T13:04:25Z</time>
      </trkpt>
      <trkpt lat="45.04599" lon="-0.39943">
        <ele>43</ele>
        <time>2021-11-27T13:04:27Z</time>
      </trkpt>
      <trkpt lat="45.046" lon="-0.39944">
        <ele>43</ele>
        <time>2021-11-27T13:04:28Z</time>
      </trkpt>
      <trkpt lat="45.04599" lon="-0.39948">
        <ele>43.1</ele>
        <time>2021-11-27T13:04:30Z</time>
      </trkpt>
      <trkpt lat="45.04599" lon="-0.3995">
        <ele>43.2</ele>
        <time>2021-11-27T13:04:31Z</time>
      </trkpt>
      <trkpt lat="45.04599" lon="-0.39952">
        <ele>43.2</ele>
        <time>2021-11-27T13:04:32Z</time>
      </trkpt>
      <trkpt lat="45.04599" lon="-0.39954">
        <ele>43.3</ele>
        <time>2021-11-27T13:04:34Z</time>
      </trkpt>
      <trkpt lat="45.04599" lon="-0.39956">
        <ele>43.3</ele>
        <time>2021-11-27T13:04:35Z</time>
      </trkpt>
      <trkpt lat="45.04599" lon="-0.39958">
        <ele>43.4</ele>
        <time>2021-11-27T13:04:36Z</time>
      </trkpt>
      <trkpt lat="45.04598" lon="-0.3996">
        <ele>43.4</ele>
        <time>2021-11-27T13:04:38Z</time>
      </trkpt>
      <trkpt lat="45.04598" lon="-0.39962">
        <ele>43.5</ele>
        <time>2021-11-27T13:04:39Z</time>
      </trkpt>
      <trkpt lat="45.04598" lon="-0.39964">
        <ele>43.5</ele>
        <time>2021-11-27T13:04:40Z</time>
      </trkpt>
      <trkpt lat="45.04597" lon="-0.39966">
        <ele>43.6</ele>
        <time>2021-11-27T13:04:42Z</time>
      </trkpt>
      <trkpt lat="45.04597" lon="-0.39969">
        <ele>43.7</ele>
        <time>2021-11-27T13:04:43Z</time>
      </trkpt>
      <trkpt lat="45.04597" lon="-0.3997">
        <ele>43.7</ele>
        <time>2021-11-27T13:04:44Z</time>
      </trkpt>
      <trkpt lat="45.04597" lon="-0.39974">
        <ele>43.8</ele>
        <time>2021-11-27T13:04:46Z</time>
      </trkpt>
      <trkpt lat="45.04597" lon="-0.39975">
        <ele>43.8</ele>
        <time>2021-11-27T13:04:47Z</time>
      </trkpt>
      <trkpt lat="45.04597" lon="-0.39978">
        <ele>43.8</ele>
        <time>2021-11-27T13:04:48Z</time>
      </trkpt>
      <trkpt lat="45.04597" lon="-0.39981">
        <ele>43.9</ele>
        <time>2021-11-27T13:04:50Z</time>
      </trkpt>
      <trkpt lat="45.04597" lon="-0.39983">
        <ele>43.9</ele>
        <time>2021-11-27T13:04:51Z</time>
      </trkpt>
      <trkpt lat="45.04597" lon="-0.39985">
        <ele>44</ele>
        <time>2021-11-27T13:04:52Z</time>
      </trkpt>
      <trkpt lat="45.04596" lon="-0.39989">
        <ele>44.1</ele>
        <time>2021-11-27T13:04:54Z</time>
      </trkpt>
      <trkpt lat="45.04596" lon="-0.3999">
        <ele>44.1</ele>
        <time>2021-11-27T13:04:55Z</time>
      </trkpt>
      <trkpt lat="45.04596" lon="-0.39992">
        <ele>44.1</ele>
        <time>2021-11-27T13:04:56Z</time>
      </trkpt>
      <trkpt lat="45.04596" lon="-0.39995">
        <ele>44.2</ele>
        <time>2021-11-27T13:04:58Z</time>
      </trkpt>
      <trkpt lat="45.04595" lon="-0.39999">
        <ele>44.2</ele>
        <time>2021-11-27T13:04:59Z</time>
      </trkpt>
      <trkpt lat="45.04595" lon="-0.4">
        <ele>44.3</ele>
        <time>2021-11-27T13:05:01Z</time>
      </trkpt>
      <trkpt lat="45.04595" lon="-0.40003">
        <ele>44.3</ele>
        <time>2021-11-27T13:05:02Z</time>
      </trkpt>
      <trkpt lat="45.04594" lon="-0.40005">
        <ele>44.4</ele>
        <time>2021-11-27T13:05:03Z</time>
      </trkpt>
      <trkpt lat="45.04594" lon="-0.40008">
        <ele>44.4</ele>
        <time>2021-11-27T13:05:05Z</time>
      </trkpt>
      <trkpt lat="45.04593" lon="-0.4001">
        <ele>44.4</ele>
        <time>2021-11-27T13:05:06Z</time>
      </trkpt>
      <trkpt lat="45.04593" lon="-0.40012">
        <ele>44.5</ele>
        <time>2021-11-27T13:05:07Z</time>
      </trkpt>
      <trkpt lat="45.04592" lon="-0.40015">
        <ele>44.5</ele>
        <time>2021-11-27T13:05:09Z</time>
      </trkpt>
      <trkpt lat="45.04591" lon="-0.40018">
        <ele>44.6</ele>
        <time>2021-11-27T13:05:11Z</time>
      </trkpt>
      <trkpt lat="45.04591" lon="-0.4002">
        <ele>44.6</ele>
        <time>2021-11-27T13:05:12Z</time>
      </trkpt>
      <trkpt lat="45.0459" lon="-0.40022">
        <ele>44.7</ele>
        <time>2021-11-27T13:05:13Z</time>
      </trkpt>
      <trkpt lat="45.04589" lon="-0.40027">
        <ele>44.8</ele>
        <time>2021-11-27T13:05:15Z</time>
      </trkpt>
      <trkpt lat="45.04589" lon="-0.40029">
        <ele>44.8</ele>
        <time>2021-11-27T13:05:16Z</time>
      </trkpt>
      <trkpt lat="45.04588" lon="-0.40031">
        <ele>44.8</ele>
        <time>2021-11-27T13:05:17Z</time>
      </trkpt>
      <trkpt lat="45.04588" lon="-0.40033">
        <ele>44.9</ele>
        <time>2021-11-27T13:05:19Z</time>
      </trkpt>
      <trkpt lat="45.04587" lon="-0.40037">
        <ele>44.9</ele>
        <time>2021-11-27T13:05:20Z</time>
      </trkpt>
      <trkpt lat="45.04587" lon="-0.40038">
        <ele>45</ele>
        <time>2021-11-27T13:05:21Z</time>
      </trkpt>
      <trkpt lat="45.04587" lon="-0.4004">
        <ele>45</ele>
        <time>2021-11-27T13:05:22Z</time>
      </trkpt>
      <trkpt lat="45.04587" lon="-0.40043">
        <ele>45.1</ele>
        <time>2021-11-27T13:05:24Z</time>
      </trkpt>
      <trkpt lat="45.04586" lon="-0.40045">
        <ele>45.1</ele>
        <time>2021-11-27T13:05:25Z</time>
      </trkpt>
      <trkpt lat="45.04586" lon="-0.40048">
        <ele>45.1</ele>
        <time>2021-11-27T13:05:27Z</time>
      </trkpt>
      <trkpt lat="45.04585" lon="-0.40051">
        <ele>45.2</ele>
        <time>2021-11-27T13:05:28Z</time>
      </trkpt>
      <trkpt lat="45.04585" lon="-0.40052">
        <ele>45.2</ele>
        <time>2021-11-27T13:05:29Z</time>
      </trkpt>
      <trkpt lat="45.04584" lon="-0.40057">
        <ele>45.3</ele>
        <time>2021-11-27T13:05:31Z</time>
      </trkpt>
      <trkpt lat="45.04584" lon="-0.40058">
        <ele>45.3</ele>
        <time>2021-11-27T13:05:32Z</time>
      </trkpt>
      <trkpt lat="45.04583" lon="-0.4006">
        <ele>45.3</ele>
        <time>2021-11-27T13:05:33Z</time>
      </trkpt>
      <trkpt lat="45.04583" lon="-0.40063">
        <ele>45.4</ele>
        <time>2021-11-27T13:05:34Z</time>
      </trkpt>
      <trkpt lat="45.04583" lon="-0.40067">
        <ele>45.4</ele>
        <time>2021-11-27T13:05:36Z</time>
      </trkpt>
      <trkpt lat="45.04583" lon="-0.40068">
        <ele>45.4</ele>
        <time>2021-11-27T13:05:37Z</time>
      </trkpt>
      <trkpt lat="45.04582" lon="-0.40071">
        <ele>45.5</ele>
        <time>2021-11-27T13:05:39Z</time>
      </trkpt>
      <trkpt lat="45.04581" lon="-0.40074">
        <ele>45.5</ele>
        <time>2021-11-27T13:05:41Z</time>
      </trkpt>
      <trkpt lat="45.0458" lon="-0.40077">
        <ele>45.5</ele>
        <time>2021-11-27T13:05:42Z</time>
      </trkpt>
      <trkpt lat="45.0458" lon="-0.40079">
        <ele>45.5</ele>
        <time>2021-11-27T13:05:44Z</time>
      </trkpt>
      <trkpt lat="45.0458" lon="-0.4008">
        <ele>45.6</ele>
        <time>2021-11-27T13:05:45Z</time>
      </trkpt>
      <trkpt lat="45.04579" lon="-0.40084">
        <ele>45.6</ele>
        <time>2021-11-27T13:05:46Z</time>
      </trkpt>
      <trkpt lat="45.04579" lon="-0.40085">
        <ele>45.6</ele>
        <time>2021-11-27T13:05:48Z</time>
      </trkpt>
      <trkpt lat="45.04579" lon="-0.40087">
        <ele>45.6</ele>
        <time>2021-11-27T13:05:49Z</time>
      </trkpt>
      <trkpt lat="45.04579" lon="-0.40091">
        <ele>45.7</ele>
        <time>2021-11-27T13:05:51Z</time>
      </trkpt>
      <trkpt lat="45.04578" lon="-0.40092">
        <ele>45.7</ele>
        <time>2021-11-27T13:05:52Z</time>
      </trkpt>
      <trkpt lat="45.04578" lon="-0.40094">
        <ele>45.7</ele>
        <time>2021-11-27T13:05:54Z</time>
      </trkpt>
      <trkpt lat="45.04578" lon="-0.40097">
        <ele>45.7</ele>
        <time>2021-11-27T13:05:55Z</time>
      </trkpt>
      <trkpt lat="45.04577" lon="-0.40101">
        <ele>45.8</ele>
        <time>2021-11-27T13:05:57Z</time>
      </trkpt>
      <trkpt lat="45.04577" lon="-0.40103">
        <ele>45.8</ele>
        <time>2021-11-27T13:05:58Z</time>
      </trkpt>
      <trkpt lat="45.04577" lon="-0.40105">
        <ele>45.8</ele>
        <time>2021-11-27T13:05:59Z</time>
      </trkpt>
      <trkpt lat="45.04577" lon="-0.40107">
        <ele>45.8</ele>
        <time>2021-11-27T13:06:00Z</time>
      </trkpt>
      <trkpt lat="45.04577" lon="-0.40111">
        <ele>45.9</ele>
        <time>2021-11-27T13:06:02Z</time>
      </trkpt>
      <trkpt lat="45.04577" lon="-0.40112">
        <ele>45.9</ele>
        <time>2021-11-27T13:06:03Z</time>
      </trkpt>
      <trkpt lat="45.04577" lon="-0.40114">
        <ele>45.9</ele>
        <time>2021-11-27T13:06:04Z</time>
      </trkpt>
      <trkpt lat="45.04577" lon="-0.40118">
        <ele>46</ele>
        <time>2021-11-27T13:06:06Z</time>
      </trkpt>
      <trkpt lat="45.04578" lon="-0.4012">
        <ele>46</ele>
        <time>2021-11-27T13:06:07Z</time>
      </trkpt>
      <trkpt lat="45.04578" lon="-0.40124">
        <ele>46.1</ele>
        <time>2021-11-27T13:06:09Z</time>
      </trkpt>
      <trkpt lat="45.04578" lon="-0.40126">
        <ele>46.1</ele>
        <time>2021-11-27T13:06:10Z</time>
      </trkpt>
      <trkpt lat="45.04579" lon="-0.40129">
        <ele>46.2</ele>
        <time>2021-11-27T13:06:11Z</time>
      </trkpt>
      <trkpt lat="45.04579" lon="-0.40131">
        <ele>46.2</ele>
        <time>2021-11-27T13:06:12Z</time>
      </trkpt>
      <trkpt lat="45.04579" lon="-0.40135">
        <ele>46.3</ele>
        <time>2021-11-27T13:06:14Z</time>
      </trkpt>
      <trkpt lat="45.04579" lon="-0.40137">
        <ele>46.3</ele>
        <time>2021-11-27T13:06:15Z</time>
      </trkpt>
      <trkpt lat="45.04578" lon="-0.40139">
        <ele>46.3</ele>
        <time>2021-11-27T13:06:17Z</time>
      </trkpt>
      <trkpt lat="45.04578" lon="-0.40141">
        <ele>46.4</ele>
        <time>2021-11-27T13:06:18Z</time>
      </trkpt>
      <trkpt lat="45.04577" lon="-0.40143">
        <ele>46.4</ele>
        <time>2021-11-27T13:06:19Z</time>
      </trkpt>
      <trkpt lat="45.04577" lon="-0.40147">
        <ele>46.5</ele>
        <time>2021-11-27T13:06:21Z</time>
      </trkpt>
      <trkpt lat="45.04577" lon="-0.40148">
        <ele>46.5</ele>
        <time>2021-11-27T13:06:22Z</time>
      </trkpt>
      <trkpt lat="45.04578" lon="-0.40153">
        <ele>46.6</ele>
        <time>2021-11-27T13:06:24Z</time>
      </trkpt>
      <trkpt lat="45.04578" lon="-0.40154">
        <ele>46.6</ele>
        <time>2021-11-27T13:06:25Z</time>
      </trkpt>
      <trkpt lat="45.04577" lon="-0.40156">
        <ele>46.6</ele>
        <time>2021-11-27T13:06:26Z</time>
      </trkpt>
      <trkpt lat="45.04577" lon="-0.40159">
        <ele>46.7</ele>
        <time>2021-11-27T13:06:28Z</time>
      </trkpt>
      <trkpt lat="45.04576" lon="-0.40161">
        <ele>46.7</ele>
        <time>2021-11-27T13:06:29Z</time>
      </trkpt>
      <trkpt lat="45.04575" lon="-0.40162">
        <ele>46.7</ele>
        <time>2021-11-27T13:06:30Z</time>
      </trkpt>
      <trkpt lat="45.04571" lon="-0.40166">
        <ele>46.7</ele>
        <time>2021-11-27T13:06:32Z</time>
      </trkpt>
      <trkpt lat="45.0457" lon="-0.40167">
        <ele>46.7</ele>
        <time>2021-11-27T13:06:34Z</time>
      </trkpt>
      <trkpt lat="45.04569" lon="-0.40168">
        <ele>46.7</ele>
        <time>2021-11-27T13:06:35Z</time>
      </trkpt>
      <trkpt lat="45.04568" lon="-0.40169">
        <ele>46.7</ele>
        <time>2021-11-27T13:06:36Z</time>
      </trkpt>
      <trkpt lat="45.04565" lon="-0.40169">
        <ele>46.8</ele>
        <time>2021-11-27T13:06:38Z</time>
      </trkpt>
      <trkpt lat="45.04564" lon="-0.4017">
        <ele>46.8</ele>
        <time>2021-11-27T13:06:39Z</time>
      </trkpt>
      <trkpt lat="45.04562" lon="-0.40172">
        <ele>46.8</ele>
        <time>2021-11-27T13:06:40Z</time>
      </trkpt>
      <trkpt lat="45.04559" lon="-0.40173">
        <ele>46.8</ele>
        <time>2021-11-27T13:06:42Z</time>
      </trkpt>
      <trkpt lat="45.04558" lon="-0.40174">
        <ele>46.8</ele>
        <time>2021-11-27T13:06:43Z</time>
      </trkpt>
      <trkpt lat="45.04555" lon="-0.40176">
        <ele>46.8</ele>
        <time>2021-11-27T13:06:45Z</time>
      </trkpt>
      <trkpt lat="45.04554" lon="-0.40176">
        <ele>46.8</ele>
        <time>2021-11-27T13:06:46Z</time>
      </trkpt>
      <trkpt lat="45.04553" lon="-0.40177">
        <ele>46.8</ele>
        <time>2021-11-27T13:06:48Z</time>
      </trkpt>
      <trkpt lat="45.04551" lon="-0.40177">
        <ele>46.8</ele>
        <time>2021-11-27T13:06:49Z</time>
      </trkpt>
      <trkpt lat="45.0455" lon="-0.40177">
        <ele>46.8</ele>
        <time>2021-11-27T13:06:50Z</time>
      </trkpt>
      <trkpt lat="45.04548" lon="-0.40179">
        <ele>46.8</ele>
        <time>2021-11-27T13:06:52Z</time>
      </trkpt>
      <trkpt lat="45.04546" lon="-0.4018">
        <ele>46.8</ele>
        <time>2021-11-27T13:06:53Z</time>
      </trkpt>
      <trkpt lat="45.04544" lon="-0.40181">
        <ele>46.8</ele>
        <time>2021-11-27T13:06:55Z</time>
      </trkpt>
      <trkpt lat="45.04542" lon="-0.40182">
        <ele>46.8</ele>
        <time>2021-11-27T13:06:56Z</time>
      </trkpt>
      <trkpt lat="45.04541" lon="-0.40183">
        <ele>46.8</ele>
        <time>2021-11-27T13:06:58Z</time>
      </trkpt>
      <trkpt lat="45.04539" lon="-0.40185">
        <ele>46.8</ele>
        <time>2021-11-27T13:06:59Z</time>
      </trkpt>
      <trkpt lat="45.04537" lon="-0.40186">
        <ele>46.7</ele>
        <time>2021-11-27T13:07:01Z</time>
      </trkpt>
      <trkpt lat="45.04535" lon="-0.40188">
        <ele>46.7</ele>
        <time>2021-11-27T13:07:02Z</time>
      </trkpt>
      <trkpt lat="45.04534" lon="-0.4019">
        <ele>46.7</ele>
        <time>2021-11-27T13:07:04Z</time>
      </trkpt>
      <trkpt lat="45.04532" lon="-0.40194">
        <ele>46.7</ele>
        <time>2021-11-27T13:07:05Z</time>
      </trkpt>
      <trkpt lat="45.04531" lon="-0.40195">
        <ele>46.7</ele>
        <time>2021-11-27T13:07:07Z</time>
      </trkpt>
      <trkpt lat="45.0453" lon="-0.40196">
        <ele>46.7</ele>
        <time>2021-11-27T13:07:08Z</time>
      </trkpt>
      <trkpt lat="45.04529" lon="-0.40198">
        <ele>46.7</ele>
        <time>2021-11-27T13:07:09Z</time>
      </trkpt>
      <trkpt lat="45.04526" lon="-0.402">
        <ele>46.7</ele>
        <time>2021-11-27T13:07:11Z</time>
      </trkpt>
      <trkpt lat="45.04526" lon="-0.402">
        <ele>46.7</ele>
        <time>2021-11-27T13:07:12Z</time>
      </trkpt>
      <trkpt lat="45.04523" lon="-0.40202">
        <ele>46.7</ele>
        <time>2021-11-27T13:07:14Z</time>
      </trkpt>
      <trkpt lat="45.04521" lon="-0.40203">
        <ele>46.7</ele>
        <time>2021-11-27T13:07:15Z</time>
      </trkpt>
      <trkpt lat="45.0452" lon="-0.40204">
        <ele>46.7</ele>
        <time>2021-11-27T13:07:16Z</time>
      </trkpt>
      <trkpt lat="45.04519" lon="-0.40205">
        <ele>46.7</ele>
        <time>2021-11-27T13:07:18Z</time>
      </trkpt>
      <trkpt lat="45.04518" lon="-0.40206">
        <ele>46.7</ele>
        <time>2021-11-27T13:07:19Z</time>
      </trkpt>
      <trkpt lat="45.04517" lon="-0.40206">
        <ele>46.7</ele>
        <time>2021-11-27T13:07:20Z</time>
      </trkpt>
      <trkpt lat="45.04515" lon="-0.40206">
        <ele>46.7</ele>
        <time>2021-11-27T13:07:21Z</time>
      </trkpt>
      <trkpt lat="45.04513" lon="-0.40206">
        <ele>46.7</ele>
        <time>2021-11-27T13:07:22Z</time>
      </trkpt>
      <trkpt lat="45.0451" lon="-0.40206">
        <ele>46.7</ele>
        <time>2021-11-27T13:07:24Z</time>
      </trkpt>
      <trkpt lat="45.04508" lon="-0.40206">
        <ele>46.7</ele>
        <time>2021-11-27T13:07:26Z</time>
      </trkpt>
      <trkpt lat="45.04507" lon="-0.40206">
        <ele>46.7</ele>
        <time>2021-11-27T13:07:27Z</time>
      </trkpt>
      <trkpt lat="45.04505" lon="-0.40206">
        <ele>46.7</ele>
        <time>2021-11-27T13:07:28Z</time>
      </trkpt>
      <trkpt lat="45.04503" lon="-0.40206">
        <ele>46.7</ele>
        <time>2021-11-27T13:07:30Z</time>
      </trkpt>
      <trkpt lat="45.04502" lon="-0.40207">
        <ele>46.7</ele>
        <time>2021-11-27T13:07:31Z</time>
      </trkpt>
      <trkpt lat="45.04501" lon="-0.40207">
        <ele>46.7</ele>
        <time>2021-11-27T13:07:33Z</time>
      </trkpt>
      <trkpt lat="45.04498" lon="-0.40206">
        <ele>46.7</ele>
        <time>2021-11-27T13:07:34Z</time>
      </trkpt>
      <trkpt lat="45.04496" lon="-0.40207">
        <ele>46.7</ele>
        <time>2021-11-27T13:07:35Z</time>
      </trkpt>
      <trkpt lat="45.04495" lon="-0.40207">
        <ele>46.7</ele>
        <time>2021-11-27T13:07:37Z</time>
      </trkpt>
      <trkpt lat="45.04493" lon="-0.40208">
        <ele>46.6</ele>
        <time>2021-11-27T13:07:38Z</time>
      </trkpt>
      <trkpt lat="45.04491" lon="-0.40209">
        <ele>46.6</ele>
        <time>2021-11-27T13:07:40Z</time>
      </trkpt>
      <trkpt lat="45.04489" lon="-0.40209">
        <ele>46.6</ele>
        <time>2021-11-27T13:07:41Z</time>
      </trkpt>
      <trkpt lat="45.04488" lon="-0.40209">
        <ele>46.6</ele>
        <time>2021-11-27T13:07:42Z</time>
      </trkpt>
      <trkpt lat="45.04486" lon="-0.40209">
        <ele>46.6</ele>
        <time>2021-11-27T13:07:44Z</time>
      </trkpt>
      <trkpt lat="45.04484" lon="-0.4021">
        <ele>46.6</ele>
        <time>2021-11-27T13:07:46Z</time>
      </trkpt>
      <trkpt lat="45.04481" lon="-0.40211">
        <ele>46.5</ele>
        <time>2021-11-27T13:07:47Z</time>
      </trkpt>
      <trkpt lat="45.0448" lon="-0.40212">
        <ele>46.5</ele>
        <time>2021-11-27T13:07:48Z</time>
      </trkpt>
      <trkpt lat="45.04477" lon="-0.40212">
        <ele>46.5</ele>
        <time>2021-11-27T13:07:50Z</time>
      </trkpt>
      <trkpt lat="45.04476" lon="-0.40213">
        <ele>46.5</ele>
        <time>2021-11-27T13:07:51Z</time>
      </trkpt>
      <trkpt lat="45.04475" lon="-0.40213">
        <ele>46.5</ele>
        <time>2021-11-27T13:07:53Z</time>
      </trkpt>
      <trkpt lat="45.04473" lon="-0.40214">
        <ele>46.5</ele>
        <time>2021-11-27T13:07:54Z</time>
      </trkpt>
      <trkpt lat="45.04471" lon="-0.40215">
        <ele>46.4</ele>
        <time>2021-11-27T13:07:55Z</time>
      </trkpt>
      <trkpt lat="45.04469" lon="-0.40218">
        <ele>46.4</ele>
        <time>2021-11-27T13:07:57Z</time>
      </trkpt>
      <trkpt lat="45.04468" lon="-0.40219">
        <ele>46.4</ele>
        <time>2021-11-27T13:07:58Z</time>
      </trkpt>
      <trkpt lat="45.04466" lon="-0.4022">
        <ele>46.4</ele>
        <time>2021-11-27T13:08:00Z</time>
      </trkpt>
      <trkpt lat="45.04464" lon="-0.40221">
        <ele>46.4</ele>
        <time>2021-11-27T13:08:01Z</time>
      </trkpt>
      <trkpt lat="45.04463" lon="-0.40222">
        <ele>46.3</ele>
        <time>2021-11-27T13:08:03Z</time>
      </trkpt>
      <trkpt lat="45.04461" lon="-0.40222">
        <ele>46.3</ele>
        <time>2021-11-27T13:08:04Z</time>
      </trkpt>
      <trkpt lat="45.04459" lon="-0.40223">
        <ele>46.3</ele>
        <time>2021-11-27T13:08:06Z</time>
      </trkpt>
      <trkpt lat="45.04456" lon="-0.40226">
        <ele>46.3</ele>
        <time>2021-11-27T13:08:07Z</time>
      </trkpt>
      <trkpt lat="45.04456" lon="-0.40228">
        <ele>46.3</ele>
        <time>2021-11-27T13:08:08Z</time>
      </trkpt>
      <trkpt lat="45.04454" lon="-0.40229">
        <ele>46.3</ele>
        <time>2021-11-27T13:08:10Z</time>
      </trkpt>
      <trkpt lat="45.04453" lon="-0.40229">
        <ele>46.3</ele>
        <time>2021-11-27T13:08:11Z</time>
      </trkpt>
      <trkpt lat="45.04451" lon="-0.40228">
        <ele>46.3</ele>
        <time>2021-11-27T13:08:13Z</time>
      </trkpt>
      <trkpt lat="45.04449" lon="-0.40228">
        <ele>46.3</ele>
        <time>2021-11-27T13:08:14Z</time>
      </trkpt>
      <trkpt lat="45.04447" lon="-0.40229">
        <ele>46.2</ele>
        <time>2021-11-27T13:08:15Z</time>
      </trkpt>
      <trkpt lat="45.04445" lon="-0.40229">
        <ele>46.2</ele>
        <time>2021-11-27T13:08:17Z</time>
      </trkpt>
      <trkpt lat="45.04444" lon="-0.4023">
        <ele>46.2</ele>
        <time>2021-11-27T13:08:18Z</time>
      </trkpt>
      <trkpt lat="45.04443" lon="-0.40231">
        <ele>46.2</ele>
        <time>2021-11-27T13:08:19Z</time>
      </trkpt>
      <trkpt lat="45.04441" lon="-0.40231">
        <ele>46.2</ele>
        <time>2021-11-27T13:08:20Z</time>
      </trkpt>
      <trkpt lat="45.0444" lon="-0.40232">
        <ele>46.2</ele>
        <time>2021-11-27T13:08:21Z</time>
      </trkpt>
      <trkpt lat="45.04436" lon="-0.40233">
        <ele>46.2</ele>
        <time>2021-11-27T13:08:23Z</time>
      </trkpt>
      <trkpt lat="45.04435" lon="-0.40234">
        <ele>46.2</ele>
        <time>2021-11-27T13:08:24Z</time>
      </trkpt>
      <trkpt lat="45.04433" lon="-0.40235">
        <ele>46.2</ele>
        <time>2021-11-27T13:08:25Z</time>
      </trkpt>
      <trkpt lat="45.04432" lon="-0.40235">
        <ele>46.2</ele>
        <time>2021-11-27T13:08:27Z</time>
      </trkpt>
      <trkpt lat="45.0443" lon="-0.40236">
        <ele>46.2</ele>
        <time>2021-11-27T13:08:28Z</time>
      </trkpt>
      <trkpt lat="45.04429" lon="-0.40237">
        <ele>46.2</ele>
        <time>2021-11-27T13:08:29Z</time>
      </trkpt>
      <trkpt lat="45.04428" lon="-0.40239">
        <ele>46.2</ele>
        <time>2021-11-27T13:08:31Z</time>
      </trkpt>
      <trkpt lat="45.04426" lon="-0.4024">
        <ele>46.2</ele>
        <time>2021-11-27T13:08:32Z</time>
      </trkpt>
      <trkpt lat="45.04425" lon="-0.40241">
        <ele>46.2</ele>
        <time>2021-11-27T13:08:34Z</time>
      </trkpt>
      <trkpt lat="45.04423" lon="-0.40242">
        <ele>46.2</ele>
        <time>2021-11-27T13:08:35Z</time>
      </trkpt>
      <trkpt lat="45.0442" lon="-0.40242">
        <ele>46.2</ele>
        <time>2021-11-27T13:08:36Z</time>
      </trkpt>
      <trkpt lat="45.04419" lon="-0.40243">
        <ele>46.2</ele>
        <time>2021-11-27T13:08:38Z</time>
      </trkpt>
      <trkpt lat="45.04417" lon="-0.40244">
        <ele>46.2</ele>
        <time>2021-11-27T13:08:39Z</time>
      </trkpt>
      <trkpt lat="45.04416" lon="-0.40244">
        <ele>46.2</ele>
        <time>2021-11-27T13:08:40Z</time>
      </trkpt>
      <trkpt lat="45.04413" lon="-0.40245">
        <ele>46.2</ele>
        <time>2021-11-27T13:08:42Z</time>
      </trkpt>
      <trkpt lat="45.04412" lon="-0.40245">
        <ele>46.2</ele>
        <time>2021-11-27T13:08:43Z</time>
      </trkpt>
      <trkpt lat="45.04409" lon="-0.40245">
        <ele>46.2</ele>
        <time>2021-11-27T13:08:45Z</time>
      </trkpt>
      <trkpt lat="45.04408" lon="-0.40244">
        <ele>46.2</ele>
        <time>2021-11-27T13:08:47Z</time>
      </trkpt>
      <trkpt lat="45.04407" lon="-0.40244">
        <ele>46.2</ele>
        <time>2021-11-27T13:08:48Z</time>
      </trkpt>
      <trkpt lat="45.04406" lon="-0.40247">
        <ele>46.2</ele>
        <time>2021-11-27T13:08:49Z</time>
      </trkpt>
      <trkpt lat="45.04406" lon="-0.40249">
        <ele>46.2</ele>
        <time>2021-11-27T13:08:51Z</time>
      </trkpt>
      <trkpt lat="45.04405" lon="-0.40251">
        <ele>46.3</ele>
        <time>2021-11-27T13:08:52Z</time>
      </trkpt>
      <trkpt lat="45.04404" lon="-0.40252">
        <ele>46.3</ele>
        <time>2021-11-27T13:08:53Z</time>
      </trkpt>
      <trkpt lat="45.04403" lon="-0.40254">
        <ele>46.3</ele>
        <time>2021-11-27T13:08:54Z</time>
      </trkpt>
      <trkpt lat="45.04402" lon="-0.40258">
        <ele>46.4</ele>
        <time>2021-11-27T13:08:56Z</time>
      </trkpt>
      <trkpt lat="45.04402" lon="-0.40259">
        <ele>46.4</ele>
        <time>2021-11-27T13:08:57Z</time>
      </trkpt>
      <trkpt lat="45.04402" lon="-0.40265">
        <ele>46.4</ele>
        <time>2021-11-27T13:08:59Z</time>
      </trkpt>
      <trkpt lat="45.04402" lon="-0.40267">
        <ele>46.5</ele>
        <time>2021-11-27T13:09:01Z</time>
      </trkpt>
      <trkpt lat="45.04402" lon="-0.40269">
        <ele>46.5</ele>
        <time>2021-11-27T13:09:02Z</time>
      </trkpt>
      <trkpt lat="45.04402" lon="-0.40271">
        <ele>46.5</ele>
        <time>2021-11-27T13:09:03Z</time>
      </trkpt>
      <trkpt lat="45.04402" lon="-0.40274">
        <ele>46.5</ele>
        <time>2021-11-27T13:09:05Z</time>
      </trkpt>
      <trkpt lat="45.04402" lon="-0.40276">
        <ele>46.6</ele>
        <time>2021-11-27T13:09:06Z</time>
      </trkpt>
      <trkpt lat="45.04402" lon="-0.40278">
        <ele>46.6</ele>
        <time>2021-11-27T13:09:07Z</time>
      </trkpt>
      <trkpt lat="45.04401" lon="-0.40282">
        <ele>46.7</ele>
        <time>2021-11-27T13:09:09Z</time>
      </trkpt>
      <trkpt lat="45.04401" lon="-0.40284">
        <ele>46.7</ele>
        <time>2021-11-27T13:09:10Z</time>
      </trkpt>
      <trkpt lat="45.04401" lon="-0.40286">
        <ele>46.7</ele>
        <time>2021-11-27T13:09:11Z</time>
      </trkpt>
      <trkpt lat="45.04402" lon="-0.40288">
        <ele>46.7</ele>
        <time>2021-11-27T13:09:13Z</time>
      </trkpt>
      <trkpt lat="45.04402" lon="-0.4029">
        <ele>46.8</ele>
        <time>2021-11-27T13:09:14Z</time>
      </trkpt>
      <trkpt lat="45.04403" lon="-0.40292">
        <ele>46.8</ele>
        <time>2021-11-27T13:09:15Z</time>
      </trkpt>
      <trkpt lat="45.04404" lon="-0.40294">
        <ele>46.8</ele>
        <time>2021-11-27T13:09:17Z</time>
      </trkpt>
      <trkpt lat="45.04404" lon="-0.40297">
        <ele>46.9</ele>
        <time>2021-11-27T13:09:18Z</time>
      </trkpt>
      <trkpt lat="45.04405" lon="-0.403">
        <ele>47</ele>
        <time>2021-11-27T13:09:20Z</time>
      </trkpt>
      <trkpt lat="45.04405" lon="-0.40302">
        <ele>47</ele>
        <time>2021-11-27T13:09:21Z</time>
      </trkpt>
      <trkpt lat="45.04405" lon="-0.40304">
        <ele>47</ele>
        <time>2021-11-27T13:09:22Z</time>
      </trkpt>
      <trkpt lat="45.04406" lon="-0.40307">
        <ele>47.1</ele>
        <time>2021-11-27T13:09:24Z</time>
      </trkpt>
      <trkpt lat="45.04406" lon="-0.40311">
        <ele>47.2</ele>
        <time>2021-11-27T13:09:25Z</time>
      </trkpt>
      <trkpt lat="45.04406" lon="-0.40313">
        <ele>47.2</ele>
        <time>2021-11-27T13:09:26Z</time>
      </trkpt>
      <trkpt lat="45.04406" lon="-0.40318">
        <ele>47.3</ele>
        <time>2021-11-27T13:09:28Z</time>
      </trkpt>
      <trkpt lat="45.04406" lon="-0.4032">
        <ele>47.3</ele>
        <time>2021-11-27T13:09:29Z</time>
      </trkpt>
      <trkpt lat="45.04404" lon="-0.40324">
        <ele>47.4</ele>
        <time>2021-11-27T13:09:31Z</time>
      </trkpt>
      <trkpt lat="45.04404" lon="-0.40327">
        <ele>47.4</ele>
        <time>2021-11-27T13:09:32Z</time>
      </trkpt>
      <trkpt lat="45.04405" lon="-0.4033">
        <ele>47.5</ele>
        <time>2021-11-27T13:09:34Z</time>
      </trkpt>
      <trkpt lat="45.04405" lon="-0.40333">
        <ele>47.5</ele>
        <time>2021-11-27T13:09:35Z</time>
      </trkpt>
      <trkpt lat="45.04406" lon="-0.40334">
        <ele>47.6</ele>
        <time>2021-11-27T13:09:36Z</time>
      </trkpt>
      <trkpt lat="45.04406" lon="-0.40337">
        <ele>47.6</ele>
        <time>2021-11-27T13:09:37Z</time>
      </trkpt>
      <trkpt lat="45.04406" lon="-0.4034">
        <ele>47.6</ele>
        <time>2021-11-27T13:09:39Z</time>
      </trkpt>
      <trkpt lat="45.04407" lon="-0.40343">
        <ele>47.7</ele>
        <time>2021-11-27T13:09:41Z</time>
      </trkpt>
      <trkpt lat="45.04408" lon="-0.40347">
        <ele>47.8</ele>
        <time>2021-11-27T13:09:43Z</time>
      </trkpt>
      <trkpt lat="45.04408" lon="-0.4035">
        <ele>47.8</ele>
        <time>2021-11-27T13:09:44Z</time>
      </trkpt>
      <trkpt lat="45.04409" lon="-0.40351">
        <ele>47.9</ele>
        <time>2021-11-27T13:09:46Z</time>
      </trkpt>
      <trkpt lat="45.04409" lon="-0.40353">
        <ele>47.9</ele>
        <time>2021-11-27T13:09:48Z</time>
      </trkpt>
      <trkpt lat="45.04409" lon="-0.40356">
        <ele>48</ele>
        <time>2021-11-27T13:09:49Z</time>
      </trkpt>
      <trkpt lat="45.0441" lon="-0.40359">
        <ele>48</ele>
        <time>2021-11-27T13:09:50Z</time>
      </trkpt>
      <trkpt lat="45.0441" lon="-0.40361">
        <ele>48.1</ele>
        <time>2021-11-27T13:09:52Z</time>
      </trkpt>
      <trkpt lat="45.0441" lon="-0.40363">
        <ele>48.1</ele>
        <time>2021-11-27T13:09:53Z</time>
      </trkpt>
      <trkpt lat="45.04411" lon="-0.40366">
        <ele>48.2</ele>
        <time>2021-11-27T13:09:54Z</time>
      </trkpt>
      <trkpt lat="45.04411" lon="-0.40367">
        <ele>48.2</ele>
        <time>2021-11-27T13:09:55Z</time>
      </trkpt>
      <trkpt lat="45.04411" lon="-0.4037">
        <ele>48.3</ele>
        <time>2021-11-27T13:09:57Z</time>
      </trkpt>
      <trkpt lat="45.04412" lon="-0.40373">
        <ele>48.3</ele>
        <time>2021-11-27T13:09:58Z</time>
      </trkpt>
      <trkpt lat="45.04413" lon="-0.40375">
        <ele>48.4</ele>
        <time>2021-11-27T13:10:00Z</time>
      </trkpt>
      <trkpt lat="45.04413" lon="-0.40377">
        <ele>48.4</ele>
        <time>2021-11-27T13:10:01Z</time>
      </trkpt>
      <trkpt lat="45.04414" lon="-0.4038">
        <ele>48.4</ele>
        <time>2021-11-27T13:10:02Z</time>
      </trkpt>
      <trkpt lat="45.04414" lon="-0.40382">
        <ele>48.5</ele>
        <time>2021-11-27T13:10:03Z</time>
      </trkpt>
      <trkpt lat="45.04415" lon="-0.40386">
        <ele>48.5</ele>
        <time>2021-11-27T13:10:05Z</time>
      </trkpt>
      <trkpt lat="45.04415" lon="-0.40387">
        <ele>48.6</ele>
        <time>2021-11-27T13:10:06Z</time>
      </trkpt>
      <trkpt lat="45.04416" lon="-0.4039">
        <ele>48.6</ele>
        <time>2021-11-27T13:10:08Z</time>
      </trkpt>
      <trkpt lat="45.04416" lon="-0.40394">
        <ele>48.6</ele>
        <time>2021-11-27T13:10:09Z</time>
      </trkpt>
      <trkpt lat="45.04417" lon="-0.40395">
        <ele>48.7</ele>
        <time>2021-11-27T13:10:10Z</time>
      </trkpt>
      <trkpt lat="45.04417" lon="-0.40397">
        <ele>48.7</ele>
        <time>2021-11-27T13:10:12Z</time>
      </trkpt>
      <trkpt lat="45.04418" lon="-0.404">
        <ele>48.7</ele>
        <time>2021-11-27T13:10:13Z</time>
      </trkpt>
      <trkpt lat="45.04419" lon="-0.40402">
        <ele>48.8</ele>
        <time>2021-11-27T13:10:14Z</time>
      </trkpt>
      <trkpt lat="45.04419" lon="-0.40404">
        <ele>48.8</ele>
        <time>2021-11-27T13:10:16Z</time>
      </trkpt>
      <trkpt lat="45.0442" lon="-0.40406">
        <ele>48.8</ele>
        <time>2021-11-27T13:10:17Z</time>
      </trkpt>
      <trkpt lat="45.04421" lon="-0.40409">
        <ele>48.8</ele>
        <time>2021-11-27T13:10:19Z</time>
      </trkpt>
      <trkpt lat="45.04421" lon="-0.40411">
        <ele>48.9</ele>
        <time>2021-11-27T13:10:21Z</time>
      </trkpt>
      <trkpt lat="45.04421" lon="-0.40413">
        <ele>48.9</ele>
        <time>2021-11-27T13:10:22Z</time>
      </trkpt>
      <trkpt lat="45.04421" lon="-0.40415">
        <ele>48.9</ele>
        <time>2021-11-27T13:10:23Z</time>
      </trkpt>
      <trkpt lat="45.04422" lon="-0.40417">
        <ele>48.9</ele>
        <time>2021-11-27T13:10:24Z</time>
      </trkpt>
      <trkpt lat="45.04422" lon="-0.40418">
        <ele>48.9</ele>
        <time>2021-11-27T13:10:25Z</time>
      </trkpt>
      <trkpt lat="45.04423" lon="-0.40421">
        <ele>49</ele>
        <time>2021-11-27T13:10:27Z</time>
      </trkpt>
      <trkpt lat="45.04423" lon="-0.40422">
        <ele>49</ele>
        <time>2021-11-27T13:10:28Z</time>
      </trkpt>
      <trkpt lat="45.04423" lon="-0.40422">
        <ele>49</ele>
        <time>2021-11-27T13:10:29Z</time>
      </trkpt>
      <trkpt lat="45.04423" lon="-0.40424">
        <ele>49</ele>
        <time>2021-11-27T13:10:30Z</time>
      </trkpt>
      <trkpt lat="45.04423" lon="-0.40425">
        <ele>49</ele>
        <time>2021-11-27T13:10:31Z</time>
      </trkpt>
      <trkpt lat="45.04422" lon="-0.40429">
        <ele>49</ele>
        <time>2021-11-27T13:10:32Z</time>
      </trkpt>
      <trkpt lat="45.04421" lon="-0.4043">
        <ele>49</ele>
        <time>2021-11-27T13:10:33Z</time>
      </trkpt>
      <trkpt lat="45.04419" lon="-0.40432">
        <ele>49</ele>
        <time>2021-11-27T13:10:35Z</time>
      </trkpt>
      <trkpt lat="45.04417" lon="-0.40433">
        <ele>49</ele>
        <time>2021-11-27T13:10:36Z</time>
      </trkpt>
      <trkpt lat="45.04416" lon="-0.40434">
        <ele>49</ele>
        <time>2021-11-27T13:10:37Z</time>
      </trkpt>
      <trkpt lat="45.04416" lon="-0.40434">
        <ele>49</ele>
        <time>2021-11-27T13:10:38Z</time>
      </trkpt>
      <trkpt lat="45.04414" lon="-0.40435">
        <ele>49.1</ele>
        <time>2021-11-27T13:10:40Z</time>
      </trkpt>
      <trkpt lat="45.04413" lon="-0.40435">
        <ele>49.1</ele>
        <time>2021-11-27T13:10:41Z</time>
      </trkpt>
      <trkpt lat="45.04413" lon="-0.40436">
        <ele>49.1</ele>
        <time>2021-11-27T13:10:42Z</time>
      </trkpt>
      <trkpt lat="45.04413" lon="-0.40437">
        <ele>49.1</ele>
        <time>2021-11-27T13:10:43Z</time>
      </trkpt>
      <trkpt lat="45.04414" lon="-0.40436">
        <ele>49.1</ele>
        <time>2021-11-27T13:10:45Z</time>
      </trkpt>
      <trkpt lat="45.04415" lon="-0.40436">
        <ele>49.1</ele>
        <time>2021-11-27T13:10:46Z</time>
      </trkpt>
      <trkpt lat="45.04415" lon="-0.40435">
        <ele>49.1</ele>
        <time>2021-11-27T13:10:47Z</time>
      </trkpt>
      <trkpt lat="45.04416" lon="-0.40435">
        <ele>49.1</ele>
        <time>2021-11-27T13:10:49Z</time>
      </trkpt>
      <trkpt lat="45.04418" lon="-0.40435">
        <ele>49.1</ele>
        <time>2021-11-27T13:10:50Z</time>
      </trkpt>
      <trkpt lat="45.0442" lon="-0.40436">
        <ele>49.1</ele>
        <time>2021-11-27T13:10:51Z</time>
      </trkpt>
      <trkpt lat="45.04423" lon="-0.40435">
        <ele>49.1</ele>
        <time>2021-11-27T13:10:53Z</time>
      </trkpt>
      <trkpt lat="45.04424" lon="-0.40435">
        <ele>49.1</ele>
        <time>2021-11-27T13:10:54Z</time>
      </trkpt>
      <trkpt lat="45.04427" lon="-0.40433">
        <ele>49.1</ele>
        <time>2021-11-27T13:10:56Z</time>
      </trkpt>
      <trkpt lat="45.04428" lon="-0.40432">
        <ele>49.1</ele>
        <time>2021-11-27T13:10:57Z</time>
      </trkpt>
      <trkpt lat="45.04431" lon="-0.4043">
        <ele>49.1</ele>
        <time>2021-11-27T13:10:59Z</time>
      </trkpt>
      <trkpt lat="45.04433" lon="-0.40429">
        <ele>49</ele>
        <time>2021-11-27T13:11:01Z</time>
      </trkpt>
      <trkpt lat="45.04435" lon="-0.40428">
        <ele>49</ele>
        <time>2021-11-27T13:11:02Z</time>
      </trkpt>
      <trkpt lat="45.04436" lon="-0.40427">
        <ele>49</ele>
        <time>2021-11-27T13:11:03Z</time>
      </trkpt>
      <trkpt lat="45.04438" lon="-0.40427">
        <ele>49</ele>
        <time>2021-11-27T13:11:04Z</time>
      </trkpt>
      <trkpt lat="45.04439" lon="-0.40426">
        <ele>49</ele>
        <time>2021-11-27T13:11:05Z</time>
      </trkpt>
      <trkpt lat="45.04442" lon="-0.40425">
        <ele>49</ele>
        <time>2021-11-27T13:11:07Z</time>
      </trkpt>
      <trkpt lat="45.04443" lon="-0.40424">
        <ele>49</ele>
        <time>2021-11-27T13:11:09Z</time>
      </trkpt>
      <trkpt lat="45.04446" lon="-0.40422">
        <ele>49</ele>
        <time>2021-11-27T13:11:10Z</time>
      </trkpt>
      <trkpt lat="45.04447" lon="-0.40422">
        <ele>49</ele>
        <time>2021-11-27T13:11:11Z</time>
      </trkpt>
      <trkpt lat="45.04449" lon="-0.4042">
        <ele>49</ele>
        <time>2021-11-27T13:11:13Z</time>
      </trkpt>
      <trkpt lat="45.0445" lon="-0.40419">
        <ele>49</ele>
        <time>2021-11-27T13:11:14Z</time>
      </trkpt>
      <trkpt lat="45.04452" lon="-0.40418">
        <ele>49</ele>
        <time>2021-11-27T13:11:16Z</time>
      </trkpt>
      <trkpt lat="45.04454" lon="-0.40418">
        <ele>49</ele>
        <time>2021-11-27T13:11:17Z</time>
      </trkpt>
      <trkpt lat="45.04455" lon="-0.40417">
        <ele>48.9</ele>
        <time>2021-11-27T13:11:18Z</time>
      </trkpt>
      <trkpt lat="45.04456" lon="-0.40416">
        <ele>48.9</ele>
        <time>2021-11-27T13:11:19Z</time>
      </trkpt>
      <trkpt lat="45.04457" lon="-0.40416">
        <ele>48.9</ele>
        <time>2021-11-27T13:11:21Z</time>
      </trkpt>
      <trkpt lat="45.04459" lon="-0.40415">
        <ele>48.9</ele>
        <time>2021-11-27T13:11:22Z</time>
      </trkpt>
      <trkpt lat="45.04461" lon="-0.40413">
        <ele>48.9</ele>
        <time>2021-11-27T13:11:24Z</time>
      </trkpt>
      <trkpt lat="45.04463" lon="-0.40412">
        <ele>48.9</ele>
        <time>2021-11-27T13:11:25Z</time>
      </trkpt>
      <trkpt lat="45.04464" lon="-0.40411">
        <ele>48.9</ele>
        <time>2021-11-27T13:11:26Z</time>
      </trkpt>
      <trkpt lat="45.04466" lon="-0.4041">
        <ele>48.9</ele>
        <time>2021-11-27T13:11:27Z</time>
      </trkpt>
      <trkpt lat="45.04467" lon="-0.40409">
        <ele>48.9</ele>
        <time>2021-11-27T13:11:28Z</time>
      </trkpt>
      <trkpt lat="45.04469" lon="-0.40407">
        <ele>48.9</ele>
        <time>2021-11-27T13:11:30Z</time>
      </trkpt>
      <trkpt lat="45.0447" lon="-0.40406">
        <ele>48.9</ele>
        <time>2021-11-27T13:11:31Z</time>
      </trkpt>
      <trkpt lat="45.04472" lon="-0.40406">
        <ele>48.8</ele>
        <time>2021-11-27T13:11:32Z</time>
      </trkpt>
      <trkpt lat="45.04473" lon="-0.40405">
        <ele>48.8</ele>
        <time>2021-11-27T13:11:34Z</time>
      </trkpt>
      <trkpt lat="45.04474" lon="-0.40404">
        <ele>48.8</ele>
        <time>2021-11-27T13:11:35Z</time>
      </trkpt>
      <trkpt lat="45.04476" lon="-0.40402">
        <ele>48.8</ele>
        <time>2021-11-27T13:11:37Z</time>
      </trkpt>
      <trkpt lat="45.04478" lon="-0.40402">
        <ele>48.8</ele>
        <time>2021-11-27T13:11:38Z</time>
      </trkpt>
      <trkpt lat="45.04479" lon="-0.40401">
        <ele>48.8</ele>
        <time>2021-11-27T13:11:39Z</time>
      </trkpt>
      <trkpt lat="45.04482" lon="-0.40399">
        <ele>48.8</ele>
        <time>2021-11-27T13:11:41Z</time>
      </trkpt>
      <trkpt lat="45.04483" lon="-0.40398">
        <ele>48.7</ele>
        <time>2021-11-27T13:11:42Z</time>
      </trkpt>
      <trkpt lat="45.04486" lon="-0.40397">
        <ele>48.7</ele>
        <time>2021-11-27T13:11:44Z</time>
      </trkpt>
      <trkpt lat="45.04487" lon="-0.40396">
        <ele>48.7</ele>
        <time>2021-11-27T13:11:45Z</time>
      </trkpt>
      <trkpt lat="45.04489" lon="-0.40395">
        <ele>48.7</ele>
        <time>2021-11-27T13:11:47Z</time>
      </trkpt>
      <trkpt lat="45.0449" lon="-0.40395">
        <ele>48.7</ele>
        <time>2021-11-27T13:11:48Z</time>
      </trkpt>
      <trkpt lat="45.04492" lon="-0.40393">
        <ele>48.6</ele>
        <time>2021-11-27T13:11:50Z</time>
      </trkpt>
      <trkpt lat="45.04493" lon="-0.40393">
        <ele>48.6</ele>
        <time>2021-11-27T13:11:51Z</time>
      </trkpt>
      <trkpt lat="45.04494" lon="-0.40393">
        <ele>48.6</ele>
        <time>2021-11-27T13:11:52Z</time>
      </trkpt>
      <trkpt lat="45.04496" lon="-0.40391">
        <ele>48.6</ele>
        <time>2021-11-27T13:11:54Z</time>
      </trkpt>
      <trkpt lat="45.04497" lon="-0.4039">
        <ele>48.6</ele>
        <time>2021-11-27T13:11:55Z</time>
      </trkpt>
      <trkpt lat="45.04499" lon="-0.40389">
        <ele>48.6</ele>
        <time>2021-11-27T13:11:57Z</time>
      </trkpt>
      <trkpt lat="45.04502" lon="-0.40388">
        <ele>48.5</ele>
        <time>2021-11-27T13:11:58Z</time>
      </trkpt>
      <trkpt lat="45.04503" lon="-0.40387">
        <ele>48.5</ele>
        <time>2021-11-27T13:11:59Z</time>
      </trkpt>
      <trkpt lat="45.04506" lon="-0.40385">
        <ele>48.5</ele>
        <time>2021-11-27T13:12:01Z</time>
      </trkpt>
      <trkpt lat="45.04507" lon="-0.40384">
        <ele>48.5</ele>
        <time>2021-11-27T13:12:02Z</time>
      </trkpt>
      <trkpt lat="45.04508" lon="-0.40383">
        <ele>48.5</ele>
        <time>2021-11-27T13:12:03Z</time>
      </trkpt>
      <trkpt lat="45.04509" lon="-0.40382">
        <ele>48.5</ele>
        <time>2021-11-27T13:12:04Z</time>
      </trkpt>
      <trkpt lat="45.0451" lon="-0.40381">
        <ele>48.5</ele>
        <time>2021-11-27T13:12:06Z</time>
      </trkpt>
      <trkpt lat="45.04513" lon="-0.4038">
        <ele>48.5</ele>
        <time>2021-11-27T13:12:07Z</time>
      </trkpt>
      <trkpt lat="45.04514" lon="-0.4038">
        <ele>48.4</ele>
        <time>2021-11-27T13:12:08Z</time>
      </trkpt>
      <trkpt lat="45.04517" lon="-0.40378">
        <ele>48.4</ele>
        <time>2021-11-27T13:12:10Z</time>
      </trkpt>
      <trkpt lat="45.04518" lon="-0.40378">
        <ele>48.4</ele>
        <time>2021-11-27T13:12:11Z</time>
      </trkpt>
      <trkpt lat="45.04521" lon="-0.40376">
        <ele>48.4</ele>
        <time>2021-11-27T13:12:13Z</time>
      </trkpt>
      <trkpt lat="45.04522" lon="-0.40376">
        <ele>48.4</ele>
        <time>2021-11-27T13:12:14Z</time>
      </trkpt>
      <trkpt lat="45.04523" lon="-0.40375">
        <ele>48.4</ele>
        <time>2021-11-27T13:12:15Z</time>
      </trkpt>
      <trkpt lat="45.04525" lon="-0.40373">
        <ele>48.4</ele>
        <time>2021-11-27T13:12:17Z</time>
      </trkpt>
      <trkpt lat="45.04528" lon="-0.40371">
        <ele>48.4</ele>
        <time>2021-11-27T13:12:19Z</time>
      </trkpt>
      <trkpt lat="45.04528" lon="-0.40371">
        <ele>48.4</ele>
        <time>2021-11-27T13:12:20Z</time>
      </trkpt>
      <trkpt lat="45.04531" lon="-0.40369">
        <ele>48.4</ele>
        <time>2021-11-27T13:12:21Z</time>
      </trkpt>
      <trkpt lat="45.04532" lon="-0.40368">
        <ele>48.4</ele>
        <time>2021-11-27T13:12:23Z</time>
      </trkpt>
      <trkpt lat="45.04533" lon="-0.40368">
        <ele>48.3</ele>
        <time>2021-11-27T13:12:24Z</time>
      </trkpt>
      <trkpt lat="45.04535" lon="-0.40367">
        <ele>48.3</ele>
        <time>2021-11-27T13:12:25Z</time>
      </trkpt>
      <trkpt lat="45.04537" lon="-0.40366">
        <ele>48.3</ele>
        <time>2021-11-27T13:12:26Z</time>
      </trkpt>
      <trkpt lat="45.04538" lon="-0.40364">
        <ele>48.3</ele>
        <time>2021-11-27T13:12:28Z</time>
      </trkpt>
      <trkpt lat="45.0454" lon="-0.40364">
        <ele>48.3</ele>
        <time>2021-11-27T13:12:29Z</time>
      </trkpt>
      <trkpt lat="45.04542" lon="-0.40363">
        <ele>48.3</ele>
        <time>2021-11-27T13:12:31Z</time>
      </trkpt>
      <trkpt lat="45.04543" lon="-0.40362">
        <ele>48.3</ele>
        <time>2021-11-27T13:12:32Z</time>
      </trkpt>
      <trkpt lat="45.04544" lon="-0.40362">
        <ele>48.3</ele>
        <time>2021-11-27T13:12:33Z</time>
      </trkpt>
      <trkpt lat="45.04546" lon="-0.40361">
        <ele>48.3</ele>
        <time>2021-11-27T13:12:35Z</time>
      </trkpt>
      <trkpt lat="45.04547" lon="-0.4036">
        <ele>48.3</ele>
        <time>2021-11-27T13:12:36Z</time>
      </trkpt>
      <trkpt lat="45.04549" lon="-0.40358">
        <ele>48.3</ele>
        <time>2021-11-27T13:12:38Z</time>
      </trkpt>
      <trkpt lat="45.04551" lon="-0.40357">
        <ele>48.3</ele>
        <time>2021-11-27T13:12:39Z</time>
      </trkpt>
      <trkpt lat="45.04552" lon="-0.40357">
        <ele>48.3</ele>
        <time>2021-11-27T13:12:41Z</time>
      </trkpt>
      <trkpt lat="45.04554" lon="-0.40356">
        <ele>48.2</ele>
        <time>2021-11-27T13:12:42Z</time>
      </trkpt>
      <trkpt lat="45.04555" lon="-0.40354">
        <ele>48.2</ele>
        <time>2021-11-27T13:12:44Z</time>
      </trkpt>
      <trkpt lat="45.04558" lon="-0.40353">
        <ele>48.2</ele>
        <time>2021-11-27T13:12:46Z</time>
      </trkpt>
      <trkpt lat="45.04559" lon="-0.40353">
        <ele>48.2</ele>
        <time>2021-11-27T13:12:47Z</time>
      </trkpt>
      <trkpt lat="45.0456" lon="-0.40352">
        <ele>48.2</ele>
        <time>2021-11-27T13:12:48Z</time>
      </trkpt>
      <trkpt lat="45.04562" lon="-0.40351">
        <ele>48.2</ele>
        <time>2021-11-27T13:12:49Z</time>
      </trkpt>
      <trkpt lat="45.04563" lon="-0.40349">
        <ele>48.2</ele>
        <time>2021-11-27T13:12:51Z</time>
      </trkpt>
      <trkpt lat="45.04564" lon="-0.40348">
        <ele>48.2</ele>
        <time>2021-11-27T13:12:52Z</time>
      </trkpt>
      <trkpt lat="45.04566" lon="-0.40347">
        <ele>48.2</ele>
        <time>2021-11-27T13:12:53Z</time>
      </trkpt>
      <trkpt lat="45.04568" lon="-0.40346">
        <ele>48.2</ele>
        <time>2021-11-27T13:12:55Z</time>
      </trkpt>
      <trkpt lat="45.04571" lon="-0.40344">
        <ele>48.2</ele>
        <time>2021-11-27T13:12:56Z</time>
      </trkpt>
      <trkpt lat="45.04573" lon="-0.40343">
        <ele>48.2</ele>
        <time>2021-11-27T13:12:58Z</time>
      </trkpt>
      <trkpt lat="45.04576" lon="-0.40342">
        <ele>48.1</ele>
        <time>2021-11-27T13:13:00Z</time>
      </trkpt>
      <trkpt lat="45.04577" lon="-0.40341">
        <ele>48.1</ele>
        <time>2021-11-27T13:13:01Z</time>
      </trkpt>
      <trkpt lat="45.04579" lon="-0.40341">
        <ele>48.1</ele>
        <time>2021-11-27T13:13:02Z</time>
      </trkpt>
      <trkpt lat="45.04581" lon="-0.4034">
        <ele>48.1</ele>
        <time>2021-11-27T13:13:04Z</time>
      </trkpt>
      <trkpt lat="45.04583" lon="-0.40338">
        <ele>48.1</ele>
        <time>2021-11-27T13:13:06Z</time>
      </trkpt>
      <trkpt lat="45.04584" lon="-0.40338">
        <ele>48.1</ele>
        <time>2021-11-27T13:13:07Z</time>
      </trkpt>
      <trkpt lat="45.04585" lon="-0.40336">
        <ele>48.1</ele>
        <time>2021-11-27T13:13:08Z</time>
      </trkpt>
      <trkpt lat="45.04587" lon="-0.40335">
        <ele>48.1</ele>
        <time>2021-11-27T13:13:10Z</time>
      </trkpt>
      <trkpt lat="45.04589" lon="-0.40334">
        <ele>48.1</ele>
        <time>2021-11-27T13:13:11Z</time>
      </trkpt>
      <trkpt lat="45.04591" lon="-0.40333">
        <ele>48.1</ele>
        <time>2021-11-27T13:13:13Z</time>
      </trkpt>
      <trkpt lat="45.04592" lon="-0.40331">
        <ele>48.1</ele>
        <time>2021-11-27T13:13:14Z</time>
      </trkpt>
      <trkpt lat="45.04594" lon="-0.4033">
        <ele>48.1</ele>
        <time>2021-11-27T13:13:15Z</time>
      </trkpt>
      <trkpt lat="45.04595" lon="-0.40329">
        <ele>48.1</ele>
        <time>2021-11-27T13:13:17Z</time>
      </trkpt>
      <trkpt lat="45.04597" lon="-0.40328">
        <ele>48.1</ele>
        <time>2021-11-27T13:13:18Z</time>
      </trkpt>
      <trkpt lat="45.04599" lon="-0.40327">
        <ele>48.1</ele>
        <time>2021-11-27T13:13:20Z</time>
      </trkpt>
      <trkpt lat="45.046" lon="-0.40327">
        <ele>48.1</ele>
        <time>2021-11-27T13:13:21Z</time>
      </trkpt>
      <trkpt lat="45.04603" lon="-0.40325">
        <ele>48.1</ele>
        <time>2021-11-27T13:13:23Z</time>
      </trkpt>
      <trkpt lat="45.04604" lon="-0.40324">
        <ele>48.1</ele>
        <time>2021-11-27T13:13:24Z</time>
      </trkpt>
      <trkpt lat="45.04606" lon="-0.40324">
        <ele>48.1</ele>
        <time>2021-11-27T13:13:25Z</time>
      </trkpt>
      <trkpt lat="45.04608" lon="-0.40322">
        <ele>48.1</ele>
        <time>2021-11-27T13:13:27Z</time>
      </trkpt>
      <trkpt lat="45.04609" lon="-0.40321">
        <ele>48.1</ele>
        <time>2021-11-27T13:13:28Z</time>
      </trkpt>
      <trkpt lat="45.04611" lon="-0.40318">
        <ele>48.1</ele>
        <time>2021-11-27T13:13:30Z</time>
      </trkpt>
      <trkpt lat="45.04613" lon="-0.40318">
        <ele>48.1</ele>
        <time>2021-11-27T13:13:31Z</time>
      </trkpt>
      <trkpt lat="45.04615" lon="-0.40316">
        <ele>48.1</ele>
        <time>2021-11-27T13:13:32Z</time>
      </trkpt>
      <trkpt lat="45.04617" lon="-0.40315">
        <ele>48.1</ele>
        <time>2021-11-27T13:13:34Z</time>
      </trkpt>
      <trkpt lat="45.04618" lon="-0.40314">
        <ele>48.1</ele>
        <time>2021-11-27T13:13:35Z</time>
      </trkpt>
      <trkpt lat="45.0462" lon="-0.40314">
        <ele>48.1</ele>
        <time>2021-11-27T13:13:36Z</time>
      </trkpt>
      <trkpt lat="45.04621" lon="-0.40313">
        <ele>48.1</ele>
        <time>2021-11-27T13:13:37Z</time>
      </trkpt>
      <trkpt lat="45.04623" lon="-0.40311">
        <ele>48.1</ele>
        <time>2021-11-27T13:13:39Z</time>
      </trkpt>
      <trkpt lat="45.04624" lon="-0.4031">
        <ele>48.1</ele>
        <time>2021-11-27T13:13:40Z</time>
      </trkpt>
      <trkpt lat="45.04626" lon="-0.40309">
        <ele>48.1</ele>
        <time>2021-11-27T13:13:42Z</time>
      </trkpt>
      <trkpt lat="45.04629" lon="-0.40307">
        <ele>48.1</ele>
        <time>2021-11-27T13:13:43Z</time>
      </trkpt>
      <trkpt lat="45.04629" lon="-0.40306">
        <ele>48.1</ele>
        <time>2021-11-27T13:13:44Z</time>
      </trkpt>
      <trkpt lat="45.04631" lon="-0.40305">
        <ele>48.1</ele>
        <time>2021-11-27T13:13:46Z</time>
      </trkpt>
      <trkpt lat="45.04632" lon="-0.40304">
        <ele>48.1</ele>
        <time>2021-11-27T13:13:48Z</time>
      </trkpt>
      <trkpt lat="45.04634" lon="-0.40303">
        <ele>48.1</ele>
        <time>2021-11-27T13:13:49Z</time>
      </trkpt>
      <trkpt lat="45.04635" lon="-0.40303">
        <ele>48.1</ele>
        <time>2021-11-27T13:13:50Z</time>
      </trkpt>
      <trkpt lat="45.04638" lon="-0.40301">
        <ele>48.1</ele>
        <time>2021-11-27T13:13:52Z</time>
      </trkpt>
      <trkpt lat="45.04639" lon="-0.403">
        <ele>48.1</ele>
        <time>2021-11-27T13:13:53Z</time>
      </trkpt>
      <trkpt lat="45.04641" lon="-0.40299">
        <ele>48.1</ele>
        <time>2021-11-27T13:13:54Z</time>
      </trkpt>
      <trkpt lat="45.04642" lon="-0.40298">
        <ele>48.1</ele>
        <time>2021-11-27T13:13:55Z</time>
      </trkpt>
      <trkpt lat="45.04645" lon="-0.40296">
        <ele>48.1</ele>
        <time>2021-11-27T13:13:57Z</time>
      </trkpt>
      <trkpt lat="45.04646" lon="-0.40295">
        <ele>48.1</ele>
        <time>2021-11-27T13:13:58Z</time>
      </trkpt>
      <trkpt lat="45.04649" lon="-0.40292">
        <ele>48.2</ele>
        <time>2021-11-27T13:14:00Z</time>
      </trkpt>
      <trkpt lat="45.0465" lon="-0.40291">
        <ele>48.2</ele>
        <time>2021-11-27T13:14:02Z</time>
      </trkpt>
      <trkpt lat="45.04652" lon="-0.4029">
        <ele>48.2</ele>
        <time>2021-11-27T13:14:03Z</time>
      </trkpt>
      <trkpt lat="45.04653" lon="-0.40289">
        <ele>48.2</ele>
        <time>2021-11-27T13:14:04Z</time>
      </trkpt>
      <trkpt lat="45.04655" lon="-0.40288">
        <ele>48.2</ele>
        <time>2021-11-27T13:14:06Z</time>
      </trkpt>
      <trkpt lat="45.04656" lon="-0.40288">
        <ele>48.3</ele>
        <time>2021-11-27T13:14:07Z</time>
      </trkpt>
      <trkpt lat="45.04658" lon="-0.40287">
        <ele>48.3</ele>
        <time>2021-11-27T13:14:08Z</time>
      </trkpt>
      <trkpt lat="45.0466" lon="-0.40286">
        <ele>48.3</ele>
        <time>2021-11-27T13:14:10Z</time>
      </trkpt>
      <trkpt lat="45.04661" lon="-0.40285">
        <ele>48.3</ele>
        <time>2021-11-27T13:14:11Z</time>
      </trkpt>
      <trkpt lat="45.04662" lon="-0.40284">
        <ele>48.4</ele>
        <time>2021-11-27T13:14:12Z</time>
      </trkpt>
      <trkpt lat="45.04665" lon="-0.40282">
        <ele>48.4</ele>
        <time>2021-11-27T13:14:14Z</time>
      </trkpt>
      <trkpt lat="45.04666" lon="-0.40281">
        <ele>48.4</ele>
        <time>2021-11-27T13:14:15Z</time>
      </trkpt>
      <trkpt lat="45.04667" lon="-0.4028">
        <ele>48.4</ele>
        <time>2021-11-27T13:14:16Z</time>
      </trkpt>
      <trkpt lat="45.04669" lon="-0.4028">
        <ele>48.4</ele>
        <time>2021-11-27T13:14:17Z</time>
      </trkpt>
      <trkpt lat="45.04671" lon="-0.40278">
        <ele>48.5</ele>
        <time>2021-11-27T13:14:19Z</time>
      </trkpt>
      <trkpt lat="45.04672" lon="-0.40278">
        <ele>48.5</ele>
        <time>2021-11-27T13:14:20Z</time>
      </trkpt>
      <trkpt lat="45.04675" lon="-0.40275">
        <ele>48.5</ele>
        <time>2021-11-27T13:14:22Z</time>
      </trkpt>
      <trkpt lat="45.04676" lon="-0.40275">
        <ele>48.5</ele>
        <time>2021-11-27T13:14:23Z</time>
      </trkpt>
      <trkpt lat="45.04678" lon="-0.40273">
        <ele>48.5</ele>
        <time>2021-11-27T13:14:25Z</time>
      </trkpt>
      <trkpt lat="45.04679" lon="-0.40273">
        <ele>48.5</ele>
        <time>2021-11-27T13:14:26Z</time>
      </trkpt>
      <trkpt lat="45.04681" lon="-0.40271">
        <ele>48.5</ele>
        <time>2021-11-27T13:14:27Z</time>
      </trkpt>
      <trkpt lat="45.04682" lon="-0.4027">
        <ele>48.5</ele>
        <time>2021-11-27T13:14:28Z</time>
      </trkpt>
      <trkpt lat="45.04684" lon="-0.40269">
        <ele>48.6</ele>
        <time>2021-11-27T13:14:30Z</time>
      </trkpt>
      <trkpt lat="45.04685" lon="-0.40268">
        <ele>48.6</ele>
        <time>2021-11-27T13:14:31Z</time>
      </trkpt>
      <trkpt lat="45.04687" lon="-0.40267">
        <ele>48.6</ele>
        <time>2021-11-27T13:14:32Z</time>
      </trkpt>
      <trkpt lat="45.04689" lon="-0.40266">
        <ele>48.6</ele>
        <time>2021-11-27T13:14:34Z</time>
      </trkpt>
      <trkpt lat="45.04691" lon="-0.40265">
        <ele>48.6</ele>
        <time>2021-11-27T13:14:35Z</time>
      </trkpt>
      <trkpt lat="45.04692" lon="-0.40263">
        <ele>48.6</ele>
        <time>2021-11-27T13:14:36Z</time>
      </trkpt>
      <trkpt lat="45.04694" lon="-0.40261">
        <ele>48.7</ele>
        <time>2021-11-27T13:14:38Z</time>
      </trkpt>
      <trkpt lat="45.04696" lon="-0.40259">
        <ele>48.7</ele>
        <time>2021-11-27T13:14:40Z</time>
      </trkpt>
      <trkpt lat="45.04697" lon="-0.40258">
        <ele>48.7</ele>
        <time>2021-11-27T13:14:41Z</time>
      </trkpt>
      <trkpt lat="45.04699" lon="-0.40257">
        <ele>48.7</ele>
        <time>2021-11-27T13:14:43Z</time>
      </trkpt>
      <trkpt lat="45.04702" lon="-0.40255">
        <ele>48.7</ele>
        <time>2021-11-27T13:14:45Z</time>
      </trkpt>
      <trkpt lat="45.04703" lon="-0.40254">
        <ele>48.7</ele>
        <time>2021-11-27T13:14:46Z</time>
      </trkpt>
      <trkpt lat="45.04704" lon="-0.40253">
        <ele>48.8</ele>
        <time>2021-11-27T13:14:47Z</time>
      </trkpt>
      <trkpt lat="45.04705" lon="-0.40252">
        <ele>48.8</ele>
        <time>2021-11-27T13:14:49Z</time>
      </trkpt>
      <trkpt lat="45.04707" lon="-0.40251">
        <ele>48.8</ele>
        <time>2021-11-27T13:14:50Z</time>
      </trkpt>
      <trkpt lat="45.04708" lon="-0.4025">
        <ele>48.8</ele>
        <time>2021-11-27T13:14:51Z</time>
      </trkpt>
      <trkpt lat="45.0471" lon="-0.40248">
        <ele>48.8</ele>
        <time>2021-11-27T13:14:52Z</time>
      </trkpt>
      <trkpt lat="45.04711" lon="-0.40247">
        <ele>48.8</ele>
        <time>2021-11-27T13:14:54Z</time>
      </trkpt>
      <trkpt lat="45.04712" lon="-0.40246">
        <ele>48.8</ele>
        <time>2021-11-27T13:14:55Z</time>
      </trkpt>
      <trkpt lat="45.04714" lon="-0.40245">
        <ele>48.8</ele>
        <time>2021-11-27T13:14:56Z</time>
      </trkpt>
      <trkpt lat="45.04716" lon="-0.40243">
        <ele>48.9</ele>
        <time>2021-11-27T13:14:58Z</time>
      </trkpt>
      <trkpt lat="45.04718" lon="-0.40242">
        <ele>48.9</ele>
        <time>2021-11-27T13:14:59Z</time>
      </trkpt>
      <trkpt lat="45.04719" lon="-0.4024">
        <ele>48.9</ele>
        <time>2021-11-27T13:15:00Z</time>
      </trkpt>
      <trkpt lat="45.04722" lon="-0.40238">
        <ele>48.9</ele>
        <time>2021-11-27T13:15:02Z</time>
      </trkpt>
      <trkpt lat="45.04722" lon="-0.40238">
        <ele>48.9</ele>
        <time>2021-11-27T13:15:03Z</time>
      </trkpt>
      <trkpt lat="45.04725" lon="-0.40236">
        <ele>48.9</ele>
        <time>2021-11-27T13:15:05Z</time>
      </trkpt>
      <trkpt lat="45.04726" lon="-0.40236">
        <ele>48.9</ele>
        <time>2021-11-27T13:15:06Z</time>
      </trkpt>
      <trkpt lat="45.04728" lon="-0.40233">
        <ele>48.9</ele>
        <time>2021-11-27T13:15:07Z</time>
      </trkpt>
      <trkpt lat="45.04729" lon="-0.40232">
        <ele>48.9</ele>
        <time>2021-11-27T13:15:09Z</time>
      </trkpt>
      <trkpt lat="45.04731" lon="-0.40231">
        <ele>48.9</ele>
        <time>2021-11-27T13:15:10Z</time>
      </trkpt>
      <trkpt lat="45.04732" lon="-0.4023">
        <ele>48.9</ele>
        <time>2021-11-27T13:15:11Z</time>
      </trkpt>
      <trkpt lat="45.04733" lon="-0.40229">
        <ele>48.9</ele>
        <time>2021-11-27T13:15:13Z</time>
      </trkpt>
      <trkpt lat="45.04734" lon="-0.40228">
        <ele>48.9</ele>
        <time>2021-11-27T13:15:14Z</time>
      </trkpt>
      <trkpt lat="45.04736" lon="-0.40226">
        <ele>48.9</ele>
        <time>2021-11-27T13:15:15Z</time>
      </trkpt>
      <trkpt lat="45.04738" lon="-0.40224">
        <ele>48.9</ele>
        <time>2021-11-27T13:15:17Z</time>
      </trkpt>
      <trkpt lat="45.0474" lon="-0.40222">
        <ele>48.9</ele>
        <time>2021-11-27T13:15:18Z</time>
      </trkpt>
      <trkpt lat="45.04741" lon="-0.40222">
        <ele>48.9</ele>
        <time>2021-11-27T13:15:19Z</time>
      </trkpt>
      <trkpt lat="45.04741" lon="-0.40221">
        <ele>48.9</ele>
        <time>2021-11-27T13:15:20Z</time>
      </trkpt>
      <trkpt lat="45.04744" lon="-0.40219">
        <ele>48.8</ele>
        <time>2021-11-27T13:15:22Z</time>
      </trkpt>
      <trkpt lat="45.04745" lon="-0.40219">
        <ele>48.8</ele>
        <time>2021-11-27T13:15:23Z</time>
      </trkpt>
      <trkpt lat="45.04746" lon="-0.40218">
        <ele>48.8</ele>
        <time>2021-11-27T13:15:24Z</time>
      </trkpt>
      <trkpt lat="45.04746" lon="-0.40217">
        <ele>48.8</ele>
        <time>2021-11-27T13:15:26Z</time>
      </trkpt>
      <trkpt lat="45.04746" lon="-0.40218">
        <ele>48.8</ele>
        <time>2021-11-27T13:15:28Z</time>
      </trkpt>
      <trkpt lat="45.04745" lon="-0.40218">
        <ele>48.8</ele>
        <time>2021-11-27T13:15:29Z</time>
      </trkpt>
      <trkpt lat="45.04746" lon="-0.40218">
        <ele>48.8</ele>
        <time>2021-11-27T13:15:30Z</time>
      </trkpt>
      <trkpt lat="45.04747" lon="-0.40217">
        <ele>48.8</ele>
        <time>2021-11-27T13:15:32Z</time>
      </trkpt>
      <trkpt lat="45.0475" lon="-0.40215">
        <ele>48.8</ele>
        <time>2021-11-27T13:15:33Z</time>
      </trkpt>
      <trkpt lat="45.04751" lon="-0.40215">
        <ele>48.8</ele>
        <time>2021-11-27T13:15:34Z</time>
      </trkpt>
      <trkpt lat="45.04753" lon="-0.40214">
        <ele>48.8</ele>
        <time>2021-11-27T13:15:36Z</time>
      </trkpt>
      <trkpt lat="45.04756" lon="-0.40212">
        <ele>48.8</ele>
        <time>2021-11-27T13:15:37Z</time>
      </trkpt>
      <trkpt lat="45.04759" lon="-0.4021">
        <ele>48.8</ele>
        <time>2021-11-27T13:15:38Z</time>
      </trkpt>
      <trkpt lat="45.0476" lon="-0.4021">
        <ele>48.7</ele>
        <time>2021-11-27T13:15:39Z</time>
      </trkpt>
      <trkpt lat="45.04762" lon="-0.40208">
        <ele>48.7</ele>
        <time>2021-11-27T13:15:41Z</time>
      </trkpt>
      <trkpt lat="45.04765" lon="-0.40208">
        <ele>48.7</ele>
        <time>2021-11-27T13:15:43Z</time>
      </trkpt>
      <trkpt lat="45.04766" lon="-0.40208">
        <ele>48.7</ele>
        <time>2021-11-27T13:15:44Z</time>
      </trkpt>
      <trkpt lat="45.04767" lon="-0.40208">
        <ele>48.7</ele>
        <time>2021-11-27T13:15:45Z</time>
      </trkpt>
      <trkpt lat="45.0477" lon="-0.40207">
        <ele>48.7</ele>
        <time>2021-11-27T13:15:47Z</time>
      </trkpt>
      <trkpt lat="45.04772" lon="-0.40206">
        <ele>48.7</ele>
        <time>2021-11-27T13:15:48Z</time>
      </trkpt>
      <trkpt lat="45.04773" lon="-0.40203">
        <ele>48.7</ele>
        <time>2021-11-27T13:15:50Z</time>
      </trkpt>
      <trkpt lat="45.04775" lon="-0.402">
        <ele>48.6</ele>
        <time>2021-11-27T13:15:52Z</time>
      </trkpt>
      <trkpt lat="45.04775" lon="-0.40197">
        <ele>48.6</ele>
        <time>2021-11-27T13:15:54Z</time>
      </trkpt>
      <trkpt lat="45.04776" lon="-0.40196">
        <ele>48.6</ele>
        <time>2021-11-27T13:15:55Z</time>
      </trkpt>
      <trkpt lat="45.04777" lon="-0.40195">
        <ele>48.6</ele>
        <time>2021-11-27T13:15:56Z</time>
      </trkpt>
      <trkpt lat="45.04779" lon="-0.40193">
        <ele>48.6</ele>
        <time>2021-11-27T13:15:58Z</time>
      </trkpt>
      <trkpt lat="45.04781" lon="-0.40193">
        <ele>48.6</ele>
        <time>2021-11-27T13:15:59Z</time>
      </trkpt>
      <trkpt lat="45.04783" lon="-0.40191">
        <ele>48.6</ele>
        <time>2021-11-27T13:16:01Z</time>
      </trkpt>
      <trkpt lat="45.04786" lon="-0.4019">
        <ele>48.6</ele>
        <time>2021-11-27T13:16:03Z</time>
      </trkpt>
      <trkpt lat="45.04787" lon="-0.4019">
        <ele>48.6</ele>
        <time>2021-11-27T13:16:04Z</time>
      </trkpt>
      <trkpt lat="45.04788" lon="-0.40189">
        <ele>48.6</ele>
        <time>2021-11-27T13:16:05Z</time>
      </trkpt>
      <trkpt lat="45.04791" lon="-0.40188">
        <ele>48.6</ele>
        <time>2021-11-27T13:16:07Z</time>
      </trkpt>
      <trkpt lat="45.04793" lon="-0.40186">
        <ele>48.6</ele>
        <time>2021-11-27T13:16:08Z</time>
      </trkpt>
      <trkpt lat="45.04794" lon="-0.40186">
        <ele>48.6</ele>
        <time>2021-11-27T13:16:09Z</time>
      </trkpt>
      <trkpt lat="45.04797" lon="-0.40183">
        <ele>48.6</ele>
        <time>2021-11-27T13:16:11Z</time>
      </trkpt>
      <trkpt lat="45.04798" lon="-0.40182">
        <ele>48.6</ele>
        <time>2021-11-27T13:16:12Z</time>
      </trkpt>
      <trkpt lat="45.04801" lon="-0.4018">
        <ele>48.6</ele>
        <time>2021-11-27T13:16:14Z</time>
      </trkpt>
      <trkpt lat="45.04803" lon="-0.4018">
        <ele>48.6</ele>
        <time>2021-11-27T13:16:15Z</time>
      </trkpt>
      <trkpt lat="45.04805" lon="-0.40179">
        <ele>48.6</ele>
        <time>2021-11-27T13:16:17Z</time>
      </trkpt>
      <trkpt lat="45.04807" lon="-0.40178">
        <ele>48.6</ele>
        <time>2021-11-27T13:16:18Z</time>
      </trkpt>
      <trkpt lat="45.04809" lon="-0.40177">
        <ele>48.6</ele>
        <time>2021-11-27T13:16:20Z</time>
      </trkpt>
      <trkpt lat="45.0481" lon="-0.40176">
        <ele>48.6</ele>
        <time>2021-11-27T13:16:21Z</time>
      </trkpt>
      <trkpt lat="45.04812" lon="-0.40176">
        <ele>48.6</ele>
        <time>2021-11-27T13:16:22Z</time>
      </trkpt>
      <trkpt lat="45.04815" lon="-0.40174">
        <ele>48.6</ele>
        <time>2021-11-27T13:16:24Z</time>
      </trkpt>
      <trkpt lat="45.04816" lon="-0.40173">
        <ele>48.6</ele>
        <time>2021-11-27T13:16:25Z</time>
      </trkpt>
      <trkpt lat="45.04817" lon="-0.40172">
        <ele>48.6</ele>
        <time>2021-11-27T13:16:26Z</time>
      </trkpt>
      <trkpt lat="45.04818" lon="-0.40171">
        <ele>48.6</ele>
        <time>2021-11-27T13:16:27Z</time>
      </trkpt>
      <trkpt lat="45.0482" lon="-0.4017">
        <ele>48.6</ele>
        <time>2021-11-27T13:16:29Z</time>
      </trkpt>
      <trkpt lat="45.04821" lon="-0.40169">
        <ele>48.6</ele>
        <time>2021-11-27T13:16:30Z</time>
      </trkpt>
      <trkpt lat="45.04823" lon="-0.40168">
        <ele>48.6</ele>
        <time>2021-11-27T13:16:31Z</time>
      </trkpt>
      <trkpt lat="45.04825" lon="-0.40167">
        <ele>48.6</ele>
        <time>2021-11-27T13:16:33Z</time>
      </trkpt>
      <trkpt lat="45.04826" lon="-0.40167">
        <ele>48.6</ele>
        <time>2021-11-27T13:16:34Z</time>
      </trkpt>
      <trkpt lat="45.04827" lon="-0.40166">
        <ele>48.6</ele>
        <time>2021-11-27T13:16:35Z</time>
      </trkpt>
      <trkpt lat="45.0483" lon="-0.40165">
        <ele>48.6</ele>
        <time>2021-11-27T13:16:37Z</time>
      </trkpt>
      <trkpt lat="45.04832" lon="-0.40164">
        <ele>48.6</ele>
        <time>2021-11-27T13:16:39Z</time>
      </trkpt>
      <trkpt lat="45.04833" lon="-0.40163">
        <ele>48.6</ele>
        <time>2021-11-27T13:16:40Z</time>
      </trkpt>
      <trkpt lat="45.04834" lon="-0.40163">
        <ele>48.6</ele>
        <time>2021-11-27T13:16:41Z</time>
      </trkpt>
      <trkpt lat="45.04836" lon="-0.40162">
        <ele>48.6</ele>
        <time>2021-11-27T13:16:42Z</time>
      </trkpt>
      <trkpt lat="45.04838" lon="-0.4016">
        <ele>48.6</ele>
        <time>2021-11-27T13:16:44Z</time>
      </trkpt>
      <trkpt lat="45.04839" lon="-0.4016">
        <ele>48.6</ele>
        <time>2021-11-27T13:16:45Z</time>
      </trkpt>
      <trkpt lat="45.0484" lon="-0.40159">
        <ele>48.6</ele>
        <time>2021-11-27T13:16:46Z</time>
      </trkpt>
      <trkpt lat="45.04842" lon="-0.40158">
        <ele>48.6</ele>
        <time>2021-11-27T13:16:47Z</time>
      </trkpt>
      <trkpt lat="45.04845" lon="-0.40156">
        <ele>48.6</ele>
        <time>2021-11-27T13:16:49Z</time>
      </trkpt>
      <trkpt lat="45.04846" lon="-0.40156">
        <ele>48.6</ele>
        <time>2021-11-27T13:16:50Z</time>
      </trkpt>
      <trkpt lat="45.04847" lon="-0.40155">
        <ele>48.6</ele>
        <time>2021-11-27T13:16:51Z</time>
      </trkpt>
      <trkpt lat="45.04847" lon="-0.40155">
        <ele>48.6</ele>
        <time>2021-11-27T13:16:52Z</time>
      </trkpt>
      <trkpt lat="45.04846" lon="-0.40155">
        <ele>48.6</ele>
        <time>2021-11-27T13:16:54Z</time>
      </trkpt>
      <trkpt lat="45.04846" lon="-0.40155">
        <ele>48.6</ele>
        <time>2021-11-27T13:16:56Z</time>
      </trkpt>
      <trkpt lat="45.04846" lon="-0.40155">
        <ele>48.6</ele>
        <time>2021-11-27T13:16:58Z</time>
      </trkpt>
      <trkpt lat="45.04846" lon="-0.40155">
        <ele>48.6</ele>
        <time>2021-11-27T13:16:59Z</time>
      </trkpt>
      <trkpt lat="45.04846" lon="-0.40155">
        <ele>48.5</ele>
        <time>2021-11-27T13:17:01Z</time>
      </trkpt>
      <trkpt lat="45.04847" lon="-0.40156">
        <ele>48.5</ele>
        <time>2021-11-27T13:17:03Z</time>
      </trkpt>
      <trkpt lat="45.0485" lon="-0.40156">
        <ele>48.5</ele>
        <time>2021-11-27T13:17:05Z</time>
      </trkpt>
      <trkpt lat="45.04853" lon="-0.40154">
        <ele>48.5</ele>
        <time>2021-11-27T13:17:06Z</time>
      </trkpt>
      <trkpt lat="45.04855" lon="-0.40153">
        <ele>48.5</ele>
        <time>2021-11-27T13:17:07Z</time>
      </trkpt>
      <trkpt lat="45.04857" lon="-0.40152">
        <ele>48.5</ele>
        <time>2021-11-27T13:17:09Z</time>
      </trkpt>
      <trkpt lat="45.04861" lon="-0.4015">
        <ele>48.5</ele>
        <time>2021-11-27T13:17:10Z</time>
      </trkpt>
      <trkpt lat="45.04862" lon="-0.4015">
        <ele>48.5</ele>
        <time>2021-11-27T13:17:11Z</time>
      </trkpt>
      <trkpt lat="45.04864" lon="-0.4015">
        <ele>48.5</ele>
        <time>2021-11-27T13:17:12Z</time>
      </trkpt>
      <trkpt lat="45.04865" lon="-0.40149">
        <ele>48.5</ele>
        <time>2021-11-27T13:17:14Z</time>
      </trkpt>
      <trkpt lat="45.04868" lon="-0.40148">
        <ele>48.4</ele>
        <time>2021-11-27T13:17:15Z</time>
      </trkpt>
      <trkpt lat="45.04869" lon="-0.40147">
        <ele>48.4</ele>
        <time>2021-11-27T13:17:17Z</time>
      </trkpt>
      <trkpt lat="45.04872" lon="-0.40147">
        <ele>48.4</ele>
        <time>2021-11-27T13:17:18Z</time>
      </trkpt>
      <trkpt lat="45.04873" lon="-0.40147">
        <ele>48.4</ele>
        <time>2021-11-27T13:17:19Z</time>
      </trkpt>
      <trkpt lat="45.04875" lon="-0.40146">
        <ele>48.4</ele>
        <time>2021-11-27T13:17:21Z</time>
      </trkpt>
      <trkpt lat="45.04877" lon="-0.40146">
        <ele>48.4</ele>
        <time>2021-11-27T13:17:22Z</time>
      </trkpt>
      <trkpt lat="45.04878" lon="-0.40145">
        <ele>48.4</ele>
        <time>2021-11-27T13:17:23Z</time>
      </trkpt>
      <trkpt lat="45.04881" lon="-0.40144">
        <ele>48.4</ele>
        <time>2021-11-27T13:17:25Z</time>
      </trkpt>
      <trkpt lat="45.04882" lon="-0.40143">
        <ele>48.4</ele>
        <time>2021-11-27T13:17:26Z</time>
      </trkpt>
      <trkpt lat="45.04883" lon="-0.40143">
        <ele>48.4</ele>
        <time>2021-11-27T13:17:27Z</time>
      </trkpt>
      <trkpt lat="45.04885" lon="-0.40142">
        <ele>48.4</ele>
        <time>2021-11-27T13:17:28Z</time>
      </trkpt>
      <trkpt lat="45.04886" lon="-0.40141">
        <ele>48.4</ele>
        <time>2021-11-27T13:17:30Z</time>
      </trkpt>
      <trkpt lat="45.04888" lon="-0.4014">
        <ele>48.4</ele>
        <time>2021-11-27T13:17:31Z</time>
      </trkpt>
      <trkpt lat="45.04889" lon="-0.40139">
        <ele>48.4</ele>
        <time>2021-11-27T13:17:32Z</time>
      </trkpt>
      <trkpt lat="45.04892" lon="-0.40138">
        <ele>48.4</ele>
        <time>2021-11-27T13:17:34Z</time>
      </trkpt>
      <trkpt lat="45.04893" lon="-0.40138">
        <ele>48.4</ele>
        <time>2021-11-27T13:17:35Z</time>
      </trkpt>
      <trkpt lat="45.04895" lon="-0.40137">
        <ele>48.4</ele>
        <time>2021-11-27T13:17:36Z</time>
      </trkpt>
      <trkpt lat="45.04897" lon="-0.40135">
        <ele>48.4</ele>
        <time>2021-11-27T13:17:38Z</time>
      </trkpt>
      <trkpt lat="45.04898" lon="-0.40135">
        <ele>48.4</ele>
        <time>2021-11-27T13:17:39Z</time>
      </trkpt>
      <trkpt lat="45.04901" lon="-0.40134">
        <ele>48.4</ele>
        <time>2021-11-27T13:17:41Z</time>
      </trkpt>
      <trkpt lat="45.04902" lon="-0.40134">
        <ele>48.4</ele>
        <time>2021-11-27T13:17:42Z</time>
      </trkpt>
      <trkpt lat="45.04905" lon="-0.40132">
        <ele>48.4</ele>
        <time>2021-11-27T13:17:44Z</time>
      </trkpt>
      <trkpt lat="45.04905" lon="-0.40131">
        <ele>48.4</ele>
        <time>2021-11-27T13:17:45Z</time>
      </trkpt>
      <trkpt lat="45.04907" lon="-0.40129">
        <ele>48.4</ele>
        <time>2021-11-27T13:17:47Z</time>
      </trkpt>
      <trkpt lat="45.04909" lon="-0.40127">
        <ele>48.4</ele>
        <time>2021-11-27T13:17:48Z</time>
      </trkpt>
      <trkpt lat="45.04911" lon="-0.40125">
        <ele>48.4</ele>
        <time>2021-11-27T13:17:50Z</time>
      </trkpt>
      <trkpt lat="45.04914" lon="-0.40123">
        <ele>48.4</ele>
        <time>2021-11-27T13:17:52Z</time>
      </trkpt>
      <trkpt lat="45.04915" lon="-0.40122">
        <ele>48.4</ele>
        <time>2021-11-27T13:17:54Z</time>
      </trkpt>
      <trkpt lat="45.04916" lon="-0.40121">
        <ele>48.4</ele>
        <time>2021-11-27T13:17:55Z</time>
      </trkpt>
      <trkpt lat="45.04917" lon="-0.4012">
        <ele>48.4</ele>
        <time>2021-11-27T13:17:56Z</time>
      </trkpt>
      <trkpt lat="45.04918" lon="-0.40119">
        <ele>48.4</ele>
        <time>2021-11-27T13:17:57Z</time>
      </trkpt>
      <trkpt lat="45.04919" lon="-0.40119">
        <ele>48.4</ele>
        <time>2021-11-27T13:17:58Z</time>
      </trkpt>
      <trkpt lat="45.04924" lon="-0.40117">
        <ele>48.3</ele>
        <time>2021-11-27T13:18:00Z</time>
      </trkpt>
      <trkpt lat="45.04927" lon="-0.40115">
        <ele>48.3</ele>
        <time>2021-11-27T13:18:02Z</time>
      </trkpt>
      <trkpt lat="45.04928" lon="-0.40114">
        <ele>48.3</ele>
        <time>2021-11-27T13:18:03Z</time>
      </trkpt>
      <trkpt lat="45.0493" lon="-0.40114">
        <ele>48.3</ele>
        <time>2021-11-27T13:18:04Z</time>
      </trkpt>
      <trkpt lat="45.04931" lon="-0.40112">
        <ele>48.3</ele>
        <time>2021-11-27T13:18:06Z</time>
      </trkpt>
      <trkpt lat="45.04933" lon="-0.40112">
        <ele>48.3</ele>
        <time>2021-11-27T13:18:07Z</time>
      </trkpt>
      <trkpt lat="45.04935" lon="-0.40111">
        <ele>48.3</ele>
        <time>2021-11-27T13:18:09Z</time>
      </trkpt>
      <trkpt lat="45.04936" lon="-0.40111">
        <ele>48.3</ele>
        <time>2021-11-27T13:18:10Z</time>
      </trkpt>
      <trkpt lat="45.04939" lon="-0.4011">
        <ele>48.3</ele>
        <time>2021-11-27T13:18:12Z</time>
      </trkpt>
      <trkpt lat="45.0494" lon="-0.40109">
        <ele>48.3</ele>
        <time>2021-11-27T13:18:13Z</time>
      </trkpt>
      <trkpt lat="45.04942" lon="-0.40107">
        <ele>48.3</ele>
        <time>2021-11-27T13:18:15Z</time>
      </trkpt>
      <trkpt lat="45.04944" lon="-0.40106">
        <ele>48.3</ele>
        <time>2021-11-27T13:18:17Z</time>
      </trkpt>
      <trkpt lat="45.04946" lon="-0.40105">
        <ele>48.3</ele>
        <time>2021-11-27T13:18:18Z</time>
      </trkpt>
      <trkpt lat="45.04947" lon="-0.40104">
        <ele>48.3</ele>
        <time>2021-11-27T13:18:19Z</time>
      </trkpt>
      <trkpt lat="45.04949" lon="-0.40103">
        <ele>48.3</ele>
        <time>2021-11-27T13:18:20Z</time>
      </trkpt>
      <trkpt lat="45.0495" lon="-0.40102">
        <ele>48.3</ele>
        <time>2021-11-27T13:18:22Z</time>
      </trkpt>
      <trkpt lat="45.04951" lon="-0.40102">
        <ele>48.3</ele>
        <time>2021-11-27T13:18:23Z</time>
      </trkpt>
      <trkpt lat="45.04953" lon="-0.401">
        <ele>48.3</ele>
        <time>2021-11-27T13:18:24Z</time>
      </trkpt>
      <trkpt lat="45.04955" lon="-0.40099">
        <ele>48.3</ele>
        <time>2021-11-27T13:18:25Z</time>
      </trkpt>
      <trkpt lat="45.04956" lon="-0.40098">
        <ele>48.3</ele>
        <time>2021-11-27T13:18:27Z</time>
      </trkpt>
      <trkpt lat="45.04957" lon="-0.40097">
        <ele>48.3</ele>
        <time>2021-11-27T13:18:28Z</time>
      </trkpt>
      <trkpt lat="45.0496" lon="-0.40096">
        <ele>48.2</ele>
        <time>2021-11-27T13:18:30Z</time>
      </trkpt>
      <trkpt lat="45.04961" lon="-0.40095">
        <ele>48.2</ele>
        <time>2021-11-27T13:18:31Z</time>
      </trkpt>
      <trkpt lat="45.04962" lon="-0.40095">
        <ele>48.2</ele>
        <time>2021-11-27T13:18:32Z</time>
      </trkpt>
      <trkpt lat="45.04964" lon="-0.40095">
        <ele>48.2</ele>
        <time>2021-11-27T13:18:34Z</time>
      </trkpt>
      <trkpt lat="45.04967" lon="-0.40094">
        <ele>48.2</ele>
        <time>2021-11-27T13:18:35Z</time>
      </trkpt>
      <trkpt lat="45.04969" lon="-0.40093">
        <ele>48.2</ele>
        <time>2021-11-27T13:18:37Z</time>
      </trkpt>
      <trkpt lat="45.0497" lon="-0.40092">
        <ele>48.2</ele>
        <time>2021-11-27T13:18:38Z</time>
      </trkpt>
      <trkpt lat="45.04972" lon="-0.40092">
        <ele>48.2</ele>
        <time>2021-11-27T13:18:40Z</time>
      </trkpt>
      <trkpt lat="45.04974" lon="-0.40091">
        <ele>48.2</ele>
        <time>2021-11-27T13:18:41Z</time>
      </trkpt>
      <trkpt lat="45.04975" lon="-0.40091">
        <ele>48.2</ele>
        <time>2021-11-27T13:18:43Z</time>
      </trkpt>
      <trkpt lat="45.04977" lon="-0.40091">
        <ele>48.2</ele>
        <time>2021-11-27T13:18:44Z</time>
      </trkpt>
      <trkpt lat="45.04978" lon="-0.40089">
        <ele>48.2</ele>
        <time>2021-11-27T13:18:45Z</time>
      </trkpt>
      <trkpt lat="45.04981" lon="-0.40088">
        <ele>48.2</ele>
        <time>2021-11-27T13:18:47Z</time>
      </trkpt>
      <trkpt lat="45.04982" lon="-0.40087">
        <ele>48.2</ele>
        <time>2021-11-27T13:18:48Z</time>
      </trkpt>
      <trkpt lat="45.04984" lon="-0.40085">
        <ele>48.2</ele>
        <time>2021-11-27T13:18:50Z</time>
      </trkpt>
      <trkpt lat="45.04985" lon="-0.40085">
        <ele>48.2</ele>
        <time>2021-11-27T13:18:51Z</time>
      </trkpt>
      <trkpt lat="45.04987" lon="-0.40084">
        <ele>48.2</ele>
        <time>2021-11-27T13:18:52Z</time>
      </trkpt>
      <trkpt lat="45.04989" lon="-0.40083">
        <ele>48.2</ele>
        <time>2021-11-27T13:18:54Z</time>
      </trkpt>
      <trkpt lat="45.04991" lon="-0.40081">
        <ele>48.2</ele>
        <time>2021-11-27T13:18:55Z</time>
      </trkpt>
      <trkpt lat="45.04996" lon="-0.40079">
        <ele>48.3</ele>
        <time>2021-11-27T13:18:57Z</time>
      </trkpt>
      <trkpt lat="45.04997" lon="-0.40078">
        <ele>48.3</ele>
        <time>2021-11-27T13:18:59Z</time>
      </trkpt>
      <trkpt lat="45.04998" lon="-0.40078">
        <ele>48.3</ele>
        <time>2021-11-27T13:19:00Z</time>
      </trkpt>
      <trkpt lat="45.05001" lon="-0.40077">
        <ele>48.3</ele>
        <time>2021-11-27T13:19:02Z</time>
      </trkpt>
      <trkpt lat="45.05002" lon="-0.40077">
        <ele>48.3</ele>
        <time>2021-11-27T13:19:03Z</time>
      </trkpt>
      <trkpt lat="45.05005" lon="-0.40076">
        <ele>48.4</ele>
        <time>2021-11-27T13:19:04Z</time>
      </trkpt>
      <trkpt lat="45.05006" lon="-0.40075">
        <ele>48.4</ele>
        <time>2021-11-27T13:19:06Z</time>
      </trkpt>
      <trkpt lat="45.05007" lon="-0.40074">
        <ele>48.4</ele>
        <time>2021-11-27T13:19:08Z</time>
      </trkpt>
      <trkpt lat="45.05009" lon="-0.40074">
        <ele>48.4</ele>
        <time>2021-11-27T13:19:09Z</time>
      </trkpt>
      <trkpt lat="45.0501" lon="-0.40073">
        <ele>48.4</ele>
        <time>2021-11-27T13:19:10Z</time>
      </trkpt>
      <trkpt lat="45.05013" lon="-0.40072">
        <ele>48.4</ele>
        <time>2021-11-27T13:19:12Z</time>
      </trkpt>
      <trkpt lat="45.05014" lon="-0.40071">
        <ele>48.5</ele>
        <time>2021-11-27T13:19:13Z</time>
      </trkpt>
      <trkpt lat="45.05015" lon="-0.40071">
        <ele>48.5</ele>
        <time>2021-11-27T13:19:14Z</time>
      </trkpt>
      <trkpt lat="45.05017" lon="-0.40071">
        <ele>48.5</ele>
        <time>2021-11-27T13:19:16Z</time>
      </trkpt>
      <trkpt lat="45.0502" lon="-0.4007">
        <ele>48.5</ele>
        <time>2021-11-27T13:19:17Z</time>
      </trkpt>
      <trkpt lat="45.05021" lon="-0.4007">
        <ele>48.5</ele>
        <time>2021-11-27T13:19:18Z</time>
      </trkpt>
      <trkpt lat="45.05022" lon="-0.40069">
        <ele>48.5</ele>
        <time>2021-11-27T13:19:19Z</time>
      </trkpt>
      <trkpt lat="45.05025" lon="-0.40068">
        <ele>48.6</ele>
        <time>2021-11-27T13:19:21Z</time>
      </trkpt>
      <trkpt lat="45.05027" lon="-0.40067">
        <ele>48.6</ele>
        <time>2021-11-27T13:19:23Z</time>
      </trkpt>
      <trkpt lat="45.05029" lon="-0.40066">
        <ele>48.6</ele>
        <time>2021-11-27T13:19:24Z</time>
      </trkpt>
      <trkpt lat="45.0503" lon="-0.40065">
        <ele>48.6</ele>
        <time>2021-11-27T13:19:25Z</time>
      </trkpt>
      <trkpt lat="45.05031" lon="-0.40064">
        <ele>48.6</ele>
        <time>2021-11-27T13:19:26Z</time>
      </trkpt>
      <trkpt lat="45.05033" lon="-0.40062">
        <ele>48.6</ele>
        <time>2021-11-27T13:19:28Z</time>
      </trkpt>
      <trkpt lat="45.05033" lon="-0.4006">
        <ele>48.7</ele>
        <time>2021-11-27T13:19:29Z</time>
      </trkpt>
      <trkpt lat="45.05035" lon="-0.40057">
        <ele>48.7</ele>
        <time>2021-11-27T13:19:31Z</time>
      </trkpt>
      <trkpt lat="45.05036" lon="-0.40054">
        <ele>48.7</ele>
        <time>2021-11-27T13:19:33Z</time>
      </trkpt>
      <trkpt lat="45.05036" lon="-0.40053">
        <ele>48.7</ele>
        <time>2021-11-27T13:19:34Z</time>
      </trkpt>
      <trkpt lat="45.05037" lon="-0.40051">
        <ele>48.8</ele>
        <time>2021-11-27T13:19:35Z</time>
      </trkpt>
      <trkpt lat="45.05038" lon="-0.40049">
        <ele>48.8</ele>
        <time>2021-11-27T13:19:37Z</time>
      </trkpt>
      <trkpt lat="45.0504" lon="-0.40049">
        <ele>48.8</ele>
        <time>2021-11-27T13:19:38Z</time>
      </trkpt>
      <trkpt lat="45.05041" lon="-0.40049">
        <ele>48.8</ele>
        <time>2021-11-27T13:19:39Z</time>
      </trkpt>
      <trkpt lat="45.05045" lon="-0.40048">
        <ele>48.9</ele>
        <time>2021-11-27T13:19:41Z</time>
      </trkpt>
      <trkpt lat="45.05046" lon="-0.40049">
        <ele>48.9</ele>
        <time>2021-11-27T13:19:42Z</time>
      </trkpt>
      <trkpt lat="45.05047" lon="-0.4005">
        <ele>49</ele>
        <time>2021-11-27T13:19:44Z</time>
      </trkpt>
      <trkpt lat="45.0505" lon="-0.40051">
        <ele>49</ele>
        <time>2021-11-27T13:19:46Z</time>
      </trkpt>
      <trkpt lat="45.05052" lon="-0.4005">
        <ele>49</ele>
        <time>2021-11-27T13:19:47Z</time>
      </trkpt>
      <trkpt lat="45.05053" lon="-0.40049">
        <ele>49</ele>
        <time>2021-11-27T13:19:48Z</time>
      </trkpt>
      <trkpt lat="45.05055" lon="-0.40047">
        <ele>49.1</ele>
        <time>2021-11-27T13:19:50Z</time>
      </trkpt>
      <trkpt lat="45.05056" lon="-0.40047">
        <ele>49.1</ele>
        <time>2021-11-27T13:19:51Z</time>
      </trkpt>
      <trkpt lat="45.05058" lon="-0.40045">
        <ele>49.1</ele>
        <time>2021-11-27T13:19:52Z</time>
      </trkpt>
      <trkpt lat="45.05059" lon="-0.40045">
        <ele>49.1</ele>
        <time>2021-11-27T13:19:54Z</time>
      </trkpt>
      <trkpt lat="45.05061" lon="-0.40044">
        <ele>49.2</ele>
        <time>2021-11-27T13:19:55Z</time>
      </trkpt>
      <trkpt lat="45.05062" lon="-0.40043">
        <ele>49.2</ele>
        <time>2021-11-27T13:19:56Z</time>
      </trkpt>
      <trkpt lat="45.05063" lon="-0.40043">
        <ele>49.2</ele>
        <time>2021-11-27T13:19:57Z</time>
      </trkpt>
      <trkpt lat="45.05064" lon="-0.40042">
        <ele>49.2</ele>
        <time>2021-11-27T13:19:58Z</time>
      </trkpt>
      <trkpt lat="45.05068" lon="-0.40041">
        <ele>49.2</ele>
        <time>2021-11-27T13:20:00Z</time>
      </trkpt>
      <trkpt lat="45.05069" lon="-0.40041">
        <ele>49.3</ele>
        <time>2021-11-27T13:20:01Z</time>
      </trkpt>
      <trkpt lat="45.05071" lon="-0.40039">
        <ele>49.3</ele>
        <time>2021-11-27T13:20:03Z</time>
      </trkpt>
      <trkpt lat="45.05072" lon="-0.40038">
        <ele>49.3</ele>
        <time>2021-11-27T13:20:04Z</time>
      </trkpt>
      <trkpt lat="45.05074" lon="-0.40037">
        <ele>49.3</ele>
        <time>2021-11-27T13:20:05Z</time>
      </trkpt>
      <trkpt lat="45.05075" lon="-0.40037">
        <ele>49.3</ele>
        <time>2021-11-27T13:20:06Z</time>
      </trkpt>
      <trkpt lat="45.05077" lon="-0.40035">
        <ele>49.3</ele>
        <time>2021-11-27T13:20:08Z</time>
      </trkpt>
      <trkpt lat="45.05078" lon="-0.40034">
        <ele>49.4</ele>
        <time>2021-11-27T13:20:09Z</time>
      </trkpt>
      <trkpt lat="45.0508" lon="-0.40033">
        <ele>49.4</ele>
        <time>2021-11-27T13:20:10Z</time>
      </trkpt>
      <trkpt lat="45.05081" lon="-0.40033">
        <ele>49.4</ele>
        <time>2021-11-27T13:20:12Z</time>
      </trkpt>
      <trkpt lat="45.05082" lon="-0.40032">
        <ele>49.4</ele>
        <time>2021-11-27T13:20:13Z</time>
      </trkpt>
      <trkpt lat="45.05085" lon="-0.40031">
        <ele>49.4</ele>
        <time>2021-11-27T13:20:14Z</time>
      </trkpt>
      <trkpt lat="45.05086" lon="-0.40031">
        <ele>49.4</ele>
        <time>2021-11-27T13:20:16Z</time>
      </trkpt>
      <trkpt lat="45.05088" lon="-0.40031">
        <ele>49.5</ele>
        <time>2021-11-27T13:20:17Z</time>
      </trkpt>
      <trkpt lat="45.05089" lon="-0.4003">
        <ele>49.5</ele>
        <time>2021-11-27T13:20:18Z</time>
      </trkpt>
      <trkpt lat="45.05091" lon="-0.4003">
        <ele>49.5</ele>
        <time>2021-11-27T13:20:20Z</time>
      </trkpt>
      <trkpt lat="45.05093" lon="-0.40028">
        <ele>49.5</ele>
        <time>2021-11-27T13:20:21Z</time>
      </trkpt>
      <trkpt lat="45.05096" lon="-0.40026">
        <ele>49.5</ele>
        <time>2021-11-27T13:20:23Z</time>
      </trkpt>
      <trkpt lat="45.05096" lon="-0.40026">
        <ele>49.5</ele>
        <time>2021-11-27T13:20:24Z</time>
      </trkpt>
      <trkpt lat="45.05099" lon="-0.40024">
        <ele>49.6</ele>
        <time>2021-11-27T13:20:25Z</time>
      </trkpt>
      <trkpt lat="45.051" lon="-0.40024">
        <ele>49.6</ele>
        <time>2021-11-27T13:20:27Z</time>
      </trkpt>
      <trkpt lat="45.05102" lon="-0.40023">
        <ele>49.6</ele>
        <time>2021-11-27T13:20:28Z</time>
      </trkpt>
      <trkpt lat="45.05103" lon="-0.40022">
        <ele>49.6</ele>
        <time>2021-11-27T13:20:29Z</time>
      </trkpt>
      <trkpt lat="45.05104" lon="-0.40022">
        <ele>49.6</ele>
        <time>2021-11-27T13:20:30Z</time>
      </trkpt>
      <trkpt lat="45.05106" lon="-0.40022">
        <ele>49.6</ele>
        <time>2021-11-27T13:20:31Z</time>
      </trkpt>
      <trkpt lat="45.05108" lon="-0.40021">
        <ele>49.7</ele>
        <time>2021-11-27T13:20:33Z</time>
      </trkpt>
      <trkpt lat="45.0511" lon="-0.4002">
        <ele>49.7</ele>
        <time>2021-11-27T13:20:34Z</time>
      </trkpt>
      <trkpt lat="45.05112" lon="-0.40019">
        <ele>49.7</ele>
        <time>2021-11-27T13:20:36Z</time>
      </trkpt>
      <trkpt lat="45.05113" lon="-0.40018">
        <ele>49.7</ele>
        <time>2021-11-27T13:20:37Z</time>
      </trkpt>
      <trkpt lat="45.05114" lon="-0.40017">
        <ele>49.8</ele>
        <time>2021-11-27T13:20:38Z</time>
      </trkpt>
      <trkpt lat="45.05115" lon="-0.40015">
        <ele>49.8</ele>
        <time>2021-11-27T13:20:40Z</time>
      </trkpt>
      <trkpt lat="45.05116" lon="-0.40014">
        <ele>49.8</ele>
        <time>2021-11-27T13:20:41Z</time>
      </trkpt>
      <trkpt lat="45.05118" lon="-0.40012">
        <ele>49.8</ele>
        <time>2021-11-27T13:20:43Z</time>
      </trkpt>
      <trkpt lat="45.05119" lon="-0.40012">
        <ele>49.9</ele>
        <time>2021-11-27T13:20:44Z</time>
      </trkpt>
      <trkpt lat="45.05121" lon="-0.40011">
        <ele>49.9</ele>
        <time>2021-11-27T13:20:45Z</time>
      </trkpt>
      <trkpt lat="45.05123" lon="-0.40009">
        <ele>49.9</ele>
        <time>2021-11-27T13:20:47Z</time>
      </trkpt>
      <trkpt lat="45.05124" lon="-0.40009">
        <ele>49.9</ele>
        <time>2021-11-27T13:20:48Z</time>
      </trkpt>
      <trkpt lat="45.05127" lon="-0.40006">
        <ele>50</ele>
        <time>2021-11-27T13:20:49Z</time>
      </trkpt>
      <trkpt lat="45.05128" lon="-0.40006">
        <ele>50</ele>
        <time>2021-11-27T13:20:51Z</time>
      </trkpt>
      <trkpt lat="45.0513" lon="-0.40005">
        <ele>50</ele>
        <time>2021-11-27T13:20:52Z</time>
      </trkpt>
      <trkpt lat="45.05131" lon="-0.40004">
        <ele>50</ele>
        <time>2021-11-27T13:20:53Z</time>
      </trkpt>
      <trkpt lat="45.05134" lon="-0.40002">
        <ele>50.1</ele>
        <time>2021-11-27T13:20:55Z</time>
      </trkpt>
      <trkpt lat="45.05134" lon="-0.40002">
        <ele>50.1</ele>
        <time>2021-11-27T13:20:56Z</time>
      </trkpt>
      <trkpt lat="45.05136" lon="-0.4">
        <ele>50.1</ele>
        <time>2021-11-27T13:20:57Z</time>
      </trkpt>
      <trkpt lat="45.05137" lon="-0.4">
        <ele>50.1</ele>
        <time>2021-11-27T13:20:58Z</time>
      </trkpt>
      <trkpt lat="45.05139" lon="-0.39999">
        <ele>50.1</ele>
        <time>2021-11-27T13:21:00Z</time>
      </trkpt>
      <trkpt lat="45.0514" lon="-0.39998">
        <ele>50.1</ele>
        <time>2021-11-27T13:21:01Z</time>
      </trkpt>
      <trkpt lat="45.05142" lon="-0.39996">
        <ele>50.2</ele>
        <time>2021-11-27T13:21:02Z</time>
      </trkpt>
      <trkpt lat="45.05143" lon="-0.39996">
        <ele>50.2</ele>
        <time>2021-11-27T13:21:03Z</time>
      </trkpt>
      <trkpt lat="45.05144" lon="-0.39995">
        <ele>50.2</ele>
        <time>2021-11-27T13:21:04Z</time>
      </trkpt>
      <trkpt lat="45.05145" lon="-0.39994">
        <ele>50.2</ele>
        <time>2021-11-27T13:21:05Z</time>
      </trkpt>
      <trkpt lat="45.05147" lon="-0.39992">
        <ele>50.2</ele>
        <time>2021-11-27T13:21:07Z</time>
      </trkpt>
      <trkpt lat="45.05149" lon="-0.39991">
        <ele>50.2</ele>
        <time>2021-11-27T13:21:09Z</time>
      </trkpt>
      <trkpt lat="45.0515" lon="-0.3999">
        <ele>50.2</ele>
        <time>2021-11-27T13:21:10Z</time>
      </trkpt>
      <trkpt lat="45.05153" lon="-0.39989">
        <ele>50.3</ele>
        <time>2021-11-27T13:21:12Z</time>
      </trkpt>
      <trkpt lat="45.05153" lon="-0.39988">
        <ele>50.3</ele>
        <time>2021-11-27T13:21:13Z</time>
      </trkpt>
      <trkpt lat="45.05155" lon="-0.39987">
        <ele>50.3</ele>
        <time>2021-11-27T13:21:14Z</time>
      </trkpt>
      <trkpt lat="45.05156" lon="-0.39986">
        <ele>50.3</ele>
        <time>2021-11-27T13:21:16Z</time>
      </trkpt>
      <trkpt lat="45.05158" lon="-0.39985">
        <ele>50.3</ele>
        <time>2021-11-27T13:21:17Z</time>
      </trkpt>
      <trkpt lat="45.05159" lon="-0.39985">
        <ele>50.3</ele>
        <time>2021-11-27T13:21:18Z</time>
      </trkpt>
      <trkpt lat="45.0516" lon="-0.39983">
        <ele>50.3</ele>
        <time>2021-11-27T13:21:20Z</time>
      </trkpt>
      <trkpt lat="45.05162" lon="-0.39982">
        <ele>50.3</ele>
        <time>2021-11-27T13:21:21Z</time>
      </trkpt>
      <trkpt lat="45.05164" lon="-0.39981">
        <ele>50.3</ele>
        <time>2021-11-27T13:21:23Z</time>
      </trkpt>
      <trkpt lat="45.05165" lon="-0.3998">
        <ele>50.3</ele>
        <time>2021-11-27T13:21:24Z</time>
      </trkpt>
      <trkpt lat="45.05167" lon="-0.39979">
        <ele>50.3</ele>
        <time>2021-11-27T13:21:25Z</time>
      </trkpt>
      <trkpt lat="45.05168" lon="-0.39977">
        <ele>50.3</ele>
        <time>2021-11-27T13:21:27Z</time>
      </trkpt>
      <trkpt lat="45.0517" lon="-0.39975">
        <ele>50.3</ele>
        <time>2021-11-27T13:21:28Z</time>
      </trkpt>
      <trkpt lat="45.0517" lon="-0.39974">
        <ele>50.3</ele>
        <time>2021-11-27T13:21:29Z</time>
      </trkpt>
      <trkpt lat="45.05172" lon="-0.39971">
        <ele>50.4</ele>
        <time>2021-11-27T13:21:31Z</time>
      </trkpt>
      <trkpt lat="45.05173" lon="-0.3997">
        <ele>50.4</ele>
        <time>2021-11-27T13:21:32Z</time>
      </trkpt>
      <trkpt lat="45.05175" lon="-0.39968">
        <ele>50.4</ele>
        <time>2021-11-27T13:21:33Z</time>
      </trkpt>
      <trkpt lat="45.05176" lon="-0.39967">
        <ele>50.4</ele>
        <time>2021-11-27T13:21:35Z</time>
      </trkpt>
      <trkpt lat="45.05177" lon="-0.39965">
        <ele>50.7</ele>
        <time>2021-11-27T13:21:36Z</time>
      </trkpt>
      <trkpt lat="45.05178" lon="-0.39963">
        <ele>51</ele>
        <time>2021-11-27T13:21:37Z</time>
      </trkpt>
      <trkpt lat="45.05179" lon="-0.39961">
        <ele>51.3</ele>
        <time>2021-11-27T13:21:38Z</time>
      </trkpt>
      <trkpt lat="45.0518" lon="-0.39959">
        <ele>51.6</ele>
        <time>2021-11-27T13:21:39Z</time>
      </trkpt>
      <trkpt lat="45.05181" lon="-0.39958">
        <ele>51.9</ele>
        <time>2021-11-27T13:21:41Z</time>
      </trkpt>
      <trkpt lat="45.05182" lon="-0.39957">
        <ele>52.2</ele>
        <time>2021-11-27T13:21:42Z</time>
      </trkpt>
      <trkpt lat="45.05182" lon="-0.39955">
        <ele>52.5</ele>
        <time>2021-11-27T13:21:43Z</time>
      </trkpt>
      <trkpt lat="45.05182" lon="-0.39954">
        <ele>52.7</ele>
        <time>2021-11-27T13:21:44Z</time>
      </trkpt>
      <trkpt lat="45.05183" lon="-0.39953">
        <ele>53</ele>
        <time>2021-11-27T13:21:45Z</time>
      </trkpt>
      <trkpt lat="45.05183" lon="-0.39951">
        <ele>53.3</ele>
        <time>2021-11-27T13:21:46Z</time>
      </trkpt>
      <trkpt lat="45.05182" lon="-0.39949">
        <ele>53.6</ele>
        <time>2021-11-27T13:21:47Z</time>
      </trkpt>
      <trkpt lat="45.05181" lon="-0.39947">
        <ele>53.8</ele>
        <time>2021-11-27T13:21:48Z</time>
      </trkpt>
      <trkpt lat="45.05181" lon="-0.39946">
        <ele>54.1</ele>
        <time>2021-11-27T13:21:49Z</time>
      </trkpt>
      <trkpt lat="45.0518" lon="-0.39946">
        <ele>54.4</ele>
        <time>2021-11-27T13:21:50Z</time>
      </trkpt>
      <trkpt lat="45.05179" lon="-0.39944">
        <ele>54.7</ele>
        <time>2021-11-27T13:21:51Z</time>
      </trkpt>
      <trkpt lat="45.05178" lon="-0.39942">
        <ele>54.6</ele>
        <time>2021-11-27T13:21:53Z</time>
      </trkpt>
      <trkpt lat="45.05177" lon="-0.3994">
        <ele>54.5</ele>
        <time>2021-11-27T13:21:54Z</time>
      </trkpt>
      <trkpt lat="45.05176" lon="-0.39939">
        <ele>54.5</ele>
        <time>2021-11-27T13:21:55Z</time>
      </trkpt>
      <trkpt lat="45.05175" lon="-0.39935">
        <ele>54.3</ele>
        <time>2021-11-27T13:21:57Z</time>
      </trkpt>
      <trkpt lat="45.05175" lon="-0.39934">
        <ele>54.3</ele>
        <time>2021-11-27T13:21:58Z</time>
      </trkpt>
      <trkpt lat="45.05175" lon="-0.39932">
        <ele>54.2</ele>
        <time>2021-11-27T13:21:59Z</time>
      </trkpt>
      <trkpt lat="45.05176" lon="-0.3993">
        <ele>54.2</ele>
        <time>2021-11-27T13:22:00Z</time>
      </trkpt>
      <trkpt lat="45.05176" lon="-0.39928">
        <ele>54.1</ele>
        <time>2021-11-27T13:22:02Z</time>
      </trkpt>
      <trkpt lat="45.05175" lon="-0.39926">
        <ele>54</ele>
        <time>2021-11-27T13:22:03Z</time>
      </trkpt>
      <trkpt lat="45.05175" lon="-0.39924">
        <ele>54</ele>
        <time>2021-11-27T13:22:04Z</time>
      </trkpt>
      <trkpt lat="45.05175" lon="-0.39924">
        <ele>54</ele>
        <time>2021-11-27T13:22:05Z</time>
      </trkpt>
      <trkpt lat="45.05174" lon="-0.39921">
        <ele>53.8</ele>
        <time>2021-11-27T13:22:07Z</time>
      </trkpt>
      <trkpt lat="45.05174" lon="-0.3992">
        <ele>53.8</ele>
        <time>2021-11-27T13:22:08Z</time>
      </trkpt>
      <trkpt lat="45.05174" lon="-0.39918">
        <ele>53.8</ele>
        <time>2021-11-27T13:22:09Z</time>
      </trkpt>
      <trkpt lat="45.05174" lon="-0.39915">
        <ele>53.6</ele>
        <time>2021-11-27T13:22:11Z</time>
      </trkpt>
      <trkpt lat="45.05173" lon="-0.39914">
        <ele>53.6</ele>
        <time>2021-11-27T13:22:13Z</time>
      </trkpt>
      <trkpt lat="45.05173" lon="-0.39913">
        <ele>53.6</ele>
        <time>2021-11-27T13:22:14Z</time>
      </trkpt>
      <trkpt lat="45.05173" lon="-0.39911">
        <ele>53.5</ele>
        <time>2021-11-27T13:22:15Z</time>
      </trkpt>
      <trkpt lat="45.05172" lon="-0.3991">
        <ele>53.4</ele>
        <time>2021-11-27T13:22:16Z</time>
      </trkpt>
      <trkpt lat="45.05172" lon="-0.39909">
        <ele>53.4</ele>
        <time>2021-11-27T13:22:17Z</time>
      </trkpt>
      <trkpt lat="45.05172" lon="-0.39905">
        <ele>53.3</ele>
        <time>2021-11-27T13:22:19Z</time>
      </trkpt>
      <trkpt lat="45.05172" lon="-0.39904">
        <ele>53.2</ele>
        <time>2021-11-27T13:22:20Z</time>
      </trkpt>
      <trkpt lat="45.05172" lon="-0.39902">
        <ele>53.1</ele>
        <time>2021-11-27T13:22:21Z</time>
      </trkpt>
      <trkpt lat="45.05172" lon="-0.399">
        <ele>53.1</ele>
        <time>2021-11-27T13:22:22Z</time>
      </trkpt>
      <trkpt lat="45.05172" lon="-0.39897">
        <ele>53</ele>
        <time>2021-11-27T13:22:23Z</time>
      </trkpt>
      <trkpt lat="45.05171" lon="-0.39896">
        <ele>52.9</ele>
        <time>2021-11-27T13:22:25Z</time>
      </trkpt>
      <trkpt lat="45.05171" lon="-0.39894">
        <ele>52.9</ele>
        <time>2021-11-27T13:22:26Z</time>
      </trkpt>
      <trkpt lat="45.05171" lon="-0.39892">
        <ele>52.8</ele>
        <time>2021-11-27T13:22:27Z</time>
      </trkpt>
      <trkpt lat="45.0517" lon="-0.3989">
        <ele>52.7</ele>
        <time>2021-11-27T13:22:28Z</time>
      </trkpt>
      <trkpt lat="45.0517" lon="-0.39888">
        <ele>52.6</ele>
        <time>2021-11-27T13:22:29Z</time>
      </trkpt>
      <trkpt lat="45.05169" lon="-0.39885">
        <ele>52.5</ele>
        <time>2021-11-27T13:22:31Z</time>
      </trkpt>
      <trkpt lat="45.05168" lon="-0.39881">
        <ele>52.3</ele>
        <time>2021-11-27T13:22:33Z</time>
      </trkpt>
      <trkpt lat="45.05168" lon="-0.3988">
        <ele>52.3</ele>
        <time>2021-11-27T13:22:34Z</time>
      </trkpt>
      <trkpt lat="45.05168" lon="-0.39879">
        <ele>52.3</ele>
        <time>2021-11-27T13:22:36Z</time>
      </trkpt>
      <trkpt lat="45.05167" lon="-0.39878">
        <ele>52.2</ele>
        <time>2021-11-27T13:22:37Z</time>
      </trkpt>
      <trkpt lat="45.05167" lon="-0.39876">
        <ele>52.1</ele>
        <time>2021-11-27T13:22:38Z</time>
      </trkpt>
      <trkpt lat="45.05166" lon="-0.39874">
        <ele>52</ele>
        <time>2021-11-27T13:22:39Z</time>
      </trkpt>
      <trkpt lat="45.05166" lon="-0.39873">
        <ele>52</ele>
        <time>2021-11-27T13:22:40Z</time>
      </trkpt>
      <trkpt lat="45.05165" lon="-0.39872">
        <ele>51.9</ele>
        <time>2021-11-27T13:22:41Z</time>
      </trkpt>
      <trkpt lat="45.05165" lon="-0.3987">
        <ele>51.9</ele>
        <time>2021-11-27T13:22:42Z</time>
      </trkpt>
      <trkpt lat="45.05164" lon="-0.39866">
        <ele>51.7</ele>
        <time>2021-11-27T13:22:44Z</time>
      </trkpt>
      <trkpt lat="45.05163" lon="-0.39865">
        <ele>51.7</ele>
        <time>2021-11-27T13:22:45Z</time>
      </trkpt>
      <trkpt lat="45.05163" lon="-0.39862">
        <ele>51.6</ele>
        <time>2021-11-27T13:22:46Z</time>
      </trkpt>
      <trkpt lat="45.05162" lon="-0.3986">
        <ele>51.5</ele>
        <time>2021-11-27T13:22:47Z</time>
      </trkpt>
      <trkpt lat="45.05162" lon="-0.39858">
        <ele>51.4</ele>
        <time>2021-11-27T13:22:49Z</time>
      </trkpt>
      <trkpt lat="45.05162" lon="-0.39856">
        <ele>51.3</ele>
        <time>2021-11-27T13:22:50Z</time>
      </trkpt>
      <trkpt lat="45.05162" lon="-0.39854">
        <ele>51.3</ele>
        <time>2021-11-27T13:22:51Z</time>
      </trkpt>
      <trkpt lat="45.05161" lon="-0.39851">
        <ele>51.1</ele>
        <time>2021-11-27T13:22:52Z</time>
      </trkpt>
      <trkpt lat="45.05161" lon="-0.3985">
        <ele>51.1</ele>
        <time>2021-11-27T13:22:53Z</time>
      </trkpt>
      <trkpt lat="45.05161" lon="-0.39849">
        <ele>51</ele>
        <time>2021-11-27T13:22:54Z</time>
      </trkpt>
      <trkpt lat="45.0516" lon="-0.39848">
        <ele>51</ele>
        <time>2021-11-27T13:22:55Z</time>
      </trkpt>
      <trkpt lat="45.0516" lon="-0.39846">
        <ele>50.9</ele>
        <time>2021-11-27T13:22:57Z</time>
      </trkpt>
      <trkpt lat="45.05159" lon="-0.39845">
        <ele>50.9</ele>
        <time>2021-11-27T13:22:58Z</time>
      </trkpt>
      <trkpt lat="45.05159" lon="-0.39843">
        <ele>50.8</ele>
        <time>2021-11-27T13:22:59Z</time>
      </trkpt>
      <trkpt lat="45.0516" lon="-0.39843">
        <ele>50.7</ele>
        <time>2021-11-27T13:23:00Z</time>
      </trkpt>
      <trkpt lat="45.05161" lon="-0.39844">
        <ele>50.7</ele>
        <time>2021-11-27T13:23:02Z</time>
      </trkpt>
      <trkpt lat="45.05163" lon="-0.39845">
        <ele>50.6</ele>
        <time>2021-11-27T13:23:03Z</time>
      </trkpt>
      <trkpt lat="45.05165" lon="-0.39846">
        <ele>50.5</ele>
        <time>2021-11-27T13:23:04Z</time>
      </trkpt>
      <trkpt lat="45.05166" lon="-0.39847">
        <ele>50.4</ele>
        <time>2021-11-27T13:23:05Z</time>
      </trkpt>
      <trkpt lat="45.05167" lon="-0.39849">
        <ele>50.3</ele>
        <time>2021-11-27T13:23:06Z</time>
      </trkpt>
      <trkpt lat="45.05168" lon="-0.39851">
        <ele>50.2</ele>
        <time>2021-11-27T13:23:07Z</time>
      </trkpt>
      <trkpt lat="45.05169" lon="-0.39854">
        <ele>50.1</ele>
        <time>2021-11-27T13:23:09Z</time>
      </trkpt>
      <trkpt lat="45.0517" lon="-0.39855">
        <ele>50</ele>
        <time>2021-11-27T13:23:10Z</time>
      </trkpt>
      <trkpt lat="45.0517" lon="-0.39857">
        <ele>50.1</ele>
        <time>2021-11-27T13:23:11Z</time>
      </trkpt>
      <trkpt lat="45.0517" lon="-0.3986">
        <ele>50.3</ele>
        <time>2021-11-27T13:23:12Z</time>
      </trkpt>
      <trkpt lat="45.05171" lon="-0.39863">
        <ele>50.4</ele>
        <time>2021-11-27T13:23:13Z</time>
      </trkpt>
      <trkpt lat="45.05172" lon="-0.39864">
        <ele>50.5</ele>
        <time>2021-11-27T13:23:14Z</time>
      </trkpt>
      <trkpt lat="45.05172" lon="-0.39866">
        <ele>50.6</ele>
        <time>2021-11-27T13:23:15Z</time>
      </trkpt>
      <trkpt lat="45.05173" lon="-0.39867">
        <ele>50.7</ele>
        <time>2021-11-27T13:23:16Z</time>
      </trkpt>
      <trkpt lat="45.05174" lon="-0.39869">
        <ele>50.8</ele>
        <time>2021-11-27T13:23:18Z</time>
      </trkpt>
      <trkpt lat="45.05175" lon="-0.39873">
        <ele>51</ele>
        <time>2021-11-27T13:23:19Z</time>
      </trkpt>
      <trkpt lat="45.05175" lon="-0.39874">
        <ele>51</ele>
        <time>2021-11-27T13:23:21Z</time>
      </trkpt>
      <trkpt lat="45.05176" lon="-0.39875">
        <ele>51.1</ele>
        <time>2021-11-27T13:23:22Z</time>
      </trkpt>
      <trkpt lat="45.05176" lon="-0.39877">
        <ele>51.2</ele>
        <time>2021-11-27T13:23:23Z</time>
      </trkpt>
      <trkpt lat="45.05177" lon="-0.39879">
        <ele>51.3</ele>
        <time>2021-11-27T13:23:24Z</time>
      </trkpt>
      <trkpt lat="45.05177" lon="-0.3988">
        <ele>51.4</ele>
        <time>2021-11-27T13:23:25Z</time>
      </trkpt>
      <trkpt lat="45.05177" lon="-0.39881">
        <ele>51.4</ele>
        <time>2021-11-27T13:23:26Z</time>
      </trkpt>
      <trkpt lat="45.05178" lon="-0.39883">
        <ele>51.5</ele>
        <time>2021-11-27T13:23:27Z</time>
      </trkpt>
      <trkpt lat="45.05178" lon="-0.39885">
        <ele>51.6</ele>
        <time>2021-11-27T13:23:28Z</time>
      </trkpt>
      <trkpt lat="45.05178" lon="-0.39886">
        <ele>51.7</ele>
        <time>2021-11-27T13:23:29Z</time>
      </trkpt>
      <trkpt lat="45.05178" lon="-0.39887">
        <ele>51.7</ele>
        <time>2021-11-27T13:23:30Z</time>
      </trkpt>
      <trkpt lat="45.05179" lon="-0.39888">
        <ele>51.8</ele>
        <time>2021-11-27T13:23:31Z</time>
      </trkpt>
      <trkpt lat="45.05179" lon="-0.39889">
        <ele>51.9</ele>
        <time>2021-11-27T13:23:32Z</time>
      </trkpt>
      <trkpt lat="45.05179" lon="-0.39893">
        <ele>52</ele>
        <time>2021-11-27T13:23:34Z</time>
      </trkpt>
      <trkpt lat="45.05179" lon="-0.39894">
        <ele>52.1</ele>
        <time>2021-11-27T13:23:36Z</time>
      </trkpt>
      <trkpt lat="45.05179" lon="-0.39894">
        <ele>52.1</ele>
        <time>2021-11-27T13:23:37Z</time>
      </trkpt>
      <trkpt lat="45.05178" lon="-0.39893">
        <ele>52.1</ele>
        <time>2021-11-27T13:23:39Z</time>
      </trkpt>
      <trkpt lat="45.05179" lon="-0.39893">
        <ele>52.1</ele>
        <time>2021-11-27T13:23:40Z</time>
      </trkpt>
      <trkpt lat="45.05179" lon="-0.39892">
        <ele>52.2</ele>
        <time>2021-11-27T13:23:41Z</time>
      </trkpt>
      <trkpt lat="45.05179" lon="-0.39892">
        <ele>52.2</ele>
        <time>2021-11-27T13:23:42Z</time>
      </trkpt>
      <trkpt lat="45.05179" lon="-0.3989">
        <ele>52.3</ele>
        <time>2021-11-27T13:23:44Z</time>
      </trkpt>
      <trkpt lat="45.05178" lon="-0.3989">
        <ele>52.3</ele>
        <time>2021-11-27T13:23:45Z</time>
      </trkpt>
      <trkpt lat="45.05178" lon="-0.3989">
        <ele>52.3</ele>
        <time>2021-11-27T13:23:46Z</time>
      </trkpt>
      <trkpt lat="45.05178" lon="-0.3989">
        <ele>52.3</ele>
        <time>2021-11-27T13:23:48Z</time>
      </trkpt>
      <trkpt lat="45.05179" lon="-0.3989">
        <ele>52.3</ele>
        <time>2021-11-27T13:23:49Z</time>
      </trkpt>
      <trkpt lat="45.05179" lon="-0.3989">
        <ele>52.3</ele>
        <time>2021-11-27T13:23:51Z</time>
      </trkpt>
      <trkpt lat="45.05179" lon="-0.3989">
        <ele>52.4</ele>
        <time>2021-11-27T13:23:53Z</time>
      </trkpt>
      <trkpt lat="45.05179" lon="-0.3989">
        <ele>52.4</ele>
        <time>2021-11-27T13:23:55Z</time>
      </trkpt>
      <trkpt lat="45.05179" lon="-0.3989">
        <ele>52.4</ele>
        <time>2021-11-27T13:23:56Z</time>
      </trkpt>
      <trkpt lat="45.0518" lon="-0.3989">
        <ele>52.4</ele>
        <time>2021-11-27T13:23:57Z</time>
      </trkpt>
      <trkpt lat="45.0518" lon="-0.3989">
        <ele>52.4</ele>
        <time>2021-11-27T13:23:58Z</time>
      </trkpt>
      <trkpt lat="45.0518" lon="-0.3989">
        <ele>52.4</ele>
        <time>2021-11-27T13:24:00Z</time>
      </trkpt>
      <trkpt lat="45.0518" lon="-0.3989">
        <ele>52.4</ele>
        <time>2021-11-27T13:24:01Z</time>
      </trkpt>
      <trkpt lat="45.0518" lon="-0.3989">
        <ele>52.4</ele>
        <time>2021-11-27T13:24:02Z</time>
      </trkpt>
      <trkpt lat="45.0518" lon="-0.39891">
        <ele>52.5</ele>
        <time>2021-11-27T13:24:04Z</time>
      </trkpt>
      <trkpt lat="45.05181" lon="-0.39893">
        <ele>52.6</ele>
        <time>2021-11-27T13:24:06Z</time>
      </trkpt>
      <trkpt lat="45.05182" lon="-0.39896">
        <ele>52.7</ele>
        <time>2021-11-27T13:24:08Z</time>
      </trkpt>
      <trkpt lat="45.05182" lon="-0.39899">
        <ele>52.9</ele>
        <time>2021-11-27T13:24:09Z</time>
      </trkpt>
      <trkpt lat="45.05183" lon="-0.39901">
        <ele>53</ele>
        <time>2021-11-27T13:24:11Z</time>
      </trkpt>
      <trkpt lat="45.05184" lon="-0.39903">
        <ele>53.1</ele>
        <time>2021-11-27T13:24:12Z</time>
      </trkpt>
      <trkpt lat="45.05185" lon="-0.39904">
        <ele>53.2</ele>
        <time>2021-11-27T13:24:13Z</time>
      </trkpt>
      <trkpt lat="45.05185" lon="-0.39906">
        <ele>53.3</ele>
        <time>2021-11-27T13:24:14Z</time>
      </trkpt>
      <trkpt lat="45.05186" lon="-0.39908">
        <ele>53.4</ele>
        <time>2021-11-27T13:24:15Z</time>
      </trkpt>
      <trkpt lat="45.05187" lon="-0.3991">
        <ele>53.5</ele>
        <time>2021-11-27T13:24:16Z</time>
      </trkpt>
      <trkpt lat="45.05187" lon="-0.39912">
        <ele>53.6</ele>
        <time>2021-11-27T13:24:17Z</time>
      </trkpt>
      <trkpt lat="45.05188" lon="-0.39914">
        <ele>53.7</ele>
        <time>2021-11-27T13:24:18Z</time>
      </trkpt>
      <trkpt lat="45.05188" lon="-0.39916">
        <ele>53.8</ele>
        <time>2021-11-27T13:24:20Z</time>
      </trkpt>
      <trkpt lat="45.05189" lon="-0.39918">
        <ele>53.9</ele>
        <time>2021-11-27T13:24:21Z</time>
      </trkpt>
      <trkpt lat="45.05189" lon="-0.39921">
        <ele>54.1</ele>
        <time>2021-11-27T13:24:22Z</time>
      </trkpt>
      <trkpt lat="45.05189" lon="-0.39926">
        <ele>54.3</ele>
        <time>2021-11-27T13:24:24Z</time>
      </trkpt>
      <trkpt lat="45.05189" lon="-0.39926">
        <ele>54.3</ele>
        <time>2021-11-27T13:24:25Z</time>
      </trkpt>
      <trkpt lat="45.0519" lon="-0.39929">
        <ele>54.4</ele>
        <time>2021-11-27T13:24:26Z</time>
      </trkpt>
      <trkpt lat="45.0519" lon="-0.39931">
        <ele>54.5</ele>
        <time>2021-11-27T13:24:28Z</time>
      </trkpt>
      <trkpt lat="45.05191" lon="-0.39935">
        <ele>54.7</ele>
        <time>2021-11-27T13:24:29Z</time>
      </trkpt>
      <trkpt lat="45.05191" lon="-0.39936">
        <ele>54.7</ele>
        <time>2021-11-27T13:24:30Z</time>
      </trkpt>
      <trkpt lat="45.05192" lon="-0.3994">
        <ele>54.9</ele>
        <time>2021-11-27T13:24:32Z</time>
      </trkpt>
      <trkpt lat="45.05193" lon="-0.39941">
        <ele>54.9</ele>
        <time>2021-11-27T13:24:33Z</time>
      </trkpt>
      <trkpt lat="45.05194" lon="-0.39943">
        <ele>55</ele>
        <time>2021-11-27T13:24:34Z</time>
      </trkpt>
      <trkpt lat="45.05195" lon="-0.39945">
        <ele>55.1</ele>
        <time>2021-11-27T13:24:36Z</time>
      </trkpt>
      <trkpt lat="45.05195" lon="-0.39946">
        <ele>55.2</ele>
        <time>2021-11-27T13:24:37Z</time>
      </trkpt>
      <trkpt lat="45.05196" lon="-0.39947">
        <ele>55.3</ele>
        <time>2021-11-27T13:24:38Z</time>
      </trkpt>
      <trkpt lat="45.05198" lon="-0.3995">
        <ele>55.4</ele>
        <time>2021-11-27T13:24:40Z</time>
      </trkpt>
      <trkpt lat="45.05199" lon="-0.39951">
        <ele>55.4</ele>
        <time>2021-11-27T13:24:41Z</time>
      </trkpt>
      <trkpt lat="45.052" lon="-0.39952">
        <ele>55.5</ele>
        <time>2021-11-27T13:24:42Z</time>
      </trkpt>
      <trkpt lat="45.05202" lon="-0.39956">
        <ele>55.6</ele>
        <time>2021-11-27T13:24:44Z</time>
      </trkpt>
      <trkpt lat="45.05203" lon="-0.39958">
        <ele>55.7</ele>
        <time>2021-11-27T13:24:45Z</time>
      </trkpt>
      <trkpt lat="45.05203" lon="-0.3996">
        <ele>55.8</ele>
        <time>2021-11-27T13:24:46Z</time>
      </trkpt>
      <trkpt lat="45.05204" lon="-0.39962">
        <ele>55.8</ele>
        <time>2021-11-27T13:24:47Z</time>
      </trkpt>
      <trkpt lat="45.05205" lon="-0.39964">
        <ele>55.9</ele>
        <time>2021-11-27T13:24:48Z</time>
      </trkpt>
      <trkpt lat="45.05207" lon="-0.39968">
        <ele>56</ele>
        <time>2021-11-27T13:24:50Z</time>
      </trkpt>
      <trkpt lat="45.05207" lon="-0.39969">
        <ele>56.1</ele>
        <time>2021-11-27T13:24:51Z</time>
      </trkpt>
      <trkpt lat="45.05208" lon="-0.39972">
        <ele>56.1</ele>
        <time>2021-11-27T13:24:53Z</time>
      </trkpt>
      <trkpt lat="45.0521" lon="-0.39976">
        <ele>56.3</ele>
        <time>2021-11-27T13:24:55Z</time>
      </trkpt>
      <trkpt lat="45.0521" lon="-0.39976">
        <ele>56.3</ele>
        <time>2021-11-27T13:24:56Z</time>
      </trkpt>
      <trkpt lat="45.05211" lon="-0.39979">
        <ele>56.4</ele>
        <time>2021-11-27T13:24:57Z</time>
      </trkpt>
      <trkpt lat="45.05211" lon="-0.3998">
        <ele>56.4</ele>
        <time>2021-11-27T13:24:58Z</time>
      </trkpt>
      <trkpt lat="45.05211" lon="-0.39982">
        <ele>56.4</ele>
        <time>2021-11-27T13:24:59Z</time>
      </trkpt>
      <trkpt lat="45.05212" lon="-0.39984">
        <ele>56.5</ele>
        <time>2021-11-27T13:25:00Z</time>
      </trkpt>
      <trkpt lat="45.05213" lon="-0.39986">
        <ele>56.6</ele>
        <time>2021-11-27T13:25:02Z</time>
      </trkpt>
      <trkpt lat="45.05213" lon="-0.39988">
        <ele>56.6</ele>
        <time>2021-11-27T13:25:04Z</time>
      </trkpt>
      <trkpt lat="45.05214" lon="-0.39991">
        <ele>56.7</ele>
        <time>2021-11-27T13:25:05Z</time>
      </trkpt>
      <trkpt lat="45.05214" lon="-0.39993">
        <ele>56.7</ele>
        <time>2021-11-27T13:25:06Z</time>
      </trkpt>
      <trkpt lat="45.05215" lon="-0.39997">
        <ele>56.7</ele>
        <time>2021-11-27T13:25:08Z</time>
      </trkpt>
      <trkpt lat="45.05216" lon="-0.39998">
        <ele>56.8</ele>
        <time>2021-11-27T13:25:09Z</time>
      </trkpt>
      <trkpt lat="45.05217" lon="-0.4">
        <ele>56.8</ele>
        <time>2021-11-27T13:25:10Z</time>
      </trkpt>
      <trkpt lat="45.05218" lon="-0.40002">
        <ele>56.8</ele>
        <time>2021-11-27T13:25:12Z</time>
      </trkpt>
      <trkpt lat="45.05218" lon="-0.40003">
        <ele>56.8</ele>
        <time>2021-11-27T13:25:13Z</time>
      </trkpt>
      <trkpt lat="45.05221" lon="-0.40006">
        <ele>56.9</ele>
        <time>2021-11-27T13:25:15Z</time>
      </trkpt>
      <trkpt lat="45.05221" lon="-0.40007">
        <ele>56.9</ele>
        <time>2021-11-27T13:25:16Z</time>
      </trkpt>
      <trkpt lat="45.05222" lon="-0.4001">
        <ele>56.9</ele>
        <time>2021-11-27T13:25:17Z</time>
      </trkpt>
      <trkpt lat="45.05223" lon="-0.40012">
        <ele>56.9</ele>
        <time>2021-11-27T13:25:19Z</time>
      </trkpt>
      <trkpt lat="45.05224" lon="-0.40015">
        <ele>56.9</ele>
        <time>2021-11-27T13:25:20Z</time>
      </trkpt>
      <trkpt lat="45.05225" lon="-0.40016">
        <ele>56.9</ele>
        <time>2021-11-27T13:25:21Z</time>
      </trkpt>
      <trkpt lat="45.05225" lon="-0.40018">
        <ele>56.9</ele>
        <time>2021-11-27T13:25:23Z</time>
      </trkpt>
      <trkpt lat="45.05226" lon="-0.4002">
        <ele>56.9</ele>
        <time>2021-11-27T13:25:24Z</time>
      </trkpt>
      <trkpt lat="45.05226" lon="-0.40024">
        <ele>56.9</ele>
        <time>2021-11-27T13:25:25Z</time>
      </trkpt>
      <trkpt lat="45.05226" lon="-0.40026">
        <ele>56.9</ele>
        <time>2021-11-27T13:25:27Z</time>
      </trkpt>
      <trkpt lat="45.05227" lon="-0.40028">
        <ele>56.9</ele>
        <time>2021-11-27T13:25:28Z</time>
      </trkpt>
      <trkpt lat="45.05227" lon="-0.40029">
        <ele>56.9</ele>
        <time>2021-11-27T13:25:29Z</time>
      </trkpt>
      <trkpt lat="45.05228" lon="-0.40033">
        <ele>56.9</ele>
        <time>2021-11-27T13:25:31Z</time>
      </trkpt>
      <trkpt lat="45.05228" lon="-0.40035">
        <ele>56.9</ele>
        <time>2021-11-27T13:25:32Z</time>
      </trkpt>
      <trkpt lat="45.05228" lon="-0.40038">
        <ele>56.9</ele>
        <time>2021-11-27T13:25:34Z</time>
      </trkpt>
      <trkpt lat="45.05229" lon="-0.40039">
        <ele>56.9</ele>
        <time>2021-11-27T13:25:35Z</time>
      </trkpt>
      <trkpt lat="45.05229" lon="-0.40041">
        <ele>56.9</ele>
        <time>2021-11-27T13:25:36Z</time>
      </trkpt>
      <trkpt lat="45.0523" lon="-0.40042">
        <ele>56.8</ele>
        <time>2021-11-27T13:25:37Z</time>
      </trkpt>
      <trkpt lat="45.05231" lon="-0.40044">
        <ele>56.8</ele>
        <time>2021-11-27T13:25:38Z</time>
      </trkpt>
      <trkpt lat="45.05231" lon="-0.40046">
        <ele>56.8</ele>
        <time>2021-11-27T13:25:39Z</time>
      </trkpt>
      <trkpt lat="45.05232" lon="-0.4005">
        <ele>56.8</ele>
        <time>2021-11-27T13:25:41Z</time>
      </trkpt>
      <trkpt lat="45.05232" lon="-0.40051">
        <ele>56.7</ele>
        <time>2021-11-27T13:25:42Z</time>
      </trkpt>
      <trkpt lat="45.05233" lon="-0.40053">
        <ele>56.7</ele>
        <time>2021-11-27T13:25:43Z</time>
      </trkpt>
      <trkpt lat="45.05234" lon="-0.40055">
        <ele>56.7</ele>
        <time>2021-11-27T13:25:44Z</time>
      </trkpt>
      <trkpt lat="45.05234" lon="-0.40057">
        <ele>56.7</ele>
        <time>2021-11-27T13:25:46Z</time>
      </trkpt>
      <trkpt lat="45.05235" lon="-0.4006">
        <ele>56.6</ele>
        <time>2021-11-27T13:25:48Z</time>
      </trkpt>
      <trkpt lat="45.05236" lon="-0.40063">
        <ele>56.6</ele>
        <time>2021-11-27T13:25:49Z</time>
      </trkpt>
      <trkpt lat="45.05237" lon="-0.40064">
        <ele>56.5</ele>
        <time>2021-11-27T13:25:50Z</time>
      </trkpt>
      <trkpt lat="45.05237" lon="-0.40065">
        <ele>56.5</ele>
        <time>2021-11-27T13:25:51Z</time>
      </trkpt>
      <trkpt lat="45.05238" lon="-0.40068">
        <ele>56.5</ele>
        <time>2021-11-27T13:25:53Z</time>
      </trkpt>
      <trkpt lat="45.05239" lon="-0.40069">
        <ele>56.5</ele>
        <time>2021-11-27T13:25:54Z</time>
      </trkpt>
      <trkpt lat="45.0524" lon="-0.40072">
        <ele>56.4</ele>
        <time>2021-11-27T13:25:56Z</time>
      </trkpt>
      <trkpt lat="45.0524" lon="-0.40074">
        <ele>56.4</ele>
        <time>2021-11-27T13:25:57Z</time>
      </trkpt>
      <trkpt lat="45.05242" lon="-0.40077">
        <ele>56.3</ele>
        <time>2021-11-27T13:25:59Z</time>
      </trkpt>
      <trkpt lat="45.05242" lon="-0.40078">
        <ele>56.3</ele>
        <time>2021-11-27T13:26:00Z</time>
      </trkpt>
      <trkpt lat="45.05243" lon="-0.40081">
        <ele>56.2</ele>
        <time>2021-11-27T13:26:01Z</time>
      </trkpt>
      <trkpt lat="45.05244" lon="-0.40085">
        <ele>56.1</ele>
        <time>2021-11-27T13:26:02Z</time>
      </trkpt>
      <trkpt lat="45.05244" lon="-0.40086">
        <ele>56.1</ele>
        <time>2021-11-27T13:26:04Z</time>
      </trkpt>
      <trkpt lat="45.05244" lon="-0.40088">
        <ele>56.1</ele>
        <time>2021-11-27T13:26:05Z</time>
      </trkpt>
      <trkpt lat="45.05245" lon="-0.4009">
        <ele>56</ele>
        <time>2021-11-27T13:26:06Z</time>
      </trkpt>
      <trkpt lat="45.05245" lon="-0.40092">
        <ele>56</ele>
        <time>2021-11-27T13:26:08Z</time>
      </trkpt>
      <trkpt lat="45.05246" lon="-0.40094">
        <ele>55.9</ele>
        <time>2021-11-27T13:26:09Z</time>
      </trkpt>
      <trkpt lat="45.05246" lon="-0.40096">
        <ele>55.9</ele>
        <time>2021-11-27T13:26:10Z</time>
      </trkpt>
      <trkpt lat="45.05247" lon="-0.401">
        <ele>55.8</ele>
        <time>2021-11-27T13:26:12Z</time>
      </trkpt>
      <trkpt lat="45.05247" lon="-0.40103">
        <ele>55.8</ele>
        <time>2021-11-27T13:26:13Z</time>
      </trkpt>
      <trkpt lat="45.05248" lon="-0.40106">
        <ele>55.7</ele>
        <time>2021-11-27T13:26:15Z</time>
      </trkpt>
      <trkpt lat="45.05249" lon="-0.4011">
        <ele>55.6</ele>
        <time>2021-11-27T13:26:17Z</time>
      </trkpt>
      <trkpt lat="45.0525" lon="-0.40111">
        <ele>55.6</ele>
        <time>2021-11-27T13:26:18Z</time>
      </trkpt>
      <trkpt lat="45.0525" lon="-0.40114">
        <ele>55.5</ele>
        <time>2021-11-27T13:26:19Z</time>
      </trkpt>
      <trkpt lat="45.05251" lon="-0.40117">
        <ele>55.4</ele>
        <time>2021-11-27T13:26:21Z</time>
      </trkpt>
      <trkpt lat="45.05252" lon="-0.4012">
        <ele>55.3</ele>
        <time>2021-11-27T13:26:22Z</time>
      </trkpt>
      <trkpt lat="45.05253" lon="-0.40121">
        <ele>55.3</ele>
        <time>2021-11-27T13:26:23Z</time>
      </trkpt>
      <trkpt lat="45.05254" lon="-0.40125">
        <ele>55.2</ele>
        <time>2021-11-27T13:26:25Z</time>
      </trkpt>
      <trkpt lat="45.05255" lon="-0.40126">
        <ele>55.1</ele>
        <time>2021-11-27T13:26:26Z</time>
      </trkpt>
      <trkpt lat="45.05255" lon="-0.40128">
        <ele>55.1</ele>
        <time>2021-11-27T13:26:27Z</time>
      </trkpt>
      <trkpt lat="45.05256" lon="-0.40129">
        <ele>55.1</ele>
        <time>2021-11-27T13:26:28Z</time>
      </trkpt>
      <trkpt lat="45.05257" lon="-0.40132">
        <ele>55</ele>
        <time>2021-11-27T13:26:30Z</time>
      </trkpt>
      <trkpt lat="45.05258" lon="-0.40133">
        <ele>54.9</ele>
        <time>2021-11-27T13:26:31Z</time>
      </trkpt>
      <trkpt lat="45.05259" lon="-0.40134">
        <ele>54.8</ele>
        <time>2021-11-27T13:26:33Z</time>
      </trkpt>
      <trkpt lat="45.0526" lon="-0.40135">
        <ele>54.8</ele>
        <time>2021-11-27T13:26:34Z</time>
      </trkpt>
      <trkpt lat="45.05262" lon="-0.40137">
        <ele>54.7</ele>
        <time>2021-11-27T13:26:36Z</time>
      </trkpt>
      <trkpt lat="45.05263" lon="-0.40138">
        <ele>54.6</ele>
        <time>2021-11-27T13:26:37Z</time>
      </trkpt>
      <trkpt lat="45.05264" lon="-0.40139">
        <ele>54.6</ele>
        <time>2021-11-27T13:26:38Z</time>
      </trkpt>
      <trkpt lat="45.05264" lon="-0.4014">
        <ele>54.5</ele>
        <time>2021-11-27T13:26:39Z</time>
      </trkpt>
      <trkpt lat="45.05266" lon="-0.40141">
        <ele>54.5</ele>
        <time>2021-11-27T13:26:41Z</time>
      </trkpt>
      <trkpt lat="45.05267" lon="-0.40142">
        <ele>54.4</ele>
        <time>2021-11-27T13:26:42Z</time>
      </trkpt>
      <trkpt lat="45.05268" lon="-0.40143">
        <ele>54.3</ele>
        <time>2021-11-27T13:26:43Z</time>
      </trkpt>
      <trkpt lat="45.05271" lon="-0.40145">
        <ele>54.2</ele>
        <time>2021-11-27T13:26:45Z</time>
      </trkpt>
      <trkpt lat="45.05272" lon="-0.40145">
        <ele>54.1</ele>
        <time>2021-11-27T13:26:46Z</time>
      </trkpt>
      <trkpt lat="45.05273" lon="-0.40146">
        <ele>54</ele>
        <time>2021-11-27T13:26:47Z</time>
      </trkpt>
      <trkpt lat="45.05275" lon="-0.40147">
        <ele>53.9</ele>
        <time>2021-11-27T13:26:48Z</time>
      </trkpt>
      <trkpt lat="45.05278" lon="-0.4015">
        <ele>53.7</ele>
        <time>2021-11-27T13:26:50Z</time>
      </trkpt>
      <trkpt lat="45.05279" lon="-0.4015">
        <ele>53.7</ele>
        <time>2021-11-27T13:26:51Z</time>
      </trkpt>
      <trkpt lat="45.0528" lon="-0.40151">
        <ele>53.6</ele>
        <time>2021-11-27T13:26:52Z</time>
      </trkpt>
      <trkpt lat="45.05283" lon="-0.40152">
        <ele>53.4</ele>
        <time>2021-11-27T13:26:54Z</time>
      </trkpt>
      <trkpt lat="45.05285" lon="-0.40153">
        <ele>53.3</ele>
        <time>2021-11-27T13:26:55Z</time>
      </trkpt>
      <trkpt lat="45.05287" lon="-0.40153">
        <ele>53.2</ele>
        <time>2021-11-27T13:26:57Z</time>
      </trkpt>
      <trkpt lat="45.0529" lon="-0.40154">
        <ele>53</ele>
        <time>2021-11-27T13:26:58Z</time>
      </trkpt>
      <trkpt lat="45.05291" lon="-0.40154">
        <ele>53</ele>
        <time>2021-11-27T13:26:59Z</time>
      </trkpt>
      <trkpt lat="45.05293" lon="-0.40154">
        <ele>52.9</ele>
        <time>2021-11-27T13:27:00Z</time>
      </trkpt>
      <trkpt lat="45.05294" lon="-0.40154">
        <ele>52.8</ele>
        <time>2021-11-27T13:27:02Z</time>
      </trkpt>
      <trkpt lat="45.05296" lon="-0.40155">
        <ele>52.7</ele>
        <time>2021-11-27T13:27:03Z</time>
      </trkpt>
      <trkpt lat="45.05297" lon="-0.40156">
        <ele>52.6</ele>
        <time>2021-11-27T13:27:05Z</time>
      </trkpt>
      <trkpt lat="45.05299" lon="-0.40156">
        <ele>52.5</ele>
        <time>2021-11-27T13:27:06Z</time>
      </trkpt>
      <trkpt lat="45.053" lon="-0.40157">
        <ele>52.5</ele>
        <time>2021-11-27T13:27:07Z</time>
      </trkpt>
      <trkpt lat="45.05301" lon="-0.40157">
        <ele>52.4</ele>
        <time>2021-11-27T13:27:09Z</time>
      </trkpt>
      <trkpt lat="45.05303" lon="-0.40158">
        <ele>52.4</ele>
        <time>2021-11-27T13:27:10Z</time>
      </trkpt>
      <trkpt lat="45.05305" lon="-0.40159">
        <ele>52.3</ele>
        <time>2021-11-27T13:27:11Z</time>
      </trkpt>
      <trkpt lat="45.05306" lon="-0.4016">
        <ele>52.2</ele>
        <time>2021-11-27T13:27:13Z</time>
      </trkpt>
      <trkpt lat="45.05306" lon="-0.4016">
        <ele>52.2</ele>
        <time>2021-11-27T13:27:14Z</time>
      </trkpt>
      <trkpt lat="45.05308" lon="-0.40161">
        <ele>52.1</ele>
        <time>2021-11-27T13:27:15Z</time>
      </trkpt>
      <trkpt lat="45.05309" lon="-0.40162">
        <ele>52.1</ele>
        <time>2021-11-27T13:27:17Z</time>
      </trkpt>
      <trkpt lat="45.0531" lon="-0.40163">
        <ele>52</ele>
        <time>2021-11-27T13:27:18Z</time>
      </trkpt>
      <trkpt lat="45.05311" lon="-0.40163">
        <ele>52</ele>
        <time>2021-11-27T13:27:19Z</time>
      </trkpt>
      <trkpt lat="45.05313" lon="-0.40164">
        <ele>51.9</ele>
        <time>2021-11-27T13:27:20Z</time>
      </trkpt>
      <trkpt lat="45.05316" lon="-0.40165">
        <ele>51.8</ele>
        <time>2021-11-27T13:27:22Z</time>
      </trkpt>
      <trkpt lat="45.05317" lon="-0.40166">
        <ele>51.8</ele>
        <time>2021-11-27T13:27:23Z</time>
      </trkpt>
      <trkpt lat="45.05319" lon="-0.40167">
        <ele>51.7</ele>
        <time>2021-11-27T13:27:24Z</time>
      </trkpt>
      <trkpt lat="45.0532" lon="-0.40168">
        <ele>51.7</ele>
        <time>2021-11-27T13:27:25Z</time>
      </trkpt>
      <trkpt lat="45.05322" lon="-0.40169">
        <ele>51.6</ele>
        <time>2021-11-27T13:27:26Z</time>
      </trkpt>
      <trkpt lat="45.05322" lon="-0.40169">
        <ele>51.6</ele>
        <time>2021-11-27T13:27:28Z</time>
      </trkpt>
      <trkpt lat="45.05324" lon="-0.4017">
        <ele>51.6</ele>
        <time>2021-11-27T13:27:29Z</time>
      </trkpt>
      <trkpt lat="45.05325" lon="-0.40172">
        <ele>51.5</ele>
        <time>2021-11-27T13:27:31Z</time>
      </trkpt>
      <trkpt lat="45.05326" lon="-0.40173">
        <ele>51.5</ele>
        <time>2021-11-27T13:27:32Z</time>
      </trkpt>
      <trkpt lat="45.05328" lon="-0.40175">
        <ele>51.5</ele>
        <time>2021-11-27T13:27:33Z</time>
      </trkpt>
      <trkpt lat="45.05328" lon="-0.40176">
        <ele>51.4</ele>
        <time>2021-11-27T13:27:34Z</time>
      </trkpt>
      <trkpt lat="45.05329" lon="-0.40178">
        <ele>51.4</ele>
        <time>2021-11-27T13:27:36Z</time>
      </trkpt>
      <trkpt lat="45.0533" lon="-0.40178">
        <ele>51.4</ele>
        <time>2021-11-27T13:27:37Z</time>
      </trkpt>
      <trkpt lat="45.05331" lon="-0.4018">
        <ele>51.4</ele>
        <time>2021-11-27T13:27:39Z</time>
      </trkpt>
      <trkpt lat="45.05332" lon="-0.40181">
        <ele>51.4</ele>
        <time>2021-11-27T13:27:40Z</time>
      </trkpt>
      <trkpt lat="45.05333" lon="-0.40183">
        <ele>51.4</ele>
        <time>2021-11-27T13:27:41Z</time>
      </trkpt>
      <trkpt lat="45.05333" lon="-0.40184">
        <ele>51.4</ele>
        <time>2021-11-27T13:27:42Z</time>
      </trkpt>
      <trkpt lat="45.05334" lon="-0.40186">
        <ele>51.4</ele>
        <time>2021-11-27T13:27:44Z</time>
      </trkpt>
      <trkpt lat="45.05335" lon="-0.40188">
        <ele>51.3</ele>
        <time>2021-11-27T13:27:45Z</time>
      </trkpt>
      <trkpt lat="45.05335" lon="-0.40191">
        <ele>51.3</ele>
        <time>2021-11-27T13:27:46Z</time>
      </trkpt>
      <trkpt lat="45.05336" lon="-0.40192">
        <ele>51.3</ele>
        <time>2021-11-27T13:27:47Z</time>
      </trkpt>
      <trkpt lat="45.05336" lon="-0.40194">
        <ele>51.3</ele>
        <time>2021-11-27T13:27:48Z</time>
      </trkpt>
      <trkpt lat="45.05335" lon="-0.40196">
        <ele>51.3</ele>
        <time>2021-11-27T13:27:50Z</time>
      </trkpt>
      <trkpt lat="45.05335" lon="-0.40199">
        <ele>51.3</ele>
        <time>2021-11-27T13:27:52Z</time>
      </trkpt>
      <trkpt lat="45.05334" lon="-0.402">
        <ele>51.3</ele>
        <time>2021-11-27T13:27:53Z</time>
      </trkpt>
      <trkpt lat="45.05336" lon="-0.40201">
        <ele>51.2</ele>
        <time>2021-11-27T13:27:54Z</time>
      </trkpt>
      <trkpt lat="45.05339" lon="-0.40204">
        <ele>51.2</ele>
        <time>2021-11-27T13:27:57Z</time>
      </trkpt>
      <trkpt lat="45.0534" lon="-0.40205">
        <ele>51.2</ele>
        <time>2021-11-27T13:27:58Z</time>
      </trkpt>
      <trkpt lat="45.05341" lon="-0.40206">
        <ele>51.2</ele>
        <time>2021-11-27T13:28:00Z</time>
      </trkpt>
      <trkpt lat="45.05342" lon="-0.40207">
        <ele>51.2</ele>
        <time>2021-11-27T13:28:01Z</time>
      </trkpt>
      <trkpt lat="45.05343" lon="-0.40207">
        <ele>51.2</ele>
        <time>2021-11-27T13:28:02Z</time>
      </trkpt>
      <trkpt lat="45.05345" lon="-0.40206">
        <ele>51.2</ele>
        <time>2021-11-27T13:28:03Z</time>
      </trkpt>
      <trkpt lat="45.05346" lon="-0.40206">
        <ele>51.2</ele>
        <time>2021-11-27T13:28:05Z</time>
      </trkpt>
      <trkpt lat="45.05348" lon="-0.40205">
        <ele>51.2</ele>
        <time>2021-11-27T13:28:06Z</time>
      </trkpt>
      <trkpt lat="45.05349" lon="-0.40205">
        <ele>51.2</ele>
        <time>2021-11-27T13:28:07Z</time>
      </trkpt>
      <trkpt lat="45.05351" lon="-0.40205">
        <ele>51.2</ele>
        <time>2021-11-27T13:28:09Z</time>
      </trkpt>
      <trkpt lat="45.05352" lon="-0.40205">
        <ele>51.2</ele>
        <time>2021-11-27T13:28:10Z</time>
      </trkpt>
      <trkpt lat="45.05355" lon="-0.40209">
        <ele>51.2</ele>
        <time>2021-11-27T13:28:12Z</time>
      </trkpt>
      <trkpt lat="45.05356" lon="-0.4021">
        <ele>51.2</ele>
        <time>2021-11-27T13:28:13Z</time>
      </trkpt>
      <trkpt lat="45.05357" lon="-0.40212">
        <ele>51.2</ele>
        <time>2021-11-27T13:28:14Z</time>
      </trkpt>
      <trkpt lat="45.05359" lon="-0.40215">
        <ele>51.2</ele>
        <time>2021-11-27T13:28:16Z</time>
      </trkpt>
      <trkpt lat="45.05362" lon="-0.40214">
        <ele>51.2</ele>
        <time>2021-11-27T13:28:17Z</time>
      </trkpt>
      <trkpt lat="45.05363" lon="-0.40212">
        <ele>51.2</ele>
        <time>2021-11-27T13:28:19Z</time>
      </trkpt>
      <trkpt lat="45.05364" lon="-0.40211">
        <ele>51.2</ele>
        <time>2021-11-27T13:28:20Z</time>
      </trkpt>
      <trkpt lat="45.05365" lon="-0.40209">
        <ele>51.2</ele>
        <time>2021-11-27T13:28:21Z</time>
      </trkpt>
      <trkpt lat="45.05365" lon="-0.40205">
        <ele>51.2</ele>
        <time>2021-11-27T13:28:23Z</time>
      </trkpt>
      <trkpt lat="45.05364" lon="-0.40204">
        <ele>51.2</ele>
        <time>2021-11-27T13:28:24Z</time>
      </trkpt>
      <trkpt lat="45.05364" lon="-0.40202">
        <ele>51.2</ele>
        <time>2021-11-27T13:28:25Z</time>
      </trkpt>
      <trkpt lat="45.05364" lon="-0.402">
        <ele>51.1</ele>
        <time>2021-11-27T13:28:26Z</time>
      </trkpt>
      <trkpt lat="45.05364" lon="-0.40198">
        <ele>51.1</ele>
        <time>2021-11-27T13:28:28Z</time>
      </trkpt>
      <trkpt lat="45.05364" lon="-0.40196">
        <ele>51.1</ele>
        <time>2021-11-27T13:28:29Z</time>
      </trkpt>
      <trkpt lat="45.05364" lon="-0.40192">
        <ele>51.1</ele>
        <time>2021-11-27T13:28:30Z</time>
      </trkpt>
      <trkpt lat="45.05364" lon="-0.4019">
        <ele>51.1</ele>
        <time>2021-11-27T13:28:32Z</time>
      </trkpt>
      <trkpt lat="45.05365" lon="-0.40186">
        <ele>51.1</ele>
        <time>2021-11-27T13:28:33Z</time>
      </trkpt>
      <trkpt lat="45.05365" lon="-0.40185">
        <ele>51.1</ele>
        <time>2021-11-27T13:28:34Z</time>
      </trkpt>
      <trkpt lat="45.05366" lon="-0.40181">
        <ele>51.1</ele>
        <time>2021-11-27T13:28:36Z</time>
      </trkpt>
      <trkpt lat="45.05367" lon="-0.4018">
        <ele>51.1</ele>
        <time>2021-11-27T13:28:37Z</time>
      </trkpt>
      <trkpt lat="45.05369" lon="-0.40176">
        <ele>51.1</ele>
        <time>2021-11-27T13:28:39Z</time>
      </trkpt>
      <trkpt lat="45.05369" lon="-0.40175">
        <ele>51.1</ele>
        <time>2021-11-27T13:28:40Z</time>
      </trkpt>
      <trkpt lat="45.05371" lon="-0.40172">
        <ele>51.1</ele>
        <time>2021-11-27T13:28:41Z</time>
      </trkpt>
      <trkpt lat="45.05371" lon="-0.4017">
        <ele>51.1</ele>
        <time>2021-11-27T13:28:42Z</time>
      </trkpt>
      <trkpt lat="45.0537" lon="-0.40168">
        <ele>51.2</ele>
        <time>2021-11-27T13:28:44Z</time>
      </trkpt>
      <trkpt lat="45.05368" lon="-0.40166">
        <ele>51.2</ele>
        <time>2021-11-27T13:28:45Z</time>
      </trkpt>
      <trkpt lat="45.05367" lon="-0.40164">
        <ele>51.2</ele>
        <time>2021-11-27T13:28:47Z</time>
      </trkpt>
      <trkpt lat="45.05365" lon="-0.40162">
        <ele>51.2</ele>
        <time>2021-11-27T13:28:48Z</time>
      </trkpt>
      <trkpt lat="45.05363" lon="-0.40162">
        <ele>51.2</ele>
        <time>2021-11-27T13:28:50Z</time>
      </trkpt>
      <trkpt lat="45.05361" lon="-0.40163">
        <ele>51.2</ele>
        <time>2021-11-27T13:28:51Z</time>
      </trkpt>
      <trkpt lat="45.05359" lon="-0.40164">
        <ele>51.2</ele>
        <time>2021-11-27T13:28:53Z</time>
      </trkpt>
      <trkpt lat="45.05358" lon="-0.40165">
        <ele>51.2</ele>
        <time>2021-11-27T13:28:54Z</time>
      </trkpt>
      <trkpt lat="45.05356" lon="-0.40165">
        <ele>51.2</ele>
        <time>2021-11-27T13:28:55Z</time>
      </trkpt>
      <trkpt lat="45.05353" lon="-0.40165">
        <ele>51.3</ele>
        <time>2021-11-27T13:28:57Z</time>
      </trkpt>
      <trkpt lat="45.05352" lon="-0.40165">
        <ele>51.3</ele>
        <time>2021-11-27T13:28:58Z</time>
      </trkpt>
      <trkpt lat="45.05351" lon="-0.40165">
        <ele>51.3</ele>
        <time>2021-11-27T13:28:59Z</time>
      </trkpt>
      <trkpt lat="45.0535" lon="-0.40165">
        <ele>51.3</ele>
        <time>2021-11-27T13:29:00Z</time>
      </trkpt>
      <trkpt lat="45.05347" lon="-0.40167">
        <ele>51.3</ele>
        <time>2021-11-27T13:29:02Z</time>
      </trkpt>
      <trkpt lat="45.05344" lon="-0.40169">
        <ele>51.4</ele>
        <time>2021-11-27T13:29:04Z</time>
      </trkpt>
      <trkpt lat="45.05343" lon="-0.40169">
        <ele>51.4</ele>
        <time>2021-11-27T13:29:05Z</time>
      </trkpt>
      <trkpt lat="45.05341" lon="-0.40169">
        <ele>51.4</ele>
        <time>2021-11-27T13:29:06Z</time>
      </trkpt>
      <trkpt lat="45.05339" lon="-0.40169">
        <ele>51.4</ele>
        <time>2021-11-27T13:29:08Z</time>
      </trkpt>
      <trkpt lat="45.05337" lon="-0.40169">
        <ele>51.4</ele>
        <time>2021-11-27T13:29:09Z</time>
      </trkpt>
      <trkpt lat="45.05335" lon="-0.40166">
        <ele>51.4</ele>
        <time>2021-11-27T13:29:11Z</time>
      </trkpt>
      <trkpt lat="45.05332" lon="-0.40163">
        <ele>51.5</ele>
        <time>2021-11-27T13:29:13Z</time>
      </trkpt>
      <trkpt lat="45.05331" lon="-0.40162">
        <ele>51.5</ele>
        <time>2021-11-27T13:29:14Z</time>
      </trkpt>
      <trkpt lat="45.05327" lon="-0.40159">
        <ele>51.6</ele>
        <time>2021-11-27T13:29:16Z</time>
      </trkpt>
      <trkpt lat="45.05326" lon="-0.40158">
        <ele>51.6</ele>
        <time>2021-11-27T13:29:17Z</time>
      </trkpt>
      <trkpt lat="45.05325" lon="-0.40157">
        <ele>51.6</ele>
        <time>2021-11-27T13:29:18Z</time>
      </trkpt>
      <trkpt lat="45.05324" lon="-0.40156">
        <ele>51.7</ele>
        <time>2021-11-27T13:29:19Z</time>
      </trkpt>
      <trkpt lat="45.05322" lon="-0.40156">
        <ele>51.7</ele>
        <time>2021-11-27T13:29:21Z</time>
      </trkpt>
      <trkpt lat="45.05319" lon="-0.40156">
        <ele>51.8</ele>
        <time>2021-11-27T13:29:22Z</time>
      </trkpt>
      <trkpt lat="45.05318" lon="-0.40155">
        <ele>51.8</ele>
        <time>2021-11-27T13:29:23Z</time>
      </trkpt>
      <trkpt lat="45.05317" lon="-0.40153">
        <ele>51.9</ele>
        <time>2021-11-27T13:29:25Z</time>
      </trkpt>
      <trkpt lat="45.05316" lon="-0.40152">
        <ele>52</ele>
        <time>2021-11-27T13:29:26Z</time>
      </trkpt>
      <trkpt lat="45.05313" lon="-0.40151">
        <ele>52.1</ele>
        <time>2021-11-27T13:29:27Z</time>
      </trkpt>
      <trkpt lat="45.05312" lon="-0.4015">
        <ele>52.1</ele>
        <time>2021-11-27T13:29:28Z</time>
      </trkpt>
      <trkpt lat="45.05311" lon="-0.4015">
        <ele>52.2</ele>
        <time>2021-11-27T13:29:29Z</time>
      </trkpt>
      <trkpt lat="45.05309" lon="-0.40149">
        <ele>52.3</ele>
        <time>2021-11-27T13:29:31Z</time>
      </trkpt>
      <trkpt lat="45.05307" lon="-0.40149">
        <ele>52.4</ele>
        <time>2021-11-27T13:29:32Z</time>
      </trkpt>
      <trkpt lat="45.05307" lon="-0.40146">
        <ele>52.5</ele>
        <time>2021-11-27T13:29:34Z</time>
      </trkpt>
      <trkpt lat="45.05305" lon="-0.40145">
        <ele>52.6</ele>
        <time>2021-11-27T13:29:35Z</time>
      </trkpt>
      <trkpt lat="45.05303" lon="-0.40144">
        <ele>52.7</ele>
        <time>2021-11-27T13:29:37Z</time>
      </trkpt>
      <trkpt lat="45.05302" lon="-0.40143">
        <ele>52.8</ele>
        <time>2021-11-27T13:29:38Z</time>
      </trkpt>
      <trkpt lat="45.053" lon="-0.40142">
        <ele>52.9</ele>
        <time>2021-11-27T13:29:39Z</time>
      </trkpt>
      <trkpt lat="45.05298" lon="-0.4014">
        <ele>53</ele>
        <time>2021-11-27T13:29:41Z</time>
      </trkpt>
      <trkpt lat="45.05297" lon="-0.4014">
        <ele>53.1</ele>
        <time>2021-11-27T13:29:42Z</time>
      </trkpt>
      <trkpt lat="45.05296" lon="-0.4014">
        <ele>53.1</ele>
        <time>2021-11-27T13:29:43Z</time>
      </trkpt>
      <trkpt lat="45.05294" lon="-0.40139">
        <ele>53.2</ele>
        <time>2021-11-27T13:29:45Z</time>
      </trkpt>
      <trkpt lat="45.05293" lon="-0.40139">
        <ele>53.3</ele>
        <time>2021-11-27T13:29:46Z</time>
      </trkpt>
      <trkpt lat="45.05291" lon="-0.40139">
        <ele>53.4</ele>
        <time>2021-11-27T13:29:47Z</time>
      </trkpt>
      <trkpt lat="45.05289" lon="-0.40138">
        <ele>53.5</ele>
        <time>2021-11-27T13:29:49Z</time>
      </trkpt>
      <trkpt lat="45.05286" lon="-0.40137">
        <ele>53.7</ele>
        <time>2021-11-27T13:29:51Z</time>
      </trkpt>
      <trkpt lat="45.05285" lon="-0.40137">
        <ele>53.8</ele>
        <time>2021-11-27T13:29:52Z</time>
      </trkpt>
      <trkpt lat="45.05281" lon="-0.40135">
        <ele>54</ele>
        <time>2021-11-27T13:29:54Z</time>
      </trkpt>
      <trkpt lat="45.0528" lon="-0.40134">
        <ele>54.1</ele>
        <time>2021-11-27T13:29:55Z</time>
      </trkpt>
      <trkpt lat="45.05279" lon="-0.40134">
        <ele>54.2</ele>
        <time>2021-11-27T13:29:56Z</time>
      </trkpt>
      <trkpt lat="45.05277" lon="-0.40133">
        <ele>54.3</ele>
        <time>2021-11-27T13:29:58Z</time>
      </trkpt>
      <trkpt lat="45.05275" lon="-0.40132">
        <ele>54.4</ele>
        <time>2021-11-27T13:29:59Z</time>
      </trkpt>
      <trkpt lat="45.05273" lon="-0.40132">
        <ele>54.5</ele>
        <time>2021-11-27T13:30:00Z</time>
      </trkpt>
      <trkpt lat="45.05271" lon="-0.40131">
        <ele>54.6</ele>
        <time>2021-11-27T13:30:02Z</time>
      </trkpt>
      <trkpt lat="45.0527" lon="-0.4013">
        <ele>54.7</ele>
        <time>2021-11-27T13:30:03Z</time>
      </trkpt>
      <trkpt lat="45.05268" lon="-0.40127">
        <ele>54.8</ele>
        <time>2021-11-27T13:30:05Z</time>
      </trkpt>
      <trkpt lat="45.05266" lon="-0.40124">
        <ele>54.9</ele>
        <time>2021-11-27T13:30:07Z</time>
      </trkpt>
      <trkpt lat="45.05265" lon="-0.40123">
        <ele>55</ele>
        <time>2021-11-27T13:30:08Z</time>
      </trkpt>
      <trkpt lat="45.05263" lon="-0.40121">
        <ele>55.1</ele>
        <time>2021-11-27T13:30:09Z</time>
      </trkpt>
      <trkpt lat="45.05262" lon="-0.40119">
        <ele>55.1</ele>
        <time>2021-11-27T13:30:10Z</time>
      </trkpt>
      <trkpt lat="45.05261" lon="-0.40117">
        <ele>55.2</ele>
        <time>2021-11-27T13:30:12Z</time>
      </trkpt>
      <trkpt lat="45.05259" lon="-0.40114">
        <ele>55.3</ele>
        <time>2021-11-27T13:30:14Z</time>
      </trkpt>
      <trkpt lat="45.05259" lon="-0.40113">
        <ele>55.4</ele>
        <time>2021-11-27T13:30:15Z</time>
      </trkpt>
      <trkpt lat="45.05258" lon="-0.4011">
        <ele>55.4</ele>
        <time>2021-11-27T13:30:16Z</time>
      </trkpt>
      <trkpt lat="45.05256" lon="-0.40106">
        <ele>55.6</ele>
        <time>2021-11-27T13:30:18Z</time>
      </trkpt>
      <trkpt lat="45.05256" lon="-0.40105">
        <ele>55.6</ele>
        <time>2021-11-27T13:30:19Z</time>
      </trkpt>
      <trkpt lat="45.05255" lon="-0.40103">
        <ele>55.6</ele>
        <time>2021-11-27T13:30:20Z</time>
      </trkpt>
      <trkpt lat="45.05254" lon="-0.401">
        <ele>55.7</ele>
        <time>2021-11-27T13:30:22Z</time>
      </trkpt>
      <trkpt lat="45.05253" lon="-0.40098">
        <ele>55.8</ele>
        <time>2021-11-27T13:30:23Z</time>
      </trkpt>
      <trkpt lat="45.05253" lon="-0.40097">
        <ele>55.8</ele>
        <time>2021-11-27T13:30:24Z</time>
      </trkpt>
      <trkpt lat="45.05252" lon="-0.40094">
        <ele>55.9</ele>
        <time>2021-11-27T13:30:26Z</time>
      </trkpt>
      <trkpt lat="45.05251" lon="-0.40091">
        <ele>55.9</ele>
        <time>2021-11-27T13:30:27Z</time>
      </trkpt>
      <trkpt lat="45.05251" lon="-0.4009">
        <ele>56</ele>
        <time>2021-11-27T13:30:28Z</time>
      </trkpt>
      <trkpt lat="45.0525" lon="-0.40088">
        <ele>56</ele>
        <time>2021-11-27T13:30:30Z</time>
      </trkpt>
      <trkpt lat="45.0525" lon="-0.40086">
        <ele>56</ele>
        <time>2021-11-27T13:30:31Z</time>
      </trkpt>
      <trkpt lat="45.05249" lon="-0.40084">
        <ele>56.1</ele>
        <time>2021-11-27T13:30:32Z</time>
      </trkpt>
      <trkpt lat="45.05248" lon="-0.40083">
        <ele>56.1</ele>
        <time>2021-11-27T13:30:33Z</time>
      </trkpt>
      <trkpt lat="45.05248" lon="-0.40081">
        <ele>56.2</ele>
        <time>2021-11-27T13:30:35Z</time>
      </trkpt>
      <trkpt lat="45.05247" lon="-0.40078">
        <ele>56.2</ele>
        <time>2021-11-27T13:30:36Z</time>
      </trkpt>
      <trkpt lat="45.05246" lon="-0.40077">
        <ele>56.3</ele>
        <time>2021-11-27T13:30:37Z</time>
      </trkpt>
      <trkpt lat="45.05246" lon="-0.40075">
        <ele>56.3</ele>
        <time>2021-11-27T13:30:38Z</time>
      </trkpt>
      <trkpt lat="45.05245" lon="-0.40072">
        <ele>56.4</ele>
        <time>2021-11-27T13:30:40Z</time>
      </trkpt>
      <trkpt lat="45.05244" lon="-0.4007">
        <ele>56.4</ele>
        <time>2021-11-27T13:30:41Z</time>
      </trkpt>
      <trkpt lat="45.05243" lon="-0.40069">
        <ele>56.4</ele>
        <time>2021-11-27T13:30:42Z</time>
      </trkpt>
      <trkpt lat="45.05242" lon="-0.40066">
        <ele>56.5</ele>
        <time>2021-11-27T13:30:44Z</time>
      </trkpt>
      <trkpt lat="45.05241" lon="-0.40064">
        <ele>56.5</ele>
        <time>2021-11-27T13:30:45Z</time>
      </trkpt>
      <trkpt lat="45.0524" lon="-0.40062">
        <ele>56.5</ele>
        <time>2021-11-27T13:30:46Z</time>
      </trkpt>
      <trkpt lat="45.0524" lon="-0.40061">
        <ele>56.6</ele>
        <time>2021-11-27T13:30:48Z</time>
      </trkpt>
      <trkpt lat="45.05239" lon="-0.40059">
        <ele>56.6</ele>
        <time>2021-11-27T13:30:49Z</time>
      </trkpt>
      <trkpt lat="45.05239" lon="-0.40057">
        <ele>56.6</ele>
        <time>2021-11-27T13:30:51Z</time>
      </trkpt>
      <trkpt lat="45.05238" lon="-0.40054">
        <ele>56.7</ele>
        <time>2021-11-27T13:30:53Z</time>
      </trkpt>
      <trkpt lat="45.05238" lon="-0.40051">
        <ele>56.7</ele>
        <time>2021-11-27T13:30:55Z</time>
      </trkpt>
      <trkpt lat="45.05237" lon="-0.40049">
        <ele>56.7</ele>
        <time>2021-11-27T13:30:56Z</time>
      </trkpt>
      <trkpt lat="45.05237" lon="-0.40047">
        <ele>56.8</ele>
        <time>2021-11-27T13:30:57Z</time>
      </trkpt>
      <trkpt lat="45.05236" lon="-0.40043">
        <ele>56.8</ele>
        <time>2021-11-27T13:30:59Z</time>
      </trkpt>
      <trkpt lat="45.05235" lon="-0.40041">
        <ele>56.8</ele>
        <time>2021-11-27T13:31:00Z</time>
      </trkpt>
      <trkpt lat="45.05235" lon="-0.40039">
        <ele>56.8</ele>
        <time>2021-11-27T13:31:01Z</time>
      </trkpt>
      <trkpt lat="45.05234" lon="-0.40038">
        <ele>56.9</ele>
        <time>2021-11-27T13:31:02Z</time>
      </trkpt>
      <trkpt lat="45.05234" lon="-0.40035">
        <ele>56.9</ele>
        <time>2021-11-27T13:31:04Z</time>
      </trkpt>
      <trkpt lat="45.05233" lon="-0.40031">
        <ele>56.9</ele>
        <time>2021-11-27T13:31:05Z</time>
      </trkpt>
      <trkpt lat="45.05233" lon="-0.4003">
        <ele>56.9</ele>
        <time>2021-11-27T13:31:06Z</time>
      </trkpt>
      <trkpt lat="45.05232" lon="-0.40028">
        <ele>56.9</ele>
        <time>2021-11-27T13:31:07Z</time>
      </trkpt>
      <trkpt lat="45.05231" lon="-0.40026">
        <ele>56.9</ele>
        <time>2021-11-27T13:31:09Z</time>
      </trkpt>
      <trkpt lat="45.05231" lon="-0.40024">
        <ele>56.9</ele>
        <time>2021-11-27T13:31:10Z</time>
      </trkpt>
      <trkpt lat="45.05231" lon="-0.40021">
        <ele>56.9</ele>
        <time>2021-11-27T13:31:12Z</time>
      </trkpt>
      <trkpt lat="45.0523" lon="-0.40018">
        <ele>56.9</ele>
        <time>2021-11-27T13:31:13Z</time>
      </trkpt>
      <trkpt lat="45.0523" lon="-0.40016">
        <ele>56.9</ele>
        <time>2021-11-27T13:31:15Z</time>
      </trkpt>
      <trkpt lat="45.05229" lon="-0.40012">
        <ele>56.9</ele>
        <time>2021-11-27T13:31:16Z</time>
      </trkpt>
      <trkpt lat="45.05228" lon="-0.40011">
        <ele>56.9</ele>
        <time>2021-11-27T13:31:17Z</time>
      </trkpt>
      <trkpt lat="45.05227" lon="-0.4001">
        <ele>56.9</ele>
        <time>2021-11-27T13:31:19Z</time>
      </trkpt>
      <trkpt lat="45.05226" lon="-0.40008">
        <ele>56.9</ele>
        <time>2021-11-27T13:31:20Z</time>
      </trkpt>
      <trkpt lat="45.05225" lon="-0.40005">
        <ele>56.9</ele>
        <time>2021-11-27T13:31:21Z</time>
      </trkpt>
      <trkpt lat="45.05224" lon="-0.40004">
        <ele>56.9</ele>
        <time>2021-11-27T13:31:22Z</time>
      </trkpt>
      <trkpt lat="45.05223" lon="-0.40001">
        <ele>56.8</ele>
        <time>2021-11-27T13:31:24Z</time>
      </trkpt>
      <trkpt lat="45.05222" lon="-0.39999">
        <ele>56.8</ele>
        <time>2021-11-27T13:31:25Z</time>
      </trkpt>
      <trkpt lat="45.05221" lon="-0.39995">
        <ele>56.8</ele>
        <time>2021-11-27T13:31:26Z</time>
      </trkpt>
      <trkpt lat="45.0522" lon="-0.39994">
        <ele>56.7</ele>
        <time>2021-11-27T13:31:27Z</time>
      </trkpt>
      <trkpt lat="45.05219" lon="-0.3999">
        <ele>56.7</ele>
        <time>2021-11-27T13:31:29Z</time>
      </trkpt>
      <trkpt lat="45.05219" lon="-0.39989">
        <ele>56.7</ele>
        <time>2021-11-27T13:31:30Z</time>
      </trkpt>
      <trkpt lat="45.05218" lon="-0.39985">
        <ele>56.6</ele>
        <time>2021-11-27T13:31:32Z</time>
      </trkpt>
      <trkpt lat="45.05217" lon="-0.39983">
        <ele>56.5</ele>
        <time>2021-11-27T13:31:33Z</time>
      </trkpt>
      <trkpt lat="45.05216" lon="-0.39981">
        <ele>56.5</ele>
        <time>2021-11-27T13:31:35Z</time>
      </trkpt>
      <trkpt lat="45.05215" lon="-0.39977">
        <ele>56.4</ele>
        <time>2021-11-27T13:31:37Z</time>
      </trkpt>
      <trkpt lat="45.05214" lon="-0.39974">
        <ele>56.3</ele>
        <time>2021-11-27T13:31:38Z</time>
      </trkpt>
      <trkpt lat="45.05214" lon="-0.39972">
        <ele>56.2</ele>
        <time>2021-11-27T13:31:40Z</time>
      </trkpt>
      <trkpt lat="45.05213" lon="-0.39969">
        <ele>56.1</ele>
        <time>2021-11-27T13:31:41Z</time>
      </trkpt>
      <trkpt lat="45.05213" lon="-0.39967">
        <ele>56.1</ele>
        <time>2021-11-27T13:31:43Z</time>
      </trkpt>
      <trkpt lat="45.05211" lon="-0.39963">
        <ele>56</ele>
        <time>2021-11-27T13:31:44Z</time>
      </trkpt>
      <trkpt lat="45.05211" lon="-0.39962">
        <ele>55.9</ele>
        <time>2021-11-27T13:31:45Z</time>
      </trkpt>
      <trkpt lat="45.0521" lon="-0.39959">
        <ele>55.8</ele>
        <time>2021-11-27T13:31:47Z</time>
      </trkpt>
      <trkpt lat="45.05209" lon="-0.39957">
        <ele>55.8</ele>
        <time>2021-11-27T13:31:48Z</time>
      </trkpt>
      <trkpt lat="45.05208" lon="-0.39955">
        <ele>55.7</ele>
        <time>2021-11-27T13:31:50Z</time>
      </trkpt>
      <trkpt lat="45.05207" lon="-0.39953">
        <ele>55.6</ele>
        <time>2021-11-27T13:31:51Z</time>
      </trkpt>
      <trkpt lat="45.05206" lon="-0.3995">
        <ele>55.5</ele>
        <time>2021-11-27T13:31:53Z</time>
      </trkpt>
      <trkpt lat="45.05205" lon="-0.39947">
        <ele>55.4</ele>
        <time>2021-11-27T13:31:55Z</time>
      </trkpt>
      <trkpt lat="45.05204" lon="-0.39946">
        <ele>55.3</ele>
        <time>2021-11-27T13:31:56Z</time>
      </trkpt>
      <trkpt lat="45.05204" lon="-0.39944">
        <ele>55.3</ele>
        <time>2021-11-27T13:31:57Z</time>
      </trkpt>
      <trkpt lat="45.05203" lon="-0.39942">
        <ele>55.2</ele>
        <time>2021-11-27T13:31:59Z</time>
      </trkpt>
      <trkpt lat="45.05201" lon="-0.39937">
        <ele>55</ele>
        <time>2021-11-27T13:32:01Z</time>
      </trkpt>
      <trkpt lat="45.05201" lon="-0.39936">
        <ele>54.9</ele>
        <time>2021-11-27T13:32:02Z</time>
      </trkpt>
      <trkpt lat="45.052" lon="-0.39931">
        <ele>54.7</ele>
        <time>2021-11-27T13:32:04Z</time>
      </trkpt>
      <trkpt lat="45.05199" lon="-0.3993">
        <ele>54.6</ele>
        <time>2021-11-27T13:32:05Z</time>
      </trkpt>
      <trkpt lat="45.05198" lon="-0.39926">
        <ele>54.4</ele>
        <time>2021-11-27T13:32:06Z</time>
      </trkpt>
      <trkpt lat="45.05198" lon="-0.39924">
        <ele>54.3</ele>
        <time>2021-11-27T13:32:07Z</time>
      </trkpt>
      <trkpt lat="45.05197" lon="-0.39921">
        <ele>54.2</ele>
        <time>2021-11-27T13:32:09Z</time>
      </trkpt>
      <trkpt lat="45.05196" lon="-0.39918">
        <ele>54</ele>
        <time>2021-11-27T13:32:10Z</time>
      </trkpt>
      <trkpt lat="45.05195" lon="-0.39916">
        <ele>53.9</ele>
        <time>2021-11-27T13:32:12Z</time>
      </trkpt>
      <trkpt lat="45.05195" lon="-0.39914">
        <ele>53.8</ele>
        <time>2021-11-27T13:32:13Z</time>
      </trkpt>
      <trkpt lat="45.05194" lon="-0.39912">
        <ele>53.6</ele>
        <time>2021-11-27T13:32:14Z</time>
      </trkpt>
      <trkpt lat="45.05194" lon="-0.39909">
        <ele>53.5</ele>
        <time>2021-11-27T13:32:15Z</time>
      </trkpt>
      <trkpt lat="45.05194" lon="-0.39907">
        <ele>53.4</ele>
        <time>2021-11-27T13:32:17Z</time>
      </trkpt>
      <trkpt lat="45.05193" lon="-0.39905">
        <ele>53.3</ele>
        <time>2021-11-27T13:32:18Z</time>
      </trkpt>
      <trkpt lat="45.05193" lon="-0.39903">
        <ele>53.2</ele>
        <time>2021-11-27T13:32:19Z</time>
      </trkpt>
      <trkpt lat="45.05191" lon="-0.39899">
        <ele>52.9</ele>
        <time>2021-11-27T13:32:21Z</time>
      </trkpt>
      <trkpt lat="45.05191" lon="-0.39898">
        <ele>52.9</ele>
        <time>2021-11-27T13:32:22Z</time>
      </trkpt>
      <trkpt lat="45.0519" lon="-0.39894">
        <ele>52.6</ele>
        <time>2021-11-27T13:32:24Z</time>
      </trkpt>
      <trkpt lat="45.0519" lon="-0.39893">
        <ele>52.5</ele>
        <time>2021-11-27T13:32:25Z</time>
      </trkpt>
      <trkpt lat="45.05189" lon="-0.39891">
        <ele>52.4</ele>
        <time>2021-11-27T13:32:26Z</time>
      </trkpt>
      <trkpt lat="45.05189" lon="-0.39889">
        <ele>52.3</ele>
        <time>2021-11-27T13:32:28Z</time>
      </trkpt>
      <trkpt lat="45.05188" lon="-0.39886">
        <ele>52.1</ele>
        <time>2021-11-27T13:32:29Z</time>
      </trkpt>
      <trkpt lat="45.05187" lon="-0.39883">
        <ele>52</ele>
        <time>2021-11-27T13:32:31Z</time>
      </trkpt>
      <trkpt lat="45.05186" lon="-0.39881">
        <ele>51.9</ele>
        <time>2021-11-27T13:32:32Z</time>
      </trkpt>
      <trkpt lat="45.05185" lon="-0.39879">
        <ele>51.7</ele>
        <time>2021-11-27T13:32:34Z</time>
      </trkpt>
      <trkpt lat="45.05185" lon="-0.39876">
        <ele>51.6</ele>
        <time>2021-11-27T13:32:35Z</time>
      </trkpt>
      <trkpt lat="45.05184" lon="-0.39875">
        <ele>51.5</ele>
        <time>2021-11-27T13:32:36Z</time>
      </trkpt>
      <trkpt lat="45.05184" lon="-0.39874">
        <ele>51.4</ele>
        <time>2021-11-27T13:32:37Z</time>
      </trkpt>
      <trkpt lat="45.05183" lon="-0.39872">
        <ele>51.3</ele>
        <time>2021-11-27T13:32:38Z</time>
      </trkpt>
      <trkpt lat="45.05183" lon="-0.3987">
        <ele>51.2</ele>
        <time>2021-11-27T13:32:39Z</time>
      </trkpt>
      <trkpt lat="45.05182" lon="-0.39868">
        <ele>51.1</ele>
        <time>2021-11-27T13:32:41Z</time>
      </trkpt>
      <trkpt lat="45.05181" lon="-0.39866">
        <ele>50.9</ele>
        <time>2021-11-27T13:32:42Z</time>
      </trkpt>
      <trkpt lat="45.0518" lon="-0.39864">
        <ele>50.8</ele>
        <time>2021-11-27T13:32:44Z</time>
      </trkpt>
      <trkpt lat="45.0518" lon="-0.39862">
        <ele>50.7</ele>
        <time>2021-11-27T13:32:45Z</time>
      </trkpt>
      <trkpt lat="45.0518" lon="-0.39861">
        <ele>50.6</ele>
        <time>2021-11-27T13:32:46Z</time>
      </trkpt>
      <trkpt lat="45.05179" lon="-0.39859">
        <ele>50.5</ele>
        <time>2021-11-27T13:32:47Z</time>
      </trkpt>
      <trkpt lat="45.05178" lon="-0.39857">
        <ele>50.4</ele>
        <time>2021-11-27T13:32:49Z</time>
      </trkpt>
      <trkpt lat="45.05178" lon="-0.39854">
        <ele>50.2</ele>
        <time>2021-11-27T13:32:50Z</time>
      </trkpt>
      <trkpt lat="45.05177" lon="-0.39851">
        <ele>50.1</ele>
        <time>2021-11-27T13:32:52Z</time>
      </trkpt>
      <trkpt lat="45.05176" lon="-0.39847">
        <ele>49.8</ele>
        <time>2021-11-27T13:32:53Z</time>
      </trkpt>
      <trkpt lat="45.05176" lon="-0.39846">
        <ele>49.7</ele>
        <time>2021-11-27T13:32:54Z</time>
      </trkpt>
      <trkpt lat="45.05175" lon="-0.39842">
        <ele>49.5</ele>
        <time>2021-11-27T13:32:56Z</time>
      </trkpt>
      <trkpt lat="45.05175" lon="-0.39841">
        <ele>49.5</ele>
        <time>2021-11-27T13:32:57Z</time>
      </trkpt>
      <trkpt lat="45.05174" lon="-0.39838">
        <ele>49.3</ele>
        <time>2021-11-27T13:32:58Z</time>
      </trkpt>
      <trkpt lat="45.05173" lon="-0.39836">
        <ele>49.2</ele>
        <time>2021-11-27T13:33:00Z</time>
      </trkpt>
      <trkpt lat="45.05173" lon="-0.39834">
        <ele>49.1</ele>
        <time>2021-11-27T13:33:01Z</time>
      </trkpt>
      <trkpt lat="45.05172" lon="-0.39832">
        <ele>49</ele>
        <time>2021-11-27T13:33:02Z</time>
      </trkpt>
      <trkpt lat="45.05172" lon="-0.39831">
        <ele>48.9</ele>
        <time>2021-11-27T13:33:04Z</time>
      </trkpt>
      <trkpt lat="45.05171" lon="-0.39829">
        <ele>48.8</ele>
        <time>2021-11-27T13:33:05Z</time>
      </trkpt>
      <trkpt lat="45.05171" lon="-0.39826">
        <ele>48.7</ele>
        <time>2021-11-27T13:33:06Z</time>
      </trkpt>
      <trkpt lat="45.0517" lon="-0.39825">
        <ele>48.6</ele>
        <time>2021-11-27T13:33:07Z</time>
      </trkpt>
      <trkpt lat="45.0517" lon="-0.39823">
        <ele>48.5</ele>
        <time>2021-11-27T13:33:08Z</time>
      </trkpt>
      <trkpt lat="45.05169" lon="-0.3982">
        <ele>48.4</ele>
        <time>2021-11-27T13:33:10Z</time>
      </trkpt>
      <trkpt lat="45.05168" lon="-0.39818">
        <ele>48.3</ele>
        <time>2021-11-27T13:33:11Z</time>
      </trkpt>
      <trkpt lat="45.05168" lon="-0.39816">
        <ele>48.2</ele>
        <time>2021-11-27T13:33:13Z</time>
      </trkpt>
      <trkpt lat="45.05167" lon="-0.39813">
        <ele>48.1</ele>
        <time>2021-11-27T13:33:14Z</time>
      </trkpt>
      <trkpt lat="45.05166" lon="-0.39811">
        <ele>48</ele>
        <time>2021-11-27T13:33:15Z</time>
      </trkpt>
      <trkpt lat="45.05165" lon="-0.3981">
        <ele>47.9</ele>
        <time>2021-11-27T13:33:16Z</time>
      </trkpt>
      <trkpt lat="45.05165" lon="-0.39807">
        <ele>47.8</ele>
        <time>2021-11-27T13:33:18Z</time>
      </trkpt>
      <trkpt lat="45.05164" lon="-0.39806">
        <ele>47.8</ele>
        <time>2021-11-27T13:33:19Z</time>
      </trkpt>
      <trkpt lat="45.05164" lon="-0.39804">
        <ele>47.7</ele>
        <time>2021-11-27T13:33:21Z</time>
      </trkpt>
      <trkpt lat="45.05163" lon="-0.39801">
        <ele>47.6</ele>
        <time>2021-11-27T13:33:22Z</time>
      </trkpt>
      <trkpt lat="45.05162" lon="-0.39799">
        <ele>47.6</ele>
        <time>2021-11-27T13:33:23Z</time>
      </trkpt>
      <trkpt lat="45.05161" lon="-0.39795">
        <ele>47.5</ele>
        <time>2021-11-27T13:33:25Z</time>
      </trkpt>
      <trkpt lat="45.0516" lon="-0.39793">
        <ele>47.4</ele>
        <time>2021-11-27T13:33:26Z</time>
      </trkpt>
      <trkpt lat="45.05159" lon="-0.39792">
        <ele>47.4</ele>
        <time>2021-11-27T13:33:27Z</time>
      </trkpt>
      <trkpt lat="45.05159" lon="-0.3979">
        <ele>47.3</ele>
        <time>2021-11-27T13:33:28Z</time>
      </trkpt>
      <trkpt lat="45.05158" lon="-0.39786">
        <ele>47.3</ele>
        <time>2021-11-27T13:33:30Z</time>
      </trkpt>
      <trkpt lat="45.05157" lon="-0.39784">
        <ele>47.2</ele>
        <time>2021-11-27T13:33:31Z</time>
      </trkpt>
      <trkpt lat="45.05156" lon="-0.39782">
        <ele>47.2</ele>
        <time>2021-11-27T13:33:32Z</time>
      </trkpt>
      <trkpt lat="45.05156" lon="-0.3978">
        <ele>47.1</ele>
        <time>2021-11-27T13:33:34Z</time>
      </trkpt>
      <trkpt lat="45.05155" lon="-0.39778">
        <ele>47.1</ele>
        <time>2021-11-27T13:33:35Z</time>
      </trkpt>
      <trkpt lat="45.05155" lon="-0.39776">
        <ele>47.1</ele>
        <time>2021-11-27T13:33:37Z</time>
      </trkpt>
      <trkpt lat="45.05154" lon="-0.39773">
        <ele>47.1</ele>
        <time>2021-11-27T13:33:38Z</time>
      </trkpt>
      <trkpt lat="45.05153" lon="-0.39771">
        <ele>47</ele>
        <time>2021-11-27T13:33:39Z</time>
      </trkpt>
      <trkpt lat="45.05153" lon="-0.3977">
        <ele>47</ele>
        <time>2021-11-27T13:33:40Z</time>
      </trkpt>
      <trkpt lat="45.05153" lon="-0.39767">
        <ele>47</ele>
        <time>2021-11-27T13:33:42Z</time>
      </trkpt>
      <trkpt lat="45.05153" lon="-0.39765">
        <ele>47</ele>
        <time>2021-11-27T13:33:43Z</time>
      </trkpt>
      <trkpt lat="45.05152" lon="-0.39765">
        <ele>47</ele>
        <time>2021-11-27T13:33:44Z</time>
      </trkpt>
      <trkpt lat="45.05151" lon="-0.39763">
        <ele>46.9</ele>
        <time>2021-11-27T13:33:46Z</time>
      </trkpt>
      <trkpt lat="45.0515" lon="-0.3976">
        <ele>46.9</ele>
        <time>2021-11-27T13:33:47Z</time>
      </trkpt>
      <trkpt lat="45.05149" lon="-0.39758">
        <ele>46.9</ele>
        <time>2021-11-27T13:33:49Z</time>
      </trkpt>
      <trkpt lat="45.05149" lon="-0.39755">
        <ele>46.9</ele>
        <time>2021-11-27T13:33:50Z</time>
      </trkpt>
      <trkpt lat="45.05148" lon="-0.39753">
        <ele>46.9</ele>
        <time>2021-11-27T13:33:51Z</time>
      </trkpt>
      <trkpt lat="45.05147" lon="-0.39749">
        <ele>46.8</ele>
        <time>2021-11-27T13:33:53Z</time>
      </trkpt>
      <trkpt lat="45.05146" lon="-0.39748">
        <ele>46.8</ele>
        <time>2021-11-27T13:33:54Z</time>
      </trkpt>
      <trkpt lat="45.05145" lon="-0.39743">
        <ele>46.8</ele>
        <time>2021-11-27T13:33:55Z</time>
      </trkpt>
      <trkpt lat="45.05145" lon="-0.39742">
        <ele>46.8</ele>
        <time>2021-11-27T13:33:57Z</time>
      </trkpt>
      <trkpt lat="45.05144" lon="-0.3974">
        <ele>46.8</ele>
        <time>2021-11-27T13:33:58Z</time>
      </trkpt>
      <trkpt lat="45.05144" lon="-0.39738">
        <ele>46.8</ele>
        <time>2021-11-27T13:33:59Z</time>
      </trkpt>
      <trkpt lat="45.05142" lon="-0.39736">
        <ele>46.8</ele>
        <time>2021-11-27T13:34:01Z</time>
      </trkpt>
      <trkpt lat="45.05142" lon="-0.39734">
        <ele>46.8</ele>
        <time>2021-11-27T13:34:02Z</time>
      </trkpt>
      <trkpt lat="45.05142" lon="-0.39732">
        <ele>46.7</ele>
        <time>2021-11-27T13:34:03Z</time>
      </trkpt>
      <trkpt lat="45.05141" lon="-0.3973">
        <ele>46.8</ele>
        <time>2021-11-27T13:34:04Z</time>
      </trkpt>
      <trkpt lat="45.05141" lon="-0.39727">
        <ele>46.9</ele>
        <time>2021-11-27T13:34:05Z</time>
      </trkpt>
      <trkpt lat="45.0514" lon="-0.39726">
        <ele>46.9</ele>
        <time>2021-11-27T13:34:06Z</time>
      </trkpt>
      <trkpt lat="45.0514" lon="-0.39724">
        <ele>46.9</ele>
        <time>2021-11-27T13:34:07Z</time>
      </trkpt>
      <trkpt lat="45.05139" lon="-0.39721">
        <ele>46.9</ele>
        <time>2021-11-27T13:34:09Z</time>
      </trkpt>
      <trkpt lat="45.05139" lon="-0.39719">
        <ele>46.9</ele>
        <time>2021-11-27T13:34:10Z</time>
      </trkpt>
      <trkpt lat="45.05138" lon="-0.39718">
        <ele>46.9</ele>
        <time>2021-11-27T13:34:11Z</time>
      </trkpt>
      <trkpt lat="45.05137" lon="-0.39715">
        <ele>46.8</ele>
        <time>2021-11-27T13:34:13Z</time>
      </trkpt>
      <trkpt lat="45.05136" lon="-0.39713">
        <ele>46.8</ele>
        <time>2021-11-27T13:34:14Z</time>
      </trkpt>
      <trkpt lat="45.05135" lon="-0.39711">
        <ele>46.6</ele>
        <time>2021-11-27T13:34:16Z</time>
      </trkpt>
      <trkpt lat="45.05134" lon="-0.39709">
        <ele>46.5</ele>
        <time>2021-11-27T13:34:17Z</time>
      </trkpt>
      <trkpt lat="45.05134" lon="-0.39708">
        <ele>46.5</ele>
        <time>2021-11-27T13:34:18Z</time>
      </trkpt>
      <trkpt lat="45.05133" lon="-0.39706">
        <ele>46.5</ele>
        <time>2021-11-27T13:34:19Z</time>
      </trkpt>
      <trkpt lat="45.05133" lon="-0.39703">
        <ele>46.4</ele>
        <time>2021-11-27T13:34:21Z</time>
      </trkpt>
      <trkpt lat="45.05133" lon="-0.39701">
        <ele>46.3</ele>
        <time>2021-11-27T13:34:22Z</time>
      </trkpt>
      <trkpt lat="45.05133" lon="-0.39699">
        <ele>46.3</ele>
        <time>2021-11-27T13:34:24Z</time>
      </trkpt>
      <trkpt lat="45.05133" lon="-0.39696">
        <ele>46.2</ele>
        <time>2021-11-27T13:34:25Z</time>
      </trkpt>
      <trkpt lat="45.05133" lon="-0.39693">
        <ele>46.2</ele>
        <time>2021-11-27T13:34:27Z</time>
      </trkpt>
      <trkpt lat="45.05132" lon="-0.3969">
        <ele>46.1</ele>
        <time>2021-11-27T13:34:28Z</time>
      </trkpt>
      <trkpt lat="45.05131" lon="-0.39687">
        <ele>46</ele>
        <time>2021-11-27T13:34:30Z</time>
      </trkpt>
      <trkpt lat="45.0513" lon="-0.39684">
        <ele>46</ele>
        <time>2021-11-27T13:34:32Z</time>
      </trkpt>
      <trkpt lat="45.0513" lon="-0.39682">
        <ele>45.9</ele>
        <time>2021-11-27T13:34:33Z</time>
      </trkpt>
      <trkpt lat="45.0513" lon="-0.39679">
        <ele>45.9</ele>
        <time>2021-11-27T13:34:34Z</time>
      </trkpt>
      <trkpt lat="45.05129" lon="-0.39675">
        <ele>45.8</ele>
        <time>2021-11-27T13:34:36Z</time>
      </trkpt>
      <trkpt lat="45.05128" lon="-0.39674">
        <ele>45.7</ele>
        <time>2021-11-27T13:34:37Z</time>
      </trkpt>
      <trkpt lat="45.05127" lon="-0.39672">
        <ele>45.7</ele>
        <time>2021-11-27T13:34:39Z</time>
      </trkpt>
      <trkpt lat="45.05127" lon="-0.3967">
        <ele>45.6</ele>
        <time>2021-11-27T13:34:40Z</time>
      </trkpt>
      <trkpt lat="45.05126" lon="-0.39667">
        <ele>45.6</ele>
        <time>2021-11-27T13:34:41Z</time>
      </trkpt>
      <trkpt lat="45.05126" lon="-0.39666">
        <ele>45.5</ele>
        <time>2021-11-27T13:34:42Z</time>
      </trkpt>
      <trkpt lat="45.05125" lon="-0.39665">
        <ele>45.5</ele>
        <time>2021-11-27T13:34:43Z</time>
      </trkpt>
      <trkpt lat="45.05124" lon="-0.39663">
        <ele>45.4</ele>
        <time>2021-11-27T13:34:44Z</time>
      </trkpt>
      <trkpt lat="45.05123" lon="-0.39661">
        <ele>45.4</ele>
        <time>2021-11-27T13:34:45Z</time>
      </trkpt>
      <trkpt lat="45.05122" lon="-0.3966">
        <ele>45.3</ele>
        <time>2021-11-27T13:34:47Z</time>
      </trkpt>
      <trkpt lat="45.05122" lon="-0.39658">
        <ele>45.3</ele>
        <time>2021-11-27T13:34:48Z</time>
      </trkpt>
      <trkpt lat="45.05121" lon="-0.39657">
        <ele>45.3</ele>
        <time>2021-11-27T13:34:49Z</time>
      </trkpt>
      <trkpt lat="45.0512" lon="-0.39654">
        <ele>45.2</ele>
        <time>2021-11-27T13:34:51Z</time>
      </trkpt>
      <trkpt lat="45.05119" lon="-0.39652">
        <ele>45.1</ele>
        <time>2021-11-27T13:34:52Z</time>
      </trkpt>
      <trkpt lat="45.05117" lon="-0.3965">
        <ele>45.1</ele>
        <time>2021-11-27T13:34:54Z</time>
      </trkpt>
      <trkpt lat="45.05116" lon="-0.39649">
        <ele>45</ele>
        <time>2021-11-27T13:34:55Z</time>
      </trkpt>
      <trkpt lat="45.05114" lon="-0.39647">
        <ele>44.9</ele>
        <time>2021-11-27T13:34:57Z</time>
      </trkpt>
      <trkpt lat="45.05113" lon="-0.39645">
        <ele>44.9</ele>
        <time>2021-11-27T13:34:58Z</time>
      </trkpt>
      <trkpt lat="45.05112" lon="-0.39644">
        <ele>44.8</ele>
        <time>2021-11-27T13:34:59Z</time>
      </trkpt>
      <trkpt lat="45.0511" lon="-0.39643">
        <ele>44.8</ele>
        <time>2021-11-27T13:35:01Z</time>
      </trkpt>
      <trkpt lat="45.05109" lon="-0.39641">
        <ele>44.7</ele>
        <time>2021-11-27T13:35:02Z</time>
      </trkpt>
      <trkpt lat="45.05108" lon="-0.3964">
        <ele>44.7</ele>
        <time>2021-11-27T13:35:04Z</time>
      </trkpt>
      <trkpt lat="45.05106" lon="-0.39638">
        <ele>44.6</ele>
        <time>2021-11-27T13:35:05Z</time>
      </trkpt>
      <trkpt lat="45.05105" lon="-0.39634">
        <ele>44.5</ele>
        <time>2021-11-27T13:35:07Z</time>
      </trkpt>
      <trkpt lat="45.05104" lon="-0.39633">
        <ele>44.5</ele>
        <time>2021-11-27T13:35:08Z</time>
      </trkpt>
      <trkpt lat="45.05103" lon="-0.39629">
        <ele>44.4</ele>
        <time>2021-11-27T13:35:10Z</time>
      </trkpt>
      <trkpt lat="45.05103" lon="-0.39627">
        <ele>44.5</ele>
        <time>2021-11-27T13:35:12Z</time>
      </trkpt>
      <trkpt lat="45.05103" lon="-0.39625">
        <ele>44.6</ele>
        <time>2021-11-27T13:35:13Z</time>
      </trkpt>
      <trkpt lat="45.05104" lon="-0.39622">
        <ele>44.8</ele>
        <time>2021-11-27T13:35:14Z</time>
      </trkpt>
      <trkpt lat="45.05105" lon="-0.3962">
        <ele>44.9</ele>
        <time>2021-11-27T13:35:16Z</time>
      </trkpt>
      <trkpt lat="45.05105" lon="-0.39618">
        <ele>45</ele>
        <time>2021-11-27T13:35:17Z</time>
      </trkpt>
      <trkpt lat="45.05108" lon="-0.39615">
        <ele>45.3</ele>
        <time>2021-11-27T13:35:19Z</time>
      </trkpt>
      <trkpt lat="45.05109" lon="-0.39614">
        <ele>45.4</ele>
        <time>2021-11-27T13:35:20Z</time>
      </trkpt>
      <trkpt lat="45.0511" lon="-0.39612">
        <ele>45.5</ele>
        <time>2021-11-27T13:35:21Z</time>
      </trkpt>
      <trkpt lat="45.05111" lon="-0.3961">
        <ele>45.6</ele>
        <time>2021-11-27T13:35:23Z</time>
      </trkpt>
      <trkpt lat="45.05111" lon="-0.39608">
        <ele>45.8</ele>
        <time>2021-11-27T13:35:24Z</time>
      </trkpt>
      <trkpt lat="45.05112" lon="-0.39606">
        <ele>45.8</ele>
        <time>2021-11-27T13:35:25Z</time>
      </trkpt>
      <trkpt lat="45.05114" lon="-0.39603">
        <ele>46</ele>
        <time>2021-11-27T13:35:27Z</time>
      </trkpt>
      <trkpt lat="45.05115" lon="-0.39603">
        <ele>46</ele>
        <time>2021-11-27T13:35:28Z</time>
      </trkpt>
      <trkpt lat="45.05116" lon="-0.39602">
        <ele>46.1</ele>
        <time>2021-11-27T13:35:29Z</time>
      </trkpt>
      <trkpt lat="45.05117" lon="-0.39601">
        <ele>46.1</ele>
        <time>2021-11-27T13:35:30Z</time>
      </trkpt>
      <trkpt lat="45.05119" lon="-0.39598">
        <ele>46.2</ele>
        <time>2021-11-27T13:35:31Z</time>
      </trkpt>
      <trkpt lat="45.0512" lon="-0.39597">
        <ele>46.2</ele>
        <time>2021-11-27T13:35:33Z</time>
      </trkpt>
      <trkpt lat="45.05121" lon="-0.39595">
        <ele>46.2</ele>
        <time>2021-11-27T13:35:35Z</time>
      </trkpt>
      <trkpt lat="45.05121" lon="-0.39594">
        <ele>46.3</ele>
        <time>2021-11-27T13:35:36Z</time>
      </trkpt>
      <trkpt lat="45.05122" lon="-0.39593">
        <ele>46.3</ele>
        <time>2021-11-27T13:35:38Z</time>
      </trkpt>
      <trkpt lat="45.05123" lon="-0.39591">
        <ele>46.3</ele>
        <time>2021-11-27T13:35:39Z</time>
      </trkpt>
      <trkpt lat="45.05123" lon="-0.3959">
        <ele>46.3</ele>
        <time>2021-11-27T13:35:40Z</time>
      </trkpt>
      <trkpt lat="45.05124" lon="-0.39588">
        <ele>46.3</ele>
        <time>2021-11-27T13:35:41Z</time>
      </trkpt>
      <trkpt lat="45.05125" lon="-0.39587">
        <ele>46.4</ele>
        <time>2021-11-27T13:35:42Z</time>
      </trkpt>
      <trkpt lat="45.05125" lon="-0.39584">
        <ele>46.5</ele>
        <time>2021-11-27T13:35:44Z</time>
      </trkpt>
      <trkpt lat="45.05126" lon="-0.39582">
        <ele>46.4</ele>
        <time>2021-11-27T13:35:45Z</time>
      </trkpt>
      <trkpt lat="45.05126" lon="-0.3958">
        <ele>46.5</ele>
        <time>2021-11-27T13:35:46Z</time>
      </trkpt>
      <trkpt lat="45.05127" lon="-0.39576">
        <ele>46.6</ele>
        <time>2021-11-27T13:35:48Z</time>
      </trkpt>
      <trkpt lat="45.05128" lon="-0.39575">
        <ele>46.6</ele>
        <time>2021-11-27T13:35:49Z</time>
      </trkpt>
      <trkpt lat="45.05128" lon="-0.39573">
        <ele>46.6</ele>
        <time>2021-11-27T13:35:50Z</time>
      </trkpt>
      <trkpt lat="45.05129" lon="-0.39571">
        <ele>46.6</ele>
        <time>2021-11-27T13:35:52Z</time>
      </trkpt>
      <trkpt lat="45.05129" lon="-0.3957">
        <ele>46.6</ele>
        <time>2021-11-27T13:35:53Z</time>
      </trkpt>
      <trkpt lat="45.0513" lon="-0.39566">
        <ele>46.7</ele>
        <time>2021-11-27T13:35:55Z</time>
      </trkpt>
      <trkpt lat="45.05132" lon="-0.39562">
        <ele>46.7</ele>
        <time>2021-11-27T13:35:56Z</time>
      </trkpt>
      <trkpt lat="45.05132" lon="-0.3956">
        <ele>46.7</ele>
        <time>2021-11-27T13:35:57Z</time>
      </trkpt>
      <trkpt lat="45.05132" lon="-0.39556">
        <ele>46.7</ele>
        <time>2021-11-27T13:35:59Z</time>
      </trkpt>
      <trkpt lat="45.05132" lon="-0.39554">
        <ele>46.7</ele>
        <time>2021-11-27T13:36:00Z</time>
      </trkpt>
      <trkpt lat="45.05133" lon="-0.39551">
        <ele>46.7</ele>
        <time>2021-11-27T13:36:01Z</time>
      </trkpt>
      <trkpt lat="45.05133" lon="-0.39549">
        <ele>46.6</ele>
        <time>2021-11-27T13:36:02Z</time>
      </trkpt>
      <trkpt lat="45.05133" lon="-0.39545">
        <ele>46.6</ele>
        <time>2021-11-27T13:36:04Z</time>
      </trkpt>
      <trkpt lat="45.05133" lon="-0.39543">
        <ele>46.7</ele>
        <time>2021-11-27T13:36:05Z</time>
      </trkpt>
      <trkpt lat="45.05133" lon="-0.3954">
        <ele>46.7</ele>
        <time>2021-11-27T13:36:07Z</time>
      </trkpt>
      <trkpt lat="45.05133" lon="-0.39538">
        <ele>46.6</ele>
        <time>2021-11-27T13:36:08Z</time>
      </trkpt>
      <trkpt lat="45.05133" lon="-0.39535">
        <ele>46.5</ele>
        <time>2021-11-27T13:36:09Z</time>
      </trkpt>
      <trkpt lat="45.05133" lon="-0.39534">
        <ele>46.5</ele>
        <time>2021-11-27T13:36:11Z</time>
      </trkpt>
      <trkpt lat="45.05133" lon="-0.39532">
        <ele>46.5</ele>
        <time>2021-11-27T13:36:12Z</time>
      </trkpt>
      <trkpt lat="45.05133" lon="-0.39529">
        <ele>46.4</ele>
        <time>2021-11-27T13:36:14Z</time>
      </trkpt>
      <trkpt lat="45.05133" lon="-0.39527">
        <ele>46.5</ele>
        <time>2021-11-27T13:36:15Z</time>
      </trkpt>
      <trkpt lat="45.05134" lon="-0.39523">
        <ele>46.5</ele>
        <time>2021-11-27T13:36:16Z</time>
      </trkpt>
      <trkpt lat="45.05134" lon="-0.39521">
        <ele>46.5</ele>
        <time>2021-11-27T13:36:18Z</time>
      </trkpt>
      <trkpt lat="45.05134" lon="-0.39519">
        <ele>46.4</ele>
        <time>2021-11-27T13:36:19Z</time>
      </trkpt>
      <trkpt lat="45.05134" lon="-0.39517">
        <ele>46.4</ele>
        <time>2021-11-27T13:36:20Z</time>
      </trkpt>
      <trkpt lat="45.05134" lon="-0.39514">
        <ele>46.4</ele>
        <time>2021-11-27T13:36:22Z</time>
      </trkpt>
      <trkpt lat="45.05134" lon="-0.39512">
        <ele>46.4</ele>
        <time>2021-11-27T13:36:23Z</time>
      </trkpt>
      <trkpt lat="45.05135" lon="-0.3951">
        <ele>46.3</ele>
        <time>2021-11-27T13:36:24Z</time>
      </trkpt>
      <trkpt lat="45.05135" lon="-0.39507">
        <ele>46.3</ele>
        <time>2021-11-27T13:36:26Z</time>
      </trkpt>
      <trkpt lat="45.05135" lon="-0.39508">
        <ele>46.3</ele>
        <time>2021-11-27T13:36:27Z</time>
      </trkpt>
      <trkpt lat="45.05135" lon="-0.39508">
        <ele>46.3</ele>
        <time>2021-11-27T13:36:29Z</time>
      </trkpt>
      <trkpt lat="45.05135" lon="-0.39507">
        <ele>46.2</ele>
        <time>2021-11-27T13:36:30Z</time>
      </trkpt>
      <trkpt lat="45.05135" lon="-0.39504">
        <ele>46.2</ele>
        <time>2021-11-27T13:36:31Z</time>
      </trkpt>
      <trkpt lat="45.05135" lon="-0.39501">
        <ele>46.2</ele>
        <time>2021-11-27T13:36:33Z</time>
      </trkpt>
      <trkpt lat="45.05135" lon="-0.39498">
        <ele>46.1</ele>
        <time>2021-11-27T13:36:34Z</time>
      </trkpt>
      <trkpt lat="45.05135" lon="-0.39496">
        <ele>46.1</ele>
        <time>2021-11-27T13:36:35Z</time>
      </trkpt>
      <trkpt lat="45.05134" lon="-0.39491">
        <ele>46.1</ele>
        <time>2021-11-27T13:36:37Z</time>
      </trkpt>
      <trkpt lat="45.05135" lon="-0.3949">
        <ele>46</ele>
        <time>2021-11-27T13:36:38Z</time>
      </trkpt>
      <trkpt lat="45.05135" lon="-0.39487">
        <ele>46</ele>
        <time>2021-11-27T13:36:40Z</time>
      </trkpt>
      <trkpt lat="45.05135" lon="-0.39484">
        <ele>46</ele>
        <time>2021-11-27T13:36:41Z</time>
      </trkpt>
      <trkpt lat="45.05135" lon="-0.39482">
        <ele>46</ele>
        <time>2021-11-27T13:36:43Z</time>
      </trkpt>
      <trkpt lat="45.05135" lon="-0.3948">
        <ele>45.9</ele>
        <time>2021-11-27T13:36:44Z</time>
      </trkpt>
      <trkpt lat="45.05136" lon="-0.39477">
        <ele>45.9</ele>
        <time>2021-11-27T13:36:46Z</time>
      </trkpt>
      <trkpt lat="45.05135" lon="-0.39475">
        <ele>45.9</ele>
        <time>2021-11-27T13:36:47Z</time>
      </trkpt>
      <trkpt lat="45.05136" lon="-0.39472">
        <ele>45.9</ele>
        <time>2021-11-27T13:36:48Z</time>
      </trkpt>
      <trkpt lat="45.05136" lon="-0.39468">
        <ele>45.8</ele>
        <time>2021-11-27T13:36:50Z</time>
      </trkpt>
      <trkpt lat="45.05136" lon="-0.39467">
        <ele>45.8</ele>
        <time>2021-11-27T13:36:51Z</time>
      </trkpt>
      <trkpt lat="45.05136" lon="-0.39463">
        <ele>45.8</ele>
        <time>2021-11-27T13:36:53Z</time>
      </trkpt>
      <trkpt lat="45.05136" lon="-0.39461">
        <ele>45.8</ele>
        <time>2021-11-27T13:36:54Z</time>
      </trkpt>
      <trkpt lat="45.05137" lon="-0.39459">
        <ele>45.8</ele>
        <time>2021-11-27T13:36:56Z</time>
      </trkpt>
      <trkpt lat="45.05137" lon="-0.39457">
        <ele>45.8</ele>
        <time>2021-11-27T13:36:57Z</time>
      </trkpt>
      <trkpt lat="45.05138" lon="-0.39454">
        <ele>45.7</ele>
        <time>2021-11-27T13:36:58Z</time>
      </trkpt>
      <trkpt lat="45.05138" lon="-0.39454">
        <ele>45.7</ele>
        <time>2021-11-27T13:36:59Z</time>
      </trkpt>
      <trkpt lat="45.05139" lon="-0.39453">
        <ele>45.7</ele>
        <time>2021-11-27T13:37:00Z</time>
      </trkpt>
      <trkpt lat="45.05139" lon="-0.39452">
        <ele>45.7</ele>
        <time>2021-11-27T13:37:01Z</time>
      </trkpt>
      <trkpt lat="45.05139" lon="-0.39451">
        <ele>45.7</ele>
        <time>2021-11-27T13:37:02Z</time>
      </trkpt>
      <trkpt lat="45.05139" lon="-0.3945">
        <ele>45.6</ele>
        <time>2021-11-27T13:37:03Z</time>
      </trkpt>
      <trkpt lat="45.05139" lon="-0.39449">
        <ele>45.6</ele>
        <time>2021-11-27T13:37:05Z</time>
      </trkpt>
      <trkpt lat="45.05139" lon="-0.39448">
        <ele>45.6</ele>
        <time>2021-11-27T13:37:06Z</time>
      </trkpt>
      <trkpt lat="45.0514" lon="-0.39447">
        <ele>45.6</ele>
        <time>2021-11-27T13:37:07Z</time>
      </trkpt>
      <trkpt lat="45.0514" lon="-0.39444">
        <ele>45.6</ele>
        <time>2021-11-27T13:37:08Z</time>
      </trkpt>
      <trkpt lat="45.0514" lon="-0.39441">
        <ele>45.5</ele>
        <time>2021-11-27T13:37:10Z</time>
      </trkpt>
      <trkpt lat="45.0514" lon="-0.39439">
        <ele>45.5</ele>
        <time>2021-11-27T13:37:11Z</time>
      </trkpt>
      <trkpt lat="45.0514" lon="-0.39437">
        <ele>45.5</ele>
        <time>2021-11-27T13:37:12Z</time>
      </trkpt>
      <trkpt lat="45.05139" lon="-0.39434">
        <ele>45.5</ele>
        <time>2021-11-27T13:37:14Z</time>
      </trkpt>
      <trkpt lat="45.05139" lon="-0.39431">
        <ele>45.5</ele>
        <time>2021-11-27T13:37:16Z</time>
      </trkpt>
      <trkpt lat="45.05139" lon="-0.39429">
        <ele>45.4</ele>
        <time>2021-11-27T13:37:17Z</time>
      </trkpt>
      <trkpt lat="45.0514" lon="-0.39426">
        <ele>45.4</ele>
        <time>2021-11-27T13:37:18Z</time>
      </trkpt>
      <trkpt lat="45.05141" lon="-0.39424">
        <ele>45.4</ele>
        <time>2021-11-27T13:37:19Z</time>
      </trkpt>
      <trkpt lat="45.05141" lon="-0.39421">
        <ele>45.3</ele>
        <time>2021-11-27T13:37:21Z</time>
      </trkpt>
      <trkpt lat="45.05142" lon="-0.39417">
        <ele>45.3</ele>
        <time>2021-11-27T13:37:22Z</time>
      </trkpt>
      <trkpt lat="45.05143" lon="-0.39416">
        <ele>45.3</ele>
        <time>2021-11-27T13:37:23Z</time>
      </trkpt>
      <trkpt lat="45.05144" lon="-0.39413">
        <ele>45.2</ele>
        <time>2021-11-27T13:37:25Z</time>
      </trkpt>
      <trkpt lat="45.05145" lon="-0.39411">
        <ele>45.2</ele>
        <time>2021-11-27T13:37:26Z</time>
      </trkpt>
      <trkpt lat="45.05146" lon="-0.39408">
        <ele>45.1</ele>
        <time>2021-11-27T13:37:28Z</time>
      </trkpt>
      <trkpt lat="45.05147" lon="-0.39406">
        <ele>45.1</ele>
        <time>2021-11-27T13:37:29Z</time>
      </trkpt>
      <trkpt lat="45.05147" lon="-0.39404">
        <ele>45.1</ele>
        <time>2021-11-27T13:37:30Z</time>
      </trkpt>
      <trkpt lat="45.05147" lon="-0.394">
        <ele>45</ele>
        <time>2021-11-27T13:37:32Z</time>
      </trkpt>
      <trkpt lat="45.05146" lon="-0.39395">
        <ele>45</ele>
        <time>2021-11-27T13:37:34Z</time>
      </trkpt>
      <trkpt lat="45.05146" lon="-0.39394">
        <ele>45</ele>
        <time>2021-11-27T13:37:35Z</time>
      </trkpt>
      <trkpt lat="45.05145" lon="-0.3939">
        <ele>45</ele>
        <time>2021-11-27T13:37:37Z</time>
      </trkpt>
      <trkpt lat="45.05144" lon="-0.39388">
        <ele>45</ele>
        <time>2021-11-27T13:37:38Z</time>
      </trkpt>
      <trkpt lat="45.05143" lon="-0.39385">
        <ele>45</ele>
        <time>2021-11-27T13:37:40Z</time>
      </trkpt>
      <trkpt lat="45.05143" lon="-0.39383">
        <ele>44.9</ele>
        <time>2021-11-27T13:37:41Z</time>
      </trkpt>
      <trkpt lat="45.05142" lon="-0.39381">
        <ele>44.9</ele>
        <time>2021-11-27T13:37:42Z</time>
      </trkpt>
      <trkpt lat="45.05142" lon="-0.3938">
        <ele>45</ele>
        <time>2021-11-27T13:37:43Z</time>
      </trkpt>
      <trkpt lat="45.05141" lon="-0.39377">
        <ele>44.9</ele>
        <time>2021-11-27T13:37:45Z</time>
      </trkpt>
      <trkpt lat="45.0514" lon="-0.39376">
        <ele>44.9</ele>
        <time>2021-11-27T13:37:46Z</time>
      </trkpt>
      <trkpt lat="45.05141" lon="-0.39372">
        <ele>44.9</ele>
        <time>2021-11-27T13:37:48Z</time>
      </trkpt>
      <trkpt lat="45.05141" lon="-0.39372">
        <ele>44.9</ele>
        <time>2021-11-27T13:37:49Z</time>
      </trkpt>
      <trkpt lat="45.05141" lon="-0.39371">
        <ele>44.9</ele>
        <time>2021-11-27T13:37:50Z</time>
      </trkpt>
      <trkpt lat="45.0514" lon="-0.3937">
        <ele>44.9</ele>
        <time>2021-11-27T13:37:51Z</time>
      </trkpt>
      <trkpt lat="45.05139" lon="-0.39368">
        <ele>44.9</ele>
        <time>2021-11-27T13:37:53Z</time>
      </trkpt>
      <trkpt lat="45.05138" lon="-0.39366">
        <ele>44.9</ele>
        <time>2021-11-27T13:37:54Z</time>
      </trkpt>
      <trkpt lat="45.05138" lon="-0.39363">
        <ele>44.9</ele>
        <time>2021-11-27T13:37:56Z</time>
      </trkpt>
      <trkpt lat="45.05138" lon="-0.3936">
        <ele>44.8</ele>
        <time>2021-11-27T13:37:57Z</time>
      </trkpt>
      <trkpt lat="45.05139" lon="-0.39359">
        <ele>44.8</ele>
        <time>2021-11-27T13:37:58Z</time>
      </trkpt>
      <trkpt lat="45.0514" lon="-0.39356">
        <ele>44.7</ele>
        <time>2021-11-27T13:37:59Z</time>
      </trkpt>
      <trkpt lat="45.0514" lon="-0.39353">
        <ele>44.7</ele>
        <time>2021-11-27T13:38:01Z</time>
      </trkpt>
      <trkpt lat="45.0514" lon="-0.39352">
        <ele>44.7</ele>
        <time>2021-11-27T13:38:02Z</time>
      </trkpt>
      <trkpt lat="45.05141" lon="-0.39349">
        <ele>44.7</ele>
        <time>2021-11-27T13:38:03Z</time>
      </trkpt>
      <trkpt lat="45.05142" lon="-0.39346">
        <ele>44.7</ele>
        <time>2021-11-27T13:38:04Z</time>
      </trkpt>
      <trkpt lat="45.05143" lon="-0.39344">
        <ele>44.6</ele>
        <time>2021-11-27T13:38:06Z</time>
      </trkpt>
      <trkpt lat="45.05144" lon="-0.39342">
        <ele>44.6</ele>
        <time>2021-11-27T13:38:07Z</time>
      </trkpt>
      <trkpt lat="45.05145" lon="-0.3934">
        <ele>44.5</ele>
        <time>2021-11-27T13:38:09Z</time>
      </trkpt>
      <trkpt lat="45.05145" lon="-0.3934">
        <ele>44.5</ele>
        <time>2021-11-27T13:38:10Z</time>
      </trkpt>
      <trkpt lat="45.05144" lon="-0.3934">
        <ele>44.5</ele>
        <time>2021-11-27T13:38:11Z</time>
      </trkpt>
      <trkpt lat="45.05143" lon="-0.3934">
        <ele>44.5</ele>
        <time>2021-11-27T13:38:12Z</time>
      </trkpt>
      <trkpt lat="45.05143" lon="-0.3934">
        <ele>44.5</ele>
        <time>2021-11-27T13:38:13Z</time>
      </trkpt>
      <trkpt lat="45.05143" lon="-0.3934">
        <ele>44.5</ele>
        <time>2021-11-27T13:38:14Z</time>
      </trkpt>
      <trkpt lat="45.05143" lon="-0.3934">
        <ele>44.4</ele>
        <time>2021-11-27T13:38:15Z</time>
      </trkpt>
      <trkpt lat="45.05143" lon="-0.39339">
        <ele>44.4</ele>
        <time>2021-11-27T13:38:17Z</time>
      </trkpt>
      <trkpt lat="45.05143" lon="-0.39339">
        <ele>44.4</ele>
        <time>2021-11-27T13:38:19Z</time>
      </trkpt>
      <trkpt lat="45.05143" lon="-0.39339">
        <ele>44.4</ele>
        <time>2021-11-27T13:38:21Z</time>
      </trkpt>
      <trkpt lat="45.05144" lon="-0.39338">
        <ele>44.4</ele>
        <time>2021-11-27T13:38:22Z</time>
      </trkpt>
      <trkpt lat="45.05145" lon="-0.39338">
        <ele>44.4</ele>
        <time>2021-11-27T13:38:23Z</time>
      </trkpt>
      <trkpt lat="45.05147" lon="-0.39335">
        <ele>44.3</ele>
        <time>2021-11-27T13:38:25Z</time>
      </trkpt>
      <trkpt lat="45.05148" lon="-0.39335">
        <ele>44.3</ele>
        <time>2021-11-27T13:38:26Z</time>
      </trkpt>
      <trkpt lat="45.0515" lon="-0.39334">
        <ele>44.2</ele>
        <time>2021-11-27T13:38:27Z</time>
      </trkpt>
      <trkpt lat="45.05151" lon="-0.39332">
        <ele>44.2</ele>
        <time>2021-11-27T13:38:29Z</time>
      </trkpt>
      <trkpt lat="45.05154" lon="-0.39331">
        <ele>44.1</ele>
        <time>2021-11-27T13:38:30Z</time>
      </trkpt>
      <trkpt lat="45.05156" lon="-0.3933">
        <ele>44</ele>
        <time>2021-11-27T13:38:32Z</time>
      </trkpt>
      <trkpt lat="45.05158" lon="-0.39329">
        <ele>44</ele>
        <time>2021-11-27T13:38:34Z</time>
      </trkpt>
      <trkpt lat="45.0516" lon="-0.39327">
        <ele>43.9</ele>
        <time>2021-11-27T13:38:35Z</time>
      </trkpt>
      <trkpt lat="45.05161" lon="-0.39326">
        <ele>43.8</ele>
        <time>2021-11-27T13:38:36Z</time>
      </trkpt>
      <trkpt lat="45.05162" lon="-0.39325">
        <ele>43.8</ele>
        <time>2021-11-27T13:38:38Z</time>
      </trkpt>
      <trkpt lat="45.05163" lon="-0.39323">
        <ele>43.8</ele>
        <time>2021-11-27T13:38:39Z</time>
      </trkpt>
      <trkpt lat="45.05164" lon="-0.3932">
        <ele>43.7</ele>
        <time>2021-11-27T13:38:40Z</time>
      </trkpt>
      <trkpt lat="45.05164" lon="-0.39319">
        <ele>43.6</ele>
        <time>2021-11-27T13:38:41Z</time>
      </trkpt>
      <trkpt lat="45.05164" lon="-0.39317">
        <ele>43.6</ele>
        <time>2021-11-27T13:38:42Z</time>
      </trkpt>
      <trkpt lat="45.05163" lon="-0.39314">
        <ele>43.6</ele>
        <time>2021-11-27T13:38:44Z</time>
      </trkpt>
      <trkpt lat="45.05162" lon="-0.39312">
        <ele>43.6</ele>
        <time>2021-11-27T13:38:45Z</time>
      </trkpt>
      <trkpt lat="45.05163" lon="-0.39311">
        <ele>43.6</ele>
        <time>2021-11-27T13:38:47Z</time>
      </trkpt>
      <trkpt lat="45.05162" lon="-0.39312">
        <ele>43.6</ele>
        <time>2021-11-27T13:38:49Z</time>
      </trkpt>
      <trkpt lat="45.05162" lon="-0.39312">
        <ele>43.6</ele>
        <time>2021-11-27T13:38:51Z</time>
      </trkpt>
      <trkpt lat="45.05162" lon="-0.39312">
        <ele>43.6</ele>
        <time>2021-11-27T13:38:52Z</time>
      </trkpt>
      <trkpt lat="45.05161" lon="-0.39311">
        <ele>43.5</ele>
        <time>2021-11-27T13:38:54Z</time>
      </trkpt>
      <trkpt lat="45.0516" lon="-0.3931">
        <ele>43.5</ele>
        <time>2021-11-27T13:38:56Z</time>
      </trkpt>
      <trkpt lat="45.05159" lon="-0.3931">
        <ele>43.5</ele>
        <time>2021-11-27T13:38:57Z</time>
      </trkpt>
      <trkpt lat="45.05158" lon="-0.39309">
        <ele>43.5</ele>
        <time>2021-11-27T13:38:59Z</time>
      </trkpt>
      <trkpt lat="45.05157" lon="-0.39308">
        <ele>43.6</ele>
        <time>2021-11-27T13:39:00Z</time>
      </trkpt>
      <trkpt lat="45.05156" lon="-0.39307">
        <ele>43.5</ele>
        <time>2021-11-27T13:39:01Z</time>
      </trkpt>
      <trkpt lat="45.05156" lon="-0.39306">
        <ele>43.5</ele>
        <time>2021-11-27T13:39:02Z</time>
      </trkpt>
      <trkpt lat="45.05155" lon="-0.39305">
        <ele>43.5</ele>
        <time>2021-11-27T13:39:04Z</time>
      </trkpt>
      <trkpt lat="45.05155" lon="-0.39302">
        <ele>43.4</ele>
        <time>2021-11-27T13:39:05Z</time>
      </trkpt>
      <trkpt lat="45.05154" lon="-0.39301">
        <ele>43.4</ele>
        <time>2021-11-27T13:39:06Z</time>
      </trkpt>
      <trkpt lat="45.05155" lon="-0.39298">
        <ele>43.4</ele>
        <time>2021-11-27T13:39:07Z</time>
      </trkpt>
      <trkpt lat="45.05155" lon="-0.39293">
        <ele>43.3</ele>
        <time>2021-11-27T13:39:09Z</time>
      </trkpt>
      <trkpt lat="45.05157" lon="-0.3929">
        <ele>43.2</ele>
        <time>2021-11-27T13:39:10Z</time>
      </trkpt>
      <trkpt lat="45.05159" lon="-0.39286">
        <ele>43.1</ele>
        <time>2021-11-27T13:39:11Z</time>
      </trkpt>
      <trkpt lat="45.0516" lon="-0.39285">
        <ele>43.1</ele>
        <time>2021-11-27T13:39:12Z</time>
      </trkpt>
      <trkpt lat="45.0516" lon="-0.39283">
        <ele>43</ele>
        <time>2021-11-27T13:39:13Z</time>
      </trkpt>
      <trkpt lat="45.05159" lon="-0.39281">
        <ele>43</ele>
        <time>2021-11-27T13:39:15Z</time>
      </trkpt>
      <trkpt lat="45.05158" lon="-0.39281">
        <ele>43</ele>
        <time>2021-11-27T13:39:16Z</time>
      </trkpt>
      <trkpt lat="45.05158" lon="-0.39281">
        <ele>43</ele>
        <time>2021-11-27T13:39:18Z</time>
      </trkpt>
      <trkpt lat="45.05158" lon="-0.39281">
        <ele>43</ele>
        <time>2021-11-27T13:39:19Z</time>
      </trkpt>
      <trkpt lat="45.05158" lon="-0.3928">
        <ele>42.9</ele>
        <time>2021-11-27T13:39:20Z</time>
      </trkpt>
      <trkpt lat="45.05158" lon="-0.3928">
        <ele>42.9</ele>
        <time>2021-11-27T13:39:22Z</time>
      </trkpt>
      <trkpt lat="45.05158" lon="-0.3928">
        <ele>42.9</ele>
        <time>2021-11-27T13:39:23Z</time>
      </trkpt>
      <trkpt lat="45.05158" lon="-0.3928">
        <ele>42.8</ele>
        <time>2021-11-27T13:39:25Z</time>
      </trkpt>
      <trkpt lat="45.05159" lon="-0.3928">
        <ele>42.8</ele>
        <time>2021-11-27T13:39:27Z</time>
      </trkpt>
      <trkpt lat="45.05159" lon="-0.3928">
        <ele>42.8</ele>
        <time>2021-11-27T13:39:28Z</time>
      </trkpt>
      <trkpt lat="45.05159" lon="-0.3928">
        <ele>42.8</ele>
        <time>2021-11-27T13:39:29Z</time>
      </trkpt>
      <trkpt lat="45.05159" lon="-0.3928">
        <ele>42.8</ele>
        <time>2021-11-27T13:39:31Z</time>
      </trkpt>
      <trkpt lat="45.05159" lon="-0.3928">
        <ele>42.8</ele>
        <time>2021-11-27T13:39:32Z</time>
      </trkpt>
      <trkpt lat="45.05159" lon="-0.3928">
        <ele>42.7</ele>
        <time>2021-11-27T13:39:33Z</time>
      </trkpt>
      <trkpt lat="45.05159" lon="-0.3928">
        <ele>42.7</ele>
        <time>2021-11-27T13:39:34Z</time>
      </trkpt>
      <trkpt lat="45.0516" lon="-0.3928">
        <ele>42.7</ele>
        <time>2021-11-27T13:39:35Z</time>
      </trkpt>
      <trkpt lat="45.0516" lon="-0.3928">
        <ele>42.7</ele>
        <time>2021-11-27T13:39:37Z</time>
      </trkpt>
      <trkpt lat="45.0516" lon="-0.3928">
        <ele>42.7</ele>
        <time>2021-11-27T13:39:38Z</time>
      </trkpt>
      <trkpt lat="45.0516" lon="-0.3928">
        <ele>42.7</ele>
        <time>2021-11-27T13:39:40Z</time>
      </trkpt>
      <trkpt lat="45.0516" lon="-0.39279">
        <ele>42.7</ele>
        <time>2021-11-27T13:39:41Z</time>
      </trkpt>
      <trkpt lat="45.0516" lon="-0.39279">
        <ele>42.6</ele>
        <time>2021-11-27T13:39:42Z</time>
      </trkpt>
      <trkpt lat="45.05161" lon="-0.39279">
        <ele>42.6</ele>
        <time>2021-11-27T13:39:43Z</time>
      </trkpt>
      <trkpt lat="45.05161" lon="-0.39279">
        <ele>42.5</ele>
        <time>2021-11-27T13:39:45Z</time>
      </trkpt>
      <trkpt lat="45.05161" lon="-0.39279">
        <ele>42.5</ele>
        <time>2021-11-27T13:39:46Z</time>
      </trkpt>
      <trkpt lat="45.05161" lon="-0.39279">
        <ele>42.5</ele>
        <time>2021-11-27T13:39:47Z</time>
      </trkpt>
      <trkpt lat="45.05161" lon="-0.39279">
        <ele>42.5</ele>
        <time>2021-11-27T13:39:49Z</time>
      </trkpt>
      <trkpt lat="45.05161" lon="-0.39279">
        <ele>42.5</ele>
        <time>2021-11-27T13:39:50Z</time>
      </trkpt>
      <trkpt lat="45.05161" lon="-0.39279">
        <ele>42.5</ele>
        <time>2021-11-27T13:39:51Z</time>
      </trkpt>
      <trkpt lat="45.05161" lon="-0.39279">
        <ele>42.5</ele>
        <time>2021-11-27T13:39:52Z</time>
      </trkpt>
      <trkpt lat="45.05162" lon="-0.39279">
        <ele>42.4</ele>
        <time>2021-11-27T13:39:54Z</time>
      </trkpt>
      <trkpt lat="45.05162" lon="-0.39279">
        <ele>42.4</ele>
        <time>2021-11-27T13:39:55Z</time>
      </trkpt>
      <trkpt lat="45.05162" lon="-0.39279">
        <ele>42.4</ele>
        <time>2021-11-27T13:39:56Z</time>
      </trkpt>
      <trkpt lat="45.05164" lon="-0.39275">
        <ele>42.3</ele>
        <time>2021-11-27T13:39:58Z</time>
      </trkpt>
      <trkpt lat="45.05164" lon="-0.39273">
        <ele>42.2</ele>
        <time>2021-11-27T13:39:59Z</time>
      </trkpt>
      <trkpt lat="45.05165" lon="-0.3927">
        <ele>42.2</ele>
        <time>2021-11-27T13:40:00Z</time>
      </trkpt>
      <trkpt lat="45.05165" lon="-0.39267">
        <ele>42.1</ele>
        <time>2021-11-27T13:40:02Z</time>
      </trkpt>
      <trkpt lat="45.05165" lon="-0.39265">
        <ele>42.1</ele>
        <time>2021-11-27T13:40:03Z</time>
      </trkpt>
      <trkpt lat="45.05165" lon="-0.39263">
        <ele>42.1</ele>
        <time>2021-11-27T13:40:04Z</time>
      </trkpt>
      <trkpt lat="45.05164" lon="-0.3926">
        <ele>42</ele>
        <time>2021-11-27T13:40:05Z</time>
      </trkpt>
      <trkpt lat="45.05163" lon="-0.39258">
        <ele>42</ele>
        <time>2021-11-27T13:40:07Z</time>
      </trkpt>
      <trkpt lat="45.05162" lon="-0.39257">
        <ele>42</ele>
        <time>2021-11-27T13:40:08Z</time>
      </trkpt>
      <trkpt lat="45.05162" lon="-0.39255">
        <ele>41.9</ele>
        <time>2021-11-27T13:40:09Z</time>
      </trkpt>
      <trkpt lat="45.05161" lon="-0.39254">
        <ele>41.9</ele>
        <time>2021-11-27T13:40:10Z</time>
      </trkpt>
      <trkpt lat="45.0516" lon="-0.39252">
        <ele>41.9</ele>
        <time>2021-11-27T13:40:11Z</time>
      </trkpt>
      <trkpt lat="45.05159" lon="-0.39251">
        <ele>41.9</ele>
        <time>2021-11-27T13:40:12Z</time>
      </trkpt>
      <trkpt lat="45.05158" lon="-0.39249">
        <ele>41.8</ele>
        <time>2021-11-27T13:40:13Z</time>
      </trkpt>
      <trkpt lat="45.05157" lon="-0.39246">
        <ele>41.9</ele>
        <time>2021-11-27T13:40:15Z</time>
      </trkpt>
      <trkpt lat="45.05156" lon="-0.39244">
        <ele>41.8</ele>
        <time>2021-11-27T13:40:16Z</time>
      </trkpt>
      <trkpt lat="45.05156" lon="-0.39241">
        <ele>41.7</ele>
        <time>2021-11-27T13:40:17Z</time>
      </trkpt>
      <trkpt lat="45.05156" lon="-0.39237">
        <ele>41.6</ele>
        <time>2021-11-27T13:40:19Z</time>
      </trkpt>
      <trkpt lat="45.05157" lon="-0.39235">
        <ele>41.6</ele>
        <time>2021-11-27T13:40:20Z</time>
      </trkpt>
      <trkpt lat="45.05158" lon="-0.39234">
        <ele>41.5</ele>
        <time>2021-11-27T13:40:21Z</time>
      </trkpt>
      <trkpt lat="45.05159" lon="-0.39231">
        <ele>41.4</ele>
        <time>2021-11-27T13:40:23Z</time>
      </trkpt>
      <trkpt lat="45.0516" lon="-0.39229">
        <ele>41.3</ele>
        <time>2021-11-27T13:40:24Z</time>
      </trkpt>
      <trkpt lat="45.05162" lon="-0.39227">
        <ele>41.2</ele>
        <time>2021-11-27T13:40:26Z</time>
      </trkpt>
      <trkpt lat="45.05163" lon="-0.39224">
        <ele>41.1</ele>
        <time>2021-11-27T13:40:27Z</time>
      </trkpt>
      <trkpt lat="45.05164" lon="-0.39222">
        <ele>41</ele>
        <time>2021-11-27T13:40:28Z</time>
      </trkpt>
      <trkpt lat="45.05164" lon="-0.39218">
        <ele>40.9</ele>
        <time>2021-11-27T13:40:30Z</time>
      </trkpt>
      <trkpt lat="45.05164" lon="-0.39216">
        <ele>40.9</ele>
        <time>2021-11-27T13:40:31Z</time>
      </trkpt>
      <trkpt lat="45.05164" lon="-0.39214">
        <ele>40.8</ele>
        <time>2021-11-27T13:40:32Z</time>
      </trkpt>
      <trkpt lat="45.05164" lon="-0.39211">
        <ele>40.7</ele>
        <time>2021-11-27T13:40:34Z</time>
      </trkpt>
      <trkpt lat="45.05163" lon="-0.3921">
        <ele>40.8</ele>
        <time>2021-11-27T13:40:35Z</time>
      </trkpt>
      <trkpt lat="45.05163" lon="-0.39208">
        <ele>40.7</ele>
        <time>2021-11-27T13:40:36Z</time>
      </trkpt>
      <trkpt lat="45.05163" lon="-0.39204">
        <ele>40.6</ele>
        <time>2021-11-27T13:40:37Z</time>
      </trkpt>
      <trkpt lat="45.05163" lon="-0.39202">
        <ele>40.5</ele>
        <time>2021-11-27T13:40:39Z</time>
      </trkpt>
      <trkpt lat="45.05163" lon="-0.39201">
        <ele>40.5</ele>
        <time>2021-11-27T13:40:40Z</time>
      </trkpt>
      <trkpt lat="45.05163" lon="-0.392">
        <ele>40.5</ele>
        <time>2021-11-27T13:40:42Z</time>
      </trkpt>
      <trkpt lat="45.05163" lon="-0.39198">
        <ele>40.4</ele>
        <time>2021-11-27T13:40:43Z</time>
      </trkpt>
      <trkpt lat="45.05163" lon="-0.39197">
        <ele>40.4</ele>
        <time>2021-11-27T13:40:44Z</time>
      </trkpt>
      <trkpt lat="45.05163" lon="-0.39194">
        <ele>40.3</ele>
        <time>2021-11-27T13:40:45Z</time>
      </trkpt>
      <trkpt lat="45.05162" lon="-0.39192">
        <ele>40.3</ele>
        <time>2021-11-27T13:40:47Z</time>
      </trkpt>
      <trkpt lat="45.05162" lon="-0.39189">
        <ele>40.1</ele>
        <time>2021-11-27T13:40:48Z</time>
      </trkpt>
      <trkpt lat="45.05161" lon="-0.39186">
        <ele>40.1</ele>
        <time>2021-11-27T13:40:50Z</time>
      </trkpt>
      <trkpt lat="45.05161" lon="-0.39184">
        <ele>40</ele>
        <time>2021-11-27T13:40:52Z</time>
      </trkpt>
      <trkpt lat="45.05161" lon="-0.39182">
        <ele>39.9</ele>
        <time>2021-11-27T13:40:54Z</time>
      </trkpt>
      <trkpt lat="45.0516" lon="-0.39178">
        <ele>39.9</ele>
        <time>2021-11-27T13:40:55Z</time>
      </trkpt>
      <trkpt lat="45.05161" lon="-0.39177">
        <ele>39.8</ele>
        <time>2021-11-27T13:40:56Z</time>
      </trkpt>
      <trkpt lat="45.05162" lon="-0.39173">
        <ele>39.8</ele>
        <time>2021-11-27T13:40:58Z</time>
      </trkpt>
      <trkpt lat="45.05162" lon="-0.39172">
        <ele>39.7</ele>
        <time>2021-11-27T13:41:00Z</time>
      </trkpt>
      <trkpt lat="45.05162" lon="-0.3917">
        <ele>39.6</ele>
        <time>2021-11-27T13:41:01Z</time>
      </trkpt>
      <trkpt lat="45.05162" lon="-0.39169">
        <ele>39.6</ele>
        <time>2021-11-27T13:41:02Z</time>
      </trkpt>
      <trkpt lat="45.05162" lon="-0.39167">
        <ele>39.5</ele>
        <time>2021-11-27T13:41:03Z</time>
      </trkpt>
      <trkpt lat="45.05162" lon="-0.39165">
        <ele>39.4</ele>
        <time>2021-11-27T13:41:05Z</time>
      </trkpt>
      <trkpt lat="45.05162" lon="-0.39162">
        <ele>39.4</ele>
        <time>2021-11-27T13:41:06Z</time>
      </trkpt>
      <trkpt lat="45.05162" lon="-0.3916">
        <ele>39.4</ele>
        <time>2021-11-27T13:41:07Z</time>
      </trkpt>
      <trkpt lat="45.05161" lon="-0.39156">
        <ele>39.3</ele>
        <time>2021-11-27T13:41:09Z</time>
      </trkpt>
      <trkpt lat="45.05161" lon="-0.39153">
        <ele>39.2</ele>
        <time>2021-11-27T13:41:10Z</time>
      </trkpt>
      <trkpt lat="45.05161" lon="-0.39152">
        <ele>39.2</ele>
        <time>2021-11-27T13:41:11Z</time>
      </trkpt>
      <trkpt lat="45.05161" lon="-0.39151">
        <ele>39.1</ele>
        <time>2021-11-27T13:41:12Z</time>
      </trkpt>
      <trkpt lat="45.05161" lon="-0.39149">
        <ele>39.1</ele>
        <time>2021-11-27T13:41:13Z</time>
      </trkpt>
      <trkpt lat="45.05161" lon="-0.39146">
        <ele>39</ele>
        <time>2021-11-27T13:41:15Z</time>
      </trkpt>
      <trkpt lat="45.05161" lon="-0.39144">
        <ele>39</ele>
        <time>2021-11-27T13:41:16Z</time>
      </trkpt>
      <trkpt lat="45.0516" lon="-0.39142">
        <ele>38.9</ele>
        <time>2021-11-27T13:41:17Z</time>
      </trkpt>
      <trkpt lat="45.0516" lon="-0.39138">
        <ele>38.8</ele>
        <time>2021-11-27T13:41:19Z</time>
      </trkpt>
      <trkpt lat="45.05159" lon="-0.39137">
        <ele>38.8</ele>
        <time>2021-11-27T13:41:20Z</time>
      </trkpt>
      <trkpt lat="45.05159" lon="-0.39136">
        <ele>38.8</ele>
        <time>2021-11-27T13:41:21Z</time>
      </trkpt>
      <trkpt lat="45.05159" lon="-0.39133">
        <ele>38.7</ele>
        <time>2021-11-27T13:41:23Z</time>
      </trkpt>
      <trkpt lat="45.05159" lon="-0.3913">
        <ele>38.7</ele>
        <time>2021-11-27T13:41:24Z</time>
      </trkpt>
      <trkpt lat="45.0516" lon="-0.3913">
        <ele>38.6</ele>
        <time>2021-11-27T13:41:25Z</time>
      </trkpt>
      <trkpt lat="45.0516" lon="-0.39129">
        <ele>38.6</ele>
        <time>2021-11-27T13:41:26Z</time>
      </trkpt>
      <trkpt lat="45.0516" lon="-0.39128">
        <ele>38.6</ele>
        <time>2021-11-27T13:41:28Z</time>
      </trkpt>
      <trkpt lat="45.05159" lon="-0.39125">
        <ele>38.5</ele>
        <time>2021-11-27T13:41:29Z</time>
      </trkpt>
      <trkpt lat="45.05159" lon="-0.39124">
        <ele>38.5</ele>
        <time>2021-11-27T13:41:30Z</time>
      </trkpt>
      <trkpt lat="45.05158" lon="-0.39125">
        <ele>38.4</ele>
        <time>2021-11-27T13:41:31Z</time>
      </trkpt>
      <trkpt lat="45.05158" lon="-0.39126">
        <ele>38.4</ele>
        <time>2021-11-27T13:41:32Z</time>
      </trkpt>
      <trkpt lat="45.05158" lon="-0.39126">
        <ele>38.4</ele>
        <time>2021-11-27T13:41:33Z</time>
      </trkpt>
      <trkpt lat="45.05158" lon="-0.39126">
        <ele>38.5</ele>
        <time>2021-11-27T13:41:34Z</time>
      </trkpt>
      <trkpt lat="45.05158" lon="-0.39126">
        <ele>38.4</ele>
        <time>2021-11-27T13:41:36Z</time>
      </trkpt>
      <trkpt lat="45.05158" lon="-0.39126">
        <ele>38.4</ele>
        <time>2021-11-27T13:41:37Z</time>
      </trkpt>
      <trkpt lat="45.05158" lon="-0.39125">
        <ele>38.3</ele>
        <time>2021-11-27T13:41:39Z</time>
      </trkpt>
      <trkpt lat="45.05158" lon="-0.39125">
        <ele>38.3</ele>
        <time>2021-11-27T13:41:41Z</time>
      </trkpt>
      <trkpt lat="45.05159" lon="-0.39125">
        <ele>38.3</ele>
        <time>2021-11-27T13:41:42Z</time>
      </trkpt>
      <trkpt lat="45.05159" lon="-0.39124">
        <ele>38.3</ele>
        <time>2021-11-27T13:41:43Z</time>
      </trkpt>
      <trkpt lat="45.05159" lon="-0.39121">
        <ele>38.2</ele>
        <time>2021-11-27T13:41:44Z</time>
      </trkpt>
      <trkpt lat="45.05159" lon="-0.39119">
        <ele>38.2</ele>
        <time>2021-11-27T13:41:46Z</time>
      </trkpt>
      <trkpt lat="45.05159" lon="-0.39114">
        <ele>38.1</ele>
        <time>2021-11-27T13:41:47Z</time>
      </trkpt>
      <trkpt lat="45.05159" lon="-0.39112">
        <ele>38.1</ele>
        <time>2021-11-27T13:41:48Z</time>
      </trkpt>
      <trkpt lat="45.05159" lon="-0.39106">
        <ele>38</ele>
        <time>2021-11-27T13:41:50Z</time>
      </trkpt>
      <trkpt lat="45.05159" lon="-0.39104">
        <ele>37.9</ele>
        <time>2021-11-27T13:41:51Z</time>
      </trkpt>
      <trkpt lat="45.05159" lon="-0.39102">
        <ele>37.9</ele>
        <time>2021-11-27T13:41:52Z</time>
      </trkpt>
      <trkpt lat="45.05159" lon="-0.39097">
        <ele>37.8</ele>
        <time>2021-11-27T13:41:54Z</time>
      </trkpt>
      <trkpt lat="45.05159" lon="-0.39095">
        <ele>37.7</ele>
        <time>2021-11-27T13:41:55Z</time>
      </trkpt>
      <trkpt lat="45.05158" lon="-0.39092">
        <ele>37.7</ele>
        <time>2021-11-27T13:41:57Z</time>
      </trkpt>
      <trkpt lat="45.05158" lon="-0.3909">
        <ele>37.6</ele>
        <time>2021-11-27T13:41:58Z</time>
      </trkpt>
      <trkpt lat="45.05158" lon="-0.39088">
        <ele>37.6</ele>
        <time>2021-11-27T13:41:59Z</time>
      </trkpt>
      <trkpt lat="45.05158" lon="-0.39086">
        <ele>37.6</ele>
        <time>2021-11-27T13:42:00Z</time>
      </trkpt>
      <trkpt lat="45.05159" lon="-0.39083">
        <ele>37.5</ele>
        <time>2021-11-27T13:42:02Z</time>
      </trkpt>
      <trkpt lat="45.05159" lon="-0.39081">
        <ele>37.5</ele>
        <time>2021-11-27T13:42:03Z</time>
      </trkpt>
      <trkpt lat="45.05159" lon="-0.39078">
        <ele>37.4</ele>
        <time>2021-11-27T13:42:05Z</time>
      </trkpt>
      <trkpt lat="45.05159" lon="-0.39076">
        <ele>37.4</ele>
        <time>2021-11-27T13:42:06Z</time>
      </trkpt>
      <trkpt lat="45.05159" lon="-0.39075">
        <ele>37.4</ele>
        <time>2021-11-27T13:42:07Z</time>
      </trkpt>
      <trkpt lat="45.05159" lon="-0.39072">
        <ele>37.4</ele>
        <time>2021-11-27T13:42:09Z</time>
      </trkpt>
      <trkpt lat="45.0516" lon="-0.39069">
        <ele>37.3</ele>
        <time>2021-11-27T13:42:10Z</time>
      </trkpt>
      <trkpt lat="45.0516" lon="-0.39068">
        <ele>37.3</ele>
        <time>2021-11-27T13:42:11Z</time>
      </trkpt>
      <trkpt lat="45.05161" lon="-0.39062">
        <ele>37.3</ele>
        <time>2021-11-27T13:42:13Z</time>
      </trkpt>
      <trkpt lat="45.05161" lon="-0.3906">
        <ele>37.3</ele>
        <time>2021-11-27T13:42:15Z</time>
      </trkpt>
      <trkpt lat="45.05161" lon="-0.39058">
        <ele>37.3</ele>
        <time>2021-11-27T13:42:16Z</time>
      </trkpt>
      <trkpt lat="45.05161" lon="-0.39054">
        <ele>37.3</ele>
        <time>2021-11-27T13:42:17Z</time>
      </trkpt>
      <trkpt lat="45.05161" lon="-0.39053">
        <ele>37.3</ele>
        <time>2021-11-27T13:42:18Z</time>
      </trkpt>
      <trkpt lat="45.05162" lon="-0.39048">
        <ele>37.4</ele>
        <time>2021-11-27T13:42:20Z</time>
      </trkpt>
      <trkpt lat="45.05163" lon="-0.39047">
        <ele>37.4</ele>
        <time>2021-11-27T13:42:21Z</time>
      </trkpt>
      <trkpt lat="45.05164" lon="-0.39047">
        <ele>37.4</ele>
        <time>2021-11-27T13:42:22Z</time>
      </trkpt>
      <trkpt lat="45.05164" lon="-0.39048">
        <ele>37.4</ele>
        <time>2021-11-27T13:42:24Z</time>
      </trkpt>
      <trkpt lat="45.05164" lon="-0.39048">
        <ele>37.4</ele>
        <time>2021-11-27T13:42:26Z</time>
      </trkpt>
      <trkpt lat="45.05164" lon="-0.39048">
        <ele>37.4</ele>
        <time>2021-11-27T13:42:27Z</time>
      </trkpt>
      <trkpt lat="45.05164" lon="-0.39046">
        <ele>37.4</ele>
        <time>2021-11-27T13:42:28Z</time>
      </trkpt>
      <trkpt lat="45.05164" lon="-0.39044">
        <ele>37.5</ele>
        <time>2021-11-27T13:42:29Z</time>
      </trkpt>
      <trkpt lat="45.05163" lon="-0.39041">
        <ele>37.5</ele>
        <time>2021-11-27T13:42:30Z</time>
      </trkpt>
      <trkpt lat="45.05163" lon="-0.39039">
        <ele>37.6</ele>
        <time>2021-11-27T13:42:32Z</time>
      </trkpt>
      <trkpt lat="45.05162" lon="-0.39037">
        <ele>37.6</ele>
        <time>2021-11-27T13:42:33Z</time>
      </trkpt>
      <trkpt lat="45.05162" lon="-0.39035">
        <ele>37.7</ele>
        <time>2021-11-27T13:42:34Z</time>
      </trkpt>
      <trkpt lat="45.05161" lon="-0.39032">
        <ele>37.7</ele>
        <time>2021-11-27T13:42:35Z</time>
      </trkpt>
      <trkpt lat="45.0516" lon="-0.39031">
        <ele>37.8</ele>
        <time>2021-11-27T13:42:37Z</time>
      </trkpt>
      <trkpt lat="45.05159" lon="-0.3903">
        <ele>37.8</ele>
        <time>2021-11-27T13:42:38Z</time>
      </trkpt>
      <trkpt lat="45.05158" lon="-0.39026">
        <ele>37.9</ele>
        <time>2021-11-27T13:42:40Z</time>
      </trkpt>
      <trkpt lat="45.05158" lon="-0.39025">
        <ele>37.9</ele>
        <time>2021-11-27T13:42:41Z</time>
      </trkpt>
      <trkpt lat="45.05158" lon="-0.39025">
        <ele>38</ele>
        <time>2021-11-27T13:42:42Z</time>
      </trkpt>
      <trkpt lat="45.05157" lon="-0.39023">
        <ele>38</ele>
        <time>2021-11-27T13:42:44Z</time>
      </trkpt>
      <trkpt lat="45.05157" lon="-0.39021">
        <ele>38.1</ele>
        <time>2021-11-27T13:42:45Z</time>
      </trkpt>
      <trkpt lat="45.05156" lon="-0.39019">
        <ele>38.1</ele>
        <time>2021-11-27T13:42:47Z</time>
      </trkpt>
      <trkpt lat="45.05156" lon="-0.39016">
        <ele>38.2</ele>
        <time>2021-11-27T13:42:48Z</time>
      </trkpt>
      <trkpt lat="45.05156" lon="-0.39014">
        <ele>38.3</ele>
        <time>2021-11-27T13:42:50Z</time>
      </trkpt>
      <trkpt lat="45.05156" lon="-0.39012">
        <ele>38.4</ele>
        <time>2021-11-27T13:42:51Z</time>
      </trkpt>
      <trkpt lat="45.05156" lon="-0.39008">
        <ele>38.5</ele>
        <time>2021-11-27T13:42:53Z</time>
      </trkpt>
      <trkpt lat="45.05156" lon="-0.39006">
        <ele>38.6</ele>
        <time>2021-11-27T13:42:54Z</time>
      </trkpt>
      <trkpt lat="45.05156" lon="-0.39005">
        <ele>38.6</ele>
        <time>2021-11-27T13:42:55Z</time>
      </trkpt>
      <trkpt lat="45.05156" lon="-0.39002">
        <ele>38.7</ele>
        <time>2021-11-27T13:42:57Z</time>
      </trkpt>
      <trkpt lat="45.05156" lon="-0.39001">
        <ele>38.8</ele>
        <time>2021-11-27T13:42:58Z</time>
      </trkpt>
      <trkpt lat="45.05156" lon="-0.38997">
        <ele>38.9</ele>
        <time>2021-11-27T13:42:59Z</time>
      </trkpt>
      <trkpt lat="45.05155" lon="-0.38994">
        <ele>39.1</ele>
        <time>2021-11-27T13:43:00Z</time>
      </trkpt>
      <trkpt lat="45.05155" lon="-0.38992">
        <ele>39.2</ele>
        <time>2021-11-27T13:43:02Z</time>
      </trkpt>
      <trkpt lat="45.05154" lon="-0.3899">
        <ele>39.3</ele>
        <time>2021-11-27T13:43:03Z</time>
      </trkpt>
      <trkpt lat="45.05154" lon="-0.38988">
        <ele>39.4</ele>
        <time>2021-11-27T13:43:04Z</time>
      </trkpt>
      <trkpt lat="45.05152" lon="-0.38985">
        <ele>39.6</ele>
        <time>2021-11-27T13:43:06Z</time>
      </trkpt>
      <trkpt lat="45.05152" lon="-0.38983">
        <ele>39.7</ele>
        <time>2021-11-27T13:43:07Z</time>
      </trkpt>
      <trkpt lat="45.05151" lon="-0.38979">
        <ele>39.9</ele>
        <time>2021-11-27T13:43:09Z</time>
      </trkpt>
      <trkpt lat="45.05149" lon="-0.38975">
        <ele>40.2</ele>
        <time>2021-11-27T13:43:10Z</time>
      </trkpt>
      <trkpt lat="45.05149" lon="-0.38974">
        <ele>40.3</ele>
        <time>2021-11-27T13:43:11Z</time>
      </trkpt>
      <trkpt lat="45.05149" lon="-0.38972">
        <ele>40.4</ele>
        <time>2021-11-27T13:43:12Z</time>
      </trkpt>
      <trkpt lat="45.05148" lon="-0.38969">
        <ele>40.6</ele>
        <time>2021-11-27T13:43:13Z</time>
      </trkpt>
      <trkpt lat="45.05146" lon="-0.38965">
        <ele>40.9</ele>
        <time>2021-11-27T13:43:15Z</time>
      </trkpt>
      <trkpt lat="45.05146" lon="-0.38964">
        <ele>40.9</ele>
        <time>2021-11-27T13:43:16Z</time>
      </trkpt>
      <trkpt lat="45.05145" lon="-0.3896">
        <ele>41.2</ele>
        <time>2021-11-27T13:43:18Z</time>
      </trkpt>
      <trkpt lat="45.05144" lon="-0.38959">
        <ele>41.3</ele>
        <time>2021-11-27T13:43:19Z</time>
      </trkpt>
      <trkpt lat="45.05144" lon="-0.38956">
        <ele>41.5</ele>
        <time>2021-11-27T13:43:20Z</time>
      </trkpt>
      <trkpt lat="45.05144" lon="-0.38954">
        <ele>41.6</ele>
        <time>2021-11-27T13:43:21Z</time>
      </trkpt>
      <trkpt lat="45.05143" lon="-0.38952">
        <ele>41.7</ele>
        <time>2021-11-27T13:43:22Z</time>
      </trkpt>
      <trkpt lat="45.05143" lon="-0.38949">
        <ele>41.9</ele>
        <time>2021-11-27T13:43:24Z</time>
      </trkpt>
      <trkpt lat="45.05143" lon="-0.38947">
        <ele>42.1</ele>
        <time>2021-11-27T13:43:25Z</time>
      </trkpt>
      <trkpt lat="45.05142" lon="-0.38945">
        <ele>42.2</ele>
        <time>2021-11-27T13:43:26Z</time>
      </trkpt>
      <trkpt lat="45.05141" lon="-0.38944">
        <ele>42.3</ele>
        <time>2021-11-27T13:43:27Z</time>
      </trkpt>
      <trkpt lat="45.0514" lon="-0.38941">
        <ele>42.5</ele>
        <time>2021-11-27T13:43:29Z</time>
      </trkpt>
      <trkpt lat="45.05139" lon="-0.38939">
        <ele>42.6</ele>
        <time>2021-11-27T13:43:30Z</time>
      </trkpt>
      <trkpt lat="45.05139" lon="-0.38938">
        <ele>42.8</ele>
        <time>2021-11-27T13:43:31Z</time>
      </trkpt>
      <trkpt lat="45.05138" lon="-0.38935">
        <ele>42.9</ele>
        <time>2021-11-27T13:43:33Z</time>
      </trkpt>
      <trkpt lat="45.05137" lon="-0.38933">
        <ele>43</ele>
        <time>2021-11-27T13:43:34Z</time>
      </trkpt>
      <trkpt lat="45.05137" lon="-0.38933">
        <ele>43.1</ele>
        <time>2021-11-27T13:43:35Z</time>
      </trkpt>
      <trkpt lat="45.05137" lon="-0.38931">
        <ele>43.2</ele>
        <time>2021-11-27T13:43:36Z</time>
      </trkpt>
      <trkpt lat="45.05136" lon="-0.38929">
        <ele>43.3</ele>
        <time>2021-11-27T13:43:37Z</time>
      </trkpt>
      <trkpt lat="45.05135" lon="-0.38928">
        <ele>43.4</ele>
        <time>2021-11-27T13:43:38Z</time>
      </trkpt>
      <trkpt lat="45.05135" lon="-0.38927">
        <ele>43.5</ele>
        <time>2021-11-27T13:43:39Z</time>
      </trkpt>
      <trkpt lat="45.05134" lon="-0.38926">
        <ele>43.6</ele>
        <time>2021-11-27T13:43:40Z</time>
      </trkpt>
      <trkpt lat="45.05134" lon="-0.38924">
        <ele>43.6</ele>
        <time>2021-11-27T13:43:41Z</time>
      </trkpt>
      <trkpt lat="45.05133" lon="-0.38923">
        <ele>43.7</ele>
        <time>2021-11-27T13:43:42Z</time>
      </trkpt>
      <trkpt lat="45.05133" lon="-0.3892">
        <ele>43.9</ele>
        <time>2021-11-27T13:43:44Z</time>
      </trkpt>
      <trkpt lat="45.05133" lon="-0.38919">
        <ele>43.9</ele>
        <time>2021-11-27T13:43:45Z</time>
      </trkpt>
      <trkpt lat="45.05132" lon="-0.38918">
        <ele>44</ele>
        <time>2021-11-27T13:43:46Z</time>
      </trkpt>
      <trkpt lat="45.05132" lon="-0.38916">
        <ele>44.1</ele>
        <time>2021-11-27T13:43:47Z</time>
      </trkpt>
      <trkpt lat="45.05132" lon="-0.38913">
        <ele>44.2</ele>
        <time>2021-11-27T13:43:48Z</time>
      </trkpt>
      <trkpt lat="45.05132" lon="-0.38912">
        <ele>44.2</ele>
        <time>2021-11-27T13:43:49Z</time>
      </trkpt>
      <trkpt lat="45.05133" lon="-0.38911">
        <ele>44.3</ele>
        <time>2021-11-27T13:43:50Z</time>
      </trkpt>
      <trkpt lat="45.05133" lon="-0.38908">
        <ele>44.4</ele>
        <time>2021-11-27T13:43:51Z</time>
      </trkpt>
      <trkpt lat="45.05134" lon="-0.38905">
        <ele>44.5</ele>
        <time>2021-11-27T13:43:53Z</time>
      </trkpt>
      <trkpt lat="45.05134" lon="-0.38903">
        <ele>44.6</ele>
        <time>2021-11-27T13:43:54Z</time>
      </trkpt>
      <trkpt lat="45.05135" lon="-0.38901">
        <ele>44.7</ele>
        <time>2021-11-27T13:43:55Z</time>
      </trkpt>
      <trkpt lat="45.05137" lon="-0.38898">
        <ele>44.8</ele>
        <time>2021-11-27T13:43:57Z</time>
      </trkpt>
      <trkpt lat="45.05138" lon="-0.38897">
        <ele>44.8</ele>
        <time>2021-11-27T13:43:58Z</time>
      </trkpt>
      <trkpt lat="45.0514" lon="-0.38894">
        <ele>45</ele>
        <time>2021-11-27T13:44:00Z</time>
      </trkpt>
      <trkpt lat="45.0514" lon="-0.38893">
        <ele>45</ele>
        <time>2021-11-27T13:44:01Z</time>
      </trkpt>
      <trkpt lat="45.05141" lon="-0.38891">
        <ele>45.1</ele>
        <time>2021-11-27T13:44:02Z</time>
      </trkpt>
      <trkpt lat="45.05142" lon="-0.38889">
        <ele>45.1</ele>
        <time>2021-11-27T13:44:04Z</time>
      </trkpt>
      <trkpt lat="45.05144" lon="-0.38886">
        <ele>45.2</ele>
        <time>2021-11-27T13:44:05Z</time>
      </trkpt>
      <trkpt lat="45.05145" lon="-0.38883">
        <ele>45.2</ele>
        <time>2021-11-27T13:44:06Z</time>
      </trkpt>
      <trkpt lat="45.05145" lon="-0.3888">
        <ele>45.3</ele>
        <time>2021-11-27T13:44:08Z</time>
      </trkpt>
      <trkpt lat="45.05147" lon="-0.38876">
        <ele>45.4</ele>
        <time>2021-11-27T13:44:09Z</time>
      </trkpt>
      <trkpt lat="45.05149" lon="-0.38875">
        <ele>45.4</ele>
        <time>2021-11-27T13:44:10Z</time>
      </trkpt>
      <trkpt lat="45.05151" lon="-0.38874">
        <ele>45.4</ele>
        <time>2021-11-27T13:44:12Z</time>
      </trkpt>
      <trkpt lat="45.05152" lon="-0.38873">
        <ele>45.5</ele>
        <time>2021-11-27T13:44:13Z</time>
      </trkpt>
      <trkpt lat="45.05152" lon="-0.38873">
        <ele>45.5</ele>
        <time>2021-11-27T13:44:14Z</time>
      </trkpt>
      <trkpt lat="45.05152" lon="-0.38872">
        <ele>45.5</ele>
        <time>2021-11-27T13:44:15Z</time>
      </trkpt>
      <trkpt lat="45.05152" lon="-0.38872">
        <ele>45.5</ele>
        <time>2021-11-27T13:44:16Z</time>
      </trkpt>
      <trkpt lat="45.05153" lon="-0.38872">
        <ele>45.5</ele>
        <time>2021-11-27T13:44:17Z</time>
      </trkpt>
      <trkpt lat="45.05153" lon="-0.38872">
        <ele>45.5</ele>
        <time>2021-11-27T13:44:18Z</time>
      </trkpt>
      <trkpt lat="45.05153" lon="-0.38872">
        <ele>45.5</ele>
        <time>2021-11-27T13:44:20Z</time>
      </trkpt>
      <trkpt lat="45.05153" lon="-0.38871">
        <ele>45.5</ele>
        <time>2021-11-27T13:44:21Z</time>
      </trkpt>
      <trkpt lat="45.05153" lon="-0.38871">
        <ele>45.5</ele>
        <time>2021-11-27T13:44:22Z</time>
      </trkpt>
      <trkpt lat="45.05153" lon="-0.38871">
        <ele>45.5</ele>
        <time>2021-11-27T13:44:24Z</time>
      </trkpt>
      <trkpt lat="45.05154" lon="-0.38871">
        <ele>45.5</ele>
        <time>2021-11-27T13:44:25Z</time>
      </trkpt>
      <trkpt lat="45.05154" lon="-0.38871">
        <ele>45.5</ele>
        <time>2021-11-27T13:44:26Z</time>
      </trkpt>
      <trkpt lat="45.05155" lon="-0.38867">
        <ele>45.5</ele>
        <time>2021-11-27T13:44:27Z</time>
      </trkpt>
      <trkpt lat="45.05155" lon="-0.38866">
        <ele>45.5</ele>
        <time>2021-11-27T13:44:28Z</time>
      </trkpt>
      <trkpt lat="45.05156" lon="-0.38861">
        <ele>45.6</ele>
        <time>2021-11-27T13:44:30Z</time>
      </trkpt>
      <trkpt lat="45.05157" lon="-0.38859">
        <ele>45.6</ele>
        <time>2021-11-27T13:44:31Z</time>
      </trkpt>
      <trkpt lat="45.05158" lon="-0.38854">
        <ele>45.6</ele>
        <time>2021-11-27T13:44:33Z</time>
      </trkpt>
      <trkpt lat="45.05158" lon="-0.38853">
        <ele>45.6</ele>
        <time>2021-11-27T13:44:34Z</time>
      </trkpt>
      <trkpt lat="45.0516" lon="-0.38847">
        <ele>45.7</ele>
        <time>2021-11-27T13:44:36Z</time>
      </trkpt>
      <trkpt lat="45.0516" lon="-0.38844">
        <ele>45.7</ele>
        <time>2021-11-27T13:44:38Z</time>
      </trkpt>
      <trkpt lat="45.0516" lon="-0.38842">
        <ele>45.7</ele>
        <time>2021-11-27T13:44:39Z</time>
      </trkpt>
      <trkpt lat="45.05161" lon="-0.38838">
        <ele>45.7</ele>
        <time>2021-11-27T13:44:41Z</time>
      </trkpt>
      <trkpt lat="45.05161" lon="-0.38836">
        <ele>45.7</ele>
        <time>2021-11-27T13:44:42Z</time>
      </trkpt>
      <trkpt lat="45.05161" lon="-0.38834">
        <ele>45.7</ele>
        <time>2021-11-27T13:44:43Z</time>
      </trkpt>
      <trkpt lat="45.05162" lon="-0.38832">
        <ele>45.7</ele>
        <time>2021-11-27T13:44:44Z</time>
      </trkpt>
      <trkpt lat="45.05163" lon="-0.38828">
        <ele>45.7</ele>
        <time>2021-11-27T13:44:46Z</time>
      </trkpt>
      <trkpt lat="45.05163" lon="-0.38827">
        <ele>45.7</ele>
        <time>2021-11-27T13:44:47Z</time>
      </trkpt>
      <trkpt lat="45.05164" lon="-0.38824">
        <ele>45.7</ele>
        <time>2021-11-27T13:44:49Z</time>
      </trkpt>
      <trkpt lat="45.05165" lon="-0.38822">
        <ele>45.7</ele>
        <time>2021-11-27T13:44:50Z</time>
      </trkpt>
      <trkpt lat="45.05165" lon="-0.38821">
        <ele>45.7</ele>
        <time>2021-11-27T13:44:51Z</time>
      </trkpt>
      <trkpt lat="45.05165" lon="-0.38819">
        <ele>45.7</ele>
        <time>2021-11-27T13:44:52Z</time>
      </trkpt>
      <trkpt lat="45.05166" lon="-0.38817">
        <ele>45.7</ele>
        <time>2021-11-27T13:44:54Z</time>
      </trkpt>
      <trkpt lat="45.05167" lon="-0.38814">
        <ele>45.7</ele>
        <time>2021-11-27T13:44:55Z</time>
      </trkpt>
      <trkpt lat="45.05168" lon="-0.38812">
        <ele>45.7</ele>
        <time>2021-11-27T13:44:57Z</time>
      </trkpt>
      <trkpt lat="45.05168" lon="-0.3881">
        <ele>45.7</ele>
        <time>2021-11-27T13:44:58Z</time>
      </trkpt>
      <trkpt lat="45.05169" lon="-0.3881">
        <ele>45.7</ele>
        <time>2021-11-27T13:44:59Z</time>
      </trkpt>
      <trkpt lat="45.0517" lon="-0.38807">
        <ele>45.7</ele>
        <time>2021-11-27T13:45:01Z</time>
      </trkpt>
      <trkpt lat="45.05171" lon="-0.38803">
        <ele>45.7</ele>
        <time>2021-11-27T13:45:02Z</time>
      </trkpt>
      <trkpt lat="45.05171" lon="-0.38802">
        <ele>45.7</ele>
        <time>2021-11-27T13:45:03Z</time>
      </trkpt>
      <trkpt lat="45.05173" lon="-0.38798">
        <ele>45.7</ele>
        <time>2021-11-27T13:45:05Z</time>
      </trkpt>
      <trkpt lat="45.05174" lon="-0.38797">
        <ele>45.7</ele>
        <time>2021-11-27T13:45:06Z</time>
      </trkpt>
      <trkpt lat="45.05175" lon="-0.38793">
        <ele>45.7</ele>
        <time>2021-11-27T13:45:08Z</time>
      </trkpt>
      <trkpt lat="45.05176" lon="-0.3879">
        <ele>45.7</ele>
        <time>2021-11-27T13:45:09Z</time>
      </trkpt>
      <trkpt lat="45.05177" lon="-0.38787">
        <ele>45.7</ele>
        <time>2021-11-27T13:45:11Z</time>
      </trkpt>
      <trkpt lat="45.05178" lon="-0.38783">
        <ele>45.7</ele>
        <time>2021-11-27T13:45:12Z</time>
      </trkpt>
      <trkpt lat="45.05179" lon="-0.38782">
        <ele>45.7</ele>
        <time>2021-11-27T13:45:13Z</time>
      </trkpt>
      <trkpt lat="45.0518" lon="-0.38778">
        <ele>45.7</ele>
        <time>2021-11-27T13:45:15Z</time>
      </trkpt>
      <trkpt lat="45.0518" lon="-0.38777">
        <ele>45.7</ele>
        <time>2021-11-27T13:45:16Z</time>
      </trkpt>
      <trkpt lat="45.0518" lon="-0.38773">
        <ele>45.7</ele>
        <time>2021-11-27T13:45:18Z</time>
      </trkpt>
      <trkpt lat="45.05181" lon="-0.38772">
        <ele>45.8</ele>
        <time>2021-11-27T13:45:19Z</time>
      </trkpt>
      <trkpt lat="45.05181" lon="-0.3877">
        <ele>45.8</ele>
        <time>2021-11-27T13:45:20Z</time>
      </trkpt>
      <trkpt lat="45.05181" lon="-0.38768">
        <ele>45.8</ele>
        <time>2021-11-27T13:45:22Z</time>
      </trkpt>
      <trkpt lat="45.05182" lon="-0.38765">
        <ele>45.8</ele>
        <time>2021-11-27T13:45:23Z</time>
      </trkpt>
      <trkpt lat="45.05181" lon="-0.38763">
        <ele>45.8</ele>
        <time>2021-11-27T13:45:25Z</time>
      </trkpt>
      <trkpt lat="45.05181" lon="-0.38761">
        <ele>45.8</ele>
        <time>2021-11-27T13:45:26Z</time>
      </trkpt>
      <trkpt lat="45.0518" lon="-0.38758">
        <ele>45.8</ele>
        <time>2021-11-27T13:45:28Z</time>
      </trkpt>
      <trkpt lat="45.0518" lon="-0.38756">
        <ele>45.8</ele>
        <time>2021-11-27T13:45:29Z</time>
      </trkpt>
      <trkpt lat="45.05178" lon="-0.38754">
        <ele>46</ele>
        <time>2021-11-27T13:45:31Z</time>
      </trkpt>
      <trkpt lat="45.05177" lon="-0.38753">
        <ele>46</ele>
        <time>2021-11-27T13:45:32Z</time>
      </trkpt>
      <trkpt lat="45.05176" lon="-0.38753">
        <ele>46</ele>
        <time>2021-11-27T13:45:33Z</time>
      </trkpt>
      <trkpt lat="45.05174" lon="-0.38753">
        <ele>46.1</ele>
        <time>2021-11-27T13:45:34Z</time>
      </trkpt>
      <trkpt lat="45.05173" lon="-0.38752">
        <ele>46.1</ele>
        <time>2021-11-27T13:45:35Z</time>
      </trkpt>
      <trkpt lat="45.05172" lon="-0.38751">
        <ele>46.3</ele>
        <time>2021-11-27T13:45:36Z</time>
      </trkpt>
      <trkpt lat="45.0517" lon="-0.38749">
        <ele>46.3</ele>
        <time>2021-11-27T13:45:38Z</time>
      </trkpt>
      <trkpt lat="45.0517" lon="-0.38748">
        <ele>46.3</ele>
        <time>2021-11-27T13:45:40Z</time>
      </trkpt>
      <trkpt lat="45.05169" lon="-0.38748">
        <ele>46.5</ele>
        <time>2021-11-27T13:45:41Z</time>
      </trkpt>
      <trkpt lat="45.05168" lon="-0.38747">
        <ele>46.5</ele>
        <time>2021-11-27T13:45:42Z</time>
      </trkpt>
      <trkpt lat="45.05166" lon="-0.38746">
        <ele>46.7</ele>
        <time>2021-11-27T13:45:44Z</time>
      </trkpt>
      <trkpt lat="45.05163" lon="-0.38744">
        <ele>46.8</ele>
        <time>2021-11-27T13:45:46Z</time>
      </trkpt>
      <trkpt lat="45.05162" lon="-0.38744">
        <ele>46.8</ele>
        <time>2021-11-27T13:45:47Z</time>
      </trkpt>
      <trkpt lat="45.05161" lon="-0.38743">
        <ele>46.8</ele>
        <time>2021-11-27T13:45:48Z</time>
      </trkpt>
      <trkpt lat="45.0516" lon="-0.38742">
        <ele>47</ele>
        <time>2021-11-27T13:45:49Z</time>
      </trkpt>
      <trkpt lat="45.05159" lon="-0.38741">
        <ele>47</ele>
        <time>2021-11-27T13:45:51Z</time>
      </trkpt>
      <trkpt lat="45.05158" lon="-0.3874">
        <ele>47</ele>
        <time>2021-11-27T13:45:52Z</time>
      </trkpt>
      <trkpt lat="45.05156" lon="-0.38739">
        <ele>47.2</ele>
        <time>2021-11-27T13:45:53Z</time>
      </trkpt>
      <trkpt lat="45.05154" lon="-0.38739">
        <ele>47.3</ele>
        <time>2021-11-27T13:45:55Z</time>
      </trkpt>
      <trkpt lat="45.05152" lon="-0.38739">
        <ele>47.3</ele>
        <time>2021-11-27T13:45:56Z</time>
      </trkpt>
      <trkpt lat="45.05151" lon="-0.38738">
        <ele>47.4</ele>
        <time>2021-11-27T13:45:58Z</time>
      </trkpt>
      <trkpt lat="45.0515" lon="-0.38737">
        <ele>47.4</ele>
        <time>2021-11-27T13:45:59Z</time>
      </trkpt>
      <trkpt lat="45.05149" lon="-0.38736">
        <ele>47.4</ele>
        <time>2021-11-27T13:46:00Z</time>
      </trkpt>
      <trkpt lat="45.05147" lon="-0.38734">
        <ele>47.6</ele>
        <time>2021-11-27T13:46:02Z</time>
      </trkpt>
      <trkpt lat="45.05145" lon="-0.38732">
        <ele>47.8</ele>
        <time>2021-11-27T13:46:03Z</time>
      </trkpt>
      <trkpt lat="45.05141" lon="-0.38727">
        <ele>47.9</ele>
        <time>2021-11-27T13:46:05Z</time>
      </trkpt>
      <trkpt lat="45.0514" lon="-0.38725">
        <ele>48</ele>
        <time>2021-11-27T13:46:06Z</time>
      </trkpt>
      <trkpt lat="45.05139" lon="-0.38724">
        <ele>48.1</ele>
        <time>2021-11-27T13:46:07Z</time>
      </trkpt>
      <trkpt lat="45.05137" lon="-0.3872">
        <ele>48.1</ele>
        <time>2021-11-27T13:46:09Z</time>
      </trkpt>
      <trkpt lat="45.05136" lon="-0.38718">
        <ele>48.3</ele>
        <time>2021-11-27T13:46:10Z</time>
      </trkpt>
      <trkpt lat="45.05135" lon="-0.38716">
        <ele>48.3</ele>
        <time>2021-11-27T13:46:11Z</time>
      </trkpt>
      <trkpt lat="45.05133" lon="-0.38714">
        <ele>48.5</ele>
        <time>2021-11-27T13:46:13Z</time>
      </trkpt>
      <trkpt lat="45.05132" lon="-0.38713">
        <ele>48.5</ele>
        <time>2021-11-27T13:46:14Z</time>
      </trkpt>
      <trkpt lat="45.0513" lon="-0.38711">
        <ele>48.5</ele>
        <time>2021-11-27T13:46:15Z</time>
      </trkpt>
      <trkpt lat="45.05129" lon="-0.3871">
        <ele>48.7</ele>
        <time>2021-11-27T13:46:16Z</time>
      </trkpt>
      <trkpt lat="45.05128" lon="-0.38709">
        <ele>48.8</ele>
        <time>2021-11-27T13:46:17Z</time>
      </trkpt>
      <trkpt lat="45.05126" lon="-0.38709">
        <ele>48.9</ele>
        <time>2021-11-27T13:46:19Z</time>
      </trkpt>
      <trkpt lat="45.05124" lon="-0.38707">
        <ele>49</ele>
        <time>2021-11-27T13:46:20Z</time>
      </trkpt>
      <trkpt lat="45.05122" lon="-0.38706">
        <ele>49</ele>
        <time>2021-11-27T13:46:22Z</time>
      </trkpt>
      <trkpt lat="45.05119" lon="-0.38705">
        <ele>49.1</ele>
        <time>2021-11-27T13:46:24Z</time>
      </trkpt>
      <trkpt lat="45.05118" lon="-0.38705">
        <ele>49.3</ele>
        <time>2021-11-27T13:46:25Z</time>
      </trkpt>
      <trkpt lat="45.05117" lon="-0.38704">
        <ele>49.3</ele>
        <time>2021-11-27T13:46:26Z</time>
      </trkpt>
      <trkpt lat="45.05115" lon="-0.38704">
        <ele>49.3</ele>
        <time>2021-11-27T13:46:28Z</time>
      </trkpt>
      <trkpt lat="45.05113" lon="-0.38703">
        <ele>49.4</ele>
        <time>2021-11-27T13:46:29Z</time>
      </trkpt>
      <trkpt lat="45.05112" lon="-0.38703">
        <ele>49.5</ele>
        <time>2021-11-27T13:46:30Z</time>
      </trkpt>
      <trkpt lat="45.05109" lon="-0.38702">
        <ele>49.6</ele>
        <time>2021-11-27T13:46:32Z</time>
      </trkpt>
      <trkpt lat="45.05108" lon="-0.38701">
        <ele>49.6</ele>
        <time>2021-11-27T13:46:33Z</time>
      </trkpt>
      <trkpt lat="45.05105" lon="-0.38699">
        <ele>49.8</ele>
        <time>2021-11-27T13:46:35Z</time>
      </trkpt>
      <trkpt lat="45.05104" lon="-0.38698">
        <ele>49.8</ele>
        <time>2021-11-27T13:46:36Z</time>
      </trkpt>
      <trkpt lat="45.05101" lon="-0.38698">
        <ele>49.9</ele>
        <time>2021-11-27T13:46:37Z</time>
      </trkpt>
      <trkpt lat="45.05099" lon="-0.38697">
        <ele>50</ele>
        <time>2021-11-27T13:46:39Z</time>
      </trkpt>
      <trkpt lat="45.05098" lon="-0.38697">
        <ele>50</ele>
        <time>2021-11-27T13:46:40Z</time>
      </trkpt>
      <trkpt lat="45.05097" lon="-0.38697">
        <ele>50.1</ele>
        <time>2021-11-27T13:46:41Z</time>
      </trkpt>
      <trkpt lat="45.05096" lon="-0.38697">
        <ele>50.1</ele>
        <time>2021-11-27T13:46:42Z</time>
      </trkpt>
      <trkpt lat="45.05094" lon="-0.38695">
        <ele>50.1</ele>
        <time>2021-11-27T13:46:44Z</time>
      </trkpt>
      <trkpt lat="45.05092" lon="-0.38693">
        <ele>50.2</ele>
        <time>2021-11-27T13:46:45Z</time>
      </trkpt>
      <trkpt lat="45.05091" lon="-0.38692">
        <ele>50.2</ele>
        <time>2021-11-27T13:46:47Z</time>
      </trkpt>
      <trkpt lat="45.05089" lon="-0.38689">
        <ele>50.3</ele>
        <time>2021-11-27T13:46:48Z</time>
      </trkpt>
      <trkpt lat="45.05088" lon="-0.38688">
        <ele>50.3</ele>
        <time>2021-11-27T13:46:49Z</time>
      </trkpt>
      <trkpt lat="45.05086" lon="-0.38685">
        <ele>50.4</ele>
        <time>2021-11-27T13:46:50Z</time>
      </trkpt>
      <trkpt lat="45.05085" lon="-0.38684">
        <ele>50.4</ele>
        <time>2021-11-27T13:46:52Z</time>
      </trkpt>
      <trkpt lat="45.05084" lon="-0.38682">
        <ele>50.4</ele>
        <time>2021-11-27T13:46:53Z</time>
      </trkpt>
      <trkpt lat="45.05083" lon="-0.38681">
        <ele>50.4</ele>
        <time>2021-11-27T13:46:54Z</time>
      </trkpt>
      <trkpt lat="45.05081" lon="-0.38679">
        <ele>50.5</ele>
        <time>2021-11-27T13:46:56Z</time>
      </trkpt>
      <trkpt lat="45.0508" lon="-0.38678">
        <ele>50.5</ele>
        <time>2021-11-27T13:46:57Z</time>
      </trkpt>
      <trkpt lat="45.05077" lon="-0.38677">
        <ele>50.5</ele>
        <time>2021-11-27T13:46:59Z</time>
      </trkpt>
      <trkpt lat="45.05076" lon="-0.38676">
        <ele>50.5</ele>
        <time>2021-11-27T13:47:00Z</time>
      </trkpt>
      <trkpt lat="45.05075" lon="-0.38676">
        <ele>50.6</ele>
        <time>2021-11-27T13:47:01Z</time>
      </trkpt>
      <trkpt lat="45.05073" lon="-0.38675">
        <ele>50.5</ele>
        <time>2021-11-27T13:47:03Z</time>
      </trkpt>
      <trkpt lat="45.05072" lon="-0.38675">
        <ele>50.6</ele>
        <time>2021-11-27T13:47:04Z</time>
      </trkpt>
      <trkpt lat="45.0507" lon="-0.38674">
        <ele>50.6</ele>
        <time>2021-11-27T13:47:05Z</time>
      </trkpt>
      <trkpt lat="45.05069" lon="-0.38674">
        <ele>50.6</ele>
        <time>2021-11-27T13:47:07Z</time>
      </trkpt>
      <trkpt lat="45.05067" lon="-0.38673">
        <ele>50.6</ele>
        <time>2021-11-27T13:47:08Z</time>
      </trkpt>
      <trkpt lat="45.05064" lon="-0.38671">
        <ele>50.6</ele>
        <time>2021-11-27T13:47:09Z</time>
      </trkpt>
      <trkpt lat="45.05063" lon="-0.3867">
        <ele>50.6</ele>
        <time>2021-11-27T13:47:11Z</time>
      </trkpt>
      <trkpt lat="45.05062" lon="-0.38669">
        <ele>50.6</ele>
        <time>2021-11-27T13:47:12Z</time>
      </trkpt>
      <trkpt lat="45.0506" lon="-0.38668">
        <ele>50.6</ele>
        <time>2021-11-27T13:47:13Z</time>
      </trkpt>
      <trkpt lat="45.05058" lon="-0.38665">
        <ele>50.6</ele>
        <time>2021-11-27T13:47:14Z</time>
      </trkpt>
      <trkpt lat="45.05057" lon="-0.38664">
        <ele>50.6</ele>
        <time>2021-11-27T13:47:15Z</time>
      </trkpt>
      <trkpt lat="45.05055" lon="-0.38662">
        <ele>50.5</ele>
        <time>2021-11-27T13:47:17Z</time>
      </trkpt>
      <trkpt lat="45.05053" lon="-0.3866">
        <ele>50.5</ele>
        <time>2021-11-27T13:47:18Z</time>
      </trkpt>
      <trkpt lat="45.05052" lon="-0.38659">
        <ele>50.5</ele>
        <time>2021-11-27T13:47:19Z</time>
      </trkpt>
      <trkpt lat="45.0505" lon="-0.38656">
        <ele>50.5</ele>
        <time>2021-11-27T13:47:21Z</time>
      </trkpt>
      <trkpt lat="45.05049" lon="-0.38655">
        <ele>50.5</ele>
        <time>2021-11-27T13:47:22Z</time>
      </trkpt>
      <trkpt lat="45.05047" lon="-0.38653">
        <ele>50.4</ele>
        <time>2021-11-27T13:47:23Z</time>
      </trkpt>
      <trkpt lat="45.05046" lon="-0.38652">
        <ele>50.4</ele>
        <time>2021-11-27T13:47:24Z</time>
      </trkpt>
      <trkpt lat="45.05045" lon="-0.38651">
        <ele>50.4</ele>
        <time>2021-11-27T13:47:25Z</time>
      </trkpt>
      <trkpt lat="45.05044" lon="-0.3865">
        <ele>50.4</ele>
        <time>2021-11-27T13:47:26Z</time>
      </trkpt>
      <trkpt lat="45.05042" lon="-0.3865">
        <ele>50.4</ele>
        <time>2021-11-27T13:47:28Z</time>
      </trkpt>
      <trkpt lat="45.05041" lon="-0.3865">
        <ele>50.4</ele>
        <time>2021-11-27T13:47:30Z</time>
      </trkpt>
      <trkpt lat="45.05041" lon="-0.38651">
        <ele>50.4</ele>
        <time>2021-11-27T13:47:31Z</time>
      </trkpt>
      <trkpt lat="45.0504" lon="-0.3865">
        <ele>50.5</ele>
        <time>2021-11-27T13:47:32Z</time>
      </trkpt>
      <trkpt lat="45.05039" lon="-0.3865">
        <ele>50.5</ele>
        <time>2021-11-27T13:47:33Z</time>
      </trkpt>
      <trkpt lat="45.05039" lon="-0.3865">
        <ele>50.5</ele>
        <time>2021-11-27T13:47:35Z</time>
      </trkpt>
      <trkpt lat="45.05039" lon="-0.3865">
        <ele>50.5</ele>
        <time>2021-11-27T13:47:36Z</time>
      </trkpt>
      <trkpt lat="45.05039" lon="-0.3865">
        <ele>50.5</ele>
        <time>2021-11-27T13:47:37Z</time>
      </trkpt>
      <trkpt lat="45.05039" lon="-0.3865">
        <ele>50.5</ele>
        <time>2021-11-27T13:47:39Z</time>
      </trkpt>
      <trkpt lat="45.0504" lon="-0.38651">
        <ele>50.5</ele>
        <time>2021-11-27T13:47:41Z</time>
      </trkpt>
      <trkpt lat="45.05039" lon="-0.38651">
        <ele>50.5</ele>
        <time>2021-11-27T13:47:43Z</time>
      </trkpt>
      <trkpt lat="45.05038" lon="-0.38651">
        <ele>50.5</ele>
        <time>2021-11-27T13:47:44Z</time>
      </trkpt>
      <trkpt lat="45.05035" lon="-0.38652">
        <ele>50.5</ele>
        <time>2021-11-27T13:47:46Z</time>
      </trkpt>
      <trkpt lat="45.05034" lon="-0.38652">
        <ele>50.6</ele>
        <time>2021-11-27T13:47:47Z</time>
      </trkpt>
      <trkpt lat="45.05031" lon="-0.3865">
        <ele>50.6</ele>
        <time>2021-11-27T13:47:48Z</time>
      </trkpt>
      <trkpt lat="45.05029" lon="-0.38649">
        <ele>50.5</ele>
        <time>2021-11-27T13:47:50Z</time>
      </trkpt>
      <trkpt lat="45.05026" lon="-0.38646">
        <ele>50.4</ele>
        <time>2021-11-27T13:47:51Z</time>
      </trkpt>
      <trkpt lat="45.05022" lon="-0.38643">
        <ele>50.3</ele>
        <time>2021-11-27T13:47:52Z</time>
      </trkpt>
      <trkpt lat="45.05021" lon="-0.38642">
        <ele>50.3</ele>
        <time>2021-11-27T13:47:53Z</time>
      </trkpt>
      <trkpt lat="45.05019" lon="-0.3864">
        <ele>50.2</ele>
        <time>2021-11-27T13:47:55Z</time>
      </trkpt>
      <trkpt lat="45.05018" lon="-0.3864">
        <ele>50.1</ele>
        <time>2021-11-27T13:47:56Z</time>
      </trkpt>
      <trkpt lat="45.05015" lon="-0.3864">
        <ele>50.2</ele>
        <time>2021-11-27T13:47:57Z</time>
      </trkpt>
      <trkpt lat="45.05014" lon="-0.3864">
        <ele>50.1</ele>
        <time>2021-11-27T13:47:58Z</time>
      </trkpt>
      <trkpt lat="45.05011" lon="-0.38641">
        <ele>50.1</ele>
        <time>2021-11-27T13:47:59Z</time>
      </trkpt>
      <trkpt lat="45.0501" lon="-0.38642">
        <ele>50.3</ele>
        <time>2021-11-27T13:48:01Z</time>
      </trkpt>
      <trkpt lat="45.05009" lon="-0.38643">
        <ele>50.3</ele>
        <time>2021-11-27T13:48:02Z</time>
      </trkpt>
      <trkpt lat="45.05007" lon="-0.38643">
        <ele>50.3</ele>
        <time>2021-11-27T13:48:03Z</time>
      </trkpt>
      <trkpt lat="45.05004" lon="-0.38646">
        <ele>50.3</ele>
        <time>2021-11-27T13:48:05Z</time>
      </trkpt>
      <trkpt lat="45.05004" lon="-0.38646">
        <ele>50.4</ele>
        <time>2021-11-27T13:48:06Z</time>
      </trkpt>
      <trkpt lat="45.05002" lon="-0.38647">
        <ele>50.3</ele>
        <time>2021-11-27T13:48:07Z</time>
      </trkpt>
      <trkpt lat="45.05" lon="-0.38648">
        <ele>50.3</ele>
        <time>2021-11-27T13:48:09Z</time>
      </trkpt>
      <trkpt lat="45.04999" lon="-0.38648">
        <ele>50.3</ele>
        <time>2021-11-27T13:48:10Z</time>
      </trkpt>
      <trkpt lat="45.04997" lon="-0.38648">
        <ele>50.3</ele>
        <time>2021-11-27T13:48:12Z</time>
      </trkpt>
      <trkpt lat="45.04996" lon="-0.38649">
        <ele>50.2</ele>
        <time>2021-11-27T13:48:13Z</time>
      </trkpt>
      <trkpt lat="45.04995" lon="-0.38649">
        <ele>50.2</ele>
        <time>2021-11-27T13:48:14Z</time>
      </trkpt>
      <trkpt lat="45.04994" lon="-0.38649">
        <ele>50.2</ele>
        <time>2021-11-27T13:48:16Z</time>
      </trkpt>
      <trkpt lat="45.04992" lon="-0.3865">
        <ele>50.3</ele>
        <time>2021-11-27T13:48:17Z</time>
      </trkpt>
      <trkpt lat="45.0499" lon="-0.3865">
        <ele>50.2</ele>
        <time>2021-11-27T13:48:19Z</time>
      </trkpt>
      <trkpt lat="45.04987" lon="-0.3865">
        <ele>50.2</ele>
        <time>2021-11-27T13:48:20Z</time>
      </trkpt>
      <trkpt lat="45.04986" lon="-0.3865">
        <ele>50.2</ele>
        <time>2021-11-27T13:48:21Z</time>
      </trkpt>
      <trkpt lat="45.04983" lon="-0.38649">
        <ele>50.1</ele>
        <time>2021-11-27T13:48:22Z</time>
      </trkpt>
      <trkpt lat="45.04982" lon="-0.38649">
        <ele>50.1</ele>
        <time>2021-11-27T13:48:23Z</time>
      </trkpt>
      <trkpt lat="45.0498" lon="-0.3865">
        <ele>50.1</ele>
        <time>2021-11-27T13:48:25Z</time>
      </trkpt>
      <trkpt lat="45.04978" lon="-0.3865">
        <ele>50</ele>
        <time>2021-11-27T13:48:27Z</time>
      </trkpt>
      <trkpt lat="45.04976" lon="-0.3865">
        <ele>50</ele>
        <time>2021-11-27T13:48:28Z</time>
      </trkpt>
      <trkpt lat="45.04975" lon="-0.3865">
        <ele>49.9</ele>
        <time>2021-11-27T13:48:29Z</time>
      </trkpt>
      <trkpt lat="45.04972" lon="-0.3865">
        <ele>49.8</ele>
        <time>2021-11-27T13:48:31Z</time>
      </trkpt>
      <trkpt lat="45.04971" lon="-0.3865">
        <ele>49.8</ele>
        <time>2021-11-27T13:48:32Z</time>
      </trkpt>
      <trkpt lat="45.04969" lon="-0.3865">
        <ele>49.7</ele>
        <time>2021-11-27T13:48:34Z</time>
      </trkpt>
      <trkpt lat="45.04968" lon="-0.38649">
        <ele>49.7</ele>
        <time>2021-11-27T13:48:35Z</time>
      </trkpt>
      <trkpt lat="45.04966" lon="-0.38649">
        <ele>49.6</ele>
        <time>2021-11-27T13:48:36Z</time>
      </trkpt>
      <trkpt lat="45.04964" lon="-0.38649">
        <ele>49.7</ele>
        <time>2021-11-27T13:48:37Z</time>
      </trkpt>
      <trkpt lat="45.04962" lon="-0.38649">
        <ele>49.6</ele>
        <time>2021-11-27T13:48:39Z</time>
      </trkpt>
      <trkpt lat="45.04961" lon="-0.38649">
        <ele>49.6</ele>
        <time>2021-11-27T13:48:40Z</time>
      </trkpt>
      <trkpt lat="45.04959" lon="-0.38649">
        <ele>49.5</ele>
        <time>2021-11-27T13:48:41Z</time>
      </trkpt>
      <trkpt lat="45.04957" lon="-0.38648">
        <ele>49.4</ele>
        <time>2021-11-27T13:48:43Z</time>
      </trkpt>
      <trkpt lat="45.04955" lon="-0.38648">
        <ele>49.4</ele>
        <time>2021-11-27T13:48:44Z</time>
      </trkpt>
      <trkpt lat="45.04955" lon="-0.38648">
        <ele>49.4</ele>
        <time>2021-11-27T13:48:46Z</time>
      </trkpt>
      <trkpt lat="45.04954" lon="-0.38648">
        <ele>49.4</ele>
        <time>2021-11-27T13:48:47Z</time>
      </trkpt>
      <trkpt lat="45.04954" lon="-0.38648">
        <ele>49.3</ele>
        <time>2021-11-27T13:48:48Z</time>
      </trkpt>
      <trkpt lat="45.04954" lon="-0.38648">
        <ele>49.3</ele>
        <time>2021-11-27T13:48:50Z</time>
      </trkpt>
      <trkpt lat="45.04953" lon="-0.38647">
        <ele>49.4</ele>
        <time>2021-11-27T13:48:51Z</time>
      </trkpt>
      <trkpt lat="45.04953" lon="-0.38647">
        <ele>49.4</ele>
        <time>2021-11-27T13:48:52Z</time>
      </trkpt>
      <trkpt lat="45.04953" lon="-0.38647">
        <ele>49.4</ele>
        <time>2021-11-27T13:48:54Z</time>
      </trkpt>
      <trkpt lat="45.04952" lon="-0.38647">
        <ele>49.4</ele>
        <time>2021-11-27T13:48:55Z</time>
      </trkpt>
      <trkpt lat="45.04952" lon="-0.38647">
        <ele>49.4</ele>
        <time>2021-11-27T13:48:56Z</time>
      </trkpt>
      <trkpt lat="45.04952" lon="-0.38647">
        <ele>49.4</ele>
        <time>2021-11-27T13:48:58Z</time>
      </trkpt>
      <trkpt lat="45.04951" lon="-0.38647">
        <ele>49.3</ele>
        <time>2021-11-27T13:48:59Z</time>
      </trkpt>
      <trkpt lat="45.04951" lon="-0.38647">
        <ele>49.3</ele>
        <time>2021-11-27T13:49:00Z</time>
      </trkpt>
      <trkpt lat="45.0495" lon="-0.38647">
        <ele>49.3</ele>
        <time>2021-11-27T13:49:01Z</time>
      </trkpt>
      <trkpt lat="45.0495" lon="-0.38647">
        <ele>49.3</ele>
        <time>2021-11-27T13:49:02Z</time>
      </trkpt>
      <trkpt lat="45.0495" lon="-0.38647">
        <ele>49.3</ele>
        <time>2021-11-27T13:49:03Z</time>
      </trkpt>
      <trkpt lat="45.04947" lon="-0.38648">
        <ele>49.2</ele>
        <time>2021-11-27T13:49:04Z</time>
      </trkpt>
      <trkpt lat="45.04946" lon="-0.38649">
        <ele>49.3</ele>
        <time>2021-11-27T13:49:06Z</time>
      </trkpt>
      <trkpt lat="45.04944" lon="-0.38649">
        <ele>49.2</ele>
        <time>2021-11-27T13:49:07Z</time>
      </trkpt>
      <trkpt lat="45.04943" lon="-0.38649">
        <ele>49.2</ele>
        <time>2021-11-27T13:49:08Z</time>
      </trkpt>
      <trkpt lat="45.0494" lon="-0.38649">
        <ele>49.1</ele>
        <time>2021-11-27T13:49:10Z</time>
      </trkpt>
      <trkpt lat="45.04937" lon="-0.38648">
        <ele>49</ele>
        <time>2021-11-27T13:49:11Z</time>
      </trkpt>
      <trkpt lat="45.04934" lon="-0.38646">
        <ele>48.9</ele>
        <time>2021-11-27T13:49:12Z</time>
      </trkpt>
      <trkpt lat="45.04933" lon="-0.38646">
        <ele>48.9</ele>
        <time>2021-11-27T13:49:13Z</time>
      </trkpt>
      <trkpt lat="45.0493" lon="-0.38645">
        <ele>48.8</ele>
        <time>2021-11-27T13:49:15Z</time>
      </trkpt>
      <trkpt lat="45.04929" lon="-0.38645">
        <ele>48.6</ele>
        <time>2021-11-27T13:49:16Z</time>
      </trkpt>
      <trkpt lat="45.04926" lon="-0.38645">
        <ele>48.6</ele>
        <time>2021-11-27T13:49:18Z</time>
      </trkpt>
      <trkpt lat="45.04925" lon="-0.38645">
        <ele>48.6</ele>
        <time>2021-11-27T13:49:19Z</time>
      </trkpt>
      <trkpt lat="45.04923" lon="-0.38644">
        <ele>48.5</ele>
        <time>2021-11-27T13:49:20Z</time>
      </trkpt>
      <trkpt lat="45.04922" lon="-0.38643">
        <ele>48.5</ele>
        <time>2021-11-27T13:49:22Z</time>
      </trkpt>
      <trkpt lat="45.0492" lon="-0.38643">
        <ele>48.4</ele>
        <time>2021-11-27T13:49:23Z</time>
      </trkpt>
      <trkpt lat="45.04919" lon="-0.38644">
        <ele>48.4</ele>
        <time>2021-11-27T13:49:24Z</time>
      </trkpt>
      <trkpt lat="45.04918" lon="-0.38644">
        <ele>48.3</ele>
        <time>2021-11-27T13:49:25Z</time>
      </trkpt>
      <trkpt lat="45.04916" lon="-0.38644">
        <ele>48.3</ele>
        <time>2021-11-27T13:49:27Z</time>
      </trkpt>
      <trkpt lat="45.04915" lon="-0.38644">
        <ele>48.3</ele>
        <time>2021-11-27T13:49:28Z</time>
      </trkpt>
      <trkpt lat="45.04914" lon="-0.38644">
        <ele>48.2</ele>
        <time>2021-11-27T13:49:29Z</time>
      </trkpt>
      <trkpt lat="45.04912" lon="-0.38644">
        <ele>48.2</ele>
        <time>2021-11-27T13:49:30Z</time>
      </trkpt>
      <trkpt lat="45.04911" lon="-0.38644">
        <ele>48.1</ele>
        <time>2021-11-27T13:49:31Z</time>
      </trkpt>
      <trkpt lat="45.04909" lon="-0.38644">
        <ele>48.1</ele>
        <time>2021-11-27T13:49:32Z</time>
      </trkpt>
      <trkpt lat="45.04907" lon="-0.38645">
        <ele>48</ele>
        <time>2021-11-27T13:49:34Z</time>
      </trkpt>
      <trkpt lat="45.04908" lon="-0.38647">
        <ele>48.1</ele>
        <time>2021-11-27T13:49:36Z</time>
      </trkpt>
      <trkpt lat="45.04909" lon="-0.38648">
        <ele>48.1</ele>
        <time>2021-11-27T13:49:37Z</time>
      </trkpt>
      <trkpt lat="45.04909" lon="-0.38647">
        <ele>48.1</ele>
        <time>2021-11-27T13:49:39Z</time>
      </trkpt>
      <trkpt lat="45.04909" lon="-0.38647">
        <ele>48.1</ele>
        <time>2021-11-27T13:49:41Z</time>
      </trkpt>
      <trkpt lat="45.04909" lon="-0.38647">
        <ele>48.1</ele>
        <time>2021-11-27T13:49:43Z</time>
      </trkpt>
      <trkpt lat="45.04908" lon="-0.38647">
        <ele>48.1</ele>
        <time>2021-11-27T13:49:45Z</time>
      </trkpt>
      <trkpt lat="45.04908" lon="-0.38647">
        <ele>48.1</ele>
        <time>2021-11-27T13:49:46Z</time>
      </trkpt>
      <trkpt lat="45.04907" lon="-0.38646">
        <ele>48.1</ele>
        <time>2021-11-27T13:49:48Z</time>
      </trkpt>
      <trkpt lat="45.04906" lon="-0.38646">
        <ele>48.2</ele>
        <time>2021-11-27T13:49:49Z</time>
      </trkpt>
      <trkpt lat="45.04905" lon="-0.38646">
        <ele>48.1</ele>
        <time>2021-11-27T13:49:50Z</time>
      </trkpt>
      <trkpt lat="45.04904" lon="-0.38646">
        <ele>48.1</ele>
        <time>2021-11-27T13:49:51Z</time>
      </trkpt>
      <trkpt lat="45.04904" lon="-0.38645">
        <ele>48.1</ele>
        <time>2021-11-27T13:49:52Z</time>
      </trkpt>
      <trkpt lat="45.04904" lon="-0.38645">
        <ele>48.1</ele>
        <time>2021-11-27T13:49:54Z</time>
      </trkpt>
      <trkpt lat="45.04905" lon="-0.38644">
        <ele>48.1</ele>
        <time>2021-11-27T13:49:55Z</time>
      </trkpt>
      <trkpt lat="45.04906" lon="-0.38641">
        <ele>48.1</ele>
        <time>2021-11-27T13:49:57Z</time>
      </trkpt>
      <trkpt lat="45.04906" lon="-0.38639">
        <ele>48.1</ele>
        <time>2021-11-27T13:49:58Z</time>
      </trkpt>
      <trkpt lat="45.04906" lon="-0.38636">
        <ele>48.1</ele>
        <time>2021-11-27T13:50:00Z</time>
      </trkpt>
      <trkpt lat="45.04906" lon="-0.38634">
        <ele>48.1</ele>
        <time>2021-11-27T13:50:01Z</time>
      </trkpt>
      <trkpt lat="45.04906" lon="-0.38632">
        <ele>48.1</ele>
        <time>2021-11-27T13:50:02Z</time>
      </trkpt>
      <trkpt lat="45.04905" lon="-0.38627">
        <ele>48</ele>
        <time>2021-11-27T13:50:03Z</time>
      </trkpt>
      <trkpt lat="45.04905" lon="-0.38626">
        <ele>48</ele>
        <time>2021-11-27T13:50:04Z</time>
      </trkpt>
      <trkpt lat="45.04904" lon="-0.38623">
        <ele>47.9</ele>
        <time>2021-11-27T13:50:06Z</time>
      </trkpt>
      <trkpt lat="45.04904" lon="-0.38621">
        <ele>47.9</ele>
        <time>2021-11-27T13:50:07Z</time>
      </trkpt>
      <trkpt lat="45.04904" lon="-0.38619">
        <ele>47.9</ele>
        <time>2021-11-27T13:50:08Z</time>
      </trkpt>
      <trkpt lat="45.04903" lon="-0.38617">
        <ele>47.9</ele>
        <time>2021-11-27T13:50:09Z</time>
      </trkpt>
      <trkpt lat="45.04903" lon="-0.38612">
        <ele>47.9</ele>
        <time>2021-11-27T13:50:11Z</time>
      </trkpt>
      <trkpt lat="45.04903" lon="-0.38611">
        <ele>47.8</ele>
        <time>2021-11-27T13:50:12Z</time>
      </trkpt>
      <trkpt lat="45.04903" lon="-0.38608">
        <ele>47.8</ele>
        <time>2021-11-27T13:50:14Z</time>
      </trkpt>
      <trkpt lat="45.04903" lon="-0.38606">
        <ele>47.8</ele>
        <time>2021-11-27T13:50:15Z</time>
      </trkpt>
      <trkpt lat="45.04903" lon="-0.38606">
        <ele>47.8</ele>
        <time>2021-11-27T13:50:16Z</time>
      </trkpt>
      <trkpt lat="45.04904" lon="-0.38606">
        <ele>47.8</ele>
        <time>2021-11-27T13:50:17Z</time>
      </trkpt>
      <trkpt lat="45.04904" lon="-0.38607">
        <ele>47.9</ele>
        <time>2021-11-27T13:50:19Z</time>
      </trkpt>
      <trkpt lat="45.04904" lon="-0.38606">
        <ele>47.8</ele>
        <time>2021-11-27T13:50:20Z</time>
      </trkpt>
      <trkpt lat="45.04903" lon="-0.38604">
        <ele>47.8</ele>
        <time>2021-11-27T13:50:21Z</time>
      </trkpt>
      <trkpt lat="45.04903" lon="-0.38601">
        <ele>47.8</ele>
        <time>2021-11-27T13:50:22Z</time>
      </trkpt>
      <trkpt lat="45.04903" lon="-0.38599">
        <ele>47.7</ele>
        <time>2021-11-27T13:50:23Z</time>
      </trkpt>
      <trkpt lat="45.04902" lon="-0.38595">
        <ele>47.7</ele>
        <time>2021-11-27T13:50:25Z</time>
      </trkpt>
      <trkpt lat="45.04902" lon="-0.38593">
        <ele>47.7</ele>
        <time>2021-11-27T13:50:27Z</time>
      </trkpt>
      <trkpt lat="45.04901" lon="-0.3859">
        <ele>47.7</ele>
        <time>2021-11-27T13:50:28Z</time>
      </trkpt>
      <trkpt lat="45.04901" lon="-0.38587">
        <ele>47.6</ele>
        <time>2021-11-27T13:50:29Z</time>
      </trkpt>
      <trkpt lat="45.04901" lon="-0.38585">
        <ele>47.7</ele>
        <time>2021-11-27T13:50:30Z</time>
      </trkpt>
      <trkpt lat="45.04901" lon="-0.38584">
        <ele>47.6</ele>
        <time>2021-11-27T13:50:31Z</time>
      </trkpt>
      <trkpt lat="45.049" lon="-0.3858">
        <ele>47.6</ele>
        <time>2021-11-27T13:50:33Z</time>
      </trkpt>
      <trkpt lat="45.04901" lon="-0.38578">
        <ele>47.7</ele>
        <time>2021-11-27T13:50:34Z</time>
      </trkpt>
      <trkpt lat="45.04901" lon="-0.38576">
        <ele>47.7</ele>
        <time>2021-11-27T13:50:35Z</time>
      </trkpt>
      <trkpt lat="45.04901" lon="-0.38573">
        <ele>47.7</ele>
        <time>2021-11-27T13:50:37Z</time>
      </trkpt>
      <trkpt lat="45.04901" lon="-0.38571">
        <ele>47.7</ele>
        <time>2021-11-27T13:50:38Z</time>
      </trkpt>
      <trkpt lat="45.049" lon="-0.38568">
        <ele>47.7</ele>
        <time>2021-11-27T13:50:39Z</time>
      </trkpt>
      <trkpt lat="45.049" lon="-0.38565">
        <ele>47.7</ele>
        <time>2021-11-27T13:50:41Z</time>
      </trkpt>
      <trkpt lat="45.049" lon="-0.38563">
        <ele>47.8</ele>
        <time>2021-11-27T13:50:42Z</time>
      </trkpt>
      <trkpt lat="45.049" lon="-0.3856">
        <ele>47.8</ele>
        <time>2021-11-27T13:50:44Z</time>
      </trkpt>
      <trkpt lat="45.049" lon="-0.38558">
        <ele>47.9</ele>
        <time>2021-11-27T13:50:45Z</time>
      </trkpt>
      <trkpt lat="45.04901" lon="-0.38554">
        <ele>47.9</ele>
        <time>2021-11-27T13:50:47Z</time>
      </trkpt>
      <trkpt lat="45.04901" lon="-0.38553">
        <ele>47.9</ele>
        <time>2021-11-27T13:50:48Z</time>
      </trkpt>
      <trkpt lat="45.04901" lon="-0.38551">
        <ele>47.9</ele>
        <time>2021-11-27T13:50:49Z</time>
      </trkpt>
      <trkpt lat="45.04901" lon="-0.38549">
        <ele>48</ele>
        <time>2021-11-27T13:50:51Z</time>
      </trkpt>
      <trkpt lat="45.04901" lon="-0.38547">
        <ele>48</ele>
        <time>2021-11-27T13:50:52Z</time>
      </trkpt>
      <trkpt lat="45.04901" lon="-0.38544">
        <ele>48.1</ele>
        <time>2021-11-27T13:50:54Z</time>
      </trkpt>
      <trkpt lat="45.04901" lon="-0.38541">
        <ele>48.2</ele>
        <time>2021-11-27T13:50:55Z</time>
      </trkpt>
      <trkpt lat="45.04901" lon="-0.38539">
        <ele>48.2</ele>
        <time>2021-11-27T13:50:56Z</time>
      </trkpt>
      <trkpt lat="45.04901" lon="-0.38538">
        <ele>48.3</ele>
        <time>2021-11-27T13:50:57Z</time>
      </trkpt>
      <trkpt lat="45.04901" lon="-0.38536">
        <ele>48.4</ele>
        <time>2021-11-27T13:50:58Z</time>
      </trkpt>
      <trkpt lat="45.04901" lon="-0.38534">
        <ele>48.4</ele>
        <time>2021-11-27T13:50:59Z</time>
      </trkpt>
      <trkpt lat="45.049" lon="-0.38531">
        <ele>48.5</ele>
        <time>2021-11-27T13:51:01Z</time>
      </trkpt>
      <trkpt lat="45.049" lon="-0.3853">
        <ele>48.5</ele>
        <time>2021-11-27T13:51:02Z</time>
      </trkpt>
      <trkpt lat="45.049" lon="-0.38528">
        <ele>48.6</ele>
        <time>2021-11-27T13:51:03Z</time>
      </trkpt>
      <trkpt lat="45.049" lon="-0.38526">
        <ele>48.6</ele>
        <time>2021-11-27T13:51:04Z</time>
      </trkpt>
      <trkpt lat="45.049" lon="-0.38523">
        <ele>48.7</ele>
        <time>2021-11-27T13:51:06Z</time>
      </trkpt>
      <trkpt lat="45.049" lon="-0.38521">
        <ele>48.7</ele>
        <time>2021-11-27T13:51:07Z</time>
      </trkpt>
      <trkpt lat="45.04901" lon="-0.38519">
        <ele>48.8</ele>
        <time>2021-11-27T13:51:08Z</time>
      </trkpt>
      <trkpt lat="45.049" lon="-0.38517">
        <ele>48.9</ele>
        <time>2021-11-27T13:51:09Z</time>
      </trkpt>
      <trkpt lat="45.04899" lon="-0.38515">
        <ele>48.9</ele>
        <time>2021-11-27T13:51:10Z</time>
      </trkpt>
      <trkpt lat="45.04898" lon="-0.38514">
        <ele>48.9</ele>
        <time>2021-11-27T13:51:11Z</time>
      </trkpt>
      <trkpt lat="45.04896" lon="-0.38514">
        <ele>48.8</ele>
        <time>2021-11-27T13:51:12Z</time>
      </trkpt>
      <trkpt lat="45.04893" lon="-0.38517">
        <ele>48.7</ele>
        <time>2021-11-27T13:51:14Z</time>
      </trkpt>
      <trkpt lat="45.04892" lon="-0.38517">
        <ele>48.7</ele>
        <time>2021-11-27T13:51:15Z</time>
      </trkpt>
      <trkpt lat="45.0489" lon="-0.38518">
        <ele>48.6</ele>
        <time>2021-11-27T13:51:16Z</time>
      </trkpt>
      <trkpt lat="45.04889" lon="-0.38518">
        <ele>48.6</ele>
        <time>2021-11-27T13:51:17Z</time>
      </trkpt>
      <trkpt lat="45.04885" lon="-0.38519">
        <ele>48.5</ele>
        <time>2021-11-27T13:51:19Z</time>
      </trkpt>
      <trkpt lat="45.04884" lon="-0.38519">
        <ele>48.5</ele>
        <time>2021-11-27T13:51:20Z</time>
      </trkpt>
      <trkpt lat="45.04881" lon="-0.3852">
        <ele>48.4</ele>
        <time>2021-11-27T13:51:22Z</time>
      </trkpt>
      <trkpt lat="45.0488" lon="-0.3852">
        <ele>48.4</ele>
        <time>2021-11-27T13:51:23Z</time>
      </trkpt>
      <trkpt lat="45.04879" lon="-0.3852">
        <ele>48.4</ele>
        <time>2021-11-27T13:51:24Z</time>
      </trkpt>
      <trkpt lat="45.04877" lon="-0.38519">
        <ele>48.4</ele>
        <time>2021-11-27T13:51:26Z</time>
      </trkpt>
      <trkpt lat="45.04875" lon="-0.38519">
        <ele>48.3</ele>
        <time>2021-11-27T13:51:27Z</time>
      </trkpt>
      <trkpt lat="45.04872" lon="-0.38518">
        <ele>48.3</ele>
        <time>2021-11-27T13:51:29Z</time>
      </trkpt>
      <trkpt lat="45.04871" lon="-0.38518">
        <ele>48.3</ele>
        <time>2021-11-27T13:51:30Z</time>
      </trkpt>
      <trkpt lat="45.0487" lon="-0.38518">
        <ele>48.3</ele>
        <time>2021-11-27T13:51:31Z</time>
      </trkpt>
      <trkpt lat="45.04868" lon="-0.38518">
        <ele>48.2</ele>
        <time>2021-11-27T13:51:33Z</time>
      </trkpt>
      <trkpt lat="45.04866" lon="-0.38518">
        <ele>48.2</ele>
        <time>2021-11-27T13:51:34Z</time>
      </trkpt>
      <trkpt lat="45.04864" lon="-0.38518">
        <ele>48.2</ele>
        <time>2021-11-27T13:51:36Z</time>
      </trkpt>
      <trkpt lat="45.04861" lon="-0.38518">
        <ele>48.1</ele>
        <time>2021-11-27T13:51:37Z</time>
      </trkpt>
      <trkpt lat="45.0486" lon="-0.38518">
        <ele>48</ele>
        <time>2021-11-27T13:51:39Z</time>
      </trkpt>
      <trkpt lat="45.04859" lon="-0.38518">
        <ele>48</ele>
        <time>2021-11-27T13:51:41Z</time>
      </trkpt>
      <trkpt lat="45.04857" lon="-0.38518">
        <ele>48</ele>
        <time>2021-11-27T13:51:42Z</time>
      </trkpt>
      <trkpt lat="45.04856" lon="-0.38518">
        <ele>48</ele>
        <time>2021-11-27T13:51:43Z</time>
      </trkpt>
      <trkpt lat="45.04855" lon="-0.38517">
        <ele>48</ele>
        <time>2021-11-27T13:51:44Z</time>
      </trkpt>
      <trkpt lat="45.04853" lon="-0.38516">
        <ele>48</ele>
        <time>2021-11-27T13:51:46Z</time>
      </trkpt>
      <trkpt lat="45.04852" lon="-0.38514">
        <ele>48</ele>
        <time>2021-11-27T13:51:47Z</time>
      </trkpt>
      <trkpt lat="45.0485" lon="-0.38514">
        <ele>48</ele>
        <time>2021-11-27T13:51:49Z</time>
      </trkpt>
      <trkpt lat="45.04848" lon="-0.38514">
        <ele>47.9</ele>
        <time>2021-11-27T13:51:50Z</time>
      </trkpt>
      <trkpt lat="45.04847" lon="-0.38515">
        <ele>47.9</ele>
        <time>2021-11-27T13:51:51Z</time>
      </trkpt>
      <trkpt lat="45.04846" lon="-0.38515">
        <ele>47.9</ele>
        <time>2021-11-27T13:51:52Z</time>
      </trkpt>
      <trkpt lat="45.04844" lon="-0.38516">
        <ele>47.9</ele>
        <time>2021-11-27T13:51:54Z</time>
      </trkpt>
      <trkpt lat="45.04843" lon="-0.38516">
        <ele>47.9</ele>
        <time>2021-11-27T13:51:55Z</time>
      </trkpt>
      <trkpt lat="45.04841" lon="-0.38517">
        <ele>47.7</ele>
        <time>2021-11-27T13:51:56Z</time>
      </trkpt>
      <trkpt lat="45.04837" lon="-0.38518">
        <ele>47.6</ele>
        <time>2021-11-27T13:51:58Z</time>
      </trkpt>
      <trkpt lat="45.04836" lon="-0.38518">
        <ele>47.6</ele>
        <time>2021-11-27T13:51:59Z</time>
      </trkpt>
      <trkpt lat="45.04834" lon="-0.38519">
        <ele>47.6</ele>
        <time>2021-11-27T13:52:01Z</time>
      </trkpt>
      <trkpt lat="45.04833" lon="-0.3852">
        <ele>47.5</ele>
        <time>2021-11-27T13:52:02Z</time>
      </trkpt>
      <trkpt lat="45.04832" lon="-0.3852">
        <ele>47.5</ele>
        <time>2021-11-27T13:52:03Z</time>
      </trkpt>
      <trkpt lat="45.0483" lon="-0.3852">
        <ele>47.5</ele>
        <time>2021-11-27T13:52:04Z</time>
      </trkpt>
      <trkpt lat="45.04829" lon="-0.3852">
        <ele>47.4</ele>
        <time>2021-11-27T13:52:05Z</time>
      </trkpt>
      <trkpt lat="45.04827" lon="-0.3852">
        <ele>47.3</ele>
        <time>2021-11-27T13:52:07Z</time>
      </trkpt>
      <trkpt lat="45.04826" lon="-0.38519">
        <ele>47.3</ele>
        <time>2021-11-27T13:52:08Z</time>
      </trkpt>
      <trkpt lat="45.04824" lon="-0.38518">
        <ele>47.3</ele>
        <time>2021-11-27T13:52:09Z</time>
      </trkpt>
      <trkpt lat="45.04823" lon="-0.38518">
        <ele>47.2</ele>
        <time>2021-11-27T13:52:10Z</time>
      </trkpt>
      <trkpt lat="45.04822" lon="-0.38519">
        <ele>47.2</ele>
        <time>2021-11-27T13:52:11Z</time>
      </trkpt>
      <trkpt lat="45.04821" lon="-0.38518">
        <ele>47.2</ele>
        <time>2021-11-27T13:52:12Z</time>
      </trkpt>
      <trkpt lat="45.04818" lon="-0.3852">
        <ele>47.2</ele>
        <time>2021-11-27T13:52:13Z</time>
      </trkpt>
      <trkpt lat="45.04817" lon="-0.3852">
        <ele>47.1</ele>
        <time>2021-11-27T13:52:15Z</time>
      </trkpt>
      <trkpt lat="45.04816" lon="-0.38521">
        <ele>47</ele>
        <time>2021-11-27T13:52:16Z</time>
      </trkpt>
      <trkpt lat="45.04815" lon="-0.38522">
        <ele>47</ele>
        <time>2021-11-27T13:52:17Z</time>
      </trkpt>
      <trkpt lat="45.04814" lon="-0.38523">
        <ele>46.9</ele>
        <time>2021-11-27T13:52:18Z</time>
      </trkpt>
      <trkpt lat="45.04814" lon="-0.38524">
        <ele>46.9</ele>
        <time>2021-11-27T13:52:19Z</time>
      </trkpt>
      <trkpt lat="45.04812" lon="-0.38525">
        <ele>46.9</ele>
        <time>2021-11-27T13:52:20Z</time>
      </trkpt>
      <trkpt lat="45.04811" lon="-0.38527">
        <ele>46.8</ele>
        <time>2021-11-27T13:52:21Z</time>
      </trkpt>
      <trkpt lat="45.0481" lon="-0.38529">
        <ele>46.8</ele>
        <time>2021-11-27T13:52:23Z</time>
      </trkpt>
      <trkpt lat="45.04809" lon="-0.38531">
        <ele>46.7</ele>
        <time>2021-11-27T13:52:24Z</time>
      </trkpt>
      <trkpt lat="45.04809" lon="-0.38533">
        <ele>46.7</ele>
        <time>2021-11-27T13:52:25Z</time>
      </trkpt>
      <trkpt lat="45.04809" lon="-0.38535">
        <ele>46.6</ele>
        <time>2021-11-27T13:52:26Z</time>
      </trkpt>
      <trkpt lat="45.0481" lon="-0.38537">
        <ele>46.7</ele>
        <time>2021-11-27T13:52:27Z</time>
      </trkpt>
      <trkpt lat="45.04811" lon="-0.38541">
        <ele>46.6</ele>
        <time>2021-11-27T13:52:29Z</time>
      </trkpt>
      <trkpt lat="45.04811" lon="-0.38542">
        <ele>46.6</ele>
        <time>2021-11-27T13:52:30Z</time>
      </trkpt>
      <trkpt lat="45.04812" lon="-0.38545">
        <ele>46.5</ele>
        <time>2021-11-27T13:52:32Z</time>
      </trkpt>
      <trkpt lat="45.04812" lon="-0.38546">
        <ele>46.5</ele>
        <time>2021-11-27T13:52:33Z</time>
      </trkpt>
      <trkpt lat="45.04811" lon="-0.38545">
        <ele>46.6</ele>
        <time>2021-11-27T13:52:35Z</time>
      </trkpt>
      <trkpt lat="45.04811" lon="-0.38545">
        <ele>46.6</ele>
        <time>2021-11-27T13:52:36Z</time>
      </trkpt>
      <trkpt lat="45.04811" lon="-0.38544">
        <ele>46.6</ele>
        <time>2021-11-27T13:52:38Z</time>
      </trkpt>
      <trkpt lat="45.04812" lon="-0.38546">
        <ele>46.7</ele>
        <time>2021-11-27T13:52:39Z</time>
      </trkpt>
      <trkpt lat="45.04812" lon="-0.38547">
        <ele>46.6</ele>
        <time>2021-11-27T13:52:40Z</time>
      </trkpt>
      <trkpt lat="45.04813" lon="-0.38549">
        <ele>46.6</ele>
        <time>2021-11-27T13:52:41Z</time>
      </trkpt>
      <trkpt lat="45.04814" lon="-0.38553">
        <ele>46.6</ele>
        <time>2021-11-27T13:52:43Z</time>
      </trkpt>
      <trkpt lat="45.04814" lon="-0.38555">
        <ele>46.6</ele>
        <time>2021-11-27T13:52:44Z</time>
      </trkpt>
      <trkpt lat="45.04815" lon="-0.38557">
        <ele>46.6</ele>
        <time>2021-11-27T13:52:45Z</time>
      </trkpt>
      <trkpt lat="45.04816" lon="-0.38559">
        <ele>46.6</ele>
        <time>2021-11-27T13:52:46Z</time>
      </trkpt>
      <trkpt lat="45.04816" lon="-0.38563">
        <ele>46.6</ele>
        <time>2021-11-27T13:52:48Z</time>
      </trkpt>
      <trkpt lat="45.04816" lon="-0.38565">
        <ele>46.5</ele>
        <time>2021-11-27T13:52:49Z</time>
      </trkpt>
      <trkpt lat="45.04816" lon="-0.38567">
        <ele>46.5</ele>
        <time>2021-11-27T13:52:50Z</time>
      </trkpt>
      <trkpt lat="45.04816" lon="-0.38569">
        <ele>46.5</ele>
        <time>2021-11-27T13:52:52Z</time>
      </trkpt>
      <trkpt lat="45.04817" lon="-0.38573">
        <ele>46.5</ele>
        <time>2021-11-27T13:52:53Z</time>
      </trkpt>
      <trkpt lat="45.04817" lon="-0.38576">
        <ele>46.5</ele>
        <time>2021-11-27T13:52:55Z</time>
      </trkpt>
      <trkpt lat="45.04817" lon="-0.38579">
        <ele>46.5</ele>
        <time>2021-11-27T13:52:57Z</time>
      </trkpt>
      <trkpt lat="45.04817" lon="-0.38581">
        <ele>46.5</ele>
        <time>2021-11-27T13:52:58Z</time>
      </trkpt>
      <trkpt lat="45.04817" lon="-0.38583">
        <ele>46.5</ele>
        <time>2021-11-27T13:52:59Z</time>
      </trkpt>
      <trkpt lat="45.04818" lon="-0.38585">
        <ele>46.5</ele>
        <time>2021-11-27T13:53:00Z</time>
      </trkpt>
      <trkpt lat="45.04818" lon="-0.38588">
        <ele>46.5</ele>
        <time>2021-11-27T13:53:02Z</time>
      </trkpt>
      <trkpt lat="45.04819" lon="-0.38591">
        <ele>46.6</ele>
        <time>2021-11-27T13:53:04Z</time>
      </trkpt>
      <trkpt lat="45.0482" lon="-0.38593">
        <ele>46.6</ele>
        <time>2021-11-27T13:53:05Z</time>
      </trkpt>
      <trkpt lat="45.0482" lon="-0.38595">
        <ele>46.6</ele>
        <time>2021-11-27T13:53:06Z</time>
      </trkpt>
      <trkpt lat="45.04821" lon="-0.38599">
        <ele>46.6</ele>
        <time>2021-11-27T13:53:08Z</time>
      </trkpt>
      <trkpt lat="45.04821" lon="-0.386">
        <ele>46.7</ele>
        <time>2021-11-27T13:53:09Z</time>
      </trkpt>
      <trkpt lat="45.04822" lon="-0.38605">
        <ele>46.7</ele>
        <time>2021-11-27T13:53:11Z</time>
      </trkpt>
      <trkpt lat="45.04823" lon="-0.38606">
        <ele>46.7</ele>
        <time>2021-11-27T13:53:12Z</time>
      </trkpt>
      <trkpt lat="45.04823" lon="-0.38608">
        <ele>46.7</ele>
        <time>2021-11-27T13:53:13Z</time>
      </trkpt>
      <trkpt lat="45.04823" lon="-0.38611">
        <ele>46.7</ele>
        <time>2021-11-27T13:53:15Z</time>
      </trkpt>
      <trkpt lat="45.04823" lon="-0.38614">
        <ele>46.7</ele>
        <time>2021-11-27T13:53:16Z</time>
      </trkpt>
      <trkpt lat="45.04823" lon="-0.38618">
        <ele>46.7</ele>
        <time>2021-11-27T13:53:18Z</time>
      </trkpt>
      <trkpt lat="45.04824" lon="-0.38619">
        <ele>46.8</ele>
        <time>2021-11-27T13:53:19Z</time>
      </trkpt>
      <trkpt lat="45.04824" lon="-0.38621">
        <ele>46.9</ele>
        <time>2021-11-27T13:53:20Z</time>
      </trkpt>
      <trkpt lat="45.04825" lon="-0.38623">
        <ele>46.9</ele>
        <time>2021-11-27T13:53:22Z</time>
      </trkpt>
      <trkpt lat="45.04826" lon="-0.38625">
        <ele>46.9</ele>
        <time>2021-11-27T13:53:23Z</time>
      </trkpt>
      <trkpt lat="45.04826" lon="-0.38627">
        <ele>46.9</ele>
        <time>2021-11-27T13:53:24Z</time>
      </trkpt>
      <trkpt lat="45.04826" lon="-0.38631">
        <ele>46.9</ele>
        <time>2021-11-27T13:53:25Z</time>
      </trkpt>
      <trkpt lat="45.04826" lon="-0.38633">
        <ele>46.9</ele>
        <time>2021-11-27T13:53:27Z</time>
      </trkpt>
      <trkpt lat="45.04826" lon="-0.38635">
        <ele>46.9</ele>
        <time>2021-11-27T13:53:28Z</time>
      </trkpt>
      <trkpt lat="45.04826" lon="-0.38637">
        <ele>46.9</ele>
        <time>2021-11-27T13:53:29Z</time>
      </trkpt>
      <trkpt lat="45.04826" lon="-0.38639">
        <ele>46.8</ele>
        <time>2021-11-27T13:53:30Z</time>
      </trkpt>
      <trkpt lat="45.04826" lon="-0.3864">
        <ele>46.8</ele>
        <time>2021-11-27T13:53:31Z</time>
      </trkpt>
      <trkpt lat="45.04825" lon="-0.38641">
        <ele>46.8</ele>
        <time>2021-11-27T13:53:32Z</time>
      </trkpt>
      <trkpt lat="45.04824" lon="-0.38642">
        <ele>46.8</ele>
        <time>2021-11-27T13:53:33Z</time>
      </trkpt>
      <trkpt lat="45.04823" lon="-0.38642">
        <ele>46.7</ele>
        <time>2021-11-27T13:53:35Z</time>
      </trkpt>
      <trkpt lat="45.04823" lon="-0.38641">
        <ele>46.7</ele>
        <time>2021-11-27T13:53:37Z</time>
      </trkpt>
      <trkpt lat="45.04823" lon="-0.38642">
        <ele>46.7</ele>
        <time>2021-11-27T13:53:39Z</time>
      </trkpt>
      <trkpt lat="45.04824" lon="-0.38642">
        <ele>46.7</ele>
        <time>2021-11-27T13:53:41Z</time>
      </trkpt>
      <trkpt lat="45.04824" lon="-0.38642">
        <ele>46.7</ele>
        <time>2021-11-27T13:53:42Z</time>
      </trkpt>
      <trkpt lat="45.04824" lon="-0.38642">
        <ele>46.7</ele>
        <time>2021-11-27T13:53:43Z</time>
      </trkpt>
      <trkpt lat="45.04824" lon="-0.38642">
        <ele>46.7</ele>
        <time>2021-11-27T13:53:45Z</time>
      </trkpt>
      <trkpt lat="45.04824" lon="-0.38642">
        <ele>46.7</ele>
        <time>2021-11-27T13:53:46Z</time>
      </trkpt>
      <trkpt lat="45.04824" lon="-0.38642">
        <ele>46.7</ele>
        <time>2021-11-27T13:53:47Z</time>
      </trkpt>
      <trkpt lat="45.04824" lon="-0.38642">
        <ele>46.7</ele>
        <time>2021-11-27T13:53:48Z</time>
      </trkpt>
      <trkpt lat="45.04824" lon="-0.38641">
        <ele>46.6</ele>
        <time>2021-11-27T13:53:50Z</time>
      </trkpt>
      <trkpt lat="45.04821" lon="-0.38641">
        <ele>46.6</ele>
        <time>2021-11-27T13:53:52Z</time>
      </trkpt>
      <trkpt lat="45.04818" lon="-0.3864">
        <ele>46.5</ele>
        <time>2021-11-27T13:53:53Z</time>
      </trkpt>
      <trkpt lat="45.04814" lon="-0.3864">
        <ele>46.4</ele>
        <time>2021-11-27T13:53:55Z</time>
      </trkpt>
      <trkpt lat="45.04813" lon="-0.3864">
        <ele>46.4</ele>
        <time>2021-11-27T13:53:56Z</time>
      </trkpt>
      <trkpt lat="45.04809" lon="-0.3864">
        <ele>46.3</ele>
        <time>2021-11-27T13:53:58Z</time>
      </trkpt>
      <trkpt lat="45.04807" lon="-0.38639">
        <ele>46.3</ele>
        <time>2021-11-27T13:53:59Z</time>
      </trkpt>
      <trkpt lat="45.04805" lon="-0.38639">
        <ele>46.3</ele>
        <time>2021-11-27T13:54:01Z</time>
      </trkpt>
      <trkpt lat="45.04803" lon="-0.38639">
        <ele>46.2</ele>
        <time>2021-11-27T13:54:02Z</time>
      </trkpt>
      <trkpt lat="45.048" lon="-0.38638">
        <ele>46.2</ele>
        <time>2021-11-27T13:54:04Z</time>
      </trkpt>
      <trkpt lat="45.04799" lon="-0.38639">
        <ele>46.1</ele>
        <time>2021-11-27T13:54:05Z</time>
      </trkpt>
      <trkpt lat="45.04796" lon="-0.38639">
        <ele>46.1</ele>
        <time>2021-11-27T13:54:07Z</time>
      </trkpt>
      <trkpt lat="45.04793" lon="-0.38639">
        <ele>46</ele>
        <time>2021-11-27T13:54:09Z</time>
      </trkpt>
      <trkpt lat="45.04792" lon="-0.38639">
        <ele>46</ele>
        <time>2021-11-27T13:54:10Z</time>
      </trkpt>
      <trkpt lat="45.0479" lon="-0.38639">
        <ele>45.9</ele>
        <time>2021-11-27T13:54:11Z</time>
      </trkpt>
      <trkpt lat="45.04789" lon="-0.38639">
        <ele>45.9</ele>
        <time>2021-11-27T13:54:13Z</time>
      </trkpt>
      <trkpt lat="45.04788" lon="-0.38639">
        <ele>45.8</ele>
        <time>2021-11-27T13:54:14Z</time>
      </trkpt>
      <trkpt lat="45.04787" lon="-0.38639">
        <ele>45.8</ele>
        <time>2021-11-27T13:54:15Z</time>
      </trkpt>
      <trkpt lat="45.04785" lon="-0.38639">
        <ele>45.8</ele>
        <time>2021-11-27T13:54:17Z</time>
      </trkpt>
      <trkpt lat="45.04783" lon="-0.3864">
        <ele>45.7</ele>
        <time>2021-11-27T13:54:18Z</time>
      </trkpt>
      <trkpt lat="45.04781" lon="-0.3864">
        <ele>45.7</ele>
        <time>2021-11-27T13:54:19Z</time>
      </trkpt>
      <trkpt lat="45.0478" lon="-0.3864">
        <ele>45.6</ele>
        <time>2021-11-27T13:54:21Z</time>
      </trkpt>
      <trkpt lat="45.04778" lon="-0.3864">
        <ele>45.6</ele>
        <time>2021-11-27T13:54:22Z</time>
      </trkpt>
      <trkpt lat="45.04776" lon="-0.3864">
        <ele>45.5</ele>
        <time>2021-11-27T13:54:23Z</time>
      </trkpt>
      <trkpt lat="45.04775" lon="-0.38641">
        <ele>45.5</ele>
        <time>2021-11-27T13:54:25Z</time>
      </trkpt>
      <trkpt lat="45.04773" lon="-0.38641">
        <ele>45.5</ele>
        <time>2021-11-27T13:54:26Z</time>
      </trkpt>
      <trkpt lat="45.04772" lon="-0.38641">
        <ele>45.4</ele>
        <time>2021-11-27T13:54:27Z</time>
      </trkpt>
      <trkpt lat="45.0477" lon="-0.38641">
        <ele>45.4</ele>
        <time>2021-11-27T13:54:29Z</time>
      </trkpt>
      <trkpt lat="45.04769" lon="-0.38642">
        <ele>45.4</ele>
        <time>2021-11-27T13:54:30Z</time>
      </trkpt>
      <trkpt lat="45.04768" lon="-0.38642">
        <ele>45.3</ele>
        <time>2021-11-27T13:54:31Z</time>
      </trkpt>
      <trkpt lat="45.04766" lon="-0.38642">
        <ele>45.3</ele>
        <time>2021-11-27T13:54:33Z</time>
      </trkpt>
      <trkpt lat="45.04765" lon="-0.38642">
        <ele>45.3</ele>
        <time>2021-11-27T13:54:34Z</time>
      </trkpt>
      <trkpt lat="45.04763" lon="-0.38642">
        <ele>45.2</ele>
        <time>2021-11-27T13:54:35Z</time>
      </trkpt>
      <trkpt lat="45.04761" lon="-0.38643">
        <ele>45.2</ele>
        <time>2021-11-27T13:54:36Z</time>
      </trkpt>
      <trkpt lat="45.0476" lon="-0.38643">
        <ele>45.2</ele>
        <time>2021-11-27T13:54:37Z</time>
      </trkpt>
      <trkpt lat="45.04757" lon="-0.38644">
        <ele>45.1</ele>
        <time>2021-11-27T13:54:39Z</time>
      </trkpt>
      <trkpt lat="45.04756" lon="-0.38644">
        <ele>45.1</ele>
        <time>2021-11-27T13:54:40Z</time>
      </trkpt>
      <trkpt lat="45.04754" lon="-0.38644">
        <ele>45</ele>
        <time>2021-11-27T13:54:41Z</time>
      </trkpt>
      <trkpt lat="45.04752" lon="-0.38643">
        <ele>45</ele>
        <time>2021-11-27T13:54:43Z</time>
      </trkpt>
      <trkpt lat="45.0475" lon="-0.38643">
        <ele>44.9</ele>
        <time>2021-11-27T13:54:44Z</time>
      </trkpt>
      <trkpt lat="45.04749" lon="-0.38643">
        <ele>44.9</ele>
        <time>2021-11-27T13:54:45Z</time>
      </trkpt>
      <trkpt lat="45.04747" lon="-0.38642">
        <ele>44.9</ele>
        <time>2021-11-27T13:54:47Z</time>
      </trkpt>
      <trkpt lat="45.04746" lon="-0.38642">
        <ele>44.8</ele>
        <time>2021-11-27T13:54:48Z</time>
      </trkpt>
      <trkpt lat="45.04744" lon="-0.38641">
        <ele>44.8</ele>
        <time>2021-11-27T13:54:49Z</time>
      </trkpt>
      <trkpt lat="45.04743" lon="-0.38639">
        <ele>44.7</ele>
        <time>2021-11-27T13:54:51Z</time>
      </trkpt>
      <trkpt lat="45.04741" lon="-0.38638">
        <ele>44.7</ele>
        <time>2021-11-27T13:54:52Z</time>
      </trkpt>
      <trkpt lat="45.0474" lon="-0.38638">
        <ele>44.7</ele>
        <time>2021-11-27T13:54:53Z</time>
      </trkpt>
      <trkpt lat="45.0474" lon="-0.38637">
        <ele>44.6</ele>
        <time>2021-11-27T13:54:54Z</time>
      </trkpt>
      <trkpt lat="45.04742" lon="-0.38637">
        <ele>44.6</ele>
        <time>2021-11-27T13:54:56Z</time>
      </trkpt>
      <trkpt lat="45.04742" lon="-0.38638">
        <ele>44.6</ele>
        <time>2021-11-27T13:54:58Z</time>
      </trkpt>
      <trkpt lat="45.04741" lon="-0.38638">
        <ele>44.6</ele>
        <time>2021-11-27T13:55:00Z</time>
      </trkpt>
      <trkpt lat="45.04739" lon="-0.38636">
        <ele>44.5</ele>
        <time>2021-11-27T13:55:01Z</time>
      </trkpt>
      <trkpt lat="45.04738" lon="-0.38635">
        <ele>44.5</ele>
        <time>2021-11-27T13:55:03Z</time>
      </trkpt>
      <trkpt lat="45.04737" lon="-0.38631">
        <ele>44.4</ele>
        <time>2021-11-27T13:55:04Z</time>
      </trkpt>
      <trkpt lat="45.04736" lon="-0.38629">
        <ele>44.3</ele>
        <time>2021-11-27T13:55:05Z</time>
      </trkpt>
      <trkpt lat="45.04736" lon="-0.38627">
        <ele>44.3</ele>
        <time>2021-11-27T13:55:06Z</time>
      </trkpt>
      <trkpt lat="45.04736" lon="-0.38623">
        <ele>44.2</ele>
        <time>2021-11-27T13:55:08Z</time>
      </trkpt>
      <trkpt lat="45.04735" lon="-0.3862">
        <ele>44.2</ele>
        <time>2021-11-27T13:55:09Z</time>
      </trkpt>
      <trkpt lat="45.04735" lon="-0.38617">
        <ele>44.1</ele>
        <time>2021-11-27T13:55:11Z</time>
      </trkpt>
      <trkpt lat="45.04735" lon="-0.38614">
        <ele>44.1</ele>
        <time>2021-11-27T13:55:12Z</time>
      </trkpt>
      <trkpt lat="45.04735" lon="-0.38612">
        <ele>44.1</ele>
        <time>2021-11-27T13:55:13Z</time>
      </trkpt>
      <trkpt lat="45.04734" lon="-0.38608">
        <ele>44</ele>
        <time>2021-11-27T13:55:15Z</time>
      </trkpt>
      <trkpt lat="45.04733" lon="-0.38607">
        <ele>44</ele>
        <time>2021-11-27T13:55:16Z</time>
      </trkpt>
      <trkpt lat="45.04733" lon="-0.38605">
        <ele>44</ele>
        <time>2021-11-27T13:55:17Z</time>
      </trkpt>
      <trkpt lat="45.04732" lon="-0.38602">
        <ele>44</ele>
        <time>2021-11-27T13:55:19Z</time>
      </trkpt>
      <trkpt lat="45.04732" lon="-0.386">
        <ele>43.9</ele>
        <time>2021-11-27T13:55:20Z</time>
      </trkpt>
      <trkpt lat="45.04732" lon="-0.38599">
        <ele>43.9</ele>
        <time>2021-11-27T13:55:21Z</time>
      </trkpt>
      <trkpt lat="45.04732" lon="-0.38597">
        <ele>43.9</ele>
        <time>2021-11-27T13:55:23Z</time>
      </trkpt>
      <trkpt lat="45.04731" lon="-0.38594">
        <ele>43.9</ele>
        <time>2021-11-27T13:55:24Z</time>
      </trkpt>
      <trkpt lat="45.04731" lon="-0.38593">
        <ele>43.9</ele>
        <time>2021-11-27T13:55:25Z</time>
      </trkpt>
      <trkpt lat="45.04731" lon="-0.38591">
        <ele>43.9</ele>
        <time>2021-11-27T13:55:26Z</time>
      </trkpt>
      <trkpt lat="45.0473" lon="-0.38586">
        <ele>43.8</ele>
        <time>2021-11-27T13:55:28Z</time>
      </trkpt>
      <trkpt lat="45.0473" lon="-0.38585">
        <ele>43.8</ele>
        <time>2021-11-27T13:55:29Z</time>
      </trkpt>
      <trkpt lat="45.0473" lon="-0.38582">
        <ele>43.8</ele>
        <time>2021-11-27T13:55:31Z</time>
      </trkpt>
      <trkpt lat="45.04729" lon="-0.38581">
        <ele>43.8</ele>
        <time>2021-11-27T13:55:32Z</time>
      </trkpt>
      <trkpt lat="45.04729" lon="-0.38579">
        <ele>43.8</ele>
        <time>2021-11-27T13:55:33Z</time>
      </trkpt>
      <trkpt lat="45.04728" lon="-0.38577">
        <ele>43.8</ele>
        <time>2021-11-27T13:55:35Z</time>
      </trkpt>
      <trkpt lat="45.04728" lon="-0.38575">
        <ele>43.7</ele>
        <time>2021-11-27T13:55:36Z</time>
      </trkpt>
      <trkpt lat="45.04728" lon="-0.38572">
        <ele>43.7</ele>
        <time>2021-11-27T13:55:37Z</time>
      </trkpt>
      <trkpt lat="45.04726" lon="-0.38569">
        <ele>43.7</ele>
        <time>2021-11-27T13:55:38Z</time>
      </trkpt>
      <trkpt lat="45.04726" lon="-0.38567">
        <ele>43.7</ele>
        <time>2021-11-27T13:55:40Z</time>
      </trkpt>
      <trkpt lat="45.04725" lon="-0.38565">
        <ele>43.7</ele>
        <time>2021-11-27T13:55:41Z</time>
      </trkpt>
      <trkpt lat="45.04725" lon="-0.38563">
        <ele>43.7</ele>
        <time>2021-11-27T13:55:42Z</time>
      </trkpt>
      <trkpt lat="45.04724" lon="-0.38561">
        <ele>43.7</ele>
        <time>2021-11-27T13:55:44Z</time>
      </trkpt>
      <trkpt lat="45.04724" lon="-0.3856">
        <ele>43.7</ele>
        <time>2021-11-27T13:55:45Z</time>
      </trkpt>
      <trkpt lat="45.04722" lon="-0.3856">
        <ele>43.7</ele>
        <time>2021-11-27T13:55:46Z</time>
      </trkpt>
      <trkpt lat="45.0472" lon="-0.38559">
        <ele>43.7</ele>
        <time>2021-11-27T13:55:47Z</time>
      </trkpt>
      <trkpt lat="45.04719" lon="-0.38559">
        <ele>43.7</ele>
        <time>2021-11-27T13:55:48Z</time>
      </trkpt>
      <trkpt lat="45.04718" lon="-0.3856">
        <ele>42.9</ele>
        <time>2021-11-27T13:55:49Z</time>
      </trkpt>
      <trkpt lat="45.04717" lon="-0.3856">
        <ele>42.9</ele>
        <time>2021-11-27T13:55:50Z</time>
      </trkpt>
      <trkpt lat="45.04715" lon="-0.38562">
        <ele>43</ele>
        <time>2021-11-27T13:55:51Z</time>
      </trkpt>
      <trkpt lat="45.04715" lon="-0.38562">
        <ele>43</ele>
        <time>2021-11-27T13:55:52Z</time>
      </trkpt>
      <trkpt lat="45.04716" lon="-0.38563">
        <ele>43</ele>
        <time>2021-11-27T13:55:54Z</time>
      </trkpt>
      <trkpt lat="45.04716" lon="-0.38561">
        <ele>43</ele>
        <time>2021-11-27T13:55:55Z</time>
      </trkpt>
      <trkpt lat="45.04717" lon="-0.38559">
        <ele>43.1</ele>
        <time>2021-11-27T13:55:56Z</time>
      </trkpt>
      <trkpt lat="45.04718" lon="-0.38557">
        <ele>43.1</ele>
        <time>2021-11-27T13:55:57Z</time>
      </trkpt>
      <trkpt lat="45.04721" lon="-0.38553">
        <ele>43.2</ele>
        <time>2021-11-27T13:55:59Z</time>
      </trkpt>
      <trkpt lat="45.04721" lon="-0.38552">
        <ele>43.2</ele>
        <time>2021-11-27T13:56:00Z</time>
      </trkpt>
      <trkpt lat="45.04723" lon="-0.38548">
        <ele>43.2</ele>
        <time>2021-11-27T13:56:02Z</time>
      </trkpt>
      <trkpt lat="45.04724" lon="-0.38547">
        <ele>43.3</ele>
        <time>2021-11-27T13:56:03Z</time>
      </trkpt>
      <trkpt lat="45.04726" lon="-0.38543">
        <ele>43.3</ele>
        <time>2021-11-27T13:56:05Z</time>
      </trkpt>
      <trkpt lat="45.04727" lon="-0.38542">
        <ele>43.3</ele>
        <time>2021-11-27T13:56:06Z</time>
      </trkpt>
      <trkpt lat="45.04728" lon="-0.3854">
        <ele>43.4</ele>
        <time>2021-11-27T13:56:08Z</time>
      </trkpt>
      <trkpt lat="45.0473" lon="-0.38537">
        <ele>43.4</ele>
        <time>2021-11-27T13:56:10Z</time>
      </trkpt>
      <trkpt lat="45.04731" lon="-0.38535">
        <ele>43.5</ele>
        <time>2021-11-27T13:56:11Z</time>
      </trkpt>
      <trkpt lat="45.04732" lon="-0.38533">
        <ele>43.5</ele>
        <time>2021-11-27T13:56:12Z</time>
      </trkpt>
      <trkpt lat="45.04734" lon="-0.3853">
        <ele>43.6</ele>
        <time>2021-11-27T13:56:14Z</time>
      </trkpt>
      <trkpt lat="45.04735" lon="-0.38529">
        <ele>43.6</ele>
        <time>2021-11-27T13:56:15Z</time>
      </trkpt>
      <trkpt lat="45.04737" lon="-0.38525">
        <ele>43.7</ele>
        <time>2021-11-27T13:56:17Z</time>
      </trkpt>
      <trkpt lat="45.04737" lon="-0.38524">
        <ele>43.7</ele>
        <time>2021-11-27T13:56:18Z</time>
      </trkpt>
      <trkpt lat="45.04738" lon="-0.3852">
        <ele>43.7</ele>
        <time>2021-11-27T13:56:20Z</time>
      </trkpt>
      <trkpt lat="45.04739" lon="-0.38519">
        <ele>43.7</ele>
        <time>2021-11-27T13:56:21Z</time>
      </trkpt>
      <trkpt lat="45.0474" lon="-0.38517">
        <ele>43.8</ele>
        <time>2021-11-27T13:56:22Z</time>
      </trkpt>
      <trkpt lat="45.04741" lon="-0.38515">
        <ele>43.8</ele>
        <time>2021-11-27T13:56:24Z</time>
      </trkpt>
      <trkpt lat="45.04742" lon="-0.38512">
        <ele>43.9</ele>
        <time>2021-11-27T13:56:25Z</time>
      </trkpt>
      <trkpt lat="45.04744" lon="-0.38511">
        <ele>43.9</ele>
        <time>2021-11-27T13:56:27Z</time>
      </trkpt>
      <trkpt lat="45.04746" lon="-0.38508">
        <ele>43.9</ele>
        <time>2021-11-27T13:56:28Z</time>
      </trkpt>
      <trkpt lat="45.04747" lon="-0.38507">
        <ele>44</ele>
        <time>2021-11-27T13:56:29Z</time>
      </trkpt>
      <trkpt lat="45.04748" lon="-0.38505">
        <ele>44</ele>
        <time>2021-11-27T13:56:31Z</time>
      </trkpt>
      <trkpt lat="45.04749" lon="-0.38503">
        <ele>44.1</ele>
        <time>2021-11-27T13:56:32Z</time>
      </trkpt>
      <trkpt lat="45.04751" lon="-0.385">
        <ele>44.1</ele>
        <time>2021-11-27T13:56:34Z</time>
      </trkpt>
      <trkpt lat="45.04752" lon="-0.38499">
        <ele>44.2</ele>
        <time>2021-11-27T13:56:35Z</time>
      </trkpt>
      <trkpt lat="45.04753" lon="-0.38498">
        <ele>44.2</ele>
        <time>2021-11-27T13:56:36Z</time>
      </trkpt>
      <trkpt lat="45.04755" lon="-0.38496">
        <ele>44.3</ele>
        <time>2021-11-27T13:56:38Z</time>
      </trkpt>
      <trkpt lat="45.04757" lon="-0.38492">
        <ele>44.3</ele>
        <time>2021-11-27T13:56:39Z</time>
      </trkpt>
      <trkpt lat="45.04758" lon="-0.38489">
        <ele>44.4</ele>
        <time>2021-11-27T13:56:41Z</time>
      </trkpt>
      <trkpt lat="45.04759" lon="-0.38487">
        <ele>44.4</ele>
        <time>2021-11-27T13:56:42Z</time>
      </trkpt>
      <trkpt lat="45.04759" lon="-0.38482">
        <ele>44.5</ele>
        <time>2021-11-27T13:56:44Z</time>
      </trkpt>
      <trkpt lat="45.04759" lon="-0.38481">
        <ele>44.5</ele>
        <time>2021-11-27T13:56:45Z</time>
      </trkpt>
      <trkpt lat="45.0476" lon="-0.38476">
        <ele>44.6</ele>
        <time>2021-11-27T13:56:47Z</time>
      </trkpt>
      <trkpt lat="45.04761" lon="-0.38475">
        <ele>44.6</ele>
        <time>2021-11-27T13:56:48Z</time>
      </trkpt>
      <trkpt lat="45.04761" lon="-0.38473">
        <ele>44.7</ele>
        <time>2021-11-27T13:56:50Z</time>
      </trkpt>
      <trkpt lat="45.04762" lon="-0.3847">
        <ele>44.7</ele>
        <time>2021-11-27T13:56:51Z</time>
      </trkpt>
      <trkpt lat="45.04763" lon="-0.38469">
        <ele>44.7</ele>
        <time>2021-11-27T13:56:52Z</time>
      </trkpt>
      <trkpt lat="45.04763" lon="-0.38468">
        <ele>44.8</ele>
        <time>2021-11-27T13:56:53Z</time>
      </trkpt>
      <trkpt lat="45.04764" lon="-0.38465">
        <ele>44.8</ele>
        <time>2021-11-27T13:56:55Z</time>
      </trkpt>
      <trkpt lat="45.04765" lon="-0.38462">
        <ele>44.8</ele>
        <time>2021-11-27T13:56:56Z</time>
      </trkpt>
      <trkpt lat="45.04766" lon="-0.38461">
        <ele>44.9</ele>
        <time>2021-11-27T13:56:58Z</time>
      </trkpt>
      <trkpt lat="45.04766" lon="-0.3846">
        <ele>44.9</ele>
        <time>2021-11-27T13:56:59Z</time>
      </trkpt>
      <trkpt lat="45.04768" lon="-0.38457">
        <ele>45</ele>
        <time>2021-11-27T13:57:01Z</time>
      </trkpt>
      <trkpt lat="45.0477" lon="-0.38454">
        <ele>45</ele>
        <time>2021-11-27T13:57:03Z</time>
      </trkpt>
      <trkpt lat="45.04771" lon="-0.38451">
        <ele>45.1</ele>
        <time>2021-11-27T13:57:05Z</time>
      </trkpt>
      <trkpt lat="45.04772" lon="-0.38449">
        <ele>45.1</ele>
        <time>2021-11-27T13:57:06Z</time>
      </trkpt>
      <trkpt lat="45.04772" lon="-0.38448">
        <ele>45.1</ele>
        <time>2021-11-27T13:57:07Z</time>
      </trkpt>
      <trkpt lat="45.04774" lon="-0.38444">
        <ele>45.2</ele>
        <time>2021-11-27T13:57:09Z</time>
      </trkpt>
      <trkpt lat="45.04775" lon="-0.38442">
        <ele>45.2</ele>
        <time>2021-11-27T13:57:10Z</time>
      </trkpt>
      <trkpt lat="45.04775" lon="-0.3844">
        <ele>45.2</ele>
        <time>2021-11-27T13:57:11Z</time>
      </trkpt>
      <trkpt lat="45.04776" lon="-0.38438">
        <ele>45.3</ele>
        <time>2021-11-27T13:57:12Z</time>
      </trkpt>
      <trkpt lat="45.04777" lon="-0.38434">
        <ele>45.3</ele>
        <time>2021-11-27T13:57:14Z</time>
      </trkpt>
      <trkpt lat="45.04778" lon="-0.38433">
        <ele>45.3</ele>
        <time>2021-11-27T13:57:15Z</time>
      </trkpt>
      <trkpt lat="45.04779" lon="-0.38431">
        <ele>45.4</ele>
        <time>2021-11-27T13:57:17Z</time>
      </trkpt>
      <trkpt lat="45.0478" lon="-0.38429">
        <ele>45.4</ele>
        <time>2021-11-27T13:57:18Z</time>
      </trkpt>
      <trkpt lat="45.04781" lon="-0.38427">
        <ele>45.4</ele>
        <time>2021-11-27T13:57:19Z</time>
      </trkpt>
      <trkpt lat="45.04782" lon="-0.38425">
        <ele>45.5</ele>
        <time>2021-11-27T13:57:20Z</time>
      </trkpt>
      <trkpt lat="45.04783" lon="-0.38424">
        <ele>45.5</ele>
        <time>2021-11-27T13:57:21Z</time>
      </trkpt>
      <trkpt lat="45.04785" lon="-0.38422">
        <ele>45.5</ele>
        <time>2021-11-27T13:57:23Z</time>
      </trkpt>
      <trkpt lat="45.04786" lon="-0.38421">
        <ele>45.5</ele>
        <time>2021-11-27T13:57:24Z</time>
      </trkpt>
      <trkpt lat="45.04787" lon="-0.38419">
        <ele>45.6</ele>
        <time>2021-11-27T13:57:26Z</time>
      </trkpt>
      <trkpt lat="45.04788" lon="-0.38417">
        <ele>45.6</ele>
        <time>2021-11-27T13:57:27Z</time>
      </trkpt>
      <trkpt lat="45.0479" lon="-0.38415">
        <ele>45.6</ele>
        <time>2021-11-27T13:57:29Z</time>
      </trkpt>
      <trkpt lat="45.04791" lon="-0.38413">
        <ele>45.6</ele>
        <time>2021-11-27T13:57:30Z</time>
      </trkpt>
      <trkpt lat="45.04791" lon="-0.38412">
        <ele>45.7</ele>
        <time>2021-11-27T13:57:31Z</time>
      </trkpt>
      <trkpt lat="45.04792" lon="-0.38409">
        <ele>45.7</ele>
        <time>2021-11-27T13:57:33Z</time>
      </trkpt>
      <trkpt lat="45.04792" lon="-0.38406">
        <ele>45.7</ele>
        <time>2021-11-27T13:57:34Z</time>
      </trkpt>
      <trkpt lat="45.04792" lon="-0.38403">
        <ele>45.8</ele>
        <time>2021-11-27T13:57:36Z</time>
      </trkpt>
      <trkpt lat="45.04791" lon="-0.384">
        <ele>45.8</ele>
        <time>2021-11-27T13:57:37Z</time>
      </trkpt>
      <trkpt lat="45.0479" lon="-0.38399">
        <ele>45.7</ele>
        <time>2021-11-27T13:57:38Z</time>
      </trkpt>
      <trkpt lat="45.04789" lon="-0.38398">
        <ele>45.7</ele>
        <time>2021-11-27T13:57:39Z</time>
      </trkpt>
      <trkpt lat="45.04788" lon="-0.38398">
        <ele>45.7</ele>
        <time>2021-11-27T13:57:40Z</time>
      </trkpt>
      <trkpt lat="45.04784" lon="-0.38399">
        <ele>45.5</ele>
        <time>2021-11-27T13:57:42Z</time>
      </trkpt>
      <trkpt lat="45.04782" lon="-0.384">
        <ele>45.5</ele>
        <time>2021-11-27T13:57:43Z</time>
      </trkpt>
      <trkpt lat="45.04781" lon="-0.384">
        <ele>45.3</ele>
        <time>2021-11-27T13:57:44Z</time>
      </trkpt>
      <trkpt lat="45.04778" lon="-0.38401">
        <ele>45.2</ele>
        <time>2021-11-27T13:57:46Z</time>
      </trkpt>
      <trkpt lat="45.04777" lon="-0.38402">
        <ele>45.2</ele>
        <time>2021-11-27T13:57:47Z</time>
      </trkpt>
      <trkpt lat="45.04776" lon="-0.38402">
        <ele>45.2</ele>
        <time>2021-11-27T13:57:48Z</time>
      </trkpt>
      <trkpt lat="45.04774" lon="-0.38402">
        <ele>45</ele>
        <time>2021-11-27T13:57:50Z</time>
      </trkpt>
      <trkpt lat="45.04772" lon="-0.38402">
        <ele>45</ele>
        <time>2021-11-27T13:57:51Z</time>
      </trkpt>
      <trkpt lat="45.04771" lon="-0.38402">
        <ele>44.9</ele>
        <time>2021-11-27T13:57:52Z</time>
      </trkpt>
      <trkpt lat="45.04771" lon="-0.38401">
        <ele>45</ele>
        <time>2021-11-27T13:57:54Z</time>
      </trkpt>
      <trkpt lat="45.04769" lon="-0.38401">
        <ele>44.9</ele>
        <time>2021-11-27T13:57:55Z</time>
      </trkpt>
      <trkpt lat="45.04766" lon="-0.38401">
        <ele>44.7</ele>
        <time>2021-11-27T13:57:57Z</time>
      </trkpt>
      <trkpt lat="45.04765" lon="-0.38402">
        <ele>44.7</ele>
        <time>2021-11-27T13:57:58Z</time>
      </trkpt>
      <trkpt lat="45.04763" lon="-0.38402">
        <ele>44.6</ele>
        <time>2021-11-27T13:57:59Z</time>
      </trkpt>
      <trkpt lat="45.04761" lon="-0.38404">
        <ele>44.6</ele>
        <time>2021-11-27T13:58:01Z</time>
      </trkpt>
      <trkpt lat="45.0476" lon="-0.38405">
        <ele>44.5</ele>
        <time>2021-11-27T13:58:02Z</time>
      </trkpt>
      <trkpt lat="45.04758" lon="-0.38406">
        <ele>44.4</ele>
        <time>2021-11-27T13:58:03Z</time>
      </trkpt>
      <trkpt lat="45.04757" lon="-0.38406">
        <ele>44.3</ele>
        <time>2021-11-27T13:58:04Z</time>
      </trkpt>
      <trkpt lat="45.04756" lon="-0.38407">
        <ele>44.3</ele>
        <time>2021-11-27T13:58:05Z</time>
      </trkpt>
      <trkpt lat="45.04755" lon="-0.38407">
        <ele>44.3</ele>
        <time>2021-11-27T13:58:06Z</time>
      </trkpt>
      <trkpt lat="45.04753" lon="-0.38407">
        <ele>44.2</ele>
        <time>2021-11-27T13:58:07Z</time>
      </trkpt>
      <trkpt lat="45.04752" lon="-0.38408">
        <ele>44.2</ele>
        <time>2021-11-27T13:58:09Z</time>
      </trkpt>
      <trkpt lat="45.0475" lon="-0.38409">
        <ele>44</ele>
        <time>2021-11-27T13:58:10Z</time>
      </trkpt>
      <trkpt lat="45.04749" lon="-0.3841">
        <ele>44</ele>
        <time>2021-11-27T13:58:11Z</time>
      </trkpt>
      <trkpt lat="45.04748" lon="-0.3841">
        <ele>44</ele>
        <time>2021-11-27T13:58:12Z</time>
      </trkpt>
      <trkpt lat="45.04748" lon="-0.3841">
        <ele>43.9</ele>
        <time>2021-11-27T13:58:14Z</time>
      </trkpt>
      <trkpt lat="45.04747" lon="-0.38411">
        <ele>43.9</ele>
        <time>2021-11-27T13:58:15Z</time>
      </trkpt>
      <trkpt lat="45.04747" lon="-0.38411">
        <ele>43.9</ele>
        <time>2021-11-27T13:58:16Z</time>
      </trkpt>
      <trkpt lat="45.04746" lon="-0.38411">
        <ele>43.9</ele>
        <time>2021-11-27T13:58:18Z</time>
      </trkpt>
      <trkpt lat="45.04746" lon="-0.38411">
        <ele>43.9</ele>
        <time>2021-11-27T13:58:20Z</time>
      </trkpt>
      <trkpt lat="45.04745" lon="-0.38411">
        <ele>43.8</ele>
        <time>2021-11-27T13:58:21Z</time>
      </trkpt>
      <trkpt lat="45.04745" lon="-0.38412">
        <ele>43.8</ele>
        <time>2021-11-27T13:58:23Z</time>
      </trkpt>
      <trkpt lat="45.04744" lon="-0.38412">
        <ele>43.7</ele>
        <time>2021-11-27T13:58:24Z</time>
      </trkpt>
      <trkpt lat="45.04744" lon="-0.38412">
        <ele>43.7</ele>
        <time>2021-11-27T13:58:25Z</time>
      </trkpt>
      <trkpt lat="45.0474" lon="-0.38414">
        <ele>43.6</ele>
        <time>2021-11-27T13:58:27Z</time>
      </trkpt>
      <trkpt lat="45.04739" lon="-0.38414">
        <ele>43.5</ele>
        <time>2021-11-27T13:58:28Z</time>
      </trkpt>
      <trkpt lat="45.04737" lon="-0.38415">
        <ele>43.5</ele>
        <time>2021-11-27T13:58:29Z</time>
      </trkpt>
      <trkpt lat="45.04736" lon="-0.38415">
        <ele>43.4</ele>
        <time>2021-11-27T13:58:30Z</time>
      </trkpt>
      <trkpt lat="45.04735" lon="-0.38415">
        <ele>43.4</ele>
        <time>2021-11-27T13:58:31Z</time>
      </trkpt>
      <trkpt lat="45.04733" lon="-0.38415">
        <ele>43.4</ele>
        <time>2021-11-27T13:58:32Z</time>
      </trkpt>
      <trkpt lat="45.04729" lon="-0.38417">
        <ele>43.3</ele>
        <time>2021-11-27T13:58:34Z</time>
      </trkpt>
      <trkpt lat="45.04728" lon="-0.38418">
        <ele>43.3</ele>
        <time>2021-11-27T13:58:35Z</time>
      </trkpt>
      <trkpt lat="45.04727" lon="-0.38419">
        <ele>43.1</ele>
        <time>2021-11-27T13:58:37Z</time>
      </trkpt>
      <trkpt lat="45.04725" lon="-0.3842">
        <ele>43.1</ele>
        <time>2021-11-27T13:58:38Z</time>
      </trkpt>
      <trkpt lat="45.04724" lon="-0.38421">
        <ele>43.1</ele>
        <time>2021-11-27T13:58:39Z</time>
      </trkpt>
      <trkpt lat="45.04722" lon="-0.38422">
        <ele>43.1</ele>
        <time>2021-11-27T13:58:40Z</time>
      </trkpt>
      <trkpt lat="45.04722" lon="-0.38422">
        <ele>43</ele>
        <time>2021-11-27T13:58:42Z</time>
      </trkpt>
      <trkpt lat="45.04721" lon="-0.38423">
        <ele>42.9</ele>
        <time>2021-11-27T13:58:43Z</time>
      </trkpt>
      <trkpt lat="45.04719" lon="-0.38423">
        <ele>42.9</ele>
        <time>2021-11-27T13:58:44Z</time>
      </trkpt>
      <trkpt lat="45.04718" lon="-0.38424">
        <ele>42.9</ele>
        <time>2021-11-27T13:58:45Z</time>
      </trkpt>
      <trkpt lat="45.04716" lon="-0.38425">
        <ele>42.9</ele>
        <time>2021-11-27T13:58:46Z</time>
      </trkpt>
      <trkpt lat="45.04715" lon="-0.38426">
        <ele>42.8</ele>
        <time>2021-11-27T13:58:47Z</time>
      </trkpt>
      <trkpt lat="45.04712" lon="-0.38428">
        <ele>42.8</ele>
        <time>2021-11-27T13:58:48Z</time>
      </trkpt>
      <trkpt lat="45.04711" lon="-0.38428">
        <ele>42.7</ele>
        <time>2021-11-27T13:58:50Z</time>
      </trkpt>
      <trkpt lat="45.04709" lon="-0.38429">
        <ele>42.7</ele>
        <time>2021-11-27T13:58:51Z</time>
      </trkpt>
      <trkpt lat="45.04708" lon="-0.3843">
        <ele>42.7</ele>
        <time>2021-11-27T13:58:52Z</time>
      </trkpt>
      <trkpt lat="45.04706" lon="-0.38431">
        <ele>42.7</ele>
        <time>2021-11-27T13:58:54Z</time>
      </trkpt>
      <trkpt lat="45.04704" lon="-0.38432">
        <ele>42.7</ele>
        <time>2021-11-27T13:58:55Z</time>
      </trkpt>
      <trkpt lat="45.04703" lon="-0.38432">
        <ele>42.6</ele>
        <time>2021-11-27T13:58:56Z</time>
      </trkpt>
      <trkpt lat="45.04702" lon="-0.38433">
        <ele>42.6</ele>
        <time>2021-11-27T13:58:57Z</time>
      </trkpt>
      <trkpt lat="45.047" lon="-0.38435">
        <ele>42.6</ele>
        <time>2021-11-27T13:58:59Z</time>
      </trkpt>
      <trkpt lat="45.04699" lon="-0.38437">
        <ele>42.6</ele>
        <time>2021-11-27T13:59:01Z</time>
      </trkpt>
      <trkpt lat="45.04696" lon="-0.38439">
        <ele>42.6</ele>
        <time>2021-11-27T13:59:02Z</time>
      </trkpt>
      <trkpt lat="45.04696" lon="-0.38439">
        <ele>42.5</ele>
        <time>2021-11-27T13:59:03Z</time>
      </trkpt>
      <trkpt lat="45.04694" lon="-0.3844">
        <ele>42.5</ele>
        <time>2021-11-27T13:59:05Z</time>
      </trkpt>
      <trkpt lat="45.04692" lon="-0.38441">
        <ele>42.5</ele>
        <time>2021-11-27T13:59:06Z</time>
      </trkpt>
      <trkpt lat="45.04691" lon="-0.38442">
        <ele>42.5</ele>
        <time>2021-11-27T13:59:07Z</time>
      </trkpt>
      <trkpt lat="45.0469" lon="-0.38443">
        <ele>42.5</ele>
        <time>2021-11-27T13:59:09Z</time>
      </trkpt>
      <trkpt lat="45.04689" lon="-0.38444">
        <ele>42.5</ele>
        <time>2021-11-27T13:59:10Z</time>
      </trkpt>
      <trkpt lat="45.04688" lon="-0.38445">
        <ele>42.5</ele>
        <time>2021-11-27T13:59:12Z</time>
      </trkpt>
      <trkpt lat="45.04686" lon="-0.38446">
        <ele>42.5</ele>
        <time>2021-11-27T13:59:13Z</time>
      </trkpt>
      <trkpt lat="45.04684" lon="-0.38447">
        <ele>42.5</ele>
        <time>2021-11-27T13:59:15Z</time>
      </trkpt>
      <trkpt lat="45.04682" lon="-0.38449">
        <ele>42.5</ele>
        <time>2021-11-27T13:59:17Z</time>
      </trkpt>
      <trkpt lat="45.04679" lon="-0.38451">
        <ele>42.5</ele>
        <time>2021-11-27T13:59:18Z</time>
      </trkpt>
      <trkpt lat="45.04678" lon="-0.38452">
        <ele>42.5</ele>
        <time>2021-11-27T13:59:19Z</time>
      </trkpt>
      <trkpt lat="45.04675" lon="-0.38453">
        <ele>42.5</ele>
        <time>2021-11-27T13:59:21Z</time>
      </trkpt>
      <trkpt lat="45.04674" lon="-0.38454">
        <ele>42.5</ele>
        <time>2021-11-27T13:59:22Z</time>
      </trkpt>
      <trkpt lat="45.04672" lon="-0.38455">
        <ele>42.5</ele>
        <time>2021-11-27T13:59:23Z</time>
      </trkpt>
      <trkpt lat="45.04671" lon="-0.38457">
        <ele>42.5</ele>
        <time>2021-11-27T13:59:25Z</time>
      </trkpt>
      <trkpt lat="45.04669" lon="-0.38458">
        <ele>42.5</ele>
        <time>2021-11-27T13:59:26Z</time>
      </trkpt>
      <trkpt lat="45.04668" lon="-0.38459">
        <ele>42.5</ele>
        <time>2021-11-27T13:59:27Z</time>
      </trkpt>
      <trkpt lat="45.04667" lon="-0.38459">
        <ele>42.5</ele>
        <time>2021-11-27T13:59:29Z</time>
      </trkpt>
      <trkpt lat="45.04666" lon="-0.3846">
        <ele>42.5</ele>
        <time>2021-11-27T13:59:30Z</time>
      </trkpt>
      <trkpt lat="45.04664" lon="-0.38462">
        <ele>42.5</ele>
        <time>2021-11-27T13:59:31Z</time>
      </trkpt>
      <trkpt lat="45.04664" lon="-0.38463">
        <ele>42.5</ele>
        <time>2021-11-27T13:59:32Z</time>
      </trkpt>
      <trkpt lat="45.04663" lon="-0.38464">
        <ele>42.5</ele>
        <time>2021-11-27T13:59:33Z</time>
      </trkpt>
      <trkpt lat="45.04662" lon="-0.38466">
        <ele>42.5</ele>
        <time>2021-11-27T13:59:35Z</time>
      </trkpt>
      <trkpt lat="45.04661" lon="-0.38466">
        <ele>42.5</ele>
        <time>2021-11-27T13:59:36Z</time>
      </trkpt>
      <trkpt lat="45.04659" lon="-0.38467">
        <ele>42.5</ele>
        <time>2021-11-27T13:59:38Z</time>
      </trkpt>
      <trkpt lat="45.04658" lon="-0.38468">
        <ele>42.5</ele>
        <time>2021-11-27T13:59:39Z</time>
      </trkpt>
      <trkpt lat="45.04656" lon="-0.38468">
        <ele>42.5</ele>
        <time>2021-11-27T13:59:40Z</time>
      </trkpt>
      <trkpt lat="45.04653" lon="-0.3847">
        <ele>42.5</ele>
        <time>2021-11-27T13:59:42Z</time>
      </trkpt>
      <trkpt lat="45.04652" lon="-0.3847">
        <ele>42.5</ele>
        <time>2021-11-27T13:59:43Z</time>
      </trkpt>
      <trkpt lat="45.04649" lon="-0.38472">
        <ele>42.4</ele>
        <time>2021-11-27T13:59:45Z</time>
      </trkpt>
      <trkpt lat="45.04648" lon="-0.38472">
        <ele>42.4</ele>
        <time>2021-11-27T13:59:46Z</time>
      </trkpt>
      <trkpt lat="45.04647" lon="-0.38473">
        <ele>42.4</ele>
        <time>2021-11-27T13:59:47Z</time>
      </trkpt>
      <trkpt lat="45.04646" lon="-0.38475">
        <ele>42.4</ele>
        <time>2021-11-27T13:59:49Z</time>
      </trkpt>
      <trkpt lat="45.04644" lon="-0.38475">
        <ele>42.3</ele>
        <time>2021-11-27T13:59:50Z</time>
      </trkpt>
      <trkpt lat="45.04643" lon="-0.38475">
        <ele>42.3</ele>
        <time>2021-11-27T13:59:51Z</time>
      </trkpt>
      <trkpt lat="45.04641" lon="-0.38476">
        <ele>42.3</ele>
        <time>2021-11-27T13:59:53Z</time>
      </trkpt>
      <trkpt lat="45.04639" lon="-0.38478">
        <ele>42.3</ele>
        <time>2021-11-27T13:59:54Z</time>
      </trkpt>
      <trkpt lat="45.04639" lon="-0.38478">
        <ele>42.2</ele>
        <time>2021-11-27T13:59:55Z</time>
      </trkpt>
      <trkpt lat="45.04639" lon="-0.38478">
        <ele>42.2</ele>
        <time>2021-11-27T13:59:57Z</time>
      </trkpt>
      <trkpt lat="45.04638" lon="-0.38478">
        <ele>42.2</ele>
        <time>2021-11-27T13:59:59Z</time>
      </trkpt>
      <trkpt lat="45.04638" lon="-0.38478">
        <ele>42.2</ele>
        <time>2021-11-27T14:00:00Z</time>
      </trkpt>
      <trkpt lat="45.04638" lon="-0.38479">
        <ele>42.2</ele>
        <time>2021-11-27T14:00:02Z</time>
      </trkpt>
      <trkpt lat="45.04637" lon="-0.38479">
        <ele>42.2</ele>
        <time>2021-11-27T14:00:03Z</time>
      </trkpt>
      <trkpt lat="45.04637" lon="-0.38479">
        <ele>42.2</ele>
        <time>2021-11-27T14:00:04Z</time>
      </trkpt>
      <trkpt lat="45.04633" lon="-0.3848">
        <ele>42.1</ele>
        <time>2021-11-27T14:00:06Z</time>
      </trkpt>
      <trkpt lat="45.04631" lon="-0.3848">
        <ele>42.1</ele>
        <time>2021-11-27T14:00:07Z</time>
      </trkpt>
      <trkpt lat="45.0463" lon="-0.3848">
        <ele>42.1</ele>
        <time>2021-11-27T14:00:08Z</time>
      </trkpt>
      <trkpt lat="45.04627" lon="-0.3848">
        <ele>41.9</ele>
        <time>2021-11-27T14:00:10Z</time>
      </trkpt>
      <trkpt lat="45.04625" lon="-0.3848">
        <ele>41.9</ele>
        <time>2021-11-27T14:00:11Z</time>
      </trkpt>
      <trkpt lat="45.04622" lon="-0.38479">
        <ele>41.8</ele>
        <time>2021-11-27T14:00:13Z</time>
      </trkpt>
      <trkpt lat="45.04621" lon="-0.38479">
        <ele>41.8</ele>
        <time>2021-11-27T14:00:14Z</time>
      </trkpt>
      <trkpt lat="45.04618" lon="-0.38479">
        <ele>41.8</ele>
        <time>2021-11-27T14:00:16Z</time>
      </trkpt>
      <trkpt lat="45.04617" lon="-0.38479">
        <ele>41.7</ele>
        <time>2021-11-27T14:00:17Z</time>
      </trkpt>
      <trkpt lat="45.04616" lon="-0.3848">
        <ele>41.7</ele>
        <time>2021-11-27T14:00:18Z</time>
      </trkpt>
      <trkpt lat="45.04614" lon="-0.38479">
        <ele>41.6</ele>
        <time>2021-11-27T14:00:19Z</time>
      </trkpt>
      <trkpt lat="45.04613" lon="-0.38479">
        <ele>41.6</ele>
        <time>2021-11-27T14:00:20Z</time>
      </trkpt>
      <trkpt lat="45.04611" lon="-0.38479">
        <ele>41.5</ele>
        <time>2021-11-27T14:00:21Z</time>
      </trkpt>
      <trkpt lat="45.04609" lon="-0.38479">
        <ele>41.5</ele>
        <time>2021-11-27T14:00:22Z</time>
      </trkpt>
      <trkpt lat="45.04608" lon="-0.38479">
        <ele>41.4</ele>
        <time>2021-11-27T14:00:24Z</time>
      </trkpt>
      <trkpt lat="45.04607" lon="-0.38479">
        <ele>41.4</ele>
        <time>2021-11-27T14:00:25Z</time>
      </trkpt>
      <trkpt lat="45.04606" lon="-0.38479">
        <ele>41.4</ele>
        <time>2021-11-27T14:00:26Z</time>
      </trkpt>
      <trkpt lat="45.04605" lon="-0.38479">
        <ele>41.3</ele>
        <time>2021-11-27T14:00:27Z</time>
      </trkpt>
      <trkpt lat="45.04604" lon="-0.38479">
        <ele>41.3</ele>
        <time>2021-11-27T14:00:28Z</time>
      </trkpt>
      <trkpt lat="45.04601" lon="-0.38479">
        <ele>41.2</ele>
        <time>2021-11-27T14:00:30Z</time>
      </trkpt>
      <trkpt lat="45.046" lon="-0.38479">
        <ele>41.2</ele>
        <time>2021-11-27T14:00:31Z</time>
      </trkpt>
      <trkpt lat="45.04599" lon="-0.38479">
        <ele>41.2</ele>
        <time>2021-11-27T14:00:32Z</time>
      </trkpt>
      <trkpt lat="45.04597" lon="-0.38479">
        <ele>41.1</ele>
        <time>2021-11-27T14:00:33Z</time>
      </trkpt>
      <trkpt lat="45.04594" lon="-0.38479">
        <ele>41.1</ele>
        <time>2021-11-27T14:00:35Z</time>
      </trkpt>
      <trkpt lat="45.04593" lon="-0.38478">
        <ele>41</ele>
        <time>2021-11-27T14:00:37Z</time>
      </trkpt>
      <trkpt lat="45.04591" lon="-0.38478">
        <ele>41</ele>
        <time>2021-11-27T14:00:38Z</time>
      </trkpt>
      <trkpt lat="45.04589" lon="-0.38477">
        <ele>41</ele>
        <time>2021-11-27T14:00:40Z</time>
      </trkpt>
      <trkpt lat="45.04587" lon="-0.38476">
        <ele>40.9</ele>
        <time>2021-11-27T14:00:42Z</time>
      </trkpt>
      <trkpt lat="45.04585" lon="-0.38476">
        <ele>40.9</ele>
        <time>2021-11-27T14:00:43Z</time>
      </trkpt>
      <trkpt lat="45.04584" lon="-0.38475">
        <ele>40.8</ele>
        <time>2021-11-27T14:00:44Z</time>
      </trkpt>
      <trkpt lat="45.04583" lon="-0.38475">
        <ele>40.8</ele>
        <time>2021-11-27T14:00:45Z</time>
      </trkpt>
      <trkpt lat="45.04582" lon="-0.38476">
        <ele>40.8</ele>
        <time>2021-11-27T14:00:47Z</time>
      </trkpt>
      <trkpt lat="45.04581" lon="-0.38477">
        <ele>40.7</ele>
        <time>2021-11-27T14:00:48Z</time>
      </trkpt>
      <trkpt lat="45.0458" lon="-0.38479">
        <ele>40.6</ele>
        <time>2021-11-27T14:00:49Z</time>
      </trkpt>
      <trkpt lat="45.04579" lon="-0.38481">
        <ele>40.6</ele>
        <time>2021-11-27T14:00:51Z</time>
      </trkpt>
      <trkpt lat="45.04578" lon="-0.38482">
        <ele>40.6</ele>
        <time>2021-11-27T14:00:52Z</time>
      </trkpt>
      <trkpt lat="45.04578" lon="-0.38485">
        <ele>40.5</ele>
        <time>2021-11-27T14:00:53Z</time>
      </trkpt>
      <trkpt lat="45.04579" lon="-0.38487">
        <ele>40.5</ele>
        <time>2021-11-27T14:00:54Z</time>
      </trkpt>
      <trkpt lat="45.04579" lon="-0.38489">
        <ele>40.4</ele>
        <time>2021-11-27T14:00:55Z</time>
      </trkpt>
      <trkpt lat="45.0458" lon="-0.38493">
        <ele>40.4</ele>
        <time>2021-11-27T14:00:56Z</time>
      </trkpt>
      <trkpt lat="45.0458" lon="-0.38495">
        <ele>40.4</ele>
        <time>2021-11-27T14:00:58Z</time>
      </trkpt>
      <trkpt lat="45.0458" lon="-0.38497">
        <ele>40.3</ele>
        <time>2021-11-27T14:00:59Z</time>
      </trkpt>
      <trkpt lat="45.04581" lon="-0.38499">
        <ele>40.3</ele>
        <time>2021-11-27T14:01:00Z</time>
      </trkpt>
      <trkpt lat="45.04581" lon="-0.38501">
        <ele>40.3</ele>
        <time>2021-11-27T14:01:01Z</time>
      </trkpt>
      <trkpt lat="45.04581" lon="-0.38503">
        <ele>40.2</ele>
        <time>2021-11-27T14:01:03Z</time>
      </trkpt>
      <trkpt lat="45.0458" lon="-0.38506">
        <ele>40.2</ele>
        <time>2021-11-27T14:01:04Z</time>
      </trkpt>
      <trkpt lat="45.0458" lon="-0.38508">
        <ele>40.2</ele>
        <time>2021-11-27T14:01:05Z</time>
      </trkpt>
      <trkpt lat="45.0458" lon="-0.38509">
        <ele>40.1</ele>
        <time>2021-11-27T14:01:06Z</time>
      </trkpt>
      <trkpt lat="45.0458" lon="-0.38512">
        <ele>40.1</ele>
        <time>2021-11-27T14:01:08Z</time>
      </trkpt>
      <trkpt lat="45.0458" lon="-0.38514">
        <ele>40.1</ele>
        <time>2021-11-27T14:01:09Z</time>
      </trkpt>
      <trkpt lat="45.0458" lon="-0.38515">
        <ele>40.1</ele>
        <time>2021-11-27T14:01:10Z</time>
      </trkpt>
      <trkpt lat="45.0458" lon="-0.38515">
        <ele>40.1</ele>
        <time>2021-11-27T14:01:11Z</time>
      </trkpt>
      <trkpt lat="45.04579" lon="-0.38515">
        <ele>40</ele>
        <time>2021-11-27T14:01:12Z</time>
      </trkpt>
      <trkpt lat="45.04578" lon="-0.38517">
        <ele>40</ele>
        <time>2021-11-27T14:01:14Z</time>
      </trkpt>
      <trkpt lat="45.04579" lon="-0.38518">
        <ele>40</ele>
        <time>2021-11-27T14:01:15Z</time>
      </trkpt>
      <trkpt lat="45.04579" lon="-0.38518">
        <ele>40</ele>
        <time>2021-11-27T14:01:16Z</time>
      </trkpt>
      <trkpt lat="45.0458" lon="-0.38518">
        <ele>40</ele>
        <time>2021-11-27T14:01:17Z</time>
      </trkpt>
      <trkpt lat="45.0458" lon="-0.38517">
        <ele>40</ele>
        <time>2021-11-27T14:01:19Z</time>
      </trkpt>
      <trkpt lat="45.0458" lon="-0.38517">
        <ele>40</ele>
        <time>2021-11-27T14:01:21Z</time>
      </trkpt>
      <trkpt lat="45.0458" lon="-0.38517">
        <ele>40</ele>
        <time>2021-11-27T14:01:23Z</time>
      </trkpt>
      <trkpt lat="45.0458" lon="-0.38518">
        <ele>40</ele>
        <time>2021-11-27T14:01:24Z</time>
      </trkpt>
      <trkpt lat="45.0458" lon="-0.3852">
        <ele>40</ele>
        <time>2021-11-27T14:01:26Z</time>
      </trkpt>
      <trkpt lat="45.0458" lon="-0.38523">
        <ele>39.9</ele>
        <time>2021-11-27T14:01:27Z</time>
      </trkpt>
      <trkpt lat="45.0458" lon="-0.38527">
        <ele>39.9</ele>
        <time>2021-11-27T14:01:29Z</time>
      </trkpt>
      <trkpt lat="45.0458" lon="-0.38529">
        <ele>39.9</ele>
        <time>2021-11-27T14:01:30Z</time>
      </trkpt>
      <trkpt lat="45.0458" lon="-0.38531">
        <ele>39.9</ele>
        <time>2021-11-27T14:01:31Z</time>
      </trkpt>
      <trkpt lat="45.0458" lon="-0.38536">
        <ele>39.9</ele>
        <time>2021-11-27T14:01:33Z</time>
      </trkpt>
      <trkpt lat="45.0458" lon="-0.38537">
        <ele>39.9</ele>
        <time>2021-11-27T14:01:34Z</time>
      </trkpt>
      <trkpt lat="45.0458" lon="-0.3854">
        <ele>39.8</ele>
        <time>2021-11-27T14:01:36Z</time>
      </trkpt>
      <trkpt lat="45.0458" lon="-0.38542">
        <ele>39.8</ele>
        <time>2021-11-27T14:01:37Z</time>
      </trkpt>
      <trkpt lat="45.0458" lon="-0.38545">
        <ele>39.8</ele>
        <time>2021-11-27T14:01:38Z</time>
      </trkpt>
      <trkpt lat="45.0458" lon="-0.38546">
        <ele>39.8</ele>
        <time>2021-11-27T14:01:40Z</time>
      </trkpt>
      <trkpt lat="45.0458" lon="-0.38548">
        <ele>39.8</ele>
        <time>2021-11-27T14:01:41Z</time>
      </trkpt>
      <trkpt lat="45.0458" lon="-0.3855">
        <ele>39.8</ele>
        <time>2021-11-27T14:01:42Z</time>
      </trkpt>
      <trkpt lat="45.0458" lon="-0.38553">
        <ele>39.7</ele>
        <time>2021-11-27T14:01:44Z</time>
      </trkpt>
      <trkpt lat="45.0458" lon="-0.38556">
        <ele>39.7</ele>
        <time>2021-11-27T14:01:45Z</time>
      </trkpt>
      <trkpt lat="45.0458" lon="-0.38558">
        <ele>39.7</ele>
        <time>2021-11-27T14:01:46Z</time>
      </trkpt>
      <trkpt lat="45.0458" lon="-0.3856">
        <ele>39.7</ele>
        <time>2021-11-27T14:01:48Z</time>
      </trkpt>
      <trkpt lat="45.0458" lon="-0.38562">
        <ele>39.7</ele>
        <time>2021-11-27T14:01:49Z</time>
      </trkpt>
      <trkpt lat="45.0458" lon="-0.38564">
        <ele>39.7</ele>
        <time>2021-11-27T14:01:50Z</time>
      </trkpt>
      <trkpt lat="45.0458" lon="-0.38565">
        <ele>39.7</ele>
        <time>2021-11-27T14:01:51Z</time>
      </trkpt>
      <trkpt lat="45.0458" lon="-0.38569">
        <ele>39.6</ele>
        <time>2021-11-27T14:01:53Z</time>
      </trkpt>
      <trkpt lat="45.04581" lon="-0.38572">
        <ele>39.6</ele>
        <time>2021-11-27T14:01:54Z</time>
      </trkpt>
      <trkpt lat="45.04581" lon="-0.38574">
        <ele>39.6</ele>
        <time>2021-11-27T14:01:55Z</time>
      </trkpt>
      <trkpt lat="45.04581" lon="-0.38575">
        <ele>39.6</ele>
        <time>2021-11-27T14:01:57Z</time>
      </trkpt>
      <trkpt lat="45.04581" lon="-0.38579">
        <ele>39.6</ele>
        <time>2021-11-27T14:01:58Z</time>
      </trkpt>
      <trkpt lat="45.04581" lon="-0.38583">
        <ele>39.6</ele>
        <time>2021-11-27T14:01:59Z</time>
      </trkpt>
      <trkpt lat="45.04581" lon="-0.38584">
        <ele>39.6</ele>
        <time>2021-11-27T14:02:00Z</time>
      </trkpt>
      <trkpt lat="45.04581" lon="-0.38588">
        <ele>39.5</ele>
        <time>2021-11-27T14:02:02Z</time>
      </trkpt>
      <trkpt lat="45.04581" lon="-0.3859">
        <ele>39.5</ele>
        <time>2021-11-27T14:02:03Z</time>
      </trkpt>
      <trkpt lat="45.0458" lon="-0.38591">
        <ele>39.5</ele>
        <time>2021-11-27T14:02:04Z</time>
      </trkpt>
      <trkpt lat="45.0458" lon="-0.38594">
        <ele>39.5</ele>
        <time>2021-11-27T14:02:06Z</time>
      </trkpt>
      <trkpt lat="45.0458" lon="-0.38596">
        <ele>39.5</ele>
        <time>2021-11-27T14:02:07Z</time>
      </trkpt>
      <trkpt lat="45.0458" lon="-0.38599">
        <ele>39.5</ele>
        <time>2021-11-27T14:02:08Z</time>
      </trkpt>
      <trkpt lat="45.0458" lon="-0.38603">
        <ele>39.5</ele>
        <time>2021-11-27T14:02:10Z</time>
      </trkpt>
      <trkpt lat="45.0458" lon="-0.38605">
        <ele>39.5</ele>
        <time>2021-11-27T14:02:11Z</time>
      </trkpt>
      <trkpt lat="45.0458" lon="-0.38607">
        <ele>39.5</ele>
        <time>2021-11-27T14:02:12Z</time>
      </trkpt>
      <trkpt lat="45.04579" lon="-0.38609">
        <ele>39.5</ele>
        <time>2021-11-27T14:02:14Z</time>
      </trkpt>
      <trkpt lat="45.04579" lon="-0.38612">
        <ele>39.5</ele>
        <time>2021-11-27T14:02:15Z</time>
      </trkpt>
      <trkpt lat="45.04579" lon="-0.38616">
        <ele>39.5</ele>
        <time>2021-11-27T14:02:17Z</time>
      </trkpt>
      <trkpt lat="45.04579" lon="-0.38619">
        <ele>39.5</ele>
        <time>2021-11-27T14:02:18Z</time>
      </trkpt>
      <trkpt lat="45.04579" lon="-0.38623">
        <ele>39.5</ele>
        <time>2021-11-27T14:02:20Z</time>
      </trkpt>
      <trkpt lat="45.04579" lon="-0.38624">
        <ele>39.5</ele>
        <time>2021-11-27T14:02:21Z</time>
      </trkpt>
      <trkpt lat="45.04578" lon="-0.38626">
        <ele>39.5</ele>
        <time>2021-11-27T14:02:23Z</time>
      </trkpt>
      <trkpt lat="45.04578" lon="-0.38627">
        <ele>39.5</ele>
        <time>2021-11-27T14:02:24Z</time>
      </trkpt>
      <trkpt lat="45.04578" lon="-0.38631">
        <ele>39.5</ele>
        <time>2021-11-27T14:02:26Z</time>
      </trkpt>
      <trkpt lat="45.04578" lon="-0.38633">
        <ele>39.5</ele>
        <time>2021-11-27T14:02:27Z</time>
      </trkpt>
      <trkpt lat="45.04578" lon="-0.38636">
        <ele>39.5</ele>
        <time>2021-11-27T14:02:28Z</time>
      </trkpt>
      <trkpt lat="45.04578" lon="-0.38637">
        <ele>39.5</ele>
        <time>2021-11-27T14:02:30Z</time>
      </trkpt>
      <trkpt lat="45.04578" lon="-0.38638">
        <ele>39.5</ele>
        <time>2021-11-27T14:02:31Z</time>
      </trkpt>
      <trkpt lat="45.04578" lon="-0.38641">
        <ele>39.5</ele>
        <time>2021-11-27T14:02:32Z</time>
      </trkpt>
      <trkpt lat="45.04578" lon="-0.38644">
        <ele>39.5</ele>
        <time>2021-11-27T14:02:34Z</time>
      </trkpt>
      <trkpt lat="45.04578" lon="-0.38646">
        <ele>39.5</ele>
        <time>2021-11-27T14:02:35Z</time>
      </trkpt>
      <trkpt lat="45.04577" lon="-0.38649">
        <ele>39.5</ele>
        <time>2021-11-27T14:02:37Z</time>
      </trkpt>
      <trkpt lat="45.04577" lon="-0.38651">
        <ele>39.5</ele>
        <time>2021-11-27T14:02:38Z</time>
      </trkpt>
      <trkpt lat="45.04577" lon="-0.38655">
        <ele>39.5</ele>
        <time>2021-11-27T14:02:40Z</time>
      </trkpt>
      <trkpt lat="45.04577" lon="-0.38659">
        <ele>39.6</ele>
        <time>2021-11-27T14:02:42Z</time>
      </trkpt>
      <trkpt lat="45.04577" lon="-0.3866">
        <ele>39.6</ele>
        <time>2021-11-27T14:02:43Z</time>
      </trkpt>
      <trkpt lat="45.04577" lon="-0.38663">
        <ele>39.6</ele>
        <time>2021-11-27T14:02:44Z</time>
      </trkpt>
      <trkpt lat="45.04577" lon="-0.38664">
        <ele>39.6</ele>
        <time>2021-11-27T14:02:46Z</time>
      </trkpt>
      <trkpt lat="45.04577" lon="-0.38666">
        <ele>39.6</ele>
        <time>2021-11-27T14:02:47Z</time>
      </trkpt>
      <trkpt lat="45.04577" lon="-0.3867">
        <ele>39.7</ele>
        <time>2021-11-27T14:02:48Z</time>
      </trkpt>
      <trkpt lat="45.04577" lon="-0.38672">
        <ele>39.7</ele>
        <time>2021-11-27T14:02:50Z</time>
      </trkpt>
      <trkpt lat="45.04577" lon="-0.38674">
        <ele>39.7</ele>
        <time>2021-11-27T14:02:51Z</time>
      </trkpt>
      <trkpt lat="45.04577" lon="-0.38676">
        <ele>39.7</ele>
        <time>2021-11-27T14:02:52Z</time>
      </trkpt>
      <trkpt lat="45.04577" lon="-0.38679">
        <ele>39.8</ele>
        <time>2021-11-27T14:02:54Z</time>
      </trkpt>
      <trkpt lat="45.04577" lon="-0.38681">
        <ele>39.8</ele>
        <time>2021-11-27T14:02:55Z</time>
      </trkpt>
      <trkpt lat="45.04577" lon="-0.38683">
        <ele>39.8</ele>
        <time>2021-11-27T14:02:56Z</time>
      </trkpt>
      <trkpt lat="45.04577" lon="-0.38685">
        <ele>39.8</ele>
        <time>2021-11-27T14:02:57Z</time>
      </trkpt>
      <trkpt lat="45.04577" lon="-0.38687">
        <ele>39.9</ele>
        <time>2021-11-27T14:02:59Z</time>
      </trkpt>
      <trkpt lat="45.04576" lon="-0.3869">
        <ele>39.9</ele>
        <time>2021-11-27T14:03:00Z</time>
      </trkpt>
      <trkpt lat="45.04577" lon="-0.38694">
        <ele>40</ele>
        <time>2021-11-27T14:03:02Z</time>
      </trkpt>
      <trkpt lat="45.04577" lon="-0.38695">
        <ele>40</ele>
        <time>2021-11-27T14:03:03Z</time>
      </trkpt>
      <trkpt lat="45.04577" lon="-0.38697">
        <ele>40.1</ele>
        <time>2021-11-27T14:03:04Z</time>
      </trkpt>
      <trkpt lat="45.04578" lon="-0.387">
        <ele>40.1</ele>
        <time>2021-11-27T14:03:06Z</time>
      </trkpt>
      <trkpt lat="45.04578" lon="-0.38703">
        <ele>40.1</ele>
        <time>2021-11-27T14:03:07Z</time>
      </trkpt>
      <trkpt lat="45.04578" lon="-0.38706">
        <ele>40.1</ele>
        <time>2021-11-27T14:03:09Z</time>
      </trkpt>
      <trkpt lat="45.04578" lon="-0.38709">
        <ele>40.1</ele>
        <time>2021-11-27T14:03:11Z</time>
      </trkpt>
      <trkpt lat="45.04579" lon="-0.38711">
        <ele>40.1</ele>
        <time>2021-11-27T14:03:12Z</time>
      </trkpt>
      <trkpt lat="45.04579" lon="-0.38713">
        <ele>40.1</ele>
        <time>2021-11-27T14:03:13Z</time>
      </trkpt>
      <trkpt lat="45.04579" lon="-0.38715">
        <ele>40.1</ele>
        <time>2021-11-27T14:03:14Z</time>
      </trkpt>
      <trkpt lat="45.0458" lon="-0.38718">
        <ele>40.1</ele>
        <time>2021-11-27T14:03:15Z</time>
      </trkpt>
      <trkpt lat="45.0458" lon="-0.3872">
        <ele>40.1</ele>
        <time>2021-11-27T14:03:16Z</time>
      </trkpt>
      <trkpt lat="45.0458" lon="-0.38722">
        <ele>40.1</ele>
        <time>2021-11-27T14:03:17Z</time>
      </trkpt>
      <trkpt lat="45.04581" lon="-0.38726">
        <ele>40.1</ele>
        <time>2021-11-27T14:03:19Z</time>
      </trkpt>
      <trkpt lat="45.04581" lon="-0.3873">
        <ele>40.1</ele>
        <time>2021-11-27T14:03:21Z</time>
      </trkpt>
      <trkpt lat="45.04581" lon="-0.38732">
        <ele>40.1</ele>
        <time>2021-11-27T14:03:22Z</time>
      </trkpt>
      <trkpt lat="45.04581" lon="-0.38734">
        <ele>40.1</ele>
        <time>2021-11-27T14:03:24Z</time>
      </trkpt>
      <trkpt lat="45.04581" lon="-0.38737">
        <ele>40.1</ele>
        <time>2021-11-27T14:03:25Z</time>
      </trkpt>
      <trkpt lat="45.04581" lon="-0.38739">
        <ele>40.1</ele>
        <time>2021-11-27T14:03:26Z</time>
      </trkpt>
      <trkpt lat="45.04581" lon="-0.38742">
        <ele>40.1</ele>
        <time>2021-11-27T14:03:28Z</time>
      </trkpt>
      <trkpt lat="45.04581" lon="-0.38743">
        <ele>40.1</ele>
        <time>2021-11-27T14:03:29Z</time>
      </trkpt>
      <trkpt lat="45.04581" lon="-0.38745">
        <ele>40.1</ele>
        <time>2021-11-27T14:03:30Z</time>
      </trkpt>
      <trkpt lat="45.04581" lon="-0.38748">
        <ele>40.1</ele>
        <time>2021-11-27T14:03:32Z</time>
      </trkpt>
      <trkpt lat="45.04581" lon="-0.3875">
        <ele>40.1</ele>
        <time>2021-11-27T14:03:33Z</time>
      </trkpt>
      <trkpt lat="45.04582" lon="-0.38752">
        <ele>40.1</ele>
        <time>2021-11-27T14:03:35Z</time>
      </trkpt>
      <trkpt lat="45.04582" lon="-0.38755">
        <ele>40.1</ele>
        <time>2021-11-27T14:03:36Z</time>
      </trkpt>
      <trkpt lat="45.04582" lon="-0.38757">
        <ele>40.1</ele>
        <time>2021-11-27T14:03:37Z</time>
      </trkpt>
      <trkpt lat="45.04582" lon="-0.38759">
        <ele>40</ele>
        <time>2021-11-27T14:03:38Z</time>
      </trkpt>
      <trkpt lat="45.04582" lon="-0.38761">
        <ele>40</ele>
        <time>2021-11-27T14:03:40Z</time>
      </trkpt>
      <trkpt lat="45.04582" lon="-0.38762">
        <ele>40</ele>
        <time>2021-11-27T14:03:41Z</time>
      </trkpt>
      <trkpt lat="45.04582" lon="-0.38765">
        <ele>40</ele>
        <time>2021-11-27T14:03:42Z</time>
      </trkpt>
      <trkpt lat="45.04582" lon="-0.38768">
        <ele>40</ele>
        <time>2021-11-27T14:03:44Z</time>
      </trkpt>
      <trkpt lat="45.04583" lon="-0.38769">
        <ele>40</ele>
        <time>2021-11-27T14:03:45Z</time>
      </trkpt>
      <trkpt lat="45.04582" lon="-0.38769">
        <ele>40</ele>
        <time>2021-11-27T14:03:46Z</time>
      </trkpt>
      <trkpt lat="45.04583" lon="-0.38773">
        <ele>40</ele>
        <time>2021-11-27T14:03:48Z</time>
      </trkpt>
      <trkpt lat="45.04583" lon="-0.38774">
        <ele>40</ele>
        <time>2021-11-27T14:03:49Z</time>
      </trkpt>
      <trkpt lat="45.04583" lon="-0.38776">
        <ele>40</ele>
        <time>2021-11-27T14:03:50Z</time>
      </trkpt>
      <trkpt lat="45.04584" lon="-0.38778">
        <ele>40</ele>
        <time>2021-11-27T14:03:52Z</time>
      </trkpt>
      <trkpt lat="45.04584" lon="-0.38781">
        <ele>40</ele>
        <time>2021-11-27T14:03:53Z</time>
      </trkpt>
      <trkpt lat="45.04584" lon="-0.38783">
        <ele>40</ele>
        <time>2021-11-27T14:03:55Z</time>
      </trkpt>
      <trkpt lat="45.04585" lon="-0.38785">
        <ele>40</ele>
        <time>2021-11-27T14:03:56Z</time>
      </trkpt>
      <trkpt lat="45.04585" lon="-0.38787">
        <ele>40</ele>
        <time>2021-11-27T14:03:57Z</time>
      </trkpt>
      <trkpt lat="45.04585" lon="-0.38788">
        <ele>40</ele>
        <time>2021-11-27T14:03:58Z</time>
      </trkpt>
      <trkpt lat="45.04586" lon="-0.38794">
        <ele>40</ele>
        <time>2021-11-27T14:04:00Z</time>
      </trkpt>
      <trkpt lat="45.04586" lon="-0.38795">
        <ele>40</ele>
        <time>2021-11-27T14:04:01Z</time>
      </trkpt>
      <trkpt lat="45.04587" lon="-0.38799">
        <ele>40</ele>
        <time>2021-11-27T14:04:03Z</time>
      </trkpt>
      <trkpt lat="45.04587" lon="-0.38801">
        <ele>40</ele>
        <time>2021-11-27T14:04:04Z</time>
      </trkpt>
      <trkpt lat="45.04588" lon="-0.38805">
        <ele>40</ele>
        <time>2021-11-27T14:04:06Z</time>
      </trkpt>
      <trkpt lat="45.04588" lon="-0.38806">
        <ele>40</ele>
        <time>2021-11-27T14:04:07Z</time>
      </trkpt>
      <trkpt lat="45.04588" lon="-0.38808">
        <ele>40</ele>
        <time>2021-11-27T14:04:08Z</time>
      </trkpt>
      <trkpt lat="45.04588" lon="-0.38809">
        <ele>40</ele>
        <time>2021-11-27T14:04:10Z</time>
      </trkpt>
      <trkpt lat="45.04588" lon="-0.38811">
        <ele>40</ele>
        <time>2021-11-27T14:04:11Z</time>
      </trkpt>
      <trkpt lat="45.04589" lon="-0.38815">
        <ele>40</ele>
        <time>2021-11-27T14:04:13Z</time>
      </trkpt>
      <trkpt lat="45.04589" lon="-0.38816">
        <ele>40</ele>
        <time>2021-11-27T14:04:14Z</time>
      </trkpt>
      <trkpt lat="45.0459" lon="-0.38821">
        <ele>40</ele>
        <time>2021-11-27T14:04:16Z</time>
      </trkpt>
      <trkpt lat="45.0459" lon="-0.38823">
        <ele>40</ele>
        <time>2021-11-27T14:04:17Z</time>
      </trkpt>
      <trkpt lat="45.0459" lon="-0.38825">
        <ele>40</ele>
        <time>2021-11-27T14:04:19Z</time>
      </trkpt>
      <trkpt lat="45.0459" lon="-0.38827">
        <ele>40</ele>
        <time>2021-11-27T14:04:20Z</time>
      </trkpt>
      <trkpt lat="45.04589" lon="-0.3883">
        <ele>40</ele>
        <time>2021-11-27T14:04:21Z</time>
      </trkpt>
      <trkpt lat="45.04589" lon="-0.38832">
        <ele>40</ele>
        <time>2021-11-27T14:04:23Z</time>
      </trkpt>
      <trkpt lat="45.04589" lon="-0.38834">
        <ele>40</ele>
        <time>2021-11-27T14:04:24Z</time>
      </trkpt>
      <trkpt lat="45.0459" lon="-0.38837">
        <ele>40</ele>
        <time>2021-11-27T14:04:25Z</time>
      </trkpt>
      <trkpt lat="45.04591" lon="-0.38841">
        <ele>40</ele>
        <time>2021-11-27T14:04:27Z</time>
      </trkpt>
      <trkpt lat="45.04591" lon="-0.38842">
        <ele>40</ele>
        <time>2021-11-27T14:04:28Z</time>
      </trkpt>
      <trkpt lat="45.04591" lon="-0.38844">
        <ele>40</ele>
        <time>2021-11-27T14:04:29Z</time>
      </trkpt>
      <trkpt lat="45.04592" lon="-0.38845">
        <ele>40</ele>
        <time>2021-11-27T14:04:30Z</time>
      </trkpt>
      <trkpt lat="45.04593" lon="-0.38848">
        <ele>40</ele>
        <time>2021-11-27T14:04:32Z</time>
      </trkpt>
      <trkpt lat="45.04594" lon="-0.38849">
        <ele>40</ele>
        <time>2021-11-27T14:04:33Z</time>
      </trkpt>
      <trkpt lat="45.04595" lon="-0.38851">
        <ele>40</ele>
        <time>2021-11-27T14:04:35Z</time>
      </trkpt>
      <trkpt lat="45.04595" lon="-0.38853">
        <ele>40</ele>
        <time>2021-11-27T14:04:36Z</time>
      </trkpt>
      <trkpt lat="45.04594" lon="-0.38854">
        <ele>40</ele>
        <time>2021-11-27T14:04:38Z</time>
      </trkpt>
      <trkpt lat="45.04594" lon="-0.38857">
        <ele>40</ele>
        <time>2021-11-27T14:04:39Z</time>
      </trkpt>
      <trkpt lat="45.04594" lon="-0.3886">
        <ele>40</ele>
        <time>2021-11-27T14:04:41Z</time>
      </trkpt>
      <trkpt lat="45.04594" lon="-0.38862">
        <ele>40</ele>
        <time>2021-11-27T14:04:42Z</time>
      </trkpt>
      <trkpt lat="45.04594" lon="-0.38864">
        <ele>40</ele>
        <time>2021-11-27T14:04:43Z</time>
      </trkpt>
      <trkpt lat="45.04594" lon="-0.38866">
        <ele>39.9</ele>
        <time>2021-11-27T14:04:45Z</time>
      </trkpt>
      <trkpt lat="45.04593" lon="-0.38865">
        <ele>39.9</ele>
        <time>2021-11-27T14:04:47Z</time>
      </trkpt>
      <trkpt lat="45.04594" lon="-0.38865">
        <ele>39.9</ele>
        <time>2021-11-27T14:04:48Z</time>
      </trkpt>
      <trkpt lat="45.04594" lon="-0.38866">
        <ele>39.9</ele>
        <time>2021-11-27T14:04:49Z</time>
      </trkpt>
      <trkpt lat="45.04595" lon="-0.38869">
        <ele>39.9</ele>
        <time>2021-11-27T14:04:51Z</time>
      </trkpt>
      <trkpt lat="45.04595" lon="-0.38872">
        <ele>39.9</ele>
        <time>2021-11-27T14:04:52Z</time>
      </trkpt>
      <trkpt lat="45.04596" lon="-0.38876">
        <ele>39.8</ele>
        <time>2021-11-27T14:04:54Z</time>
      </trkpt>
      <trkpt lat="45.04596" lon="-0.38878">
        <ele>39.8</ele>
        <time>2021-11-27T14:04:55Z</time>
      </trkpt>
      <trkpt lat="45.04595" lon="-0.38881">
        <ele>39.8</ele>
        <time>2021-11-27T14:04:57Z</time>
      </trkpt>
      <trkpt lat="45.04596" lon="-0.38883">
        <ele>39.7</ele>
        <time>2021-11-27T14:04:58Z</time>
      </trkpt>
      <trkpt lat="45.04596" lon="-0.38886">
        <ele>39.7</ele>
        <time>2021-11-27T14:04:59Z</time>
      </trkpt>
      <trkpt lat="45.04596" lon="-0.38888">
        <ele>39.6</ele>
        <time>2021-11-27T14:05:01Z</time>
      </trkpt>
      <trkpt lat="45.04597" lon="-0.3889">
        <ele>39.6</ele>
        <time>2021-11-27T14:05:02Z</time>
      </trkpt>
      <trkpt lat="45.04598" lon="-0.38894">
        <ele>39.5</ele>
        <time>2021-11-27T14:05:04Z</time>
      </trkpt>
      <trkpt lat="45.04598" lon="-0.38897">
        <ele>39.5</ele>
        <time>2021-11-27T14:05:05Z</time>
      </trkpt>
      <trkpt lat="45.04598" lon="-0.389">
        <ele>39.3</ele>
        <time>2021-11-27T14:05:07Z</time>
      </trkpt>
      <trkpt lat="45.04598" lon="-0.38905">
        <ele>39.2</ele>
        <time>2021-11-27T14:05:09Z</time>
      </trkpt>
      <trkpt lat="45.04598" lon="-0.38906">
        <ele>39.2</ele>
        <time>2021-11-27T14:05:10Z</time>
      </trkpt>
      <trkpt lat="45.04599" lon="-0.38909">
        <ele>39.1</ele>
        <time>2021-11-27T14:05:12Z</time>
      </trkpt>
      <trkpt lat="45.04599" lon="-0.38911">
        <ele>39</ele>
        <time>2021-11-27T14:05:13Z</time>
      </trkpt>
      <trkpt lat="45.046" lon="-0.38914">
        <ele>38.9</ele>
        <time>2021-11-27T14:05:15Z</time>
      </trkpt>
      <trkpt lat="45.046" lon="-0.38917">
        <ele>38.8</ele>
        <time>2021-11-27T14:05:16Z</time>
      </trkpt>
      <trkpt lat="45.046" lon="-0.38917">
        <ele>38.8</ele>
        <time>2021-11-27T14:05:17Z</time>
      </trkpt>
      <trkpt lat="45.046" lon="-0.38919">
        <ele>38.7</ele>
        <time>2021-11-27T14:05:18Z</time>
      </trkpt>
      <trkpt lat="45.04601" lon="-0.38922">
        <ele>38.6</ele>
        <time>2021-11-27T14:05:19Z</time>
      </trkpt>
      <trkpt lat="45.04601" lon="-0.38923">
        <ele>38.6</ele>
        <time>2021-11-27T14:05:20Z</time>
      </trkpt>
      <trkpt lat="45.04602" lon="-0.38924">
        <ele>38.5</ele>
        <time>2021-11-27T14:05:21Z</time>
      </trkpt>
      <trkpt lat="45.04602" lon="-0.38926">
        <ele>38.4</ele>
        <time>2021-11-27T14:05:23Z</time>
      </trkpt>
      <trkpt lat="45.04602" lon="-0.38927">
        <ele>38.4</ele>
        <time>2021-11-27T14:05:24Z</time>
      </trkpt>
      <trkpt lat="45.04602" lon="-0.38929">
        <ele>38.3</ele>
        <time>2021-11-27T14:05:25Z</time>
      </trkpt>
      <trkpt lat="45.04602" lon="-0.38931">
        <ele>38.2</ele>
        <time>2021-11-27T14:05:27Z</time>
      </trkpt>
      <trkpt lat="45.04602" lon="-0.38933">
        <ele>38.1</ele>
        <time>2021-11-27T14:05:28Z</time>
      </trkpt>
      <trkpt lat="45.04602" lon="-0.38935">
        <ele>38.1</ele>
        <time>2021-11-27T14:05:29Z</time>
      </trkpt>
      <trkpt lat="45.04602" lon="-0.38937">
        <ele>37.9</ele>
        <time>2021-11-27T14:05:31Z</time>
      </trkpt>
      <trkpt lat="45.04602" lon="-0.38939">
        <ele>37.8</ele>
        <time>2021-11-27T14:05:32Z</time>
      </trkpt>
      <trkpt lat="45.04602" lon="-0.38941">
        <ele>37.7</ele>
        <time>2021-11-27T14:05:33Z</time>
      </trkpt>
      <trkpt lat="45.04603" lon="-0.38944">
        <ele>37.6</ele>
        <time>2021-11-27T14:05:35Z</time>
      </trkpt>
      <trkpt lat="45.04604" lon="-0.38946">
        <ele>37.5</ele>
        <time>2021-11-27T14:05:36Z</time>
      </trkpt>
      <trkpt lat="45.04604" lon="-0.38948">
        <ele>37.4</ele>
        <time>2021-11-27T14:05:38Z</time>
      </trkpt>
      <trkpt lat="45.04605" lon="-0.38949">
        <ele>37.3</ele>
        <time>2021-11-27T14:05:39Z</time>
      </trkpt>
      <trkpt lat="45.04606" lon="-0.3895">
        <ele>37.2</ele>
        <time>2021-11-27T14:05:40Z</time>
      </trkpt>
      <trkpt lat="45.04606" lon="-0.38951">
        <ele>37.2</ele>
        <time>2021-11-27T14:05:41Z</time>
      </trkpt>
      <trkpt lat="45.04608" lon="-0.38952">
        <ele>37.1</ele>
        <time>2021-11-27T14:05:42Z</time>
      </trkpt>
      <trkpt lat="45.04611" lon="-0.38955">
        <ele>36.9</ele>
        <time>2021-11-27T14:05:44Z</time>
      </trkpt>
      <trkpt lat="45.04613" lon="-0.38955">
        <ele>36.9</ele>
        <time>2021-11-27T14:05:45Z</time>
      </trkpt>
      <trkpt lat="45.04614" lon="-0.38957">
        <ele>36.9</ele>
        <time>2021-11-27T14:05:46Z</time>
      </trkpt>
      <trkpt lat="45.04615" lon="-0.38957">
        <ele>36.9</ele>
        <time>2021-11-27T14:05:47Z</time>
      </trkpt>
      <trkpt lat="45.04616" lon="-0.38958">
        <ele>36.9</ele>
        <time>2021-11-27T14:05:48Z</time>
      </trkpt>
      <trkpt lat="45.04617" lon="-0.38959">
        <ele>36.7</ele>
        <time>2021-11-27T14:05:50Z</time>
      </trkpt>
      <trkpt lat="45.04619" lon="-0.38959">
        <ele>36.7</ele>
        <time>2021-11-27T14:05:51Z</time>
      </trkpt>
      <trkpt lat="45.0462" lon="-0.38959">
        <ele>36.7</ele>
        <time>2021-11-27T14:05:52Z</time>
      </trkpt>
      <trkpt lat="45.04621" lon="-0.3896">
        <ele>36.7</ele>
        <time>2021-11-27T14:05:54Z</time>
      </trkpt>
      <trkpt lat="45.04622" lon="-0.38959">
        <ele>36.7</ele>
        <time>2021-11-27T14:05:55Z</time>
      </trkpt>
      <trkpt lat="45.04623" lon="-0.38959">
        <ele>36.7</ele>
        <time>2021-11-27T14:05:56Z</time>
      </trkpt>
      <trkpt lat="45.04625" lon="-0.38958">
        <ele>36.9</ele>
        <time>2021-11-27T14:05:58Z</time>
      </trkpt>
      <trkpt lat="45.04628" lon="-0.38958">
        <ele>36.9</ele>
        <time>2021-11-27T14:06:00Z</time>
      </trkpt>
      <trkpt lat="45.04629" lon="-0.38958">
        <ele>36.9</ele>
        <time>2021-11-27T14:06:01Z</time>
      </trkpt>
      <trkpt lat="45.04629" lon="-0.38958">
        <ele>36.9</ele>
        <time>2021-11-27T14:06:02Z</time>
      </trkpt>
      <trkpt lat="45.0463" lon="-0.38957">
        <ele>36.9</ele>
        <time>2021-11-27T14:06:04Z</time>
      </trkpt>
      <trkpt lat="45.04629" lon="-0.38957">
        <ele>36.9</ele>
        <time>2021-11-27T14:06:05Z</time>
      </trkpt>
      <trkpt lat="45.0463" lon="-0.38957">
        <ele>36.9</ele>
        <time>2021-11-27T14:06:06Z</time>
      </trkpt>
      <trkpt lat="45.0463" lon="-0.38957">
        <ele>36.9</ele>
        <time>2021-11-27T14:06:07Z</time>
      </trkpt>
      <trkpt lat="45.0463" lon="-0.38957">
        <ele>36.9</ele>
        <time>2021-11-27T14:06:08Z</time>
      </trkpt>
      <trkpt lat="45.04633" lon="-0.38958">
        <ele>36.9</ele>
        <time>2021-11-27T14:06:10Z</time>
      </trkpt>
      <trkpt lat="45.04634" lon="-0.38958">
        <ele>36.9</ele>
        <time>2021-11-27T14:06:11Z</time>
      </trkpt>
      <trkpt lat="45.04636" lon="-0.38959">
        <ele>36.7</ele>
        <time>2021-11-27T14:06:13Z</time>
      </trkpt>
      <trkpt lat="45.04638" lon="-0.38959">
        <ele>36.7</ele>
        <time>2021-11-27T14:06:14Z</time>
      </trkpt>
      <trkpt lat="45.04642" lon="-0.3896">
        <ele>36.6</ele>
        <time>2021-11-27T14:06:16Z</time>
      </trkpt>
      <trkpt lat="45.04645" lon="-0.38961">
        <ele>36.6</ele>
        <time>2021-11-27T14:06:18Z</time>
      </trkpt>
      <trkpt lat="45.04647" lon="-0.38962">
        <ele>36.6</ele>
        <time>2021-11-27T14:06:19Z</time>
      </trkpt>
      <trkpt lat="45.04648" lon="-0.38962">
        <ele>36.6</ele>
        <time>2021-11-27T14:06:20Z</time>
      </trkpt>
      <trkpt lat="45.0465" lon="-0.38962">
        <ele>36.6</ele>
        <time>2021-11-27T14:06:22Z</time>
      </trkpt>
      <trkpt lat="45.04651" lon="-0.38962">
        <ele>36.5</ele>
        <time>2021-11-27T14:06:23Z</time>
      </trkpt>
      <trkpt lat="45.04652" lon="-0.38962">
        <ele>36.5</ele>
        <time>2021-11-27T14:06:24Z</time>
      </trkpt>
      <trkpt lat="45.04655" lon="-0.38961">
        <ele>36.5</ele>
        <time>2021-11-27T14:06:26Z</time>
      </trkpt>
      <trkpt lat="45.04656" lon="-0.38961">
        <ele>36.5</ele>
        <time>2021-11-27T14:06:27Z</time>
      </trkpt>
      <trkpt lat="45.04657" lon="-0.3896">
        <ele>36.5</ele>
        <time>2021-11-27T14:06:29Z</time>
      </trkpt>
      <trkpt lat="45.04658" lon="-0.3896">
        <ele>36.5</ele>
        <time>2021-11-27T14:06:30Z</time>
      </trkpt>
      <trkpt lat="45.04659" lon="-0.3896">
        <ele>36.5</ele>
        <time>2021-11-27T14:06:31Z</time>
      </trkpt>
      <trkpt lat="45.0466" lon="-0.3896">
        <ele>36.5</ele>
        <time>2021-11-27T14:06:32Z</time>
      </trkpt>
      <trkpt lat="45.04661" lon="-0.3896">
        <ele>36.4</ele>
        <time>2021-11-27T14:06:33Z</time>
      </trkpt>
      <trkpt lat="45.04662" lon="-0.38961">
        <ele>36.4</ele>
        <time>2021-11-27T14:06:34Z</time>
      </trkpt>
      <trkpt lat="45.04665" lon="-0.38961">
        <ele>36.4</ele>
        <time>2021-11-27T14:06:36Z</time>
      </trkpt>
      <trkpt lat="45.04665" lon="-0.38961">
        <ele>36.4</ele>
        <time>2021-11-27T14:06:37Z</time>
      </trkpt>
      <trkpt lat="45.04666" lon="-0.38961">
        <ele>36.3</ele>
        <time>2021-11-27T14:06:38Z</time>
      </trkpt>
      <trkpt lat="45.04668" lon="-0.3896">
        <ele>36.3</ele>
        <time>2021-11-27T14:06:39Z</time>
      </trkpt>
      <trkpt lat="45.04669" lon="-0.3896">
        <ele>36.3</ele>
        <time>2021-11-27T14:06:40Z</time>
      </trkpt>
      <trkpt lat="45.04671" lon="-0.38959">
        <ele>36.3</ele>
        <time>2021-11-27T14:06:42Z</time>
      </trkpt>
      <trkpt lat="45.04672" lon="-0.38959">
        <ele>36.3</ele>
        <time>2021-11-27T14:06:43Z</time>
      </trkpt>
      <trkpt lat="45.04673" lon="-0.38959">
        <ele>36.2</ele>
        <time>2021-11-27T14:06:44Z</time>
      </trkpt>
      <trkpt lat="45.04675" lon="-0.38959">
        <ele>36.2</ele>
        <time>2021-11-27T14:06:45Z</time>
      </trkpt>
      <trkpt lat="45.04676" lon="-0.38959">
        <ele>36.1</ele>
        <time>2021-11-27T14:06:46Z</time>
      </trkpt>
      <trkpt lat="45.04677" lon="-0.38959">
        <ele>36.1</ele>
        <time>2021-11-27T14:06:47Z</time>
      </trkpt>
      <trkpt lat="45.04678" lon="-0.38958">
        <ele>36.3</ele>
        <time>2021-11-27T14:06:49Z</time>
      </trkpt>
      <trkpt lat="45.04679" lon="-0.38958">
        <ele>36.3</ele>
        <time>2021-11-27T14:06:50Z</time>
      </trkpt>
      <trkpt lat="45.04681" lon="-0.38957">
        <ele>36.3</ele>
        <time>2021-11-27T14:06:51Z</time>
      </trkpt>
      <trkpt lat="45.04683" lon="-0.38955">
        <ele>36.2</ele>
        <time>2021-11-27T14:06:52Z</time>
      </trkpt>
      <trkpt lat="45.04686" lon="-0.38954">
        <ele>36.3</ele>
        <time>2021-11-27T14:06:53Z</time>
      </trkpt>
      <trkpt lat="45.04688" lon="-0.38953">
        <ele>36.2</ele>
        <time>2021-11-27T14:06:55Z</time>
      </trkpt>
      <trkpt lat="45.0469" lon="-0.38952">
        <ele>36.2</ele>
        <time>2021-11-27T14:06:56Z</time>
      </trkpt>
      <trkpt lat="45.04692" lon="-0.38952">
        <ele>36.1</ele>
        <time>2021-11-27T14:06:57Z</time>
      </trkpt>
      <trkpt lat="45.04695" lon="-0.38951">
        <ele>36.1</ele>
        <time>2021-11-27T14:06:58Z</time>
      </trkpt>
      <trkpt lat="45.04695" lon="-0.38951">
        <ele>36.1</ele>
        <time>2021-11-27T14:06:59Z</time>
      </trkpt>
      <trkpt lat="45.04697" lon="-0.38951">
        <ele>36</ele>
        <time>2021-11-27T14:07:00Z</time>
      </trkpt>
      <trkpt lat="45.04699" lon="-0.38951">
        <ele>36</ele>
        <time>2021-11-27T14:07:02Z</time>
      </trkpt>
      <trkpt lat="45.047" lon="-0.38951">
        <ele>35.9</ele>
        <time>2021-11-27T14:07:03Z</time>
      </trkpt>
      <trkpt lat="45.04702" lon="-0.3895">
        <ele>35.9</ele>
        <time>2021-11-27T14:07:05Z</time>
      </trkpt>
      <trkpt lat="45.04704" lon="-0.3895">
        <ele>35.8</ele>
        <time>2021-11-27T14:07:06Z</time>
      </trkpt>
      <trkpt lat="45.04705" lon="-0.3895">
        <ele>35.8</ele>
        <time>2021-11-27T14:07:07Z</time>
      </trkpt>
      <trkpt lat="45.04706" lon="-0.38951">
        <ele>35.7</ele>
        <time>2021-11-27T14:07:09Z</time>
      </trkpt>
      <trkpt lat="45.04707" lon="-0.38952">
        <ele>35.7</ele>
        <time>2021-11-27T14:07:10Z</time>
      </trkpt>
      <trkpt lat="45.04708" lon="-0.38952">
        <ele>35.7</ele>
        <time>2021-11-27T14:07:11Z</time>
      </trkpt>
      <trkpt lat="45.04709" lon="-0.38953">
        <ele>35.7</ele>
        <time>2021-11-27T14:07:13Z</time>
      </trkpt>
      <trkpt lat="45.04711" lon="-0.38953">
        <ele>35.7</ele>
        <time>2021-11-27T14:07:14Z</time>
      </trkpt>
      <trkpt lat="45.04712" lon="-0.38952">
        <ele>35.6</ele>
        <time>2021-11-27T14:07:15Z</time>
      </trkpt>
      <trkpt lat="45.04713" lon="-0.38952">
        <ele>35.6</ele>
        <time>2021-11-27T14:07:16Z</time>
      </trkpt>
      <trkpt lat="45.04716" lon="-0.38953">
        <ele>35.6</ele>
        <time>2021-11-27T14:07:18Z</time>
      </trkpt>
      <trkpt lat="45.04717" lon="-0.38954">
        <ele>35.6</ele>
        <time>2021-11-27T14:07:19Z</time>
      </trkpt>
      <trkpt lat="45.04718" lon="-0.38954">
        <ele>35.4</ele>
        <time>2021-11-27T14:07:20Z</time>
      </trkpt>
      <trkpt lat="45.04721" lon="-0.38956">
        <ele>35.4</ele>
        <time>2021-11-27T14:07:22Z</time>
      </trkpt>
      <trkpt lat="45.04722" lon="-0.38956">
        <ele>35.4</ele>
        <time>2021-11-27T14:07:23Z</time>
      </trkpt>
      <trkpt lat="45.04724" lon="-0.38956">
        <ele>35.4</ele>
        <time>2021-11-27T14:07:25Z</time>
      </trkpt>
      <trkpt lat="45.04725" lon="-0.38956">
        <ele>35.4</ele>
        <time>2021-11-27T14:07:26Z</time>
      </trkpt>
      <trkpt lat="45.04727" lon="-0.38956">
        <ele>35.4</ele>
        <time>2021-11-27T14:07:27Z</time>
      </trkpt>
      <trkpt lat="45.0473" lon="-0.38956">
        <ele>35.4</ele>
        <time>2021-11-27T14:07:29Z</time>
      </trkpt>
      <trkpt lat="45.04732" lon="-0.38956">
        <ele>35.4</ele>
        <time>2021-11-27T14:07:30Z</time>
      </trkpt>
      <trkpt lat="45.04734" lon="-0.38956">
        <ele>35.5</ele>
        <time>2021-11-27T14:07:32Z</time>
      </trkpt>
      <trkpt lat="45.04737" lon="-0.38956">
        <ele>35.5</ele>
        <time>2021-11-27T14:07:33Z</time>
      </trkpt>
      <trkpt lat="45.04737" lon="-0.38956">
        <ele>35.5</ele>
        <time>2021-11-27T14:07:34Z</time>
      </trkpt>
      <trkpt lat="45.04739" lon="-0.38956">
        <ele>35.5</ele>
        <time>2021-11-27T14:07:35Z</time>
      </trkpt>
      <trkpt lat="45.0474" lon="-0.38956">
        <ele>35.6</ele>
        <time>2021-11-27T14:07:37Z</time>
      </trkpt>
      <trkpt lat="45.04742" lon="-0.38957">
        <ele>35.7</ele>
        <time>2021-11-27T14:07:38Z</time>
      </trkpt>
      <trkpt lat="45.04744" lon="-0.38957">
        <ele>35.7</ele>
        <time>2021-11-27T14:07:39Z</time>
      </trkpt>
      <trkpt lat="45.04745" lon="-0.38957">
        <ele>35.7</ele>
        <time>2021-11-27T14:07:40Z</time>
      </trkpt>
      <trkpt lat="45.04746" lon="-0.38958">
        <ele>35.8</ele>
        <time>2021-11-27T14:07:41Z</time>
      </trkpt>
      <trkpt lat="45.04749" lon="-0.38958">
        <ele>35.9</ele>
        <time>2021-11-27T14:07:43Z</time>
      </trkpt>
      <trkpt lat="45.04751" lon="-0.38958">
        <ele>36</ele>
        <time>2021-11-27T14:07:45Z</time>
      </trkpt>
      <trkpt lat="45.04752" lon="-0.38958">
        <ele>36</ele>
        <time>2021-11-27T14:07:46Z</time>
      </trkpt>
      <trkpt lat="45.04755" lon="-0.38958">
        <ele>36.1</ele>
        <time>2021-11-27T14:07:48Z</time>
      </trkpt>
      <trkpt lat="45.04756" lon="-0.38958">
        <ele>36.1</ele>
        <time>2021-11-27T14:07:49Z</time>
      </trkpt>
      <trkpt lat="45.04758" lon="-0.38959">
        <ele>36.2</ele>
        <time>2021-11-27T14:07:50Z</time>
      </trkpt>
      <trkpt lat="45.04759" lon="-0.38959">
        <ele>36.2</ele>
        <time>2021-11-27T14:07:51Z</time>
      </trkpt>
      <trkpt lat="45.04762" lon="-0.38961">
        <ele>36.3</ele>
        <time>2021-11-27T14:07:53Z</time>
      </trkpt>
      <trkpt lat="45.04763" lon="-0.38961">
        <ele>36.3</ele>
        <time>2021-11-27T14:07:54Z</time>
      </trkpt>
      <trkpt lat="45.04765" lon="-0.38962">
        <ele>36.5</ele>
        <time>2021-11-27T14:07:55Z</time>
      </trkpt>
      <trkpt lat="45.04767" lon="-0.38963">
        <ele>36.6</ele>
        <time>2021-11-27T14:07:57Z</time>
      </trkpt>
      <trkpt lat="45.04767" lon="-0.38965">
        <ele>36.6</ele>
        <time>2021-11-27T14:07:58Z</time>
      </trkpt>
      <trkpt lat="45.04769" lon="-0.38966">
        <ele>36.6</ele>
        <time>2021-11-27T14:07:59Z</time>
      </trkpt>
      <trkpt lat="45.04771" lon="-0.38968">
        <ele>36.6</ele>
        <time>2021-11-27T14:08:01Z</time>
      </trkpt>
      <trkpt lat="45.04772" lon="-0.38969">
        <ele>36.6</ele>
        <time>2021-11-27T14:08:02Z</time>
      </trkpt>
      <trkpt lat="45.04773" lon="-0.3897">
        <ele>36.8</ele>
        <time>2021-11-27T14:08:03Z</time>
      </trkpt>
      <trkpt lat="45.04774" lon="-0.38971">
        <ele>36.8</ele>
        <time>2021-11-27T14:08:04Z</time>
      </trkpt>
      <trkpt lat="45.04776" lon="-0.38972">
        <ele>36.9</ele>
        <time>2021-11-27T14:08:06Z</time>
      </trkpt>
      <trkpt lat="45.04777" lon="-0.38974">
        <ele>36.9</ele>
        <time>2021-11-27T14:08:07Z</time>
      </trkpt>
      <trkpt lat="45.0478" lon="-0.38975">
        <ele>37.1</ele>
        <time>2021-11-27T14:08:09Z</time>
      </trkpt>
      <trkpt lat="45.04781" lon="-0.38977">
        <ele>37.1</ele>
        <time>2021-11-27T14:08:10Z</time>
      </trkpt>
      <trkpt lat="45.04783" lon="-0.38978">
        <ele>37.2</ele>
        <time>2021-11-27T14:08:12Z</time>
      </trkpt>
      <trkpt lat="45.04787" lon="-0.38981">
        <ele>37.4</ele>
        <time>2021-11-27T14:08:14Z</time>
      </trkpt>
      <trkpt lat="45.04788" lon="-0.38982">
        <ele>37.4</ele>
        <time>2021-11-27T14:08:15Z</time>
      </trkpt>
      <trkpt lat="45.04789" lon="-0.38983">
        <ele>37.5</ele>
        <time>2021-11-27T14:08:16Z</time>
      </trkpt>
      <trkpt lat="45.0479" lon="-0.38985">
        <ele>37.5</ele>
        <time>2021-11-27T14:08:18Z</time>
      </trkpt>
      <trkpt lat="45.04791" lon="-0.38986">
        <ele>37.6</ele>
        <time>2021-11-27T14:08:19Z</time>
      </trkpt>
      <trkpt lat="45.04793" lon="-0.38987">
        <ele>37.6</ele>
        <time>2021-11-27T14:08:20Z</time>
      </trkpt>
      <trkpt lat="45.04794" lon="-0.38988">
        <ele>37.8</ele>
        <time>2021-11-27T14:08:21Z</time>
      </trkpt>
      <trkpt lat="45.04795" lon="-0.38989">
        <ele>37.7</ele>
        <time>2021-11-27T14:08:22Z</time>
      </trkpt>
      <trkpt lat="45.04796" lon="-0.38991">
        <ele>37.7</ele>
        <time>2021-11-27T14:08:23Z</time>
      </trkpt>
      <trkpt lat="45.04798" lon="-0.38992">
        <ele>37.9</ele>
        <time>2021-11-27T14:08:24Z</time>
      </trkpt>
      <trkpt lat="45.048" lon="-0.38995">
        <ele>37.9</ele>
        <time>2021-11-27T14:08:26Z</time>
      </trkpt>
      <trkpt lat="45.04801" lon="-0.38996">
        <ele>37.9</ele>
        <time>2021-11-27T14:08:27Z</time>
      </trkpt>
      <trkpt lat="45.04802" lon="-0.38998">
        <ele>37.9</ele>
        <time>2021-11-27T14:08:28Z</time>
      </trkpt>
      <trkpt lat="45.04803" lon="-0.38998">
        <ele>38</ele>
        <time>2021-11-27T14:08:29Z</time>
      </trkpt>
      <trkpt lat="45.04803" lon="-0.38999">
        <ele>38</ele>
        <time>2021-11-27T14:08:30Z</time>
      </trkpt>
      <trkpt lat="45.04805" lon="-0.39001">
        <ele>38</ele>
        <time>2021-11-27T14:08:31Z</time>
      </trkpt>
      <trkpt lat="45.04805" lon="-0.39002">
        <ele>37.9</ele>
        <time>2021-11-27T14:08:33Z</time>
      </trkpt>
      <trkpt lat="45.04806" lon="-0.39002">
        <ele>38.1</ele>
        <time>2021-11-27T14:08:34Z</time>
      </trkpt>
      <trkpt lat="45.04807" lon="-0.39005">
        <ele>38.1</ele>
        <time>2021-11-27T14:08:35Z</time>
      </trkpt>
      <trkpt lat="45.04808" lon="-0.39006">
        <ele>38</ele>
        <time>2021-11-27T14:08:36Z</time>
      </trkpt>
      <trkpt lat="45.04809" lon="-0.39007">
        <ele>38.1</ele>
        <time>2021-11-27T14:08:37Z</time>
      </trkpt>
      <trkpt lat="45.04811" lon="-0.39008">
        <ele>38.1</ele>
        <time>2021-11-27T14:08:39Z</time>
      </trkpt>
      <trkpt lat="45.04813" lon="-0.39009">
        <ele>38.2</ele>
        <time>2021-11-27T14:08:40Z</time>
      </trkpt>
      <trkpt lat="45.04814" lon="-0.39009">
        <ele>38.2</ele>
        <time>2021-11-27T14:08:41Z</time>
      </trkpt>
      <trkpt lat="45.04816" lon="-0.3901">
        <ele>38.3</ele>
        <time>2021-11-27T14:08:42Z</time>
      </trkpt>
      <trkpt lat="45.04818" lon="-0.3901">
        <ele>38.3</ele>
        <time>2021-11-27T14:08:44Z</time>
      </trkpt>
      <trkpt lat="45.0482" lon="-0.3901">
        <ele>38.3</ele>
        <time>2021-11-27T14:08:45Z</time>
      </trkpt>
      <trkpt lat="45.04821" lon="-0.3901">
        <ele>38.5</ele>
        <time>2021-11-27T14:08:46Z</time>
      </trkpt>
      <trkpt lat="45.04823" lon="-0.3901">
        <ele>38.5</ele>
        <time>2021-11-27T14:08:48Z</time>
      </trkpt>
      <trkpt lat="45.04824" lon="-0.39009">
        <ele>38.6</ele>
        <time>2021-11-27T14:08:49Z</time>
      </trkpt>
      <trkpt lat="45.04825" lon="-0.39009">
        <ele>38.6</ele>
        <time>2021-11-27T14:08:50Z</time>
      </trkpt>
      <trkpt lat="45.04827" lon="-0.39008">
        <ele>38.6</ele>
        <time>2021-11-27T14:08:51Z</time>
      </trkpt>
      <trkpt lat="45.04828" lon="-0.39008">
        <ele>38.7</ele>
        <time>2021-11-27T14:08:52Z</time>
      </trkpt>
      <trkpt lat="45.04829" lon="-0.39008">
        <ele>38.7</ele>
        <time>2021-11-27T14:08:53Z</time>
      </trkpt>
      <trkpt lat="45.0483" lon="-0.39007">
        <ele>38.8</ele>
        <time>2021-11-27T14:08:54Z</time>
      </trkpt>
      <trkpt lat="45.04831" lon="-0.39007">
        <ele>38.8</ele>
        <time>2021-11-27T14:08:55Z</time>
      </trkpt>
      <trkpt lat="45.04832" lon="-0.39008">
        <ele>38.8</ele>
        <time>2021-11-27T14:08:57Z</time>
      </trkpt>
      <trkpt lat="45.04832" lon="-0.39008">
        <ele>38.8</ele>
        <time>2021-11-27T14:08:59Z</time>
      </trkpt>
      <trkpt lat="45.04832" lon="-0.39008">
        <ele>38.8</ele>
        <time>2021-11-27T14:09:00Z</time>
      </trkpt>
      <trkpt lat="45.04832" lon="-0.39008">
        <ele>38.8</ele>
        <time>2021-11-27T14:09:01Z</time>
      </trkpt>
      <trkpt lat="45.04833" lon="-0.39008">
        <ele>38.8</ele>
        <time>2021-11-27T14:09:02Z</time>
      </trkpt>
      <trkpt lat="45.04836" lon="-0.39009">
        <ele>38.8</ele>
        <time>2021-11-27T14:09:04Z</time>
      </trkpt>
      <trkpt lat="45.04838" lon="-0.39012">
        <ele>38.8</ele>
        <time>2021-11-27T14:09:05Z</time>
      </trkpt>
      <trkpt lat="45.04839" lon="-0.39013">
        <ele>38.8</ele>
        <time>2021-11-27T14:09:06Z</time>
      </trkpt>
      <trkpt lat="45.0484" lon="-0.39015">
        <ele>38.7</ele>
        <time>2021-11-27T14:09:07Z</time>
      </trkpt>
      <trkpt lat="45.04842" lon="-0.39016">
        <ele>38.7</ele>
        <time>2021-11-27T14:09:09Z</time>
      </trkpt>
      <trkpt lat="45.04844" lon="-0.39017">
        <ele>38.8</ele>
        <time>2021-11-27T14:09:10Z</time>
      </trkpt>
      <trkpt lat="45.04845" lon="-0.39017">
        <ele>38.8</ele>
        <time>2021-11-27T14:09:11Z</time>
      </trkpt>
      <trkpt lat="45.04846" lon="-0.39018">
        <ele>38.8</ele>
        <time>2021-11-27T14:09:12Z</time>
      </trkpt>
      <trkpt lat="45.04847" lon="-0.39018">
        <ele>38.8</ele>
        <time>2021-11-27T14:09:14Z</time>
      </trkpt>
      <trkpt lat="45.04849" lon="-0.39018">
        <ele>38.9</ele>
        <time>2021-11-27T14:09:15Z</time>
      </trkpt>
      <trkpt lat="45.04851" lon="-0.39016">
        <ele>38.9</ele>
        <time>2021-11-27T14:09:16Z</time>
      </trkpt>
      <trkpt lat="45.04852" lon="-0.39015">
        <ele>38.9</ele>
        <time>2021-11-27T14:09:17Z</time>
      </trkpt>
      <trkpt lat="45.04852" lon="-0.39013">
        <ele>39.1</ele>
        <time>2021-11-27T14:09:19Z</time>
      </trkpt>
      <trkpt lat="45.04853" lon="-0.39011">
        <ele>39.1</ele>
        <time>2021-11-27T14:09:20Z</time>
      </trkpt>
      <trkpt lat="45.04854" lon="-0.3901">
        <ele>39.2</ele>
        <time>2021-11-27T14:09:21Z</time>
      </trkpt>
      <trkpt lat="45.04855" lon="-0.39008">
        <ele>39.3</ele>
        <time>2021-11-27T14:09:22Z</time>
      </trkpt>
      <trkpt lat="45.04856" lon="-0.39007">
        <ele>39.3</ele>
        <time>2021-11-27T14:09:23Z</time>
      </trkpt>
      <trkpt lat="45.04857" lon="-0.39005">
        <ele>39.4</ele>
        <time>2021-11-27T14:09:25Z</time>
      </trkpt>
      <trkpt lat="45.04858" lon="-0.39003">
        <ele>39.5</ele>
        <time>2021-11-27T14:09:26Z</time>
      </trkpt>
      <trkpt lat="45.04858" lon="-0.39002">
        <ele>39.5</ele>
        <time>2021-11-27T14:09:27Z</time>
      </trkpt>
      <trkpt lat="45.04859" lon="-0.39">
        <ele>39.6</ele>
        <time>2021-11-27T14:09:29Z</time>
      </trkpt>
      <trkpt lat="45.04859" lon="-0.38997">
        <ele>39.6</ele>
        <time>2021-11-27T14:09:30Z</time>
      </trkpt>
      <trkpt lat="45.04859" lon="-0.38995">
        <ele>39.8</ele>
        <time>2021-11-27T14:09:31Z</time>
      </trkpt>
      <trkpt lat="45.0486" lon="-0.38994">
        <ele>39.8</ele>
        <time>2021-11-27T14:09:33Z</time>
      </trkpt>
      <trkpt lat="45.0486" lon="-0.38993">
        <ele>39.9</ele>
        <time>2021-11-27T14:09:34Z</time>
      </trkpt>
      <trkpt lat="45.04861" lon="-0.38992">
        <ele>40</ele>
        <time>2021-11-27T14:09:35Z</time>
      </trkpt>
      <trkpt lat="45.04862" lon="-0.38992">
        <ele>40</ele>
        <time>2021-11-27T14:09:36Z</time>
      </trkpt>
      <trkpt lat="45.04863" lon="-0.38992">
        <ele>40</ele>
        <time>2021-11-27T14:09:37Z</time>
      </trkpt>
      <trkpt lat="45.04864" lon="-0.38993">
        <ele>39.9</ele>
        <time>2021-11-27T14:09:38Z</time>
      </trkpt>
      <trkpt lat="45.04865" lon="-0.38994">
        <ele>39.9</ele>
        <time>2021-11-27T14:09:40Z</time>
      </trkpt>
      <trkpt lat="45.04867" lon="-0.38994">
        <ele>40</ele>
        <time>2021-11-27T14:09:41Z</time>
      </trkpt>
      <trkpt lat="45.04869" lon="-0.38995">
        <ele>40</ele>
        <time>2021-11-27T14:09:42Z</time>
      </trkpt>
      <trkpt lat="45.0487" lon="-0.38996">
        <ele>40.1</ele>
        <time>2021-11-27T14:09:44Z</time>
      </trkpt>
      <trkpt lat="45.04871" lon="-0.38996">
        <ele>40.1</ele>
        <time>2021-11-27T14:09:45Z</time>
      </trkpt>
      <trkpt lat="45.04873" lon="-0.38997">
        <ele>40.1</ele>
        <time>2021-11-27T14:09:47Z</time>
      </trkpt>
      <trkpt lat="45.04873" lon="-0.38998">
        <ele>40</ele>
        <time>2021-11-27T14:09:48Z</time>
      </trkpt>
      <trkpt lat="45.04874" lon="-0.38998">
        <ele>40</ele>
        <time>2021-11-27T14:09:49Z</time>
      </trkpt>
      <trkpt lat="45.04876" lon="-0.39">
        <ele>40</ele>
        <time>2021-11-27T14:09:51Z</time>
      </trkpt>
      <trkpt lat="45.04877" lon="-0.39">
        <ele>40</ele>
        <time>2021-11-27T14:09:52Z</time>
      </trkpt>
      <trkpt lat="45.04878" lon="-0.39001">
        <ele>40</ele>
        <time>2021-11-27T14:09:53Z</time>
      </trkpt>
      <trkpt lat="45.04879" lon="-0.39001">
        <ele>40.1</ele>
        <time>2021-11-27T14:09:54Z</time>
      </trkpt>
      <trkpt lat="45.04881" lon="-0.39002">
        <ele>39.9</ele>
        <time>2021-11-27T14:09:56Z</time>
      </trkpt>
      <trkpt lat="45.04881" lon="-0.39002">
        <ele>39.9</ele>
        <time>2021-11-27T14:09:57Z</time>
      </trkpt>
      <trkpt lat="45.04882" lon="-0.39002">
        <ele>39.9</ele>
        <time>2021-11-27T14:09:58Z</time>
      </trkpt>
      <trkpt lat="45.04884" lon="-0.39001">
        <ele>40.1</ele>
        <time>2021-11-27T14:09:59Z</time>
      </trkpt>
      <trkpt lat="45.04885" lon="-0.39001">
        <ele>40.2</ele>
        <time>2021-11-27T14:10:00Z</time>
      </trkpt>
      <trkpt lat="45.04886" lon="-0.39001">
        <ele>40.2</ele>
        <time>2021-11-27T14:10:01Z</time>
      </trkpt>
      <trkpt lat="45.04888" lon="-0.39001">
        <ele>40.2</ele>
        <time>2021-11-27T14:10:03Z</time>
      </trkpt>
      <trkpt lat="45.04889" lon="-0.39002">
        <ele>40.1</ele>
        <time>2021-11-27T14:10:04Z</time>
      </trkpt>
      <trkpt lat="45.04892" lon="-0.39004">
        <ele>40.1</ele>
        <time>2021-11-27T14:10:06Z</time>
      </trkpt>
      <trkpt lat="45.04893" lon="-0.39006">
        <ele>39.9</ele>
        <time>2021-11-27T14:10:07Z</time>
      </trkpt>
      <trkpt lat="45.04894" lon="-0.39007">
        <ele>40</ele>
        <time>2021-11-27T14:10:08Z</time>
      </trkpt>
      <trkpt lat="45.04895" lon="-0.39009">
        <ele>40</ele>
        <time>2021-11-27T14:10:09Z</time>
      </trkpt>
      <trkpt lat="45.04896" lon="-0.39012">
        <ele>39.8</ele>
        <time>2021-11-27T14:10:11Z</time>
      </trkpt>
      <trkpt lat="45.04896" lon="-0.39013">
        <ele>39.8</ele>
        <time>2021-11-27T14:10:12Z</time>
      </trkpt>
      <trkpt lat="45.04896" lon="-0.39013">
        <ele>39.8</ele>
        <time>2021-11-27T14:10:13Z</time>
      </trkpt>
      <trkpt lat="45.04897" lon="-0.39013">
        <ele>39.9</ele>
        <time>2021-11-27T14:10:15Z</time>
      </trkpt>
      <trkpt lat="45.04897" lon="-0.39013">
        <ele>39.9</ele>
        <time>2021-11-27T14:10:16Z</time>
      </trkpt>
      <trkpt lat="45.04897" lon="-0.39015">
        <ele>39.7</ele>
        <time>2021-11-27T14:10:18Z</time>
      </trkpt>
      <trkpt lat="45.04897" lon="-0.39017">
        <ele>39.7</ele>
        <time>2021-11-27T14:10:19Z</time>
      </trkpt>
      <trkpt lat="45.04897" lon="-0.39019">
        <ele>39.5</ele>
        <time>2021-11-27T14:10:20Z</time>
      </trkpt>
      <trkpt lat="45.04897" lon="-0.39021">
        <ele>39.5</ele>
        <time>2021-11-27T14:10:21Z</time>
      </trkpt>
      <trkpt lat="45.04898" lon="-0.39023">
        <ele>39.5</ele>
        <time>2021-11-27T14:10:22Z</time>
      </trkpt>
      <trkpt lat="45.04898" lon="-0.39024">
        <ele>39.3</ele>
        <time>2021-11-27T14:10:23Z</time>
      </trkpt>
      <trkpt lat="45.04899" lon="-0.39025">
        <ele>39.3</ele>
        <time>2021-11-27T14:10:24Z</time>
      </trkpt>
      <trkpt lat="45.04901" lon="-0.39026">
        <ele>39.5</ele>
        <time>2021-11-27T14:10:25Z</time>
      </trkpt>
      <trkpt lat="45.04902" lon="-0.39026">
        <ele>39.5</ele>
        <time>2021-11-27T14:10:27Z</time>
      </trkpt>
      <trkpt lat="45.04903" lon="-0.39026">
        <ele>39.6</ele>
        <time>2021-11-27T14:10:28Z</time>
      </trkpt>
      <trkpt lat="45.04905" lon="-0.39028">
        <ele>39.4</ele>
        <time>2021-11-27T14:10:29Z</time>
      </trkpt>
      <trkpt lat="45.04905" lon="-0.39029">
        <ele>39.4</ele>
        <time>2021-11-27T14:10:30Z</time>
      </trkpt>
      <trkpt lat="45.04906" lon="-0.3903">
        <ele>39.6</ele>
        <time>2021-11-27T14:10:31Z</time>
      </trkpt>
      <trkpt lat="45.04906" lon="-0.39032">
        <ele>39.4</ele>
        <time>2021-11-27T14:10:32Z</time>
      </trkpt>
      <trkpt lat="45.04906" lon="-0.39033">
        <ele>39.4</ele>
        <time>2021-11-27T14:10:33Z</time>
      </trkpt>
      <trkpt lat="45.04907" lon="-0.39035">
        <ele>39.5</ele>
        <time>2021-11-27T14:10:35Z</time>
      </trkpt>
      <trkpt lat="45.04907" lon="-0.39037">
        <ele>39.3</ele>
        <time>2021-11-27T14:10:36Z</time>
      </trkpt>
      <trkpt lat="45.04907" lon="-0.39038">
        <ele>39.4</ele>
        <time>2021-11-27T14:10:37Z</time>
      </trkpt>
      <trkpt lat="45.04908" lon="-0.39038">
        <ele>39.4</ele>
        <time>2021-11-27T14:10:38Z</time>
      </trkpt>
      <trkpt lat="45.04909" lon="-0.39038">
        <ele>39.5</ele>
        <time>2021-11-27T14:10:39Z</time>
      </trkpt>
      <trkpt lat="45.0491" lon="-0.39038">
        <ele>39.6</ele>
        <time>2021-11-27T14:10:40Z</time>
      </trkpt>
      <trkpt lat="45.04911" lon="-0.39038">
        <ele>39.6</ele>
        <time>2021-11-27T14:10:41Z</time>
      </trkpt>
      <trkpt lat="45.04912" lon="-0.39039">
        <ele>39.7</ele>
        <time>2021-11-27T14:10:42Z</time>
      </trkpt>
      <trkpt lat="45.04913" lon="-0.3904">
        <ele>39.8</ele>
        <time>2021-11-27T14:10:43Z</time>
      </trkpt>
      <trkpt lat="45.04914" lon="-0.39041">
        <ele>39.6</ele>
        <time>2021-11-27T14:10:44Z</time>
      </trkpt>
      <trkpt lat="45.04914" lon="-0.39043">
        <ele>39.6</ele>
        <time>2021-11-27T14:10:46Z</time>
      </trkpt>
      <trkpt lat="45.04915" lon="-0.39044">
        <ele>39.7</ele>
        <time>2021-11-27T14:10:48Z</time>
      </trkpt>
      <trkpt lat="45.04915" lon="-0.39045">
        <ele>39.5</ele>
        <time>2021-11-27T14:10:49Z</time>
      </trkpt>
      <trkpt lat="45.04914" lon="-0.39045">
        <ele>39.6</ele>
        <time>2021-11-27T14:10:50Z</time>
      </trkpt>
      <trkpt lat="45.04914" lon="-0.39045">
        <ele>39.6</ele>
        <time>2021-11-27T14:10:52Z</time>
      </trkpt>
      <trkpt lat="45.04914" lon="-0.39046">
        <ele>39.6</ele>
        <time>2021-11-27T14:10:53Z</time>
      </trkpt>
      <trkpt lat="45.04914" lon="-0.39046">
        <ele>39.7</ele>
        <time>2021-11-27T14:10:55Z</time>
      </trkpt>
      <trkpt lat="45.04914" lon="-0.39046">
        <ele>39.7</ele>
        <time>2021-11-27T14:10:56Z</time>
      </trkpt>
      <trkpt lat="45.04916" lon="-0.39047">
        <ele>39.8</ele>
        <time>2021-11-27T14:10:57Z</time>
      </trkpt>
      <trkpt lat="45.04917" lon="-0.39047">
        <ele>39.9</ele>
        <time>2021-11-27T14:10:59Z</time>
      </trkpt>
      <trkpt lat="45.04918" lon="-0.39047">
        <ele>40</ele>
        <time>2021-11-27T14:11:00Z</time>
      </trkpt>
      <trkpt lat="45.0492" lon="-0.39048">
        <ele>40</ele>
        <time>2021-11-27T14:11:01Z</time>
      </trkpt>
      <trkpt lat="45.04922" lon="-0.39049">
        <ele>39.9</ele>
        <time>2021-11-27T14:11:02Z</time>
      </trkpt>
      <trkpt lat="45.04922" lon="-0.3905">
        <ele>40</ele>
        <time>2021-11-27T14:11:04Z</time>
      </trkpt>
      <trkpt lat="45.04923" lon="-0.39052">
        <ele>40</ele>
        <time>2021-11-27T14:11:05Z</time>
      </trkpt>
      <trkpt lat="45.04925" lon="-0.39054">
        <ele>40</ele>
        <time>2021-11-27T14:11:06Z</time>
      </trkpt>
      <trkpt lat="45.04927" lon="-0.39057">
        <ele>40.1</ele>
        <time>2021-11-27T14:11:08Z</time>
      </trkpt>
      <trkpt lat="45.04928" lon="-0.39058">
        <ele>40</ele>
        <time>2021-11-27T14:11:09Z</time>
      </trkpt>
      <trkpt lat="45.04929" lon="-0.39059">
        <ele>40</ele>
        <time>2021-11-27T14:11:10Z</time>
      </trkpt>
      <trkpt lat="45.0493" lon="-0.39062">
        <ele>39.9</ele>
        <time>2021-11-27T14:11:13Z</time>
      </trkpt>
      <trkpt lat="45.04931" lon="-0.39064">
        <ele>40</ele>
        <time>2021-11-27T14:11:14Z</time>
      </trkpt>
      <trkpt lat="45.04932" lon="-0.39065">
        <ele>40</ele>
        <time>2021-11-27T14:11:15Z</time>
      </trkpt>
      <trkpt lat="45.04933" lon="-0.39066">
        <ele>40.2</ele>
        <time>2021-11-27T14:11:16Z</time>
      </trkpt>
      <trkpt lat="45.04934" lon="-0.39067">
        <ele>40</ele>
        <time>2021-11-27T14:11:17Z</time>
      </trkpt>
      <trkpt lat="45.04935" lon="-0.39069">
        <ele>40.1</ele>
        <time>2021-11-27T14:11:19Z</time>
      </trkpt>
      <trkpt lat="45.04936" lon="-0.3907">
        <ele>40.1</ele>
        <time>2021-11-27T14:11:20Z</time>
      </trkpt>
      <trkpt lat="45.04938" lon="-0.39071">
        <ele>40.1</ele>
        <time>2021-11-27T14:11:22Z</time>
      </trkpt>
      <trkpt lat="45.04939" lon="-0.39071">
        <ele>40.1</ele>
        <time>2021-11-27T14:11:23Z</time>
      </trkpt>
      <trkpt lat="45.04941" lon="-0.39071">
        <ele>40.3</ele>
        <time>2021-11-27T14:11:25Z</time>
      </trkpt>
      <trkpt lat="45.04942" lon="-0.39071">
        <ele>40.3</ele>
        <time>2021-11-27T14:11:26Z</time>
      </trkpt>
      <trkpt lat="45.04943" lon="-0.39071">
        <ele>40.5</ele>
        <time>2021-11-27T14:11:27Z</time>
      </trkpt>
      <trkpt lat="45.04943" lon="-0.39071">
        <ele>40.5</ele>
        <time>2021-11-27T14:11:28Z</time>
      </trkpt>
      <trkpt lat="45.04943" lon="-0.3907">
        <ele>40.5</ele>
        <time>2021-11-27T14:11:29Z</time>
      </trkpt>
      <trkpt lat="45.04944" lon="-0.3907">
        <ele>40.6</ele>
        <time>2021-11-27T14:11:30Z</time>
      </trkpt>
      <trkpt lat="45.04945" lon="-0.39071">
        <ele>40.6</ele>
        <time>2021-11-27T14:11:31Z</time>
      </trkpt>
      <trkpt lat="45.04945" lon="-0.39071">
        <ele>40.6</ele>
        <time>2021-11-27T14:11:32Z</time>
      </trkpt>
      <trkpt lat="45.04945" lon="-0.39072">
        <ele>40.8</ele>
        <time>2021-11-27T14:11:34Z</time>
      </trkpt>
      <trkpt lat="45.04946" lon="-0.39072">
        <ele>40.8</ele>
        <time>2021-11-27T14:11:35Z</time>
      </trkpt>
      <trkpt lat="45.04946" lon="-0.39073">
        <ele>40.8</ele>
        <time>2021-11-27T14:11:36Z</time>
      </trkpt>
      <trkpt lat="45.04947" lon="-0.39073">
        <ele>40.9</ele>
        <time>2021-11-27T14:11:38Z</time>
      </trkpt>
      <trkpt lat="45.04947" lon="-0.39073">
        <ele>40.9</ele>
        <time>2021-11-27T14:11:39Z</time>
      </trkpt>
      <trkpt lat="45.04948" lon="-0.39074">
        <ele>41</ele>
        <time>2021-11-27T14:11:40Z</time>
      </trkpt>
      <trkpt lat="45.04948" lon="-0.39074">
        <ele>41</ele>
        <time>2021-11-27T14:11:42Z</time>
      </trkpt>
      <trkpt lat="45.04949" lon="-0.39074">
        <ele>40.9</ele>
        <time>2021-11-27T14:11:43Z</time>
      </trkpt>
      <trkpt lat="45.04949" lon="-0.39075">
        <ele>41</ele>
        <time>2021-11-27T14:11:44Z</time>
      </trkpt>
      <trkpt lat="45.04951" lon="-0.39078">
        <ele>41</ele>
        <time>2021-11-27T14:11:45Z</time>
      </trkpt>
      <trkpt lat="45.04951" lon="-0.39079">
        <ele>40.9</ele>
        <time>2021-11-27T14:11:46Z</time>
      </trkpt>
      <trkpt lat="45.04954" lon="-0.39081">
        <ele>41</ele>
        <time>2021-11-27T14:11:47Z</time>
      </trkpt>
      <trkpt lat="45.04954" lon="-0.39081">
        <ele>41.1</ele>
        <time>2021-11-27T14:11:48Z</time>
      </trkpt>
      <trkpt lat="45.04955" lon="-0.39081">
        <ele>41.2</ele>
        <time>2021-11-27T14:11:50Z</time>
      </trkpt>
      <trkpt lat="45.04956" lon="-0.39082">
        <ele>41.2</ele>
        <time>2021-11-27T14:11:51Z</time>
      </trkpt>
      <trkpt lat="45.04957" lon="-0.39083">
        <ele>41.3</ele>
        <time>2021-11-27T14:11:52Z</time>
      </trkpt>
      <trkpt lat="45.04958" lon="-0.39084">
        <ele>41.2</ele>
        <time>2021-11-27T14:11:53Z</time>
      </trkpt>
      <trkpt lat="45.04959" lon="-0.39085">
        <ele>41.2</ele>
        <time>2021-11-27T14:11:54Z</time>
      </trkpt>
      <trkpt lat="45.04959" lon="-0.39086">
        <ele>41.2</ele>
        <time>2021-11-27T14:11:55Z</time>
      </trkpt>
      <trkpt lat="45.0496" lon="-0.39088">
        <ele>41.1</ele>
        <time>2021-11-27T14:11:56Z</time>
      </trkpt>
      <trkpt lat="45.04961" lon="-0.3909">
        <ele>41.2</ele>
        <time>2021-11-27T14:11:58Z</time>
      </trkpt>
      <trkpt lat="45.04962" lon="-0.39092">
        <ele>41</ele>
        <time>2021-11-27T14:11:59Z</time>
      </trkpt>
      <trkpt lat="45.04963" lon="-0.39093">
        <ele>41.1</ele>
        <time>2021-11-27T14:12:00Z</time>
      </trkpt>
      <trkpt lat="45.04963" lon="-0.39094">
        <ele>41.1</ele>
        <time>2021-11-27T14:12:01Z</time>
      </trkpt>
      <trkpt lat="45.04965" lon="-0.39096">
        <ele>41</ele>
        <time>2021-11-27T14:12:03Z</time>
      </trkpt>
      <trkpt lat="45.04966" lon="-0.39097">
        <ele>41</ele>
        <time>2021-11-27T14:12:04Z</time>
      </trkpt>
      <trkpt lat="45.04968" lon="-0.39097">
        <ele>41.1</ele>
        <time>2021-11-27T14:12:05Z</time>
      </trkpt>
      <trkpt lat="45.04969" lon="-0.39096">
        <ele>41.2</ele>
        <time>2021-11-27T14:12:06Z</time>
      </trkpt>
      <trkpt lat="45.04971" lon="-0.39096">
        <ele>41.2</ele>
        <time>2021-11-27T14:12:08Z</time>
      </trkpt>
      <trkpt lat="45.04972" lon="-0.39096">
        <ele>41.2</ele>
        <time>2021-11-27T14:12:09Z</time>
      </trkpt>
      <trkpt lat="45.04972" lon="-0.39097">
        <ele>41.4</ele>
        <time>2021-11-27T14:12:10Z</time>
      </trkpt>
      <trkpt lat="45.04974" lon="-0.39099">
        <ele>41.4</ele>
        <time>2021-11-27T14:12:12Z</time>
      </trkpt>
      <trkpt lat="45.04975" lon="-0.39102">
        <ele>41.2</ele>
        <time>2021-11-27T14:12:13Z</time>
      </trkpt>
      <trkpt lat="45.04976" lon="-0.39103">
        <ele>41.3</ele>
        <time>2021-11-27T14:12:14Z</time>
      </trkpt>
      <trkpt lat="45.04977" lon="-0.39105">
        <ele>41.1</ele>
        <time>2021-11-27T14:12:15Z</time>
      </trkpt>
      <trkpt lat="45.04978" lon="-0.39107">
        <ele>41.2</ele>
        <time>2021-11-27T14:12:16Z</time>
      </trkpt>
      <trkpt lat="45.04979" lon="-0.39111">
        <ele>41</ele>
        <time>2021-11-27T14:12:17Z</time>
      </trkpt>
      <trkpt lat="45.0498" lon="-0.39112">
        <ele>41</ele>
        <time>2021-11-27T14:12:19Z</time>
      </trkpt>
      <trkpt lat="45.0498" lon="-0.39113">
        <ele>40.9</ele>
        <time>2021-11-27T14:12:20Z</time>
      </trkpt>
      <trkpt lat="45.04981" lon="-0.39114">
        <ele>40.9</ele>
        <time>2021-11-27T14:12:21Z</time>
      </trkpt>
      <trkpt lat="45.04981" lon="-0.39115">
        <ele>41</ele>
        <time>2021-11-27T14:12:22Z</time>
      </trkpt>
      <trkpt lat="45.04984" lon="-0.39116">
        <ele>41</ele>
        <time>2021-11-27T14:12:23Z</time>
      </trkpt>
      <trkpt lat="45.04984" lon="-0.39117">
        <ele>41</ele>
        <time>2021-11-27T14:12:24Z</time>
      </trkpt>
      <trkpt lat="45.04985" lon="-0.39117">
        <ele>41.1</ele>
        <time>2021-11-27T14:12:25Z</time>
      </trkpt>
      <trkpt lat="45.04986" lon="-0.39118">
        <ele>40.9</ele>
        <time>2021-11-27T14:12:26Z</time>
      </trkpt>
      <trkpt lat="45.04987" lon="-0.39119">
        <ele>40.9</ele>
        <time>2021-11-27T14:12:27Z</time>
      </trkpt>
      <trkpt lat="45.04989" lon="-0.39122">
        <ele>40.9</ele>
        <time>2021-11-27T14:12:28Z</time>
      </trkpt>
      <trkpt lat="45.0499" lon="-0.39123">
        <ele>40.7</ele>
        <time>2021-11-27T14:12:29Z</time>
      </trkpt>
      <trkpt lat="45.0499" lon="-0.39123">
        <ele>40.7</ele>
        <time>2021-11-27T14:12:30Z</time>
      </trkpt>
      <trkpt lat="45.04991" lon="-0.39125">
        <ele>40.8</ele>
        <time>2021-11-27T14:12:31Z</time>
      </trkpt>
      <trkpt lat="45.04992" lon="-0.39126">
        <ele>40.6</ele>
        <time>2021-11-27T14:12:32Z</time>
      </trkpt>
      <trkpt lat="45.04994" lon="-0.39128">
        <ele>40.6</ele>
        <time>2021-11-27T14:12:34Z</time>
      </trkpt>
      <trkpt lat="45.04994" lon="-0.39129">
        <ele>40.6</ele>
        <time>2021-11-27T14:12:35Z</time>
      </trkpt>
      <trkpt lat="45.04995" lon="-0.3913">
        <ele>40.5</ele>
        <time>2021-11-27T14:12:36Z</time>
      </trkpt>
      <trkpt lat="45.04996" lon="-0.39132">
        <ele>40.5</ele>
        <time>2021-11-27T14:12:38Z</time>
      </trkpt>
      <trkpt lat="45.04997" lon="-0.39134">
        <ele>40.5</ele>
        <time>2021-11-27T14:12:40Z</time>
      </trkpt>
      <trkpt lat="45.04998" lon="-0.39134">
        <ele>40.5</ele>
        <time>2021-11-27T14:12:41Z</time>
      </trkpt>
      <trkpt lat="45.04999" lon="-0.39135">
        <ele>40.4</ele>
        <time>2021-11-27T14:12:42Z</time>
      </trkpt>
      <trkpt lat="45.05001" lon="-0.39135">
        <ele>40.6</ele>
        <time>2021-11-27T14:12:43Z</time>
      </trkpt>
      <trkpt lat="45.05002" lon="-0.39134">
        <ele>40.6</ele>
        <time>2021-11-27T14:12:44Z</time>
      </trkpt>
      <trkpt lat="45.05003" lon="-0.39134">
        <ele>40.6</ele>
        <time>2021-11-27T14:12:45Z</time>
      </trkpt>
      <trkpt lat="45.05005" lon="-0.39133">
        <ele>40.6</ele>
        <time>2021-11-27T14:12:47Z</time>
      </trkpt>
      <trkpt lat="45.05007" lon="-0.39134">
        <ele>40.7</ele>
        <time>2021-11-27T14:12:49Z</time>
      </trkpt>
      <trkpt lat="45.05007" lon="-0.39136">
        <ele>40.5</ele>
        <time>2021-11-27T14:12:50Z</time>
      </trkpt>
      <trkpt lat="45.05008" lon="-0.39137">
        <ele>40.5</ele>
        <time>2021-11-27T14:12:51Z</time>
      </trkpt>
      <trkpt lat="45.0501" lon="-0.39138">
        <ele>40.6</ele>
        <time>2021-11-27T14:12:52Z</time>
      </trkpt>
      <trkpt lat="45.0501" lon="-0.39139">
        <ele>40.5</ele>
        <time>2021-11-27T14:12:53Z</time>
      </trkpt>
      <trkpt lat="45.05011" lon="-0.39139">
        <ele>40.5</ele>
        <time>2021-11-27T14:12:54Z</time>
      </trkpt>
      <trkpt lat="45.05012" lon="-0.39141">
        <ele>40.5</ele>
        <time>2021-11-27T14:12:55Z</time>
      </trkpt>
      <trkpt lat="45.05012" lon="-0.39142">
        <ele>40.5</ele>
        <time>2021-11-27T14:12:56Z</time>
      </trkpt>
      <trkpt lat="45.05012" lon="-0.39146">
        <ele>40.5</ele>
        <time>2021-11-27T14:12:58Z</time>
      </trkpt>
      <trkpt lat="45.05012" lon="-0.39148">
        <ele>40.3</ele>
        <time>2021-11-27T14:13:00Z</time>
      </trkpt>
      <trkpt lat="45.05012" lon="-0.3915">
        <ele>40.3</ele>
        <time>2021-11-27T14:13:01Z</time>
      </trkpt>
      <trkpt lat="45.05011" lon="-0.39152">
        <ele>40.3</ele>
        <time>2021-11-27T14:13:02Z</time>
      </trkpt>
      <trkpt lat="45.05011" lon="-0.39154">
        <ele>40.3</ele>
        <time>2021-11-27T14:13:03Z</time>
      </trkpt>
      <trkpt lat="45.05011" lon="-0.39155">
        <ele>40.3</ele>
        <time>2021-11-27T14:13:04Z</time>
      </trkpt>
      <trkpt lat="45.05011" lon="-0.39155">
        <ele>40.3</ele>
        <time>2021-11-27T14:13:05Z</time>
      </trkpt>
      <trkpt lat="45.05012" lon="-0.39154">
        <ele>40.3</ele>
        <time>2021-11-27T14:13:08Z</time>
      </trkpt>
      <trkpt lat="45.05012" lon="-0.39153">
        <ele>40.3</ele>
        <time>2021-11-27T14:13:09Z</time>
      </trkpt>
      <trkpt lat="45.05012" lon="-0.39152">
        <ele>40.3</ele>
        <time>2021-11-27T14:13:10Z</time>
      </trkpt>
      <trkpt lat="45.05012" lon="-0.39151">
        <ele>40.3</ele>
        <time>2021-11-27T14:13:11Z</time>
      </trkpt>
      <trkpt lat="45.05012" lon="-0.3915">
        <ele>40.4</ele>
        <time>2021-11-27T14:13:12Z</time>
      </trkpt>
      <trkpt lat="45.05013" lon="-0.39147">
        <ele>40.5</ele>
        <time>2021-11-27T14:13:14Z</time>
      </trkpt>
      <trkpt lat="45.05013" lon="-0.39145">
        <ele>40.5</ele>
        <time>2021-11-27T14:13:15Z</time>
      </trkpt>
      <trkpt lat="45.05014" lon="-0.39143">
        <ele>40.5</ele>
        <time>2021-11-27T14:13:16Z</time>
      </trkpt>
      <trkpt lat="45.05015" lon="-0.3914">
        <ele>40.6</ele>
        <time>2021-11-27T14:13:18Z</time>
      </trkpt>
      <trkpt lat="45.05016" lon="-0.3914">
        <ele>40.6</ele>
        <time>2021-11-27T14:13:19Z</time>
      </trkpt>
      <trkpt lat="45.05018" lon="-0.39139">
        <ele>40.8</ele>
        <time>2021-11-27T14:13:20Z</time>
      </trkpt>
      <trkpt lat="45.05019" lon="-0.39137">
        <ele>40.8</ele>
        <time>2021-11-27T14:13:21Z</time>
      </trkpt>
      <trkpt lat="45.0502" lon="-0.39136">
        <ele>40.8</ele>
        <time>2021-11-27T14:13:22Z</time>
      </trkpt>
      <trkpt lat="45.05022" lon="-0.39135">
        <ele>40.9</ele>
        <time>2021-11-27T14:13:23Z</time>
      </trkpt>
      <trkpt lat="45.05023" lon="-0.39133">
        <ele>40.9</ele>
        <time>2021-11-27T14:13:25Z</time>
      </trkpt>
      <trkpt lat="45.05023" lon="-0.39131">
        <ele>40.9</ele>
        <time>2021-11-27T14:13:26Z</time>
      </trkpt>
      <trkpt lat="45.05025" lon="-0.39129">
        <ele>41.2</ele>
        <time>2021-11-27T14:13:27Z</time>
      </trkpt>
      <trkpt lat="45.05027" lon="-0.39128">
        <ele>41.2</ele>
        <time>2021-11-27T14:13:29Z</time>
      </trkpt>
      <trkpt lat="45.05027" lon="-0.39128">
        <ele>41.2</ele>
        <time>2021-11-27T14:13:30Z</time>
      </trkpt>
      <trkpt lat="45.05027" lon="-0.39127">
        <ele>41.2</ele>
        <time>2021-11-27T14:13:32Z</time>
      </trkpt>
      <trkpt lat="45.05027" lon="-0.39126">
        <ele>41.3</ele>
        <time>2021-11-27T14:13:33Z</time>
      </trkpt>
      <trkpt lat="45.05028" lon="-0.39125">
        <ele>41.3</ele>
        <time>2021-11-27T14:13:34Z</time>
      </trkpt>
      <trkpt lat="45.05028" lon="-0.39123">
        <ele>41.3</ele>
        <time>2021-11-27T14:13:35Z</time>
      </trkpt>
      <trkpt lat="45.05029" lon="-0.39121">
        <ele>41.4</ele>
        <time>2021-11-27T14:13:37Z</time>
      </trkpt>
      <trkpt lat="45.0503" lon="-0.39119">
        <ele>41.5</ele>
        <time>2021-11-27T14:13:38Z</time>
      </trkpt>
      <trkpt lat="45.05031" lon="-0.39117">
        <ele>41.6</ele>
        <time>2021-11-27T14:13:39Z</time>
      </trkpt>
      <trkpt lat="45.05031" lon="-0.39116">
        <ele>41.6</ele>
        <time>2021-11-27T14:13:40Z</time>
      </trkpt>
      <trkpt lat="45.05031" lon="-0.39115">
        <ele>41.6</ele>
        <time>2021-11-27T14:13:41Z</time>
      </trkpt>
      <trkpt lat="45.05032" lon="-0.39113">
        <ele>41.7</ele>
        <time>2021-11-27T14:13:42Z</time>
      </trkpt>
      <trkpt lat="45.05032" lon="-0.3911">
        <ele>41.7</ele>
        <time>2021-11-27T14:13:43Z</time>
      </trkpt>
      <trkpt lat="45.05033" lon="-0.39109">
        <ele>41.7</ele>
        <time>2021-11-27T14:13:44Z</time>
      </trkpt>
      <trkpt lat="45.05033" lon="-0.39108">
        <ele>41.8</ele>
        <time>2021-11-27T14:13:45Z</time>
      </trkpt>
      <trkpt lat="45.05034" lon="-0.39107">
        <ele>41.8</ele>
        <time>2021-11-27T14:13:46Z</time>
      </trkpt>
      <trkpt lat="45.05036" lon="-0.39106">
        <ele>41.8</ele>
        <time>2021-11-27T14:13:47Z</time>
      </trkpt>
      <trkpt lat="45.05037" lon="-0.39105">
        <ele>41.8</ele>
        <time>2021-11-27T14:13:48Z</time>
      </trkpt>
      <trkpt lat="45.05038" lon="-0.39105">
        <ele>41.8</ele>
        <time>2021-11-27T14:13:49Z</time>
      </trkpt>
      <trkpt lat="45.0504" lon="-0.39105">
        <ele>41.8</ele>
        <time>2021-11-27T14:13:50Z</time>
      </trkpt>
      <trkpt lat="45.05041" lon="-0.39104">
        <ele>41.9</ele>
        <time>2021-11-27T14:13:52Z</time>
      </trkpt>
      <trkpt lat="45.05045" lon="-0.39103">
        <ele>41.9</ele>
        <time>2021-11-27T14:13:53Z</time>
      </trkpt>
      <trkpt lat="45.05046" lon="-0.39102">
        <ele>41.9</ele>
        <time>2021-11-27T14:13:54Z</time>
      </trkpt>
      <trkpt lat="45.05048" lon="-0.39101">
        <ele>41.9</ele>
        <time>2021-11-27T14:13:55Z</time>
      </trkpt>
      <trkpt lat="45.0505" lon="-0.39097">
        <ele>42</ele>
        <time>2021-11-27T14:13:57Z</time>
      </trkpt>
      <trkpt lat="45.05052" lon="-0.39095">
        <ele>42</ele>
        <time>2021-11-27T14:13:58Z</time>
      </trkpt>
      <trkpt lat="45.05053" lon="-0.39094">
        <ele>42</ele>
        <time>2021-11-27T14:13:59Z</time>
      </trkpt>
      <trkpt lat="45.05053" lon="-0.39093">
        <ele>42</ele>
        <time>2021-11-27T14:14:00Z</time>
      </trkpt>
      <trkpt lat="45.05055" lon="-0.39093">
        <ele>42</ele>
        <time>2021-11-27T14:14:01Z</time>
      </trkpt>
      <trkpt lat="45.05056" lon="-0.39093">
        <ele>42</ele>
        <time>2021-11-27T14:14:02Z</time>
      </trkpt>
      <trkpt lat="45.05059" lon="-0.39092">
        <ele>42</ele>
        <time>2021-11-27T14:14:04Z</time>
      </trkpt>
      <trkpt lat="45.0506" lon="-0.39092">
        <ele>42</ele>
        <time>2021-11-27T14:14:05Z</time>
      </trkpt>
      <trkpt lat="45.05061" lon="-0.39092">
        <ele>42</ele>
        <time>2021-11-27T14:14:07Z</time>
      </trkpt>
      <trkpt lat="45.05063" lon="-0.39091">
        <ele>42</ele>
        <time>2021-11-27T14:14:08Z</time>
      </trkpt>
      <trkpt lat="45.05064" lon="-0.3909">
        <ele>42</ele>
        <time>2021-11-27T14:14:09Z</time>
      </trkpt>
      <trkpt lat="45.05065" lon="-0.3909">
        <ele>42</ele>
        <time>2021-11-27T14:14:10Z</time>
      </trkpt>
      <trkpt lat="45.05066" lon="-0.39089">
        <ele>42</ele>
        <time>2021-11-27T14:14:11Z</time>
      </trkpt>
      <trkpt lat="45.05068" lon="-0.39087">
        <ele>42</ele>
        <time>2021-11-27T14:14:13Z</time>
      </trkpt>
      <trkpt lat="45.05069" lon="-0.39086">
        <ele>42</ele>
        <time>2021-11-27T14:14:14Z</time>
      </trkpt>
      <trkpt lat="45.0507" lon="-0.39083">
        <ele>42</ele>
        <time>2021-11-27T14:14:16Z</time>
      </trkpt>
      <trkpt lat="45.05071" lon="-0.39083">
        <ele>42.1</ele>
        <time>2021-11-27T14:14:17Z</time>
      </trkpt>
      <trkpt lat="45.05071" lon="-0.39082">
        <ele>42.1</ele>
        <time>2021-11-27T14:14:18Z</time>
      </trkpt>
      <trkpt lat="45.05072" lon="-0.3908">
        <ele>42.1</ele>
        <time>2021-11-27T14:14:19Z</time>
      </trkpt>
      <trkpt lat="45.05073" lon="-0.39078">
        <ele>42.1</ele>
        <time>2021-11-27T14:14:21Z</time>
      </trkpt>
      <trkpt lat="45.05074" lon="-0.39076">
        <ele>42.1</ele>
        <time>2021-11-27T14:14:22Z</time>
      </trkpt>
      <trkpt lat="45.05076" lon="-0.39074">
        <ele>42.1</ele>
        <time>2021-11-27T14:14:23Z</time>
      </trkpt>
      <trkpt lat="45.05077" lon="-0.39073">
        <ele>42.1</ele>
        <time>2021-11-27T14:14:24Z</time>
      </trkpt>
      <trkpt lat="45.05077" lon="-0.39072">
        <ele>42.1</ele>
        <time>2021-11-27T14:14:25Z</time>
      </trkpt>
      <trkpt lat="45.05078" lon="-0.39069">
        <ele>42.2</ele>
        <time>2021-11-27T14:14:27Z</time>
      </trkpt>
      <trkpt lat="45.05078" lon="-0.39067">
        <ele>42.2</ele>
        <time>2021-11-27T14:14:28Z</time>
      </trkpt>
      <trkpt lat="45.05079" lon="-0.39066">
        <ele>42.2</ele>
        <time>2021-11-27T14:14:29Z</time>
      </trkpt>
      <trkpt lat="45.05079" lon="-0.39065">
        <ele>42.3</ele>
        <time>2021-11-27T14:14:30Z</time>
      </trkpt>
      <trkpt lat="45.0508" lon="-0.39065">
        <ele>42.3</ele>
        <time>2021-11-27T14:14:31Z</time>
      </trkpt>
      <trkpt lat="45.0508" lon="-0.39064">
        <ele>42.3</ele>
        <time>2021-11-27T14:14:32Z</time>
      </trkpt>
      <trkpt lat="45.05081" lon="-0.39064">
        <ele>42.3</ele>
        <time>2021-11-27T14:14:34Z</time>
      </trkpt>
      <trkpt lat="45.05082" lon="-0.39063">
        <ele>42.2</ele>
        <time>2021-11-27T14:14:35Z</time>
      </trkpt>
      <trkpt lat="45.05084" lon="-0.39063">
        <ele>42.2</ele>
        <time>2021-11-27T14:14:36Z</time>
      </trkpt>
      <trkpt lat="45.05086" lon="-0.39063">
        <ele>42.1</ele>
        <time>2021-11-27T14:14:37Z</time>
      </trkpt>
      <trkpt lat="45.05089" lon="-0.39062">
        <ele>42.1</ele>
        <time>2021-11-27T14:14:38Z</time>
      </trkpt>
      <trkpt lat="45.0509" lon="-0.39062">
        <ele>42.1</ele>
        <time>2021-11-27T14:14:39Z</time>
      </trkpt>
      <trkpt lat="45.05091" lon="-0.39061">
        <ele>42.1</ele>
        <time>2021-11-27T14:14:40Z</time>
      </trkpt>
      <trkpt lat="45.05092" lon="-0.3906">
        <ele>42.1</ele>
        <time>2021-11-27T14:14:42Z</time>
      </trkpt>
      <trkpt lat="45.05094" lon="-0.39058">
        <ele>42.1</ele>
        <time>2021-11-27T14:14:43Z</time>
      </trkpt>
      <trkpt lat="45.05095" lon="-0.39057">
        <ele>42.1</ele>
        <time>2021-11-27T14:14:44Z</time>
      </trkpt>
      <trkpt lat="45.05095" lon="-0.39057">
        <ele>42.2</ele>
        <time>2021-11-27T14:14:46Z</time>
      </trkpt>
      <trkpt lat="45.05096" lon="-0.39056">
        <ele>42.2</ele>
        <time>2021-11-27T14:14:47Z</time>
      </trkpt>
      <trkpt lat="45.05098" lon="-0.39055">
        <ele>42.1</ele>
        <time>2021-11-27T14:14:48Z</time>
      </trkpt>
      <trkpt lat="45.05098" lon="-0.39054">
        <ele>42.1</ele>
        <time>2021-11-27T14:14:49Z</time>
      </trkpt>
      <trkpt lat="45.05099" lon="-0.39051">
        <ele>42.3</ele>
        <time>2021-11-27T14:14:51Z</time>
      </trkpt>
      <trkpt lat="45.05099" lon="-0.39049">
        <ele>42.3</ele>
        <time>2021-11-27T14:14:52Z</time>
      </trkpt>
      <trkpt lat="45.051" lon="-0.39047">
        <ele>42.3</ele>
        <time>2021-11-27T14:14:53Z</time>
      </trkpt>
      <trkpt lat="45.051" lon="-0.39046">
        <ele>42.3</ele>
        <time>2021-11-27T14:14:54Z</time>
      </trkpt>
      <trkpt lat="45.05101" lon="-0.39044">
        <ele>42.4</ele>
        <time>2021-11-27T14:14:55Z</time>
      </trkpt>
      <trkpt lat="45.05101" lon="-0.39043">
        <ele>42.4</ele>
        <time>2021-11-27T14:14:56Z</time>
      </trkpt>
      <trkpt lat="45.05102" lon="-0.39041">
        <ele>42.4</ele>
        <time>2021-11-27T14:14:58Z</time>
      </trkpt>
      <trkpt lat="45.05104" lon="-0.39039">
        <ele>42.5</ele>
        <time>2021-11-27T14:14:59Z</time>
      </trkpt>
      <trkpt lat="45.05105" lon="-0.39038">
        <ele>42.5</ele>
        <time>2021-11-27T14:15:00Z</time>
      </trkpt>
      <trkpt lat="45.05107" lon="-0.39038">
        <ele>42.4</ele>
        <time>2021-11-27T14:15:01Z</time>
      </trkpt>
      <trkpt lat="45.05109" lon="-0.39038">
        <ele>42.4</ele>
        <time>2021-11-27T14:15:02Z</time>
      </trkpt>
      <trkpt lat="45.05112" lon="-0.39038">
        <ele>42.2</ele>
        <time>2021-11-27T14:15:04Z</time>
      </trkpt>
      <trkpt lat="45.05113" lon="-0.39039">
        <ele>42.2</ele>
        <time>2021-11-27T14:15:05Z</time>
      </trkpt>
      <trkpt lat="45.05115" lon="-0.3904">
        <ele>42.2</ele>
        <time>2021-11-27T14:15:06Z</time>
      </trkpt>
      <trkpt lat="45.05117" lon="-0.39041">
        <ele>42.1</ele>
        <time>2021-11-27T14:15:07Z</time>
      </trkpt>
      <trkpt lat="45.05119" lon="-0.39042">
        <ele>42</ele>
        <time>2021-11-27T14:15:09Z</time>
      </trkpt>
      <trkpt lat="45.05122" lon="-0.39042">
        <ele>41.9</ele>
        <time>2021-11-27T14:15:10Z</time>
      </trkpt>
      <trkpt lat="45.05123" lon="-0.39042">
        <ele>41.9</ele>
        <time>2021-11-27T14:15:12Z</time>
      </trkpt>
      <trkpt lat="45.05125" lon="-0.39042">
        <ele>41.9</ele>
        <time>2021-11-27T14:15:13Z</time>
      </trkpt>
      <trkpt lat="45.05125" lon="-0.3904">
        <ele>41.9</ele>
        <time>2021-11-27T14:15:14Z</time>
      </trkpt>
      <trkpt lat="45.05126" lon="-0.3904">
        <ele>41.9</ele>
        <time>2021-11-27T14:15:15Z</time>
      </trkpt>
      <trkpt lat="45.05127" lon="-0.3904">
        <ele>41.9</ele>
        <time>2021-11-27T14:15:16Z</time>
      </trkpt>
      <trkpt lat="45.05127" lon="-0.3904">
        <ele>41.9</ele>
        <time>2021-11-27T14:15:18Z</time>
      </trkpt>
      <trkpt lat="45.05128" lon="-0.3904">
        <ele>41.9</ele>
        <time>2021-11-27T14:15:19Z</time>
      </trkpt>
      <trkpt lat="45.05129" lon="-0.39039">
        <ele>41.9</ele>
        <time>2021-11-27T14:15:20Z</time>
      </trkpt>
      <trkpt lat="45.0513" lon="-0.39039">
        <ele>41.9</ele>
        <time>2021-11-27T14:15:21Z</time>
      </trkpt>
      <trkpt lat="45.05131" lon="-0.39038">
        <ele>41.8</ele>
        <time>2021-11-27T14:15:22Z</time>
      </trkpt>
      <trkpt lat="45.05134" lon="-0.39037">
        <ele>41.8</ele>
        <time>2021-11-27T14:15:24Z</time>
      </trkpt>
      <trkpt lat="45.05135" lon="-0.39037">
        <ele>41.8</ele>
        <time>2021-11-27T14:15:25Z</time>
      </trkpt>
      <trkpt lat="45.05138" lon="-0.39035">
        <ele>41.8</ele>
        <time>2021-11-27T14:15:27Z</time>
      </trkpt>
      <trkpt lat="45.05139" lon="-0.39034">
        <ele>41.8</ele>
        <time>2021-11-27T14:15:28Z</time>
      </trkpt>
      <trkpt lat="45.0514" lon="-0.39033">
        <ele>41.8</ele>
        <time>2021-11-27T14:15:30Z</time>
      </trkpt>
      <trkpt lat="45.05142" lon="-0.39032">
        <ele>41.8</ele>
        <time>2021-11-27T14:15:31Z</time>
      </trkpt>
      <trkpt lat="45.05143" lon="-0.39032">
        <ele>41.8</ele>
        <time>2021-11-27T14:15:32Z</time>
      </trkpt>
      <trkpt lat="45.05145" lon="-0.39032">
        <ele>41.8</ele>
        <time>2021-11-27T14:15:33Z</time>
      </trkpt>
      <trkpt lat="45.05146" lon="-0.39032">
        <ele>41.7</ele>
        <time>2021-11-27T14:15:34Z</time>
      </trkpt>
      <trkpt lat="45.05148" lon="-0.39031">
        <ele>41.8</ele>
        <time>2021-11-27T14:15:36Z</time>
      </trkpt>
      <trkpt lat="45.0515" lon="-0.3903">
        <ele>41.8</ele>
        <time>2021-11-27T14:15:37Z</time>
      </trkpt>
      <trkpt lat="45.05151" lon="-0.3903">
        <ele>41.8</ele>
        <time>2021-11-27T14:15:38Z</time>
      </trkpt>
      <trkpt lat="45.05152" lon="-0.3903">
        <ele>41.8</ele>
        <time>2021-11-27T14:15:39Z</time>
      </trkpt>
      <trkpt lat="45.05153" lon="-0.39029">
        <ele>41.8</ele>
        <time>2021-11-27T14:15:40Z</time>
      </trkpt>
      <trkpt lat="45.05154" lon="-0.39028">
        <ele>41.8</ele>
        <time>2021-11-27T14:15:42Z</time>
      </trkpt>
      <trkpt lat="45.05155" lon="-0.39027">
        <ele>41.8</ele>
        <time>2021-11-27T14:15:43Z</time>
      </trkpt>
      <trkpt lat="45.05155" lon="-0.39027">
        <ele>41.9</ele>
        <time>2021-11-27T14:15:44Z</time>
      </trkpt>
      <trkpt lat="45.05156" lon="-0.39027">
        <ele>41.9</ele>
        <time>2021-11-27T14:15:45Z</time>
      </trkpt>
      <trkpt lat="45.05156" lon="-0.39027">
        <ele>41.9</ele>
        <time>2021-11-27T14:15:46Z</time>
      </trkpt>
      <trkpt lat="45.05157" lon="-0.39028">
        <ele>41.8</ele>
        <time>2021-11-27T14:15:48Z</time>
      </trkpt>
      <trkpt lat="45.05157" lon="-0.39029">
        <ele>41.8</ele>
        <time>2021-11-27T14:15:49Z</time>
      </trkpt>
      <trkpt lat="45.05157" lon="-0.39031">
        <ele>41.8</ele>
        <time>2021-11-27T14:15:50Z</time>
      </trkpt>
      <trkpt lat="45.05158" lon="-0.39034">
        <ele>41.8</ele>
        <time>2021-11-27T14:15:51Z</time>
      </trkpt>
      <trkpt lat="45.05158" lon="-0.39038">
        <ele>41.7</ele>
        <time>2021-11-27T14:15:53Z</time>
      </trkpt>
      <trkpt lat="45.05158" lon="-0.39039">
        <ele>41.7</ele>
        <time>2021-11-27T14:15:54Z</time>
      </trkpt>
      <trkpt lat="45.05158" lon="-0.39043">
        <ele>41.7</ele>
        <time>2021-11-27T14:15:56Z</time>
      </trkpt>
      <trkpt lat="45.05159" lon="-0.39044">
        <ele>41.6</ele>
        <time>2021-11-27T14:15:57Z</time>
      </trkpt>
      <trkpt lat="45.05159" lon="-0.39047">
        <ele>41.6</ele>
        <time>2021-11-27T14:15:58Z</time>
      </trkpt>
      <trkpt lat="45.0516" lon="-0.3905">
        <ele>41.6</ele>
        <time>2021-11-27T14:16:00Z</time>
      </trkpt>
      <trkpt lat="45.0516" lon="-0.39054">
        <ele>41.5</ele>
        <time>2021-11-27T14:16:01Z</time>
      </trkpt>
      <trkpt lat="45.05161" lon="-0.39059">
        <ele>41.5</ele>
        <time>2021-11-27T14:16:03Z</time>
      </trkpt>
      <trkpt lat="45.05161" lon="-0.3906">
        <ele>41.5</ele>
        <time>2021-11-27T14:16:04Z</time>
      </trkpt>
      <trkpt lat="45.05161" lon="-0.39062">
        <ele>41.5</ele>
        <time>2021-11-27T14:16:05Z</time>
      </trkpt>
      <trkpt lat="45.05161" lon="-0.39064">
        <ele>41.5</ele>
        <time>2021-11-27T14:16:07Z</time>
      </trkpt>
      <trkpt lat="45.0516" lon="-0.39067">
        <ele>41.5</ele>
        <time>2021-11-27T14:16:08Z</time>
      </trkpt>
      <trkpt lat="45.0516" lon="-0.39069">
        <ele>41.5</ele>
        <time>2021-11-27T14:16:09Z</time>
      </trkpt>
      <trkpt lat="45.0516" lon="-0.3907">
        <ele>41.5</ele>
        <time>2021-11-27T14:16:10Z</time>
      </trkpt>
      <trkpt lat="45.05159" lon="-0.39074">
        <ele>41.5</ele>
        <time>2021-11-27T14:16:12Z</time>
      </trkpt>
      <trkpt lat="45.05159" lon="-0.39075">
        <ele>41.5</ele>
        <time>2021-11-27T14:16:13Z</time>
      </trkpt>
      <trkpt lat="45.05159" lon="-0.3908">
        <ele>41.5</ele>
        <time>2021-11-27T14:16:15Z</time>
      </trkpt>
      <trkpt lat="45.05159" lon="-0.39082">
        <ele>41.5</ele>
        <time>2021-11-27T14:16:16Z</time>
      </trkpt>
      <trkpt lat="45.05159" lon="-0.39084">
        <ele>41.5</ele>
        <time>2021-11-27T14:16:17Z</time>
      </trkpt>
      <trkpt lat="45.05159" lon="-0.39087">
        <ele>41.5</ele>
        <time>2021-11-27T14:16:19Z</time>
      </trkpt>
      <trkpt lat="45.05159" lon="-0.39089">
        <ele>41.6</ele>
        <time>2021-11-27T14:16:20Z</time>
      </trkpt>
      <trkpt lat="45.05159" lon="-0.39092">
        <ele>41.6</ele>
        <time>2021-11-27T14:16:22Z</time>
      </trkpt>
      <trkpt lat="45.05159" lon="-0.39093">
        <ele>41.6</ele>
        <time>2021-11-27T14:16:23Z</time>
      </trkpt>
      <trkpt lat="45.05159" lon="-0.39096">
        <ele>41.7</ele>
        <time>2021-11-27T14:16:24Z</time>
      </trkpt>
      <trkpt lat="45.05159" lon="-0.39098">
        <ele>41.7</ele>
        <time>2021-11-27T14:16:26Z</time>
      </trkpt>
      <trkpt lat="45.05159" lon="-0.391">
        <ele>41.7</ele>
        <time>2021-11-27T14:16:27Z</time>
      </trkpt>
      <trkpt lat="45.05159" lon="-0.39102">
        <ele>41.8</ele>
        <time>2021-11-27T14:16:29Z</time>
      </trkpt>
      <trkpt lat="45.05159" lon="-0.39105">
        <ele>41.8</ele>
        <time>2021-11-27T14:16:30Z</time>
      </trkpt>
      <trkpt lat="45.05159" lon="-0.39107">
        <ele>41.8</ele>
        <time>2021-11-27T14:16:32Z</time>
      </trkpt>
      <trkpt lat="45.0516" lon="-0.3911">
        <ele>41.9</ele>
        <time>2021-11-27T14:16:33Z</time>
      </trkpt>
      <trkpt lat="45.0516" lon="-0.39112">
        <ele>41.9</ele>
        <time>2021-11-27T14:16:34Z</time>
      </trkpt>
      <trkpt lat="45.05161" lon="-0.39116">
        <ele>42</ele>
        <time>2021-11-27T14:16:36Z</time>
      </trkpt>
      <trkpt lat="45.05161" lon="-0.39117">
        <ele>42</ele>
        <time>2021-11-27T14:16:37Z</time>
      </trkpt>
      <trkpt lat="45.05162" lon="-0.39119">
        <ele>42</ele>
        <time>2021-11-27T14:16:38Z</time>
      </trkpt>
      <trkpt lat="45.05162" lon="-0.39121">
        <ele>42</ele>
        <time>2021-11-27T14:16:40Z</time>
      </trkpt>
      <trkpt lat="45.05162" lon="-0.39124">
        <ele>42.1</ele>
        <time>2021-11-27T14:16:41Z</time>
      </trkpt>
      <trkpt lat="45.05161" lon="-0.39127">
        <ele>42.2</ele>
        <time>2021-11-27T14:16:43Z</time>
      </trkpt>
      <trkpt lat="45.05161" lon="-0.3913">
        <ele>42.2</ele>
        <time>2021-11-27T14:16:44Z</time>
      </trkpt>
      <trkpt lat="45.0516" lon="-0.39133">
        <ele>42.3</ele>
        <time>2021-11-27T14:16:46Z</time>
      </trkpt>
      <trkpt lat="45.05159" lon="-0.39135">
        <ele>42.3</ele>
        <time>2021-11-27T14:16:47Z</time>
      </trkpt>
      <trkpt lat="45.05159" lon="-0.39136">
        <ele>42.3</ele>
        <time>2021-11-27T14:16:48Z</time>
      </trkpt>
      <trkpt lat="45.05159" lon="-0.39138">
        <ele>42.3</ele>
        <time>2021-11-27T14:16:49Z</time>
      </trkpt>
      <trkpt lat="45.05158" lon="-0.3914">
        <ele>42.4</ele>
        <time>2021-11-27T14:16:50Z</time>
      </trkpt>
      <trkpt lat="45.05158" lon="-0.39142">
        <ele>42.4</ele>
        <time>2021-11-27T14:16:51Z</time>
      </trkpt>
      <trkpt lat="45.05158" lon="-0.39144">
        <ele>42.5</ele>
        <time>2021-11-27T14:16:53Z</time>
      </trkpt>
      <trkpt lat="45.05158" lon="-0.39146">
        <ele>42.5</ele>
        <time>2021-11-27T14:16:54Z</time>
      </trkpt>
      <trkpt lat="45.05158" lon="-0.39149">
        <ele>42.6</ele>
        <time>2021-11-27T14:16:55Z</time>
      </trkpt>
      <trkpt lat="45.05158" lon="-0.39151">
        <ele>42.6</ele>
        <time>2021-11-27T14:16:56Z</time>
      </trkpt>
      <trkpt lat="45.05158" lon="-0.39153">
        <ele>42.7</ele>
        <time>2021-11-27T14:16:57Z</time>
      </trkpt>
      <trkpt lat="45.05159" lon="-0.39156">
        <ele>42.7</ele>
        <time>2021-11-27T14:16:59Z</time>
      </trkpt>
      <trkpt lat="45.05159" lon="-0.39157">
        <ele>42.7</ele>
        <time>2021-11-27T14:17:00Z</time>
      </trkpt>
      <trkpt lat="45.05159" lon="-0.3916">
        <ele>42.8</ele>
        <time>2021-11-27T14:17:01Z</time>
      </trkpt>
      <trkpt lat="45.05159" lon="-0.39164">
        <ele>42.8</ele>
        <time>2021-11-27T14:17:03Z</time>
      </trkpt>
      <trkpt lat="45.05159" lon="-0.39166">
        <ele>42.9</ele>
        <time>2021-11-27T14:17:04Z</time>
      </trkpt>
      <trkpt lat="45.0516" lon="-0.39168">
        <ele>42.9</ele>
        <time>2021-11-27T14:17:05Z</time>
      </trkpt>
      <trkpt lat="45.0516" lon="-0.39171">
        <ele>43</ele>
        <time>2021-11-27T14:17:06Z</time>
      </trkpt>
      <trkpt lat="45.05161" lon="-0.39173">
        <ele>43</ele>
        <time>2021-11-27T14:17:08Z</time>
      </trkpt>
      <trkpt lat="45.05161" lon="-0.39175">
        <ele>43.1</ele>
        <time>2021-11-27T14:17:09Z</time>
      </trkpt>
      <trkpt lat="45.05162" lon="-0.39178">
        <ele>43.1</ele>
        <time>2021-11-27T14:17:10Z</time>
      </trkpt>
      <trkpt lat="45.05162" lon="-0.39181">
        <ele>43.1</ele>
        <time>2021-11-27T14:17:12Z</time>
      </trkpt>
      <trkpt lat="45.05162" lon="-0.39184">
        <ele>43.2</ele>
        <time>2021-11-27T14:17:13Z</time>
      </trkpt>
      <trkpt lat="45.05162" lon="-0.39188">
        <ele>43.3</ele>
        <time>2021-11-27T14:17:15Z</time>
      </trkpt>
      <trkpt lat="45.05163" lon="-0.3919">
        <ele>43.3</ele>
        <time>2021-11-27T14:17:16Z</time>
      </trkpt>
      <trkpt lat="45.05163" lon="-0.39192">
        <ele>43.4</ele>
        <time>2021-11-27T14:17:18Z</time>
      </trkpt>
      <trkpt lat="45.05162" lon="-0.39197">
        <ele>43.5</ele>
        <time>2021-11-27T14:17:19Z</time>
      </trkpt>
      <trkpt lat="45.05162" lon="-0.39199">
        <ele>43.5</ele>
        <time>2021-11-27T14:17:20Z</time>
      </trkpt>
      <trkpt lat="45.05162" lon="-0.39201">
        <ele>43.6</ele>
        <time>2021-11-27T14:17:21Z</time>
      </trkpt>
      <trkpt lat="45.05161" lon="-0.39205">
        <ele>43.7</ele>
        <time>2021-11-27T14:17:23Z</time>
      </trkpt>
      <trkpt lat="45.05161" lon="-0.39207">
        <ele>43.7</ele>
        <time>2021-11-27T14:17:24Z</time>
      </trkpt>
      <trkpt lat="45.05161" lon="-0.39211">
        <ele>43.8</ele>
        <time>2021-11-27T14:17:26Z</time>
      </trkpt>
      <trkpt lat="45.05161" lon="-0.39213">
        <ele>43.9</ele>
        <time>2021-11-27T14:17:27Z</time>
      </trkpt>
      <trkpt lat="45.05161" lon="-0.39217">
        <ele>44</ele>
        <time>2021-11-27T14:17:29Z</time>
      </trkpt>
      <trkpt lat="45.0516" lon="-0.39218">
        <ele>44.1</ele>
        <time>2021-11-27T14:17:30Z</time>
      </trkpt>
      <trkpt lat="45.0516" lon="-0.3922">
        <ele>44.1</ele>
        <time>2021-11-27T14:17:31Z</time>
      </trkpt>
      <trkpt lat="45.0516" lon="-0.39222">
        <ele>44.1</ele>
        <time>2021-11-27T14:17:33Z</time>
      </trkpt>
      <trkpt lat="45.0516" lon="-0.39225">
        <ele>44.2</ele>
        <time>2021-11-27T14:17:34Z</time>
      </trkpt>
      <trkpt lat="45.05159" lon="-0.39226">
        <ele>44.2</ele>
        <time>2021-11-27T14:17:35Z</time>
      </trkpt>
      <trkpt lat="45.05159" lon="-0.39229">
        <ele>44.2</ele>
        <time>2021-11-27T14:17:37Z</time>
      </trkpt>
      <trkpt lat="45.05159" lon="-0.39231">
        <ele>44.3</ele>
        <time>2021-11-27T14:17:38Z</time>
      </trkpt>
      <trkpt lat="45.0516" lon="-0.39234">
        <ele>44.4</ele>
        <time>2021-11-27T14:17:39Z</time>
      </trkpt>
      <trkpt lat="45.0516" lon="-0.39235">
        <ele>44.4</ele>
        <time>2021-11-27T14:17:40Z</time>
      </trkpt>
      <trkpt lat="45.0516" lon="-0.39237">
        <ele>44.4</ele>
        <time>2021-11-27T14:17:42Z</time>
      </trkpt>
      <trkpt lat="45.05159" lon="-0.39238">
        <ele>44.5</ele>
        <time>2021-11-27T14:17:43Z</time>
      </trkpt>
      <trkpt lat="45.0516" lon="-0.39242">
        <ele>44.5</ele>
        <time>2021-11-27T14:17:45Z</time>
      </trkpt>
      <trkpt lat="45.0516" lon="-0.39244">
        <ele>44.6</ele>
        <time>2021-11-27T14:17:46Z</time>
      </trkpt>
      <trkpt lat="45.0516" lon="-0.39246">
        <ele>44.6</ele>
        <time>2021-11-27T14:17:47Z</time>
      </trkpt>
      <trkpt lat="45.05161" lon="-0.39247">
        <ele>44.6</ele>
        <time>2021-11-27T14:17:48Z</time>
      </trkpt>
      <trkpt lat="45.0516" lon="-0.39251">
        <ele>44.7</ele>
        <time>2021-11-27T14:17:50Z</time>
      </trkpt>
      <trkpt lat="45.0516" lon="-0.39253">
        <ele>44.7</ele>
        <time>2021-11-27T14:17:51Z</time>
      </trkpt>
      <trkpt lat="45.0516" lon="-0.39254">
        <ele>44.7</ele>
        <time>2021-11-27T14:17:52Z</time>
      </trkpt>
      <trkpt lat="45.05159" lon="-0.39257">
        <ele>44.8</ele>
        <time>2021-11-27T14:17:54Z</time>
      </trkpt>
      <trkpt lat="45.05159" lon="-0.3926">
        <ele>44.8</ele>
        <time>2021-11-27T14:17:55Z</time>
      </trkpt>
      <trkpt lat="45.05159" lon="-0.3926">
        <ele>44.8</ele>
        <time>2021-11-27T14:17:56Z</time>
      </trkpt>
      <trkpt lat="45.05159" lon="-0.39264">
        <ele>44.9</ele>
        <time>2021-11-27T14:17:58Z</time>
      </trkpt>
      <trkpt lat="45.05159" lon="-0.39266">
        <ele>44.9</ele>
        <time>2021-11-27T14:17:59Z</time>
      </trkpt>
      <trkpt lat="45.05158" lon="-0.39268">
        <ele>45</ele>
        <time>2021-11-27T14:18:00Z</time>
      </trkpt>
      <trkpt lat="45.05158" lon="-0.3927">
        <ele>45</ele>
        <time>2021-11-27T14:18:02Z</time>
      </trkpt>
      <trkpt lat="45.05158" lon="-0.39271">
        <ele>45</ele>
        <time>2021-11-27T14:18:03Z</time>
      </trkpt>
      <trkpt lat="45.05159" lon="-0.39276">
        <ele>45</ele>
        <time>2021-11-27T14:18:05Z</time>
      </trkpt>
      <trkpt lat="45.05159" lon="-0.39277">
        <ele>45.1</ele>
        <time>2021-11-27T14:18:06Z</time>
      </trkpt>
      <trkpt lat="45.05158" lon="-0.39279">
        <ele>45.1</ele>
        <time>2021-11-27T14:18:07Z</time>
      </trkpt>
      <trkpt lat="45.05158" lon="-0.39281">
        <ele>45.2</ele>
        <time>2021-11-27T14:18:08Z</time>
      </trkpt>
      <trkpt lat="45.05158" lon="-0.39286">
        <ele>45.2</ele>
        <time>2021-11-27T14:18:10Z</time>
      </trkpt>
      <trkpt lat="45.05158" lon="-0.39288">
        <ele>45.2</ele>
        <time>2021-11-27T14:18:11Z</time>
      </trkpt>
      <trkpt lat="45.05159" lon="-0.3929">
        <ele>45.3</ele>
        <time>2021-11-27T14:18:12Z</time>
      </trkpt>
      <trkpt lat="45.05159" lon="-0.39294">
        <ele>45.3</ele>
        <time>2021-11-27T14:18:14Z</time>
      </trkpt>
      <trkpt lat="45.05159" lon="-0.39296">
        <ele>45.3</ele>
        <time>2021-11-27T14:18:15Z</time>
      </trkpt>
      <trkpt lat="45.05159" lon="-0.39298">
        <ele>45.4</ele>
        <time>2021-11-27T14:18:16Z</time>
      </trkpt>
      <trkpt lat="45.05159" lon="-0.393">
        <ele>45.4</ele>
        <time>2021-11-27T14:18:18Z</time>
      </trkpt>
      <trkpt lat="45.05158" lon="-0.39303">
        <ele>45.4</ele>
        <time>2021-11-27T14:18:19Z</time>
      </trkpt>
      <trkpt lat="45.05158" lon="-0.39305">
        <ele>45.4</ele>
        <time>2021-11-27T14:18:21Z</time>
      </trkpt>
      <trkpt lat="45.05157" lon="-0.39308">
        <ele>45.5</ele>
        <time>2021-11-27T14:18:23Z</time>
      </trkpt>
      <trkpt lat="45.05157" lon="-0.39309">
        <ele>45.5</ele>
        <time>2021-11-27T14:18:24Z</time>
      </trkpt>
      <trkpt lat="45.05156" lon="-0.39311">
        <ele>45.6</ele>
        <time>2021-11-27T14:18:26Z</time>
      </trkpt>
      <trkpt lat="45.05156" lon="-0.39314">
        <ele>45.6</ele>
        <time>2021-11-27T14:18:27Z</time>
      </trkpt>
      <trkpt lat="45.05157" lon="-0.39317">
        <ele>45.6</ele>
        <time>2021-11-27T14:18:29Z</time>
      </trkpt>
      <trkpt lat="45.05157" lon="-0.39319">
        <ele>45.6</ele>
        <time>2021-11-27T14:18:31Z</time>
      </trkpt>
      <trkpt lat="45.05158" lon="-0.39321">
        <ele>45.6</ele>
        <time>2021-11-27T14:18:32Z</time>
      </trkpt>
      <trkpt lat="45.05155" lon="-0.39326">
        <ele>45.7</ele>
        <time>2021-11-27T14:18:34Z</time>
      </trkpt>
      <trkpt lat="45.05153" lon="-0.39329">
        <ele>45.8</ele>
        <time>2021-11-27T14:18:35Z</time>
      </trkpt>
      <trkpt lat="45.05152" lon="-0.39329">
        <ele>45.8</ele>
        <time>2021-11-27T14:18:36Z</time>
      </trkpt>
      <trkpt lat="45.05151" lon="-0.39331">
        <ele>45.8</ele>
        <time>2021-11-27T14:18:37Z</time>
      </trkpt>
      <trkpt lat="45.0515" lon="-0.39333">
        <ele>45.9</ele>
        <time>2021-11-27T14:18:38Z</time>
      </trkpt>
      <trkpt lat="45.05149" lon="-0.39336">
        <ele>45.9</ele>
        <time>2021-11-27T14:18:40Z</time>
      </trkpt>
      <trkpt lat="45.05147" lon="-0.39338">
        <ele>45.9</ele>
        <time>2021-11-27T14:18:42Z</time>
      </trkpt>
      <trkpt lat="45.05145" lon="-0.3934">
        <ele>46</ele>
        <time>2021-11-27T14:18:43Z</time>
      </trkpt>
      <trkpt lat="45.05144" lon="-0.39341">
        <ele>46</ele>
        <time>2021-11-27T14:18:45Z</time>
      </trkpt>
      <trkpt lat="45.05141" lon="-0.39343">
        <ele>46</ele>
        <time>2021-11-27T14:18:47Z</time>
      </trkpt>
      <trkpt lat="45.0514" lon="-0.39344">
        <ele>46</ele>
        <time>2021-11-27T14:18:48Z</time>
      </trkpt>
      <trkpt lat="45.05139" lon="-0.39345">
        <ele>46.1</ele>
        <time>2021-11-27T14:18:49Z</time>
      </trkpt>
      <trkpt lat="45.05138" lon="-0.39346">
        <ele>46.1</ele>
        <time>2021-11-27T14:18:51Z</time>
      </trkpt>
      <trkpt lat="45.05136" lon="-0.39346">
        <ele>46.1</ele>
        <time>2021-11-27T14:18:52Z</time>
      </trkpt>
      <trkpt lat="45.05135" lon="-0.39346">
        <ele>46.2</ele>
        <time>2021-11-27T14:18:53Z</time>
      </trkpt>
      <trkpt lat="45.05133" lon="-0.39346">
        <ele>46.2</ele>
        <time>2021-11-27T14:18:54Z</time>
      </trkpt>
      <trkpt lat="45.05131" lon="-0.39345">
        <ele>46.2</ele>
        <time>2021-11-27T14:18:56Z</time>
      </trkpt>
      <trkpt lat="45.05129" lon="-0.39344">
        <ele>46.3</ele>
        <time>2021-11-27T14:18:57Z</time>
      </trkpt>
      <trkpt lat="45.05128" lon="-0.39343">
        <ele>46.3</ele>
        <time>2021-11-27T14:18:58Z</time>
      </trkpt>
      <trkpt lat="45.05128" lon="-0.39343">
        <ele>46.3</ele>
        <time>2021-11-27T14:18:59Z</time>
      </trkpt>
      <trkpt lat="45.05125" lon="-0.39342">
        <ele>46.3</ele>
        <time>2021-11-27T14:19:00Z</time>
      </trkpt>
      <trkpt lat="45.05125" lon="-0.39342">
        <ele>46.3</ele>
        <time>2021-11-27T14:19:01Z</time>
      </trkpt>
      <trkpt lat="45.05124" lon="-0.39342">
        <ele>46.4</ele>
        <time>2021-11-27T14:19:03Z</time>
      </trkpt>
      <trkpt lat="45.05123" lon="-0.39342">
        <ele>46.4</ele>
        <time>2021-11-27T14:19:04Z</time>
      </trkpt>
      <trkpt lat="45.05123" lon="-0.39342">
        <ele>46.4</ele>
        <time>2021-11-27T14:19:05Z</time>
      </trkpt>
      <trkpt lat="45.05122" lon="-0.39342">
        <ele>46.4</ele>
        <time>2021-11-27T14:19:07Z</time>
      </trkpt>
      <trkpt lat="45.05121" lon="-0.39342">
        <ele>46.4</ele>
        <time>2021-11-27T14:19:08Z</time>
      </trkpt>
      <trkpt lat="45.0512" lon="-0.39342">
        <ele>46.4</ele>
        <time>2021-11-27T14:19:09Z</time>
      </trkpt>
      <trkpt lat="45.05118" lon="-0.39342">
        <ele>46.4</ele>
        <time>2021-11-27T14:19:10Z</time>
      </trkpt>
      <trkpt lat="45.05116" lon="-0.39342">
        <ele>46.5</ele>
        <time>2021-11-27T14:19:12Z</time>
      </trkpt>
      <trkpt lat="45.05114" lon="-0.39343">
        <ele>46.5</ele>
        <time>2021-11-27T14:19:13Z</time>
      </trkpt>
      <trkpt lat="45.05113" lon="-0.39343">
        <ele>46.5</ele>
        <time>2021-11-27T14:19:14Z</time>
      </trkpt>
      <trkpt lat="45.0511" lon="-0.39343">
        <ele>46.6</ele>
        <time>2021-11-27T14:19:15Z</time>
      </trkpt>
      <trkpt lat="45.05109" lon="-0.39344">
        <ele>46.6</ele>
        <time>2021-11-27T14:19:17Z</time>
      </trkpt>
      <trkpt lat="45.05107" lon="-0.39344">
        <ele>46.6</ele>
        <time>2021-11-27T14:19:18Z</time>
      </trkpt>
      <trkpt lat="45.05106" lon="-0.39344">
        <ele>46.6</ele>
        <time>2021-11-27T14:19:19Z</time>
      </trkpt>
      <trkpt lat="45.05104" lon="-0.39345">
        <ele>46.6</ele>
        <time>2021-11-27T14:19:21Z</time>
      </trkpt>
      <trkpt lat="45.05103" lon="-0.39345">
        <ele>46.6</ele>
        <time>2021-11-27T14:19:22Z</time>
      </trkpt>
      <trkpt lat="45.05102" lon="-0.39345">
        <ele>46.7</ele>
        <time>2021-11-27T14:19:23Z</time>
      </trkpt>
      <trkpt lat="45.05101" lon="-0.39345">
        <ele>46.7</ele>
        <time>2021-11-27T14:19:24Z</time>
      </trkpt>
      <trkpt lat="45.05099" lon="-0.39344">
        <ele>46.7</ele>
        <time>2021-11-27T14:19:25Z</time>
      </trkpt>
      <trkpt lat="45.05098" lon="-0.39343">
        <ele>46.7</ele>
        <time>2021-11-27T14:19:26Z</time>
      </trkpt>
      <trkpt lat="45.05097" lon="-0.39343">
        <ele>46.7</ele>
        <time>2021-11-27T14:19:27Z</time>
      </trkpt>
      <trkpt lat="45.05095" lon="-0.39342">
        <ele>46.8</ele>
        <time>2021-11-27T14:19:29Z</time>
      </trkpt>
      <trkpt lat="45.05094" lon="-0.39341">
        <ele>46.8</ele>
        <time>2021-11-27T14:19:30Z</time>
      </trkpt>
      <trkpt lat="45.05092" lon="-0.39341">
        <ele>46.8</ele>
        <time>2021-11-27T14:19:31Z</time>
      </trkpt>
      <trkpt lat="45.0509" lon="-0.39341">
        <ele>46.8</ele>
        <time>2021-11-27T14:19:32Z</time>
      </trkpt>
      <trkpt lat="45.05088" lon="-0.39341">
        <ele>46.8</ele>
        <time>2021-11-27T14:19:34Z</time>
      </trkpt>
      <trkpt lat="45.05085" lon="-0.39342">
        <ele>46.8</ele>
        <time>2021-11-27T14:19:35Z</time>
      </trkpt>
      <trkpt lat="45.05083" lon="-0.39342">
        <ele>46.8</ele>
        <time>2021-11-27T14:19:37Z</time>
      </trkpt>
      <trkpt lat="45.05082" lon="-0.39342">
        <ele>46.8</ele>
        <time>2021-11-27T14:19:38Z</time>
      </trkpt>
      <trkpt lat="45.0508" lon="-0.39342">
        <ele>46.8</ele>
        <time>2021-11-27T14:19:39Z</time>
      </trkpt>
      <trkpt lat="45.05078" lon="-0.39342">
        <ele>46.8</ele>
        <time>2021-11-27T14:19:40Z</time>
      </trkpt>
      <trkpt lat="45.05077" lon="-0.39342">
        <ele>46.8</ele>
        <time>2021-11-27T14:19:42Z</time>
      </trkpt>
      <trkpt lat="45.05075" lon="-0.39343">
        <ele>46.8</ele>
        <time>2021-11-27T14:19:43Z</time>
      </trkpt>
      <trkpt lat="45.05073" lon="-0.39343">
        <ele>46.8</ele>
        <time>2021-11-27T14:19:45Z</time>
      </trkpt>
      <trkpt lat="45.05071" lon="-0.39344">
        <ele>46.7</ele>
        <time>2021-11-27T14:19:46Z</time>
      </trkpt>
      <trkpt lat="45.0507" lon="-0.39344">
        <ele>46.7</ele>
        <time>2021-11-27T14:19:47Z</time>
      </trkpt>
      <trkpt lat="45.05069" lon="-0.39344">
        <ele>46.7</ele>
        <time>2021-11-27T14:19:49Z</time>
      </trkpt>
      <trkpt lat="45.05067" lon="-0.39344">
        <ele>46.7</ele>
        <time>2021-11-27T14:19:50Z</time>
      </trkpt>
      <trkpt lat="45.05066" lon="-0.39345">
        <ele>46.7</ele>
        <time>2021-11-27T14:19:51Z</time>
      </trkpt>
      <trkpt lat="45.05064" lon="-0.39345">
        <ele>46.7</ele>
        <time>2021-11-27T14:19:52Z</time>
      </trkpt>
      <trkpt lat="45.05063" lon="-0.39345">
        <ele>46.6</ele>
        <time>2021-11-27T14:19:53Z</time>
      </trkpt>
      <trkpt lat="45.05062" lon="-0.39345">
        <ele>46.6</ele>
        <time>2021-11-27T14:19:55Z</time>
      </trkpt>
      <trkpt lat="45.05059" lon="-0.39346">
        <ele>46.5</ele>
        <time>2021-11-27T14:19:57Z</time>
      </trkpt>
      <trkpt lat="45.05058" lon="-0.39346">
        <ele>46.5</ele>
        <time>2021-11-27T14:19:58Z</time>
      </trkpt>
      <trkpt lat="45.05056" lon="-0.39346">
        <ele>46.4</ele>
        <time>2021-11-27T14:20:00Z</time>
      </trkpt>
      <trkpt lat="45.05055" lon="-0.39346">
        <ele>46.4</ele>
        <time>2021-11-27T14:20:01Z</time>
      </trkpt>
      <trkpt lat="45.05053" lon="-0.39346">
        <ele>46.3</ele>
        <time>2021-11-27T14:20:02Z</time>
      </trkpt>
      <trkpt lat="45.05052" lon="-0.39346">
        <ele>46.3</ele>
        <time>2021-11-27T14:20:03Z</time>
      </trkpt>
      <trkpt lat="45.05051" lon="-0.39346">
        <ele>46.2</ele>
        <time>2021-11-27T14:20:04Z</time>
      </trkpt>
      <trkpt lat="45.0505" lon="-0.39347">
        <ele>46.2</ele>
        <time>2021-11-27T14:20:05Z</time>
      </trkpt>
      <trkpt lat="45.05049" lon="-0.39347">
        <ele>46.2</ele>
        <time>2021-11-27T14:20:06Z</time>
      </trkpt>
      <trkpt lat="45.05048" lon="-0.39347">
        <ele>46.2</ele>
        <time>2021-11-27T14:20:08Z</time>
      </trkpt>
      <trkpt lat="45.05048" lon="-0.39347">
        <ele>46.1</ele>
        <time>2021-11-27T14:20:09Z</time>
      </trkpt>
      <trkpt lat="45.05047" lon="-0.39347">
        <ele>46.1</ele>
        <time>2021-11-27T14:20:10Z</time>
      </trkpt>
      <trkpt lat="45.05047" lon="-0.39347">
        <ele>46.1</ele>
        <time>2021-11-27T14:20:11Z</time>
      </trkpt>
      <trkpt lat="45.05046" lon="-0.39346">
        <ele>46.1</ele>
        <time>2021-11-27T14:20:12Z</time>
      </trkpt>
      <trkpt lat="45.05045" lon="-0.39346">
        <ele>46</ele>
        <time>2021-11-27T14:20:13Z</time>
      </trkpt>
      <trkpt lat="45.05045" lon="-0.39346">
        <ele>46</ele>
        <time>2021-11-27T14:20:15Z</time>
      </trkpt>
      <trkpt lat="45.05044" lon="-0.39346">
        <ele>46</ele>
        <time>2021-11-27T14:20:16Z</time>
      </trkpt>
      <trkpt lat="45.05043" lon="-0.39346">
        <ele>46</ele>
        <time>2021-11-27T14:20:17Z</time>
      </trkpt>
      <trkpt lat="45.05042" lon="-0.39346">
        <ele>45.9</ele>
        <time>2021-11-27T14:20:19Z</time>
      </trkpt>
      <trkpt lat="45.0504" lon="-0.39346">
        <ele>45.9</ele>
        <time>2021-11-27T14:20:20Z</time>
      </trkpt>
      <trkpt lat="45.05038" lon="-0.39346">
        <ele>45.7</ele>
        <time>2021-11-27T14:20:21Z</time>
      </trkpt>
      <trkpt lat="45.05035" lon="-0.39345">
        <ele>45.6</ele>
        <time>2021-11-27T14:20:23Z</time>
      </trkpt>
      <trkpt lat="45.05033" lon="-0.39345">
        <ele>45.5</ele>
        <time>2021-11-27T14:20:24Z</time>
      </trkpt>
      <trkpt lat="45.05032" lon="-0.39344">
        <ele>45.4</ele>
        <time>2021-11-27T14:20:25Z</time>
      </trkpt>
      <trkpt lat="45.05031" lon="-0.39344">
        <ele>45.4</ele>
        <time>2021-11-27T14:20:26Z</time>
      </trkpt>
      <trkpt lat="45.0503" lon="-0.39344">
        <ele>45.2</ele>
        <time>2021-11-27T14:20:27Z</time>
      </trkpt>
      <trkpt lat="45.05028" lon="-0.39344">
        <ele>45.2</ele>
        <time>2021-11-27T14:20:29Z</time>
      </trkpt>
      <trkpt lat="45.05026" lon="-0.39345">
        <ele>45.1</ele>
        <time>2021-11-27T14:20:30Z</time>
      </trkpt>
      <trkpt lat="45.05024" lon="-0.39345">
        <ele>45.1</ele>
        <time>2021-11-27T14:20:31Z</time>
      </trkpt>
      <trkpt lat="45.05023" lon="-0.39346">
        <ele>44.9</ele>
        <time>2021-11-27T14:20:32Z</time>
      </trkpt>
      <trkpt lat="45.05021" lon="-0.39347">
        <ele>44.7</ele>
        <time>2021-11-27T14:20:34Z</time>
      </trkpt>
      <trkpt lat="45.05018" lon="-0.39348">
        <ele>44.7</ele>
        <time>2021-11-27T14:20:35Z</time>
      </trkpt>
      <trkpt lat="45.05017" lon="-0.39349">
        <ele>44.7</ele>
        <time>2021-11-27T14:20:36Z</time>
      </trkpt>
      <trkpt lat="45.05016" lon="-0.3935">
        <ele>44.7</ele>
        <time>2021-11-27T14:20:37Z</time>
      </trkpt>
      <trkpt lat="45.05014" lon="-0.39351">
        <ele>44.5</ele>
        <time>2021-11-27T14:20:39Z</time>
      </trkpt>
      <trkpt lat="45.05013" lon="-0.39351">
        <ele>44.5</ele>
        <time>2021-11-27T14:20:40Z</time>
      </trkpt>
      <trkpt lat="45.05012" lon="-0.39351">
        <ele>44.5</ele>
        <time>2021-11-27T14:20:41Z</time>
      </trkpt>
      <trkpt lat="45.05011" lon="-0.39352">
        <ele>44.4</ele>
        <time>2021-11-27T14:20:42Z</time>
      </trkpt>
      <trkpt lat="45.0501" lon="-0.39352">
        <ele>44.4</ele>
        <time>2021-11-27T14:20:43Z</time>
      </trkpt>
      <trkpt lat="45.05009" lon="-0.39352">
        <ele>44.4</ele>
        <time>2021-11-27T14:20:44Z</time>
      </trkpt>
      <trkpt lat="45.05008" lon="-0.39352">
        <ele>44.3</ele>
        <time>2021-11-27T14:20:45Z</time>
      </trkpt>
      <trkpt lat="45.05006" lon="-0.39352">
        <ele>44.3</ele>
        <time>2021-11-27T14:20:46Z</time>
      </trkpt>
      <trkpt lat="45.05005" lon="-0.39351">
        <ele>44.1</ele>
        <time>2021-11-27T14:20:48Z</time>
      </trkpt>
      <trkpt lat="45.05004" lon="-0.39351">
        <ele>44.1</ele>
        <time>2021-11-27T14:20:49Z</time>
      </trkpt>
      <trkpt lat="45.05005" lon="-0.3935">
        <ele>44.1</ele>
        <time>2021-11-27T14:20:51Z</time>
      </trkpt>
      <trkpt lat="45.05005" lon="-0.3935">
        <ele>44.1</ele>
        <time>2021-11-27T14:20:52Z</time>
      </trkpt>
      <trkpt lat="45.05004" lon="-0.3935">
        <ele>44.1</ele>
        <time>2021-11-27T14:20:54Z</time>
      </trkpt>
      <trkpt lat="45.05003" lon="-0.39349">
        <ele>44</ele>
        <time>2021-11-27T14:20:56Z</time>
      </trkpt>
      <trkpt lat="45.05001" lon="-0.39349">
        <ele>44</ele>
        <time>2021-11-27T14:20:57Z</time>
      </trkpt>
      <trkpt lat="45.05" lon="-0.39349">
        <ele>43.9</ele>
        <time>2021-11-27T14:20:58Z</time>
      </trkpt>
      <trkpt lat="45.04998" lon="-0.39349">
        <ele>43.8</ele>
        <time>2021-11-27T14:20:59Z</time>
      </trkpt>
      <trkpt lat="45.04998" lon="-0.39349">
        <ele>43.8</ele>
        <time>2021-11-27T14:21:00Z</time>
      </trkpt>
      <trkpt lat="45.04997" lon="-0.39349">
        <ele>43.8</ele>
        <time>2021-11-27T14:21:01Z</time>
      </trkpt>
      <trkpt lat="45.04996" lon="-0.39349">
        <ele>43.7</ele>
        <time>2021-11-27T14:21:02Z</time>
      </trkpt>
      <trkpt lat="45.04995" lon="-0.39349">
        <ele>43.6</ele>
        <time>2021-11-27T14:21:03Z</time>
      </trkpt>
      <trkpt lat="45.04992" lon="-0.39347">
        <ele>43.5</ele>
        <time>2021-11-27T14:21:05Z</time>
      </trkpt>
      <trkpt lat="45.04991" lon="-0.39346">
        <ele>43.5</ele>
        <time>2021-11-27T14:21:06Z</time>
      </trkpt>
      <trkpt lat="45.0499" lon="-0.39345">
        <ele>43.4</ele>
        <time>2021-11-27T14:21:07Z</time>
      </trkpt>
      <trkpt lat="45.04989" lon="-0.39343">
        <ele>43.4</ele>
        <time>2021-11-27T14:21:08Z</time>
      </trkpt>
      <trkpt lat="45.04987" lon="-0.39341">
        <ele>43.3</ele>
        <time>2021-11-27T14:21:10Z</time>
      </trkpt>
      <trkpt lat="45.04986" lon="-0.3934">
        <ele>43.3</ele>
        <time>2021-11-27T14:21:11Z</time>
      </trkpt>
      <trkpt lat="45.04985" lon="-0.3934">
        <ele>43.2</ele>
        <time>2021-11-27T14:21:12Z</time>
      </trkpt>
      <trkpt lat="45.04984" lon="-0.39339">
        <ele>43.1</ele>
        <time>2021-11-27T14:21:13Z</time>
      </trkpt>
      <trkpt lat="45.04984" lon="-0.39338">
        <ele>43.1</ele>
        <time>2021-11-27T14:21:14Z</time>
      </trkpt>
      <trkpt lat="45.04983" lon="-0.39337">
        <ele>43.1</ele>
        <time>2021-11-27T14:21:15Z</time>
      </trkpt>
      <trkpt lat="45.04982" lon="-0.39337">
        <ele>43.1</ele>
        <time>2021-11-27T14:21:16Z</time>
      </trkpt>
      <trkpt lat="45.04981" lon="-0.39336">
        <ele>43</ele>
        <time>2021-11-27T14:21:18Z</time>
      </trkpt>
      <trkpt lat="45.04978" lon="-0.39336">
        <ele>42.9</ele>
        <time>2021-11-27T14:21:19Z</time>
      </trkpt>
      <trkpt lat="45.04977" lon="-0.39335">
        <ele>42.9</ele>
        <time>2021-11-27T14:21:20Z</time>
      </trkpt>
      <trkpt lat="45.04976" lon="-0.39335">
        <ele>42.9</ele>
        <time>2021-11-27T14:21:21Z</time>
      </trkpt>
      <trkpt lat="45.04974" lon="-0.39335">
        <ele>42.7</ele>
        <time>2021-11-27T14:21:23Z</time>
      </trkpt>
      <trkpt lat="45.04973" lon="-0.39335">
        <ele>42.7</ele>
        <time>2021-11-27T14:21:24Z</time>
      </trkpt>
      <trkpt lat="45.04971" lon="-0.39335">
        <ele>42.6</ele>
        <time>2021-11-27T14:21:25Z</time>
      </trkpt>
      <trkpt lat="45.04969" lon="-0.39335">
        <ele>42.5</ele>
        <time>2021-11-27T14:21:27Z</time>
      </trkpt>
      <trkpt lat="45.04968" lon="-0.39335">
        <ele>42.5</ele>
        <time>2021-11-27T14:21:28Z</time>
      </trkpt>
      <trkpt lat="45.04966" lon="-0.39335">
        <ele>42.4</ele>
        <time>2021-11-27T14:21:29Z</time>
      </trkpt>
      <trkpt lat="45.04965" lon="-0.39335">
        <ele>42.4</ele>
        <time>2021-11-27T14:21:30Z</time>
      </trkpt>
      <trkpt lat="45.04962" lon="-0.39335">
        <ele>42.4</ele>
        <time>2021-11-27T14:21:32Z</time>
      </trkpt>
      <trkpt lat="45.04961" lon="-0.39335">
        <ele>42.4</ele>
        <time>2021-11-27T14:21:33Z</time>
      </trkpt>
      <trkpt lat="45.0496" lon="-0.39335">
        <ele>42.4</ele>
        <time>2021-11-27T14:21:34Z</time>
      </trkpt>
      <trkpt lat="45.04959" lon="-0.39335">
        <ele>42.3</ele>
        <time>2021-11-27T14:21:35Z</time>
      </trkpt>
      <trkpt lat="45.04957" lon="-0.39336">
        <ele>42.3</ele>
        <time>2021-11-27T14:21:36Z</time>
      </trkpt>
      <trkpt lat="45.04956" lon="-0.39336">
        <ele>42.2</ele>
        <time>2021-11-27T14:21:38Z</time>
      </trkpt>
      <trkpt lat="45.04955" lon="-0.39336">
        <ele>42.2</ele>
        <time>2021-11-27T14:21:39Z</time>
      </trkpt>
      <trkpt lat="45.04953" lon="-0.39336">
        <ele>42.1</ele>
        <time>2021-11-27T14:21:40Z</time>
      </trkpt>
      <trkpt lat="45.04952" lon="-0.39336">
        <ele>42.1</ele>
        <time>2021-11-27T14:21:41Z</time>
      </trkpt>
      <trkpt lat="45.04951" lon="-0.39336">
        <ele>42</ele>
        <time>2021-11-27T14:21:42Z</time>
      </trkpt>
      <trkpt lat="45.0495" lon="-0.39336">
        <ele>42</ele>
        <time>2021-11-27T14:21:43Z</time>
      </trkpt>
      <trkpt lat="45.04948" lon="-0.39336">
        <ele>42</ele>
        <time>2021-11-27T14:21:44Z</time>
      </trkpt>
      <trkpt lat="45.04947" lon="-0.39336">
        <ele>41.9</ele>
        <time>2021-11-27T14:21:45Z</time>
      </trkpt>
      <trkpt lat="45.04946" lon="-0.39336">
        <ele>41.9</ele>
        <time>2021-11-27T14:21:47Z</time>
      </trkpt>
      <trkpt lat="45.04945" lon="-0.39336">
        <ele>41.8</ele>
        <time>2021-11-27T14:21:48Z</time>
      </trkpt>
      <trkpt lat="45.04944" lon="-0.39337">
        <ele>41.8</ele>
        <time>2021-11-27T14:21:49Z</time>
      </trkpt>
      <trkpt lat="45.04942" lon="-0.39337">
        <ele>41.8</ele>
        <time>2021-11-27T14:21:50Z</time>
      </trkpt>
      <trkpt lat="45.04942" lon="-0.39338">
        <ele>41.7</ele>
        <time>2021-11-27T14:21:51Z</time>
      </trkpt>
      <trkpt lat="45.04941" lon="-0.39337">
        <ele>41.7</ele>
        <time>2021-11-27T14:21:52Z</time>
      </trkpt>
      <trkpt lat="45.04937" lon="-0.39336">
        <ele>41.6</ele>
        <time>2021-11-27T14:21:54Z</time>
      </trkpt>
      <trkpt lat="45.04936" lon="-0.39335">
        <ele>41.6</ele>
        <time>2021-11-27T14:21:55Z</time>
      </trkpt>
      <trkpt lat="45.04935" lon="-0.39335">
        <ele>41.6</ele>
        <time>2021-11-27T14:21:56Z</time>
      </trkpt>
      <trkpt lat="45.04933" lon="-0.39335">
        <ele>41.6</ele>
        <time>2021-11-27T14:21:57Z</time>
      </trkpt>
      <trkpt lat="45.04932" lon="-0.39335">
        <ele>41.5</ele>
        <time>2021-11-27T14:21:59Z</time>
      </trkpt>
      <trkpt lat="45.0493" lon="-0.39335">
        <ele>41.5</ele>
        <time>2021-11-27T14:22:00Z</time>
      </trkpt>
      <trkpt lat="45.0493" lon="-0.39335">
        <ele>41.4</ele>
        <time>2021-11-27T14:22:01Z</time>
      </trkpt>
      <trkpt lat="45.0493" lon="-0.39336">
        <ele>41.4</ele>
        <time>2021-11-27T14:22:02Z</time>
      </trkpt>
      <trkpt lat="45.0493" lon="-0.39336">
        <ele>41.4</ele>
        <time>2021-11-27T14:22:03Z</time>
      </trkpt>
      <trkpt lat="45.04929" lon="-0.39336">
        <ele>41.4</ele>
        <time>2021-11-27T14:22:05Z</time>
      </trkpt>
      <trkpt lat="45.04929" lon="-0.39337">
        <ele>41.4</ele>
        <time>2021-11-27T14:22:06Z</time>
      </trkpt>
      <trkpt lat="45.04927" lon="-0.39336">
        <ele>41.4</ele>
        <time>2021-11-27T14:22:08Z</time>
      </trkpt>
      <trkpt lat="45.04925" lon="-0.39336">
        <ele>41.4</ele>
        <time>2021-11-27T14:22:09Z</time>
      </trkpt>
      <trkpt lat="45.04923" lon="-0.39337">
        <ele>41.3</ele>
        <time>2021-11-27T14:22:10Z</time>
      </trkpt>
      <trkpt lat="45.04922" lon="-0.39337">
        <ele>41.3</ele>
        <time>2021-11-27T14:22:11Z</time>
      </trkpt>
      <trkpt lat="45.0492" lon="-0.39337">
        <ele>41.3</ele>
        <time>2021-11-27T14:22:12Z</time>
      </trkpt>
      <trkpt lat="45.04919" lon="-0.39338">
        <ele>41.3</ele>
        <time>2021-11-27T14:22:13Z</time>
      </trkpt>
      <trkpt lat="45.04918" lon="-0.39338">
        <ele>41.3</ele>
        <time>2021-11-27T14:22:14Z</time>
      </trkpt>
      <trkpt lat="45.04916" lon="-0.39338">
        <ele>41.3</ele>
        <time>2021-11-27T14:22:16Z</time>
      </trkpt>
      <trkpt lat="45.04915" lon="-0.39338">
        <ele>41.3</ele>
        <time>2021-11-27T14:22:17Z</time>
      </trkpt>
      <trkpt lat="45.04915" lon="-0.39338">
        <ele>41.3</ele>
        <time>2021-11-27T14:22:18Z</time>
      </trkpt>
      <trkpt lat="45.04913" lon="-0.39338">
        <ele>41.3</ele>
        <time>2021-11-27T14:22:19Z</time>
      </trkpt>
      <trkpt lat="45.04912" lon="-0.39337">
        <ele>41.3</ele>
        <time>2021-11-27T14:22:20Z</time>
      </trkpt>
      <trkpt lat="45.04911" lon="-0.39337">
        <ele>41.3</ele>
        <time>2021-11-27T14:22:21Z</time>
      </trkpt>
      <trkpt lat="45.0491" lon="-0.39337">
        <ele>41.3</ele>
        <time>2021-11-27T14:22:22Z</time>
      </trkpt>
      <trkpt lat="45.04909" lon="-0.39337">
        <ele>41.3</ele>
        <time>2021-11-27T14:22:23Z</time>
      </trkpt>
      <trkpt lat="45.04907" lon="-0.39337">
        <ele>41.3</ele>
        <time>2021-11-27T14:22:24Z</time>
      </trkpt>
      <trkpt lat="45.04906" lon="-0.39337">
        <ele>41.4</ele>
        <time>2021-11-27T14:22:25Z</time>
      </trkpt>
      <trkpt lat="45.04905" lon="-0.39338">
        <ele>41.4</ele>
        <time>2021-11-27T14:22:26Z</time>
      </trkpt>
      <trkpt lat="45.04904" lon="-0.39338">
        <ele>41.4</ele>
        <time>2021-11-27T14:22:28Z</time>
      </trkpt>
      <trkpt lat="45.04904" lon="-0.39338">
        <ele>41.4</ele>
        <time>2021-11-27T14:22:30Z</time>
      </trkpt>
      <trkpt lat="45.04905" lon="-0.39339">
        <ele>41.4</ele>
        <time>2021-11-27T14:22:31Z</time>
      </trkpt>
      <trkpt lat="45.04904" lon="-0.39339">
        <ele>41.4</ele>
        <time>2021-11-27T14:22:33Z</time>
      </trkpt>
      <trkpt lat="45.04903" lon="-0.3934">
        <ele>41.3</ele>
        <time>2021-11-27T14:22:34Z</time>
      </trkpt>
      <trkpt lat="45.04902" lon="-0.39342">
        <ele>41.4</ele>
        <time>2021-11-27T14:22:35Z</time>
      </trkpt>
      <trkpt lat="45.049" lon="-0.39343">
        <ele>41.4</ele>
        <time>2021-11-27T14:22:36Z</time>
      </trkpt>
      <trkpt lat="45.04899" lon="-0.39343">
        <ele>41.4</ele>
        <time>2021-11-27T14:22:37Z</time>
      </trkpt>
      <trkpt lat="45.04898" lon="-0.39344">
        <ele>41.4</ele>
        <time>2021-11-27T14:22:38Z</time>
      </trkpt>
      <trkpt lat="45.04895" lon="-0.39346">
        <ele>41.4</ele>
        <time>2021-11-27T14:22:40Z</time>
      </trkpt>
      <trkpt lat="45.04895" lon="-0.39347">
        <ele>41.4</ele>
        <time>2021-11-27T14:22:41Z</time>
      </trkpt>
      <trkpt lat="45.04893" lon="-0.39347">
        <ele>41.5</ele>
        <time>2021-11-27T14:22:42Z</time>
      </trkpt>
      <trkpt lat="45.04891" lon="-0.39349">
        <ele>41.4</ele>
        <time>2021-11-27T14:22:44Z</time>
      </trkpt>
      <trkpt lat="45.04889" lon="-0.39352">
        <ele>41.5</ele>
        <time>2021-11-27T14:22:45Z</time>
      </trkpt>
      <trkpt lat="45.04888" lon="-0.39354">
        <ele>41.4</ele>
        <time>2021-11-27T14:22:47Z</time>
      </trkpt>
      <trkpt lat="45.04887" lon="-0.39355">
        <ele>41.5</ele>
        <time>2021-11-27T14:22:49Z</time>
      </trkpt>
      <trkpt lat="45.04885" lon="-0.39356">
        <ele>41.5</ele>
        <time>2021-11-27T14:22:50Z</time>
      </trkpt>
      <trkpt lat="45.04884" lon="-0.39357">
        <ele>41.7</ele>
        <time>2021-11-27T14:22:52Z</time>
      </trkpt>
      <trkpt lat="45.04882" lon="-0.39358">
        <ele>41.5</ele>
        <time>2021-11-27T14:22:53Z</time>
      </trkpt>
      <trkpt lat="45.0488" lon="-0.39359">
        <ele>41.6</ele>
        <time>2021-11-27T14:22:54Z</time>
      </trkpt>
      <trkpt lat="45.04878" lon="-0.3936">
        <ele>41.8</ele>
        <time>2021-11-27T14:22:56Z</time>
      </trkpt>
      <trkpt lat="45.04875" lon="-0.39361">
        <ele>41.9</ele>
        <time>2021-11-27T14:22:57Z</time>
      </trkpt>
      <trkpt lat="45.04874" lon="-0.39361">
        <ele>41.9</ele>
        <time>2021-11-27T14:22:58Z</time>
      </trkpt>
      <trkpt lat="45.04871" lon="-0.39361">
        <ele>42</ele>
        <time>2021-11-27T14:23:00Z</time>
      </trkpt>
      <trkpt lat="45.04869" lon="-0.39361">
        <ele>42.2</ele>
        <time>2021-11-27T14:23:02Z</time>
      </trkpt>
      <trkpt lat="45.04867" lon="-0.39362">
        <ele>42</ele>
        <time>2021-11-27T14:23:03Z</time>
      </trkpt>
      <trkpt lat="45.04866" lon="-0.39363">
        <ele>42</ele>
        <time>2021-11-27T14:23:04Z</time>
      </trkpt>
      <trkpt lat="45.04865" lon="-0.39364">
        <ele>42.1</ele>
        <time>2021-11-27T14:23:05Z</time>
      </trkpt>
      <trkpt lat="45.04863" lon="-0.39365">
        <ele>42.3</ele>
        <time>2021-11-27T14:23:07Z</time>
      </trkpt>
      <trkpt lat="45.04862" lon="-0.39366">
        <ele>42.1</ele>
        <time>2021-11-27T14:23:08Z</time>
      </trkpt>
      <trkpt lat="45.04861" lon="-0.39367">
        <ele>42.1</ele>
        <time>2021-11-27T14:23:09Z</time>
      </trkpt>
      <trkpt lat="45.04859" lon="-0.3937">
        <ele>42.2</ele>
        <time>2021-11-27T14:23:11Z</time>
      </trkpt>
      <trkpt lat="45.04858" lon="-0.39371">
        <ele>42.2</ele>
        <time>2021-11-27T14:23:12Z</time>
      </trkpt>
      <trkpt lat="45.04857" lon="-0.39372">
        <ele>42.1</ele>
        <time>2021-11-27T14:23:13Z</time>
      </trkpt>
      <trkpt lat="45.04855" lon="-0.39374">
        <ele>42.1</ele>
        <time>2021-11-27T14:23:15Z</time>
      </trkpt>
      <trkpt lat="45.04855" lon="-0.39374">
        <ele>42.1</ele>
        <time>2021-11-27T14:23:16Z</time>
      </trkpt>
      <trkpt lat="45.04854" lon="-0.39375">
        <ele>42</ele>
        <time>2021-11-27T14:23:17Z</time>
      </trkpt>
      <trkpt lat="45.04853" lon="-0.39376">
        <ele>42</ele>
        <time>2021-11-27T14:23:18Z</time>
      </trkpt>
      <trkpt lat="45.0485" lon="-0.39378">
        <ele>42.1</ele>
        <time>2021-11-27T14:23:20Z</time>
      </trkpt>
      <trkpt lat="45.0485" lon="-0.39378">
        <ele>42.1</ele>
        <time>2021-11-27T14:23:21Z</time>
      </trkpt>
      <trkpt lat="45.04849" lon="-0.39378">
        <ele>42.1</ele>
        <time>2021-11-27T14:23:22Z</time>
      </trkpt>
      <trkpt lat="45.04846" lon="-0.3938">
        <ele>42</ele>
        <time>2021-11-27T14:23:24Z</time>
      </trkpt>
      <trkpt lat="45.04845" lon="-0.39381">
        <ele>42</ele>
        <time>2021-11-27T14:23:25Z</time>
      </trkpt>
      <trkpt lat="45.04844" lon="-0.39381">
        <ele>42.1</ele>
        <time>2021-11-27T14:23:26Z</time>
      </trkpt>
      <trkpt lat="45.04843" lon="-0.39382">
        <ele>42.1</ele>
        <time>2021-11-27T14:23:27Z</time>
      </trkpt>
      <trkpt lat="45.04841" lon="-0.39383">
        <ele>42.1</ele>
        <time>2021-11-27T14:23:29Z</time>
      </trkpt>
      <trkpt lat="45.04839" lon="-0.39383">
        <ele>42.2</ele>
        <time>2021-11-27T14:23:30Z</time>
      </trkpt>
      <trkpt lat="45.04837" lon="-0.39383">
        <ele>42.2</ele>
        <time>2021-11-27T14:23:31Z</time>
      </trkpt>
      <trkpt lat="45.04836" lon="-0.39383">
        <ele>42.3</ele>
        <time>2021-11-27T14:23:32Z</time>
      </trkpt>
      <trkpt lat="45.04834" lon="-0.39383">
        <ele>42.3</ele>
        <time>2021-11-27T14:23:34Z</time>
      </trkpt>
      <trkpt lat="45.04832" lon="-0.39384">
        <ele>42.1</ele>
        <time>2021-11-27T14:23:35Z</time>
      </trkpt>
      <trkpt lat="45.04831" lon="-0.39385">
        <ele>42.1</ele>
        <time>2021-11-27T14:23:36Z</time>
      </trkpt>
      <trkpt lat="45.04829" lon="-0.39386">
        <ele>42.2</ele>
        <time>2021-11-27T14:23:38Z</time>
      </trkpt>
      <trkpt lat="45.04828" lon="-0.39387">
        <ele>42.2</ele>
        <time>2021-11-27T14:23:39Z</time>
      </trkpt>
      <trkpt lat="45.04825" lon="-0.39388">
        <ele>42</ele>
        <time>2021-11-27T14:23:41Z</time>
      </trkpt>
      <trkpt lat="45.04824" lon="-0.39389">
        <ele>42</ele>
        <time>2021-11-27T14:23:42Z</time>
      </trkpt>
      <trkpt lat="45.04821" lon="-0.3939">
        <ele>42.1</ele>
        <time>2021-11-27T14:23:44Z</time>
      </trkpt>
      <trkpt lat="45.0482" lon="-0.39391">
        <ele>42.2</ele>
        <time>2021-11-27T14:23:45Z</time>
      </trkpt>
      <trkpt lat="45.0482" lon="-0.39391">
        <ele>42.2</ele>
        <time>2021-11-27T14:23:46Z</time>
      </trkpt>
      <trkpt lat="45.04818" lon="-0.39392">
        <ele>42.2</ele>
        <time>2021-11-27T14:23:47Z</time>
      </trkpt>
      <trkpt lat="45.04815" lon="-0.39391">
        <ele>42.2</ele>
        <time>2021-11-27T14:23:49Z</time>
      </trkpt>
      <trkpt lat="45.04813" lon="-0.39391">
        <ele>42.2</ele>
        <time>2021-11-27T14:23:50Z</time>
      </trkpt>
      <trkpt lat="45.04811" lon="-0.3939">
        <ele>42.2</ele>
        <time>2021-11-27T14:23:51Z</time>
      </trkpt>
      <trkpt lat="45.0481" lon="-0.39389">
        <ele>42.2</ele>
        <time>2021-11-27T14:23:53Z</time>
      </trkpt>
      <trkpt lat="45.04809" lon="-0.39389">
        <ele>42.3</ele>
        <time>2021-11-27T14:23:54Z</time>
      </trkpt>
      <trkpt lat="45.04807" lon="-0.39388">
        <ele>42.3</ele>
        <time>2021-11-27T14:23:55Z</time>
      </trkpt>
      <trkpt lat="45.04805" lon="-0.39388">
        <ele>42.3</ele>
        <time>2021-11-27T14:23:57Z</time>
      </trkpt>
      <trkpt lat="45.04801" lon="-0.39388">
        <ele>42.3</ele>
        <time>2021-11-27T14:23:58Z</time>
      </trkpt>
      <trkpt lat="45.04801" lon="-0.39388">
        <ele>42.3</ele>
        <time>2021-11-27T14:23:59Z</time>
      </trkpt>
      <trkpt lat="45.04798" lon="-0.39388">
        <ele>42.3</ele>
        <time>2021-11-27T14:24:01Z</time>
      </trkpt>
      <trkpt lat="45.04797" lon="-0.39388">
        <ele>42.3</ele>
        <time>2021-11-27T14:24:02Z</time>
      </trkpt>
      <trkpt lat="45.04794" lon="-0.39388">
        <ele>42.3</ele>
        <time>2021-11-27T14:24:04Z</time>
      </trkpt>
      <trkpt lat="45.04793" lon="-0.39388">
        <ele>42.3</ele>
        <time>2021-11-27T14:24:05Z</time>
      </trkpt>
      <trkpt lat="45.04792" lon="-0.39388">
        <ele>42.3</ele>
        <time>2021-11-27T14:24:06Z</time>
      </trkpt>
      <trkpt lat="45.0479" lon="-0.39388">
        <ele>42.3</ele>
        <time>2021-11-27T14:24:07Z</time>
      </trkpt>
      <trkpt lat="45.04789" lon="-0.39387">
        <ele>42.3</ele>
        <time>2021-11-27T14:24:09Z</time>
      </trkpt>
      <trkpt lat="45.04787" lon="-0.39386">
        <ele>42.3</ele>
        <time>2021-11-27T14:24:10Z</time>
      </trkpt>
      <trkpt lat="45.04786" lon="-0.39386">
        <ele>42.3</ele>
        <time>2021-11-27T14:24:11Z</time>
      </trkpt>
      <trkpt lat="45.04783" lon="-0.39385">
        <ele>42.3</ele>
        <time>2021-11-27T14:24:13Z</time>
      </trkpt>
      <trkpt lat="45.04782" lon="-0.39385">
        <ele>42.3</ele>
        <time>2021-11-27T14:24:14Z</time>
      </trkpt>
      <trkpt lat="45.0478" lon="-0.39385">
        <ele>42.3</ele>
        <time>2021-11-27T14:24:15Z</time>
      </trkpt>
      <trkpt lat="45.04778" lon="-0.39386">
        <ele>42.3</ele>
        <time>2021-11-27T14:24:17Z</time>
      </trkpt>
      <trkpt lat="45.04777" lon="-0.39387">
        <ele>42.3</ele>
        <time>2021-11-27T14:24:18Z</time>
      </trkpt>
      <trkpt lat="45.04774" lon="-0.39387">
        <ele>42.3</ele>
        <time>2021-11-27T14:24:20Z</time>
      </trkpt>
      <trkpt lat="45.04773" lon="-0.39387">
        <ele>42.3</ele>
        <time>2021-11-27T14:24:21Z</time>
      </trkpt>
      <trkpt lat="45.04771" lon="-0.39387">
        <ele>42.3</ele>
        <time>2021-11-27T14:24:22Z</time>
      </trkpt>
      <trkpt lat="45.0477" lon="-0.39388">
        <ele>42.3</ele>
        <time>2021-11-27T14:24:24Z</time>
      </trkpt>
      <trkpt lat="45.04768" lon="-0.39388">
        <ele>42.3</ele>
        <time>2021-11-27T14:24:25Z</time>
      </trkpt>
      <trkpt lat="45.04767" lon="-0.39388">
        <ele>42.3</ele>
        <time>2021-11-27T14:24:26Z</time>
      </trkpt>
      <trkpt lat="45.04765" lon="-0.39389">
        <ele>42.4</ele>
        <time>2021-11-27T14:24:28Z</time>
      </trkpt>
      <trkpt lat="45.04764" lon="-0.39389">
        <ele>42.4</ele>
        <time>2021-11-27T14:24:29Z</time>
      </trkpt>
      <trkpt lat="45.0476" lon="-0.39389">
        <ele>42.4</ele>
        <time>2021-11-27T14:24:31Z</time>
      </trkpt>
      <trkpt lat="45.04759" lon="-0.39388">
        <ele>42.4</ele>
        <time>2021-11-27T14:24:32Z</time>
      </trkpt>
      <trkpt lat="45.04758" lon="-0.39388">
        <ele>42.4</ele>
        <time>2021-11-27T14:24:33Z</time>
      </trkpt>
      <trkpt lat="45.04756" lon="-0.39388">
        <ele>42.4</ele>
        <time>2021-11-27T14:24:34Z</time>
      </trkpt>
      <trkpt lat="45.04755" lon="-0.39388">
        <ele>42.4</ele>
        <time>2021-11-27T14:24:35Z</time>
      </trkpt>
      <trkpt lat="45.04753" lon="-0.39388">
        <ele>42.4</ele>
        <time>2021-11-27T14:24:37Z</time>
      </trkpt>
      <trkpt lat="45.04751" lon="-0.39389">
        <ele>42.4</ele>
        <time>2021-11-27T14:24:38Z</time>
      </trkpt>
      <trkpt lat="45.04748" lon="-0.39389">
        <ele>42.4</ele>
        <time>2021-11-27T14:24:40Z</time>
      </trkpt>
      <trkpt lat="45.04745" lon="-0.39389">
        <ele>42.4</ele>
        <time>2021-11-27T14:24:42Z</time>
      </trkpt>
      <trkpt lat="45.04744" lon="-0.39389">
        <ele>42.4</ele>
        <time>2021-11-27T14:24:43Z</time>
      </trkpt>
      <trkpt lat="45.04743" lon="-0.39389">
        <ele>42.4</ele>
        <time>2021-11-27T14:24:44Z</time>
      </trkpt>
      <trkpt lat="45.04741" lon="-0.39389">
        <ele>42.4</ele>
        <time>2021-11-27T14:24:46Z</time>
      </trkpt>
      <trkpt lat="45.04739" lon="-0.39389">
        <ele>42.4</ele>
        <time>2021-11-27T14:24:47Z</time>
      </trkpt>
      <trkpt lat="45.04738" lon="-0.3939">
        <ele>42.4</ele>
        <time>2021-11-27T14:24:48Z</time>
      </trkpt>
      <trkpt lat="45.04736" lon="-0.3939">
        <ele>42.4</ele>
        <time>2021-11-27T14:24:50Z</time>
      </trkpt>
      <trkpt lat="45.04735" lon="-0.3939">
        <ele>42.4</ele>
        <time>2021-11-27T14:24:51Z</time>
      </trkpt>
      <trkpt lat="45.04732" lon="-0.3939">
        <ele>42.4</ele>
        <time>2021-11-27T14:24:52Z</time>
      </trkpt>
      <trkpt lat="45.04731" lon="-0.3939">
        <ele>42.4</ele>
        <time>2021-11-27T14:24:54Z</time>
      </trkpt>
      <trkpt lat="45.04729" lon="-0.3939">
        <ele>42.4</ele>
        <time>2021-11-27T14:24:55Z</time>
      </trkpt>
      <trkpt lat="45.04728" lon="-0.3939">
        <ele>42.4</ele>
        <time>2021-11-27T14:24:56Z</time>
      </trkpt>
      <trkpt lat="45.04725" lon="-0.39391">
        <ele>42.4</ele>
        <time>2021-11-27T14:24:58Z</time>
      </trkpt>
      <trkpt lat="45.04725" lon="-0.39391">
        <ele>42.4</ele>
        <time>2021-11-27T14:24:59Z</time>
      </trkpt>
      <trkpt lat="45.04723" lon="-0.39391">
        <ele>42.4</ele>
        <time>2021-11-27T14:25:01Z</time>
      </trkpt>
      <trkpt lat="45.04722" lon="-0.39392">
        <ele>42.4</ele>
        <time>2021-11-27T14:25:02Z</time>
      </trkpt>
      <trkpt lat="45.0472" lon="-0.39394">
        <ele>42.4</ele>
        <time>2021-11-27T14:25:03Z</time>
      </trkpt>
      <trkpt lat="45.04719" lon="-0.39394">
        <ele>42.4</ele>
        <time>2021-11-27T14:25:04Z</time>
      </trkpt>
      <trkpt lat="45.04718" lon="-0.39393">
        <ele>42.3</ele>
        <time>2021-11-27T14:25:06Z</time>
      </trkpt>
      <trkpt lat="45.04717" lon="-0.39393">
        <ele>42.3</ele>
        <time>2021-11-27T14:25:08Z</time>
      </trkpt>
      <trkpt lat="45.04716" lon="-0.39393">
        <ele>42.3</ele>
        <time>2021-11-27T14:25:09Z</time>
      </trkpt>
      <trkpt lat="45.04715" lon="-0.39393">
        <ele>42.3</ele>
        <time>2021-11-27T14:25:11Z</time>
      </trkpt>
      <trkpt lat="45.04715" lon="-0.39393">
        <ele>42.3</ele>
        <time>2021-11-27T14:25:12Z</time>
      </trkpt>
      <trkpt lat="45.04711" lon="-0.39392">
        <ele>42.3</ele>
        <time>2021-11-27T14:25:13Z</time>
      </trkpt>
      <trkpt lat="45.0471" lon="-0.39391">
        <ele>42.3</ele>
        <time>2021-11-27T14:25:14Z</time>
      </trkpt>
      <trkpt lat="45.04706" lon="-0.39392">
        <ele>42.3</ele>
        <time>2021-11-27T14:25:16Z</time>
      </trkpt>
      <trkpt lat="45.04705" lon="-0.39393">
        <ele>42.3</ele>
        <time>2021-11-27T14:25:17Z</time>
      </trkpt>
      <trkpt lat="45.04704" lon="-0.39394">
        <ele>42.3</ele>
        <time>2021-11-27T14:25:18Z</time>
      </trkpt>
      <trkpt lat="45.04703" lon="-0.39394">
        <ele>42.3</ele>
        <time>2021-11-27T14:25:19Z</time>
      </trkpt>
      <trkpt lat="45.047" lon="-0.39394">
        <ele>42.4</ele>
        <time>2021-11-27T14:25:21Z</time>
      </trkpt>
      <trkpt lat="45.04699" lon="-0.39394">
        <ele>42.4</ele>
        <time>2021-11-27T14:25:22Z</time>
      </trkpt>
      <trkpt lat="45.04697" lon="-0.39394">
        <ele>42.4</ele>
        <time>2021-11-27T14:25:24Z</time>
      </trkpt>
      <trkpt lat="45.04695" lon="-0.39394">
        <ele>42.4</ele>
        <time>2021-11-27T14:25:25Z</time>
      </trkpt>
      <trkpt lat="45.04693" lon="-0.39394">
        <ele>42.4</ele>
        <time>2021-11-27T14:25:27Z</time>
      </trkpt>
      <trkpt lat="45.0469" lon="-0.39395">
        <ele>42.4</ele>
        <time>2021-11-27T14:25:28Z</time>
      </trkpt>
      <trkpt lat="45.04689" lon="-0.39395">
        <ele>42.4</ele>
        <time>2021-11-27T14:25:29Z</time>
      </trkpt>
      <trkpt lat="45.04686" lon="-0.39395">
        <ele>42.4</ele>
        <time>2021-11-27T14:25:31Z</time>
      </trkpt>
      <trkpt lat="45.04685" lon="-0.39396">
        <ele>42.4</ele>
        <time>2021-11-27T14:25:32Z</time>
      </trkpt>
      <trkpt lat="45.04683" lon="-0.39396">
        <ele>42.4</ele>
        <time>2021-11-27T14:25:33Z</time>
      </trkpt>
      <trkpt lat="45.04681" lon="-0.39397">
        <ele>42.4</ele>
        <time>2021-11-27T14:25:35Z</time>
      </trkpt>
      <trkpt lat="45.04679" lon="-0.39396">
        <ele>42.4</ele>
        <time>2021-11-27T14:25:36Z</time>
      </trkpt>
      <trkpt lat="45.04679" lon="-0.39396">
        <ele>42.4</ele>
        <time>2021-11-27T14:25:37Z</time>
      </trkpt>
      <trkpt lat="45.04677" lon="-0.39397">
        <ele>42.4</ele>
        <time>2021-11-27T14:25:38Z</time>
      </trkpt>
      <trkpt lat="45.04676" lon="-0.39397">
        <ele>42.4</ele>
        <time>2021-11-27T14:25:40Z</time>
      </trkpt>
      <trkpt lat="45.04673" lon="-0.39398">
        <ele>42.4</ele>
        <time>2021-11-27T14:25:41Z</time>
      </trkpt>
      <trkpt lat="45.04672" lon="-0.39398">
        <ele>42.4</ele>
        <time>2021-11-27T14:25:43Z</time>
      </trkpt>
      <trkpt lat="45.0467" lon="-0.39398">
        <ele>42.4</ele>
        <time>2021-11-27T14:25:44Z</time>
      </trkpt>
      <trkpt lat="45.04668" lon="-0.39398">
        <ele>42.4</ele>
        <time>2021-11-27T14:25:46Z</time>
      </trkpt>
      <trkpt lat="45.04666" lon="-0.39398">
        <ele>42.4</ele>
        <time>2021-11-27T14:25:47Z</time>
      </trkpt>
      <trkpt lat="45.04664" lon="-0.39397">
        <ele>42.4</ele>
        <time>2021-11-27T14:25:49Z</time>
      </trkpt>
      <trkpt lat="45.04663" lon="-0.39397">
        <ele>42.4</ele>
        <time>2021-11-27T14:25:50Z</time>
      </trkpt>
      <trkpt lat="45.04662" lon="-0.39396">
        <ele>42.4</ele>
        <time>2021-11-27T14:25:51Z</time>
      </trkpt>
      <trkpt lat="45.04658" lon="-0.39397">
        <ele>42.4</ele>
        <time>2021-11-27T14:25:53Z</time>
      </trkpt>
      <trkpt lat="45.04657" lon="-0.39397">
        <ele>42.3</ele>
        <time>2021-11-27T14:25:54Z</time>
      </trkpt>
      <trkpt lat="45.04654" lon="-0.39397">
        <ele>42.3</ele>
        <time>2021-11-27T14:25:56Z</time>
      </trkpt>
      <trkpt lat="45.04653" lon="-0.39397">
        <ele>42.3</ele>
        <time>2021-11-27T14:25:57Z</time>
      </trkpt>
      <trkpt lat="45.0465" lon="-0.39398">
        <ele>42.3</ele>
        <time>2021-11-27T14:25:58Z</time>
      </trkpt>
      <trkpt lat="45.04649" lon="-0.39398">
        <ele>42.3</ele>
        <time>2021-11-27T14:26:00Z</time>
      </trkpt>
      <trkpt lat="45.04647" lon="-0.39398">
        <ele>42.3</ele>
        <time>2021-11-27T14:26:01Z</time>
      </trkpt>
      <trkpt lat="45.04646" lon="-0.39398">
        <ele>42.3</ele>
        <time>2021-11-27T14:26:02Z</time>
      </trkpt>
      <trkpt lat="45.04643" lon="-0.39397">
        <ele>42.3</ele>
        <time>2021-11-27T14:26:03Z</time>
      </trkpt>
      <trkpt lat="45.04641" lon="-0.39397">
        <ele>42.3</ele>
        <time>2021-11-27T14:26:05Z</time>
      </trkpt>
      <trkpt lat="45.0464" lon="-0.39396">
        <ele>42.2</ele>
        <time>2021-11-27T14:26:06Z</time>
      </trkpt>
      <trkpt lat="45.04639" lon="-0.39396">
        <ele>42.2</ele>
        <time>2021-11-27T14:26:07Z</time>
      </trkpt>
      <trkpt lat="45.04635" lon="-0.39395">
        <ele>42.2</ele>
        <time>2021-11-27T14:26:09Z</time>
      </trkpt>
      <trkpt lat="45.04634" lon="-0.39395">
        <ele>42.2</ele>
        <time>2021-11-27T14:26:10Z</time>
      </trkpt>
      <trkpt lat="45.04633" lon="-0.39395">
        <ele>42.2</ele>
        <time>2021-11-27T14:26:11Z</time>
      </trkpt>
      <trkpt lat="45.04631" lon="-0.39395">
        <ele>42.2</ele>
        <time>2021-11-27T14:26:12Z</time>
      </trkpt>
      <trkpt lat="45.04628" lon="-0.39396">
        <ele>42.1</ele>
        <time>2021-11-27T14:26:14Z</time>
      </trkpt>
      <trkpt lat="45.04627" lon="-0.39396">
        <ele>42.1</ele>
        <time>2021-11-27T14:26:15Z</time>
      </trkpt>
      <trkpt lat="45.04626" lon="-0.39396">
        <ele>42.1</ele>
        <time>2021-11-27T14:26:16Z</time>
      </trkpt>
      <trkpt lat="45.04624" lon="-0.39396">
        <ele>42.1</ele>
        <time>2021-11-27T14:26:18Z</time>
      </trkpt>
      <trkpt lat="45.04622" lon="-0.39397">
        <ele>42.1</ele>
        <time>2021-11-27T14:26:19Z</time>
      </trkpt>
      <trkpt lat="45.04621" lon="-0.39397">
        <ele>42</ele>
        <time>2021-11-27T14:26:20Z</time>
      </trkpt>
      <trkpt lat="45.04619" lon="-0.39397">
        <ele>42</ele>
        <time>2021-11-27T14:26:22Z</time>
      </trkpt>
      <trkpt lat="45.04617" lon="-0.39397">
        <ele>42</ele>
        <time>2021-11-27T14:26:23Z</time>
      </trkpt>
      <trkpt lat="45.04616" lon="-0.39397">
        <ele>42</ele>
        <time>2021-11-27T14:26:24Z</time>
      </trkpt>
      <trkpt lat="45.04614" lon="-0.39397">
        <ele>42</ele>
        <time>2021-11-27T14:26:26Z</time>
      </trkpt>
      <trkpt lat="45.04613" lon="-0.39397">
        <ele>41.9</ele>
        <time>2021-11-27T14:26:27Z</time>
      </trkpt>
      <trkpt lat="45.04609" lon="-0.39398">
        <ele>41.9</ele>
        <time>2021-11-27T14:26:29Z</time>
      </trkpt>
      <trkpt lat="45.04608" lon="-0.39398">
        <ele>41.9</ele>
        <time>2021-11-27T14:26:30Z</time>
      </trkpt>
      <trkpt lat="45.04605" lon="-0.39398">
        <ele>41.8</ele>
        <time>2021-11-27T14:26:31Z</time>
      </trkpt>
      <trkpt lat="45.04604" lon="-0.39398">
        <ele>41.8</ele>
        <time>2021-11-27T14:26:33Z</time>
      </trkpt>
      <trkpt lat="45.04603" lon="-0.39398">
        <ele>41.8</ele>
        <time>2021-11-27T14:26:34Z</time>
      </trkpt>
      <trkpt lat="45.04601" lon="-0.39398">
        <ele>41.7</ele>
        <time>2021-11-27T14:26:35Z</time>
      </trkpt>
      <trkpt lat="45.04599" lon="-0.39398">
        <ele>41.7</ele>
        <time>2021-11-27T14:26:37Z</time>
      </trkpt>
      <trkpt lat="45.04598" lon="-0.39398">
        <ele>41.7</ele>
        <time>2021-11-27T14:26:38Z</time>
      </trkpt>
      <trkpt lat="45.04597" lon="-0.39398">
        <ele>41.7</ele>
        <time>2021-11-27T14:26:39Z</time>
      </trkpt>
      <trkpt lat="45.04595" lon="-0.39399">
        <ele>41.6</ele>
        <time>2021-11-27T14:26:40Z</time>
      </trkpt>
      <trkpt lat="45.04594" lon="-0.39399">
        <ele>41.6</ele>
        <time>2021-11-27T14:26:42Z</time>
      </trkpt>
      <trkpt lat="45.04593" lon="-0.39399">
        <ele>41.5</ele>
        <time>2021-11-27T14:26:43Z</time>
      </trkpt>
      <trkpt lat="45.04591" lon="-0.39399">
        <ele>41.5</ele>
        <time>2021-11-27T14:26:44Z</time>
      </trkpt>
      <trkpt lat="45.04589" lon="-0.39398">
        <ele>41.4</ele>
        <time>2021-11-27T14:26:46Z</time>
      </trkpt>
      <trkpt lat="45.04586" lon="-0.39398">
        <ele>41.3</ele>
        <time>2021-11-27T14:26:47Z</time>
      </trkpt>
      <trkpt lat="45.04585" lon="-0.39398">
        <ele>41.3</ele>
        <time>2021-11-27T14:26:49Z</time>
      </trkpt>
      <trkpt lat="45.04581" lon="-0.39397">
        <ele>41.2</ele>
        <time>2021-11-27T14:26:50Z</time>
      </trkpt>
      <trkpt lat="45.04581" lon="-0.39397">
        <ele>41.1</ele>
        <time>2021-11-27T14:26:51Z</time>
      </trkpt>
      <trkpt lat="45.04579" lon="-0.39396">
        <ele>41.1</ele>
        <time>2021-11-27T14:26:52Z</time>
      </trkpt>
      <trkpt lat="45.04577" lon="-0.39396">
        <ele>41</ele>
        <time>2021-11-27T14:26:54Z</time>
      </trkpt>
      <trkpt lat="45.04575" lon="-0.39396">
        <ele>40.9</ele>
        <time>2021-11-27T14:26:55Z</time>
      </trkpt>
      <trkpt lat="45.04573" lon="-0.39396">
        <ele>40.8</ele>
        <time>2021-11-27T14:26:57Z</time>
      </trkpt>
      <trkpt lat="45.04571" lon="-0.39397">
        <ele>40.8</ele>
        <time>2021-11-27T14:26:58Z</time>
      </trkpt>
      <trkpt lat="45.0457" lon="-0.39397">
        <ele>40.7</ele>
        <time>2021-11-27T14:26:59Z</time>
      </trkpt>
      <trkpt lat="45.04567" lon="-0.39396">
        <ele>40.6</ele>
        <time>2021-11-27T14:27:01Z</time>
      </trkpt>
      <trkpt lat="45.04566" lon="-0.39395">
        <ele>40.5</ele>
        <time>2021-11-27T14:27:02Z</time>
      </trkpt>
      <trkpt lat="45.04563" lon="-0.39396">
        <ele>40.4</ele>
        <time>2021-11-27T14:27:04Z</time>
      </trkpt>
      <trkpt lat="45.04562" lon="-0.39396">
        <ele>40.4</ele>
        <time>2021-11-27T14:27:05Z</time>
      </trkpt>
      <trkpt lat="45.0456" lon="-0.39396">
        <ele>40.3</ele>
        <time>2021-11-27T14:27:06Z</time>
      </trkpt>
      <trkpt lat="45.04559" lon="-0.39396">
        <ele>40.2</ele>
        <time>2021-11-27T14:27:07Z</time>
      </trkpt>
      <trkpt lat="45.04558" lon="-0.39396">
        <ele>40.2</ele>
        <time>2021-11-27T14:27:08Z</time>
      </trkpt>
      <trkpt lat="45.04556" lon="-0.39395">
        <ele>40.1</ele>
        <time>2021-11-27T14:27:10Z</time>
      </trkpt>
      <trkpt lat="45.04555" lon="-0.39395">
        <ele>40.1</ele>
        <time>2021-11-27T14:27:11Z</time>
      </trkpt>
      <trkpt lat="45.04554" lon="-0.39394">
        <ele>40</ele>
        <time>2021-11-27T14:27:12Z</time>
      </trkpt>
      <trkpt lat="45.04552" lon="-0.39393">
        <ele>39.9</ele>
        <time>2021-11-27T14:27:14Z</time>
      </trkpt>
      <trkpt lat="45.04551" lon="-0.39392">
        <ele>39.9</ele>
        <time>2021-11-27T14:27:15Z</time>
      </trkpt>
      <trkpt lat="45.0455" lon="-0.39392">
        <ele>39.8</ele>
        <time>2021-11-27T14:27:16Z</time>
      </trkpt>
      <trkpt lat="45.04549" lon="-0.39392">
        <ele>39.8</ele>
        <time>2021-11-27T14:27:17Z</time>
      </trkpt>
      <trkpt lat="45.04547" lon="-0.39391">
        <ele>39.7</ele>
        <time>2021-11-27T14:27:19Z</time>
      </trkpt>
      <trkpt lat="45.04544" lon="-0.3939">
        <ele>39.6</ele>
        <time>2021-11-27T14:27:20Z</time>
      </trkpt>
      <trkpt lat="45.04541" lon="-0.39389">
        <ele>39.4</ele>
        <time>2021-11-27T14:27:21Z</time>
      </trkpt>
      <trkpt lat="45.0454" lon="-0.39389">
        <ele>39.4</ele>
        <time>2021-11-27T14:27:23Z</time>
      </trkpt>
      <trkpt lat="45.04539" lon="-0.39389">
        <ele>39.3</ele>
        <time>2021-11-27T14:27:24Z</time>
      </trkpt>
      <trkpt lat="45.04537" lon="-0.39388">
        <ele>39.3</ele>
        <time>2021-11-27T14:27:25Z</time>
      </trkpt>
      <trkpt lat="45.04535" lon="-0.39388">
        <ele>39.1</ele>
        <time>2021-11-27T14:27:26Z</time>
      </trkpt>
      <trkpt lat="45.04533" lon="-0.39388">
        <ele>39.1</ele>
        <time>2021-11-27T14:27:28Z</time>
      </trkpt>
      <trkpt lat="45.04532" lon="-0.39387">
        <ele>39</ele>
        <time>2021-11-27T14:27:29Z</time>
      </trkpt>
      <trkpt lat="45.04531" lon="-0.39387">
        <ele>39</ele>
        <time>2021-11-27T14:27:30Z</time>
      </trkpt>
      <trkpt lat="45.0453" lon="-0.39386">
        <ele>38.9</ele>
        <time>2021-11-27T14:27:31Z</time>
      </trkpt>
      <trkpt lat="45.04528" lon="-0.39384">
        <ele>38.8</ele>
        <time>2021-11-27T14:27:33Z</time>
      </trkpt>
      <trkpt lat="45.04526" lon="-0.39382">
        <ele>38.7</ele>
        <time>2021-11-27T14:27:34Z</time>
      </trkpt>
      <trkpt lat="45.04525" lon="-0.39382">
        <ele>38.7</ele>
        <time>2021-11-27T14:27:36Z</time>
      </trkpt>
      <trkpt lat="45.04523" lon="-0.39381">
        <ele>38.6</ele>
        <time>2021-11-27T14:27:37Z</time>
      </trkpt>
      <trkpt lat="45.04522" lon="-0.3938">
        <ele>38.5</ele>
        <time>2021-11-27T14:27:38Z</time>
      </trkpt>
      <trkpt lat="45.04519" lon="-0.3938">
        <ele>38.4</ele>
        <time>2021-11-27T14:27:40Z</time>
      </trkpt>
      <trkpt lat="45.04518" lon="-0.39379">
        <ele>38.4</ele>
        <time>2021-11-27T14:27:41Z</time>
      </trkpt>
      <trkpt lat="45.04516" lon="-0.39379">
        <ele>38.3</ele>
        <time>2021-11-27T14:27:42Z</time>
      </trkpt>
      <trkpt lat="45.04515" lon="-0.39379">
        <ele>38.3</ele>
        <time>2021-11-27T14:27:43Z</time>
      </trkpt>
      <trkpt lat="45.04514" lon="-0.39379">
        <ele>38.2</ele>
        <time>2021-11-27T14:27:45Z</time>
      </trkpt>
      <trkpt lat="45.04513" lon="-0.39379">
        <ele>38.2</ele>
        <time>2021-11-27T14:27:46Z</time>
      </trkpt>
      <trkpt lat="45.04511" lon="-0.39377">
        <ele>38.1</ele>
        <time>2021-11-27T14:27:48Z</time>
      </trkpt>
      <trkpt lat="45.04508" lon="-0.39375">
        <ele>38</ele>
        <time>2021-11-27T14:27:49Z</time>
      </trkpt>
      <trkpt lat="45.04507" lon="-0.39374">
        <ele>38</ele>
        <time>2021-11-27T14:27:50Z</time>
      </trkpt>
      <trkpt lat="45.04505" lon="-0.39372">
        <ele>37.9</ele>
        <time>2021-11-27T14:27:52Z</time>
      </trkpt>
      <trkpt lat="45.04502" lon="-0.39371">
        <ele>37.9</ele>
        <time>2021-11-27T14:27:53Z</time>
      </trkpt>
      <trkpt lat="45.04501" lon="-0.39369">
        <ele>37.8</ele>
        <time>2021-11-27T14:27:54Z</time>
      </trkpt>
      <trkpt lat="45.04499" lon="-0.39369">
        <ele>37.8</ele>
        <time>2021-11-27T14:27:56Z</time>
      </trkpt>
      <trkpt lat="45.04496" lon="-0.39368">
        <ele>37.7</ele>
        <time>2021-11-27T14:27:57Z</time>
      </trkpt>
      <trkpt lat="45.04495" lon="-0.39368">
        <ele>37.7</ele>
        <time>2021-11-27T14:27:58Z</time>
      </trkpt>
      <trkpt lat="45.04494" lon="-0.39368">
        <ele>37.7</ele>
        <time>2021-11-27T14:27:59Z</time>
      </trkpt>
      <trkpt lat="45.04492" lon="-0.39368">
        <ele>37.7</ele>
        <time>2021-11-27T14:28:01Z</time>
      </trkpt>
      <trkpt lat="45.0449" lon="-0.39367">
        <ele>37.6</ele>
        <time>2021-11-27T14:28:02Z</time>
      </trkpt>
      <trkpt lat="45.04489" lon="-0.39367">
        <ele>37.6</ele>
        <time>2021-11-27T14:28:03Z</time>
      </trkpt>
      <trkpt lat="45.04486" lon="-0.39367">
        <ele>37.6</ele>
        <time>2021-11-27T14:28:05Z</time>
      </trkpt>
      <trkpt lat="45.04485" lon="-0.39367">
        <ele>37.6</ele>
        <time>2021-11-27T14:28:06Z</time>
      </trkpt>
      <trkpt lat="45.04483" lon="-0.39364">
        <ele>37.6</ele>
        <time>2021-11-27T14:28:07Z</time>
      </trkpt>
      <trkpt lat="45.04483" lon="-0.39363">
        <ele>37.6</ele>
        <time>2021-11-27T14:28:08Z</time>
      </trkpt>
      <trkpt lat="45.04481" lon="-0.39361">
        <ele>37.6</ele>
        <time>2021-11-27T14:28:09Z</time>
      </trkpt>
      <trkpt lat="45.04479" lon="-0.39359">
        <ele>37.5</ele>
        <time>2021-11-27T14:28:11Z</time>
      </trkpt>
      <trkpt lat="45.04477" lon="-0.39358">
        <ele>37.5</ele>
        <time>2021-11-27T14:28:12Z</time>
      </trkpt>
      <trkpt lat="45.04476" lon="-0.39356">
        <ele>37.5</ele>
        <time>2021-11-27T14:28:14Z</time>
      </trkpt>
      <trkpt lat="45.04474" lon="-0.39355">
        <ele>37.5</ele>
        <time>2021-11-27T14:28:15Z</time>
      </trkpt>
      <trkpt lat="45.04472" lon="-0.39355">
        <ele>37.5</ele>
        <time>2021-11-27T14:28:17Z</time>
      </trkpt>
      <trkpt lat="45.04471" lon="-0.39354">
        <ele>37.5</ele>
        <time>2021-11-27T14:28:18Z</time>
      </trkpt>
      <trkpt lat="45.04469" lon="-0.39354">
        <ele>37.5</ele>
        <time>2021-11-27T14:28:20Z</time>
      </trkpt>
      <trkpt lat="45.04467" lon="-0.39354">
        <ele>37.5</ele>
        <time>2021-11-27T14:28:21Z</time>
      </trkpt>
      <trkpt lat="45.04465" lon="-0.39353">
        <ele>37.6</ele>
        <time>2021-11-27T14:28:22Z</time>
      </trkpt>
      <trkpt lat="45.04462" lon="-0.39353">
        <ele>37.6</ele>
        <time>2021-11-27T14:28:24Z</time>
      </trkpt>
      <trkpt lat="45.0446" lon="-0.39353">
        <ele>37.6</ele>
        <time>2021-11-27T14:28:25Z</time>
      </trkpt>
      <trkpt lat="45.04457" lon="-0.39352">
        <ele>37.6</ele>
        <time>2021-11-27T14:28:27Z</time>
      </trkpt>
      <trkpt lat="45.04456" lon="-0.39352">
        <ele>37.6</ele>
        <time>2021-11-27T14:28:28Z</time>
      </trkpt>
      <trkpt lat="45.04455" lon="-0.39352">
        <ele>37.6</ele>
        <time>2021-11-27T14:28:29Z</time>
      </trkpt>
      <trkpt lat="45.04454" lon="-0.39351">
        <ele>37.6</ele>
        <time>2021-11-27T14:28:30Z</time>
      </trkpt>
      <trkpt lat="45.04452" lon="-0.39351">
        <ele>37.7</ele>
        <time>2021-11-27T14:28:32Z</time>
      </trkpt>
      <trkpt lat="45.0445" lon="-0.39351">
        <ele>37.7</ele>
        <time>2021-11-27T14:28:33Z</time>
      </trkpt>
      <trkpt lat="45.04447" lon="-0.3935">
        <ele>37.7</ele>
        <time>2021-11-27T14:28:35Z</time>
      </trkpt>
      <trkpt lat="45.04445" lon="-0.3935">
        <ele>37.7</ele>
        <time>2021-11-27T14:28:37Z</time>
      </trkpt>
      <trkpt lat="45.04443" lon="-0.39349">
        <ele>37.7</ele>
        <time>2021-11-27T14:28:38Z</time>
      </trkpt>
      <trkpt lat="45.04443" lon="-0.3935">
        <ele>37.8</ele>
        <time>2021-11-27T14:28:39Z</time>
      </trkpt>
      <trkpt lat="45.04441" lon="-0.3935">
        <ele>37.8</ele>
        <time>2021-11-27T14:28:41Z</time>
      </trkpt>
      <trkpt lat="45.0444" lon="-0.39349">
        <ele>37.8</ele>
        <time>2021-11-27T14:28:42Z</time>
      </trkpt>
      <trkpt lat="45.04438" lon="-0.39349">
        <ele>37.8</ele>
        <time>2021-11-27T14:28:43Z</time>
      </trkpt>
      <trkpt lat="45.04436" lon="-0.3935">
        <ele>37.8</ele>
        <time>2021-11-27T14:28:45Z</time>
      </trkpt>
      <trkpt lat="45.04435" lon="-0.39351">
        <ele>37.8</ele>
        <time>2021-11-27T14:28:46Z</time>
      </trkpt>
      <trkpt lat="45.04434" lon="-0.39352">
        <ele>37.8</ele>
        <time>2021-11-27T14:28:47Z</time>
      </trkpt>
      <trkpt lat="45.04432" lon="-0.39353">
        <ele>37.9</ele>
        <time>2021-11-27T14:28:49Z</time>
      </trkpt>
      <trkpt lat="45.04431" lon="-0.39353">
        <ele>37.9</ele>
        <time>2021-11-27T14:28:50Z</time>
      </trkpt>
      <trkpt lat="45.0443" lon="-0.39353">
        <ele>37.9</ele>
        <time>2021-11-27T14:28:51Z</time>
      </trkpt>
      <trkpt lat="45.04428" lon="-0.39354">
        <ele>37.9</ele>
        <time>2021-11-27T14:28:53Z</time>
      </trkpt>
      <trkpt lat="45.04426" lon="-0.39353">
        <ele>37.9</ele>
        <time>2021-11-27T14:28:54Z</time>
      </trkpt>
      <trkpt lat="45.04426" lon="-0.39352">
        <ele>38</ele>
        <time>2021-11-27T14:28:55Z</time>
      </trkpt>
      <trkpt lat="45.04423" lon="-0.39351">
        <ele>38</ele>
        <time>2021-11-27T14:28:57Z</time>
      </trkpt>
      <trkpt lat="45.04422" lon="-0.39351">
        <ele>38</ele>
        <time>2021-11-27T14:28:58Z</time>
      </trkpt>
      <trkpt lat="45.04421" lon="-0.39351">
        <ele>38</ele>
        <time>2021-11-27T14:28:59Z</time>
      </trkpt>
      <trkpt lat="45.0442" lon="-0.39351">
        <ele>38</ele>
        <time>2021-11-27T14:29:00Z</time>
      </trkpt>
      <trkpt lat="45.04418" lon="-0.39352">
        <ele>38.1</ele>
        <time>2021-11-27T14:29:01Z</time>
      </trkpt>
      <trkpt lat="45.04415" lon="-0.39353">
        <ele>38.1</ele>
        <time>2021-11-27T14:29:03Z</time>
      </trkpt>
      <trkpt lat="45.04413" lon="-0.39356">
        <ele>38.1</ele>
        <time>2021-11-27T14:29:05Z</time>
      </trkpt>
      <trkpt lat="45.04412" lon="-0.39357">
        <ele>38.2</ele>
        <time>2021-11-27T14:29:06Z</time>
      </trkpt>
      <trkpt lat="45.04411" lon="-0.39358">
        <ele>38.2</ele>
        <time>2021-11-27T14:29:08Z</time>
      </trkpt>
      <trkpt lat="45.0441" lon="-0.39359">
        <ele>38.2</ele>
        <time>2021-11-27T14:29:09Z</time>
      </trkpt>
      <trkpt lat="45.04407" lon="-0.39356">
        <ele>38.2</ele>
        <time>2021-11-27T14:29:11Z</time>
      </trkpt>
      <trkpt lat="45.04406" lon="-0.39355">
        <ele>38.3</ele>
        <time>2021-11-27T14:29:12Z</time>
      </trkpt>
      <trkpt lat="45.04404" lon="-0.39354">
        <ele>38.3</ele>
        <time>2021-11-27T14:29:14Z</time>
      </trkpt>
      <trkpt lat="45.04402" lon="-0.39353">
        <ele>38.3</ele>
        <time>2021-11-27T14:29:16Z</time>
      </trkpt>
      <trkpt lat="45.044" lon="-0.39354">
        <ele>38.4</ele>
        <time>2021-11-27T14:29:17Z</time>
      </trkpt>
      <trkpt lat="45.04398" lon="-0.39354">
        <ele>38.4</ele>
        <time>2021-11-27T14:29:18Z</time>
      </trkpt>
      <trkpt lat="45.04397" lon="-0.39355">
        <ele>38.4</ele>
        <time>2021-11-27T14:29:20Z</time>
      </trkpt>
      <trkpt lat="45.04395" lon="-0.39355">
        <ele>38.4</ele>
        <time>2021-11-27T14:29:21Z</time>
      </trkpt>
      <trkpt lat="45.04392" lon="-0.39355">
        <ele>38.5</ele>
        <time>2021-11-27T14:29:23Z</time>
      </trkpt>
      <trkpt lat="45.0439" lon="-0.39355">
        <ele>38.5</ele>
        <time>2021-11-27T14:29:24Z</time>
      </trkpt>
      <trkpt lat="45.04389" lon="-0.39355">
        <ele>38.5</ele>
        <time>2021-11-27T14:29:25Z</time>
      </trkpt>
      <trkpt lat="45.04386" lon="-0.39354">
        <ele>38.6</ele>
        <time>2021-11-27T14:29:27Z</time>
      </trkpt>
      <trkpt lat="45.04384" lon="-0.39354">
        <ele>38.6</ele>
        <time>2021-11-27T14:29:28Z</time>
      </trkpt>
      <trkpt lat="45.04382" lon="-0.39354">
        <ele>38.7</ele>
        <time>2021-11-27T14:29:29Z</time>
      </trkpt>
      <trkpt lat="45.04381" lon="-0.39355">
        <ele>38.7</ele>
        <time>2021-11-27T14:29:31Z</time>
      </trkpt>
      <trkpt lat="45.04379" lon="-0.39355">
        <ele>38.7</ele>
        <time>2021-11-27T14:29:32Z</time>
      </trkpt>
      <trkpt lat="45.04377" lon="-0.39357">
        <ele>38.8</ele>
        <time>2021-11-27T14:29:34Z</time>
      </trkpt>
      <trkpt lat="45.04375" lon="-0.39357">
        <ele>38.8</ele>
        <time>2021-11-27T14:29:35Z</time>
      </trkpt>
      <trkpt lat="45.04373" lon="-0.39358">
        <ele>38.8</ele>
        <time>2021-11-27T14:29:36Z</time>
      </trkpt>
      <trkpt lat="45.04371" lon="-0.39358">
        <ele>38.9</ele>
        <time>2021-11-27T14:29:37Z</time>
      </trkpt>
      <trkpt lat="45.0437" lon="-0.39358">
        <ele>38.9</ele>
        <time>2021-11-27T14:29:38Z</time>
      </trkpt>
      <trkpt lat="45.04367" lon="-0.39359">
        <ele>39</ele>
        <time>2021-11-27T14:29:40Z</time>
      </trkpt>
      <trkpt lat="45.04365" lon="-0.39359">
        <ele>39</ele>
        <time>2021-11-27T14:29:41Z</time>
      </trkpt>
      <trkpt lat="45.04361" lon="-0.3936">
        <ele>39.1</ele>
        <time>2021-11-27T14:29:43Z</time>
      </trkpt>
      <trkpt lat="45.0436" lon="-0.3936">
        <ele>39.1</ele>
        <time>2021-11-27T14:29:45Z</time>
      </trkpt>
      <trkpt lat="45.04359" lon="-0.39361">
        <ele>39.2</ele>
        <time>2021-11-27T14:29:46Z</time>
      </trkpt>
      <trkpt lat="45.04357" lon="-0.39361">
        <ele>39.2</ele>
        <time>2021-11-27T14:29:47Z</time>
      </trkpt>
      <trkpt lat="45.04355" lon="-0.39362">
        <ele>39.3</ele>
        <time>2021-11-27T14:29:49Z</time>
      </trkpt>
      <trkpt lat="45.04354" lon="-0.39363">
        <ele>39.3</ele>
        <time>2021-11-27T14:29:50Z</time>
      </trkpt>
      <trkpt lat="45.04351" lon="-0.39365">
        <ele>39.4</ele>
        <time>2021-11-27T14:29:52Z</time>
      </trkpt>
      <trkpt lat="45.04349" lon="-0.39365">
        <ele>39.4</ele>
        <time>2021-11-27T14:29:53Z</time>
      </trkpt>
      <trkpt lat="45.04347" lon="-0.39366">
        <ele>39.5</ele>
        <time>2021-11-27T14:29:55Z</time>
      </trkpt>
      <trkpt lat="45.04345" lon="-0.39367">
        <ele>39.5</ele>
        <time>2021-11-27T14:29:56Z</time>
      </trkpt>
      <trkpt lat="45.04344" lon="-0.39367">
        <ele>39.6</ele>
        <time>2021-11-27T14:29:57Z</time>
      </trkpt>
      <trkpt lat="45.04341" lon="-0.39369">
        <ele>39.6</ele>
        <time>2021-11-27T14:29:59Z</time>
      </trkpt>
      <trkpt lat="45.0434" lon="-0.39369">
        <ele>39.7</ele>
        <time>2021-11-27T14:30:00Z</time>
      </trkpt>
      <trkpt lat="45.04338" lon="-0.3937">
        <ele>39.7</ele>
        <time>2021-11-27T14:30:01Z</time>
      </trkpt>
      <trkpt lat="45.04336" lon="-0.39371">
        <ele>39.8</ele>
        <time>2021-11-27T14:30:03Z</time>
      </trkpt>
      <trkpt lat="45.04335" lon="-0.39372">
        <ele>39.8</ele>
        <time>2021-11-27T14:30:04Z</time>
      </trkpt>
      <trkpt lat="45.04334" lon="-0.39373">
        <ele>39.8</ele>
        <time>2021-11-27T14:30:05Z</time>
      </trkpt>
      <trkpt lat="45.04331" lon="-0.39374">
        <ele>39.9</ele>
        <time>2021-11-27T14:30:07Z</time>
      </trkpt>
      <trkpt lat="45.0433" lon="-0.39374">
        <ele>39.9</ele>
        <time>2021-11-27T14:30:08Z</time>
      </trkpt>
      <trkpt lat="45.04327" lon="-0.39376">
        <ele>40</ele>
        <time>2021-11-27T14:30:10Z</time>
      </trkpt>
      <trkpt lat="45.04326" lon="-0.39376">
        <ele>40.1</ele>
        <time>2021-11-27T14:30:11Z</time>
      </trkpt>
      <trkpt lat="45.04324" lon="-0.39377">
        <ele>40.1</ele>
        <time>2021-11-27T14:30:12Z</time>
      </trkpt>
      <trkpt lat="45.04322" lon="-0.39378">
        <ele>40.2</ele>
        <time>2021-11-27T14:30:14Z</time>
      </trkpt>
      <trkpt lat="45.04321" lon="-0.39378">
        <ele>40.2</ele>
        <time>2021-11-27T14:30:15Z</time>
      </trkpt>
      <trkpt lat="45.0432" lon="-0.39379">
        <ele>40.2</ele>
        <time>2021-11-27T14:30:16Z</time>
      </trkpt>
      <trkpt lat="45.04317" lon="-0.3938">
        <ele>40.3</ele>
        <time>2021-11-27T14:30:18Z</time>
      </trkpt>
      <trkpt lat="45.04316" lon="-0.39381">
        <ele>40.3</ele>
        <time>2021-11-27T14:30:19Z</time>
      </trkpt>
      <trkpt lat="45.04313" lon="-0.39381">
        <ele>40.4</ele>
        <time>2021-11-27T14:30:21Z</time>
      </trkpt>
      <trkpt lat="45.04312" lon="-0.3938">
        <ele>40.4</ele>
        <time>2021-11-27T14:30:22Z</time>
      </trkpt>
      <trkpt lat="45.04311" lon="-0.39381">
        <ele>40.4</ele>
        <time>2021-11-27T14:30:23Z</time>
      </trkpt>
      <trkpt lat="45.04309" lon="-0.39382">
        <ele>40.5</ele>
        <time>2021-11-27T14:30:25Z</time>
      </trkpt>
      <trkpt lat="45.04307" lon="-0.39383">
        <ele>40.5</ele>
        <time>2021-11-27T14:30:26Z</time>
      </trkpt>
      <trkpt lat="45.04306" lon="-0.39384">
        <ele>40.6</ele>
        <time>2021-11-27T14:30:27Z</time>
      </trkpt>
      <trkpt lat="45.04303" lon="-0.39386">
        <ele>40.7</ele>
        <time>2021-11-27T14:30:29Z</time>
      </trkpt>
      <trkpt lat="45.04302" lon="-0.39386">
        <ele>40.7</ele>
        <time>2021-11-27T14:30:30Z</time>
      </trkpt>
      <trkpt lat="45.043" lon="-0.39387">
        <ele>40.7</ele>
        <time>2021-11-27T14:30:31Z</time>
      </trkpt>
      <trkpt lat="45.04299" lon="-0.39388">
        <ele>40.8</ele>
        <time>2021-11-27T14:30:32Z</time>
      </trkpt>
      <trkpt lat="45.04296" lon="-0.3939">
        <ele>40.8</ele>
        <time>2021-11-27T14:30:34Z</time>
      </trkpt>
      <trkpt lat="45.04295" lon="-0.39391">
        <ele>40.9</ele>
        <time>2021-11-27T14:30:35Z</time>
      </trkpt>
      <trkpt lat="45.04294" lon="-0.39391">
        <ele>40.9</ele>
        <time>2021-11-27T14:30:36Z</time>
      </trkpt>
      <trkpt lat="45.04292" lon="-0.39393">
        <ele>41</ele>
        <time>2021-11-27T14:30:38Z</time>
      </trkpt>
      <trkpt lat="45.0429" lon="-0.39394">
        <ele>41</ele>
        <time>2021-11-27T14:30:39Z</time>
      </trkpt>
      <trkpt lat="45.04287" lon="-0.39396">
        <ele>41.1</ele>
        <time>2021-11-27T14:30:41Z</time>
      </trkpt>
      <trkpt lat="45.04286" lon="-0.39397">
        <ele>41.1</ele>
        <time>2021-11-27T14:30:42Z</time>
      </trkpt>
      <trkpt lat="45.04285" lon="-0.39398">
        <ele>41.2</ele>
        <time>2021-11-27T14:30:43Z</time>
      </trkpt>
      <trkpt lat="45.04284" lon="-0.39398">
        <ele>41.2</ele>
        <time>2021-11-27T14:30:45Z</time>
      </trkpt>
      <trkpt lat="45.04282" lon="-0.39399">
        <ele>41.2</ele>
        <time>2021-11-27T14:30:46Z</time>
      </trkpt>
      <trkpt lat="45.04279" lon="-0.394">
        <ele>41.3</ele>
        <time>2021-11-27T14:30:48Z</time>
      </trkpt>
      <trkpt lat="45.04278" lon="-0.394">
        <ele>41.3</ele>
        <time>2021-11-27T14:30:49Z</time>
      </trkpt>
      <trkpt lat="45.04276" lon="-0.39401">
        <ele>41.4</ele>
        <time>2021-11-27T14:30:50Z</time>
      </trkpt>
      <trkpt lat="45.04275" lon="-0.39401">
        <ele>41.4</ele>
        <time>2021-11-27T14:30:52Z</time>
      </trkpt>
      <trkpt lat="45.04273" lon="-0.39402">
        <ele>41.4</ele>
        <time>2021-11-27T14:30:53Z</time>
      </trkpt>
      <trkpt lat="45.04272" lon="-0.39403">
        <ele>41.5</ele>
        <time>2021-11-27T14:30:54Z</time>
      </trkpt>
      <trkpt lat="45.04269" lon="-0.39404">
        <ele>41.5</ele>
        <time>2021-11-27T14:30:56Z</time>
      </trkpt>
      <trkpt lat="45.04268" lon="-0.39405">
        <ele>41.5</ele>
        <time>2021-11-27T14:30:57Z</time>
      </trkpt>
      <trkpt lat="45.04267" lon="-0.39405">
        <ele>41.5</ele>
        <time>2021-11-27T14:30:58Z</time>
      </trkpt>
      <trkpt lat="45.04265" lon="-0.39406">
        <ele>41.5</ele>
        <time>2021-11-27T14:30:59Z</time>
      </trkpt>
      <trkpt lat="45.04262" lon="-0.39408">
        <ele>41.6</ele>
        <time>2021-11-27T14:31:01Z</time>
      </trkpt>
      <trkpt lat="45.04262" lon="-0.39409">
        <ele>41.7</ele>
        <time>2021-11-27T14:31:02Z</time>
      </trkpt>
      <trkpt lat="45.04259" lon="-0.39411">
        <ele>41.7</ele>
        <time>2021-11-27T14:31:04Z</time>
      </trkpt>
      <trkpt lat="45.04258" lon="-0.39412">
        <ele>41.8</ele>
        <time>2021-11-27T14:31:05Z</time>
      </trkpt>
      <trkpt lat="45.04256" lon="-0.39413">
        <ele>41.8</ele>
        <time>2021-11-27T14:31:07Z</time>
      </trkpt>
      <trkpt lat="45.04255" lon="-0.39414">
        <ele>41.8</ele>
        <time>2021-11-27T14:31:08Z</time>
      </trkpt>
      <trkpt lat="45.04254" lon="-0.39415">
        <ele>41.9</ele>
        <time>2021-11-27T14:31:09Z</time>
      </trkpt>
      <trkpt lat="45.04252" lon="-0.39416">
        <ele>41.9</ele>
        <time>2021-11-27T14:31:11Z</time>
      </trkpt>
      <trkpt lat="45.0425" lon="-0.39417">
        <ele>42</ele>
        <time>2021-11-27T14:31:12Z</time>
      </trkpt>
      <trkpt lat="45.04249" lon="-0.39418">
        <ele>42</ele>
        <time>2021-11-27T14:31:13Z</time>
      </trkpt>
      <trkpt lat="45.04246" lon="-0.3942">
        <ele>42.1</ele>
        <time>2021-11-27T14:31:15Z</time>
      </trkpt>
      <trkpt lat="45.04245" lon="-0.39421">
        <ele>42.1</ele>
        <time>2021-11-27T14:31:16Z</time>
      </trkpt>
      <trkpt lat="45.04242" lon="-0.39423">
        <ele>42.2</ele>
        <time>2021-11-27T14:31:17Z</time>
      </trkpt>
      <trkpt lat="45.04241" lon="-0.39424">
        <ele>42.2</ele>
        <time>2021-11-27T14:31:19Z</time>
      </trkpt>
      <trkpt lat="45.0424" lon="-0.39425">
        <ele>42.2</ele>
        <time>2021-11-27T14:31:20Z</time>
      </trkpt>
      <trkpt lat="45.04238" lon="-0.39426">
        <ele>42.3</ele>
        <time>2021-11-27T14:31:21Z</time>
      </trkpt>
      <trkpt lat="45.04236" lon="-0.39427">
        <ele>42.3</ele>
        <time>2021-11-27T14:31:23Z</time>
      </trkpt>
      <trkpt lat="45.04235" lon="-0.39428">
        <ele>42.3</ele>
        <time>2021-11-27T14:31:24Z</time>
      </trkpt>
      <trkpt lat="45.04234" lon="-0.39428">
        <ele>42.4</ele>
        <time>2021-11-27T14:31:25Z</time>
      </trkpt>
      <trkpt lat="45.04232" lon="-0.39429">
        <ele>42.4</ele>
        <time>2021-11-27T14:31:26Z</time>
      </trkpt>
      <trkpt lat="45.0423" lon="-0.39431">
        <ele>42.4</ele>
        <time>2021-11-27T14:31:28Z</time>
      </trkpt>
      <trkpt lat="45.04227" lon="-0.39432">
        <ele>42.5</ele>
        <time>2021-11-27T14:31:30Z</time>
      </trkpt>
      <trkpt lat="45.04226" lon="-0.39432">
        <ele>42.5</ele>
        <time>2021-11-27T14:31:31Z</time>
      </trkpt>
      <trkpt lat="45.04224" lon="-0.39434">
        <ele>42.6</ele>
        <time>2021-11-27T14:31:33Z</time>
      </trkpt>
      <trkpt lat="45.04222" lon="-0.39435">
        <ele>42.6</ele>
        <time>2021-11-27T14:31:34Z</time>
      </trkpt>
      <trkpt lat="45.04221" lon="-0.39436">
        <ele>42.7</ele>
        <time>2021-11-27T14:31:35Z</time>
      </trkpt>
      <trkpt lat="45.04219" lon="-0.39436">
        <ele>42.7</ele>
        <time>2021-11-27T14:31:37Z</time>
      </trkpt>
      <trkpt lat="45.04217" lon="-0.39436">
        <ele>42.8</ele>
        <time>2021-11-27T14:31:38Z</time>
      </trkpt>
      <trkpt lat="45.04216" lon="-0.39437">
        <ele>42.8</ele>
        <time>2021-11-27T14:31:40Z</time>
      </trkpt>
      <trkpt lat="45.04213" lon="-0.39439">
        <ele>42.9</ele>
        <time>2021-11-27T14:31:42Z</time>
      </trkpt>
      <trkpt lat="45.04211" lon="-0.39439">
        <ele>43</ele>
        <time>2021-11-27T14:31:43Z</time>
      </trkpt>
      <trkpt lat="45.04209" lon="-0.3944">
        <ele>43</ele>
        <time>2021-11-27T14:31:45Z</time>
      </trkpt>
      <trkpt lat="45.04208" lon="-0.39441">
        <ele>43.1</ele>
        <time>2021-11-27T14:31:46Z</time>
      </trkpt>
      <trkpt lat="45.04206" lon="-0.39443">
        <ele>43.1</ele>
        <time>2021-11-27T14:31:48Z</time>
      </trkpt>
      <trkpt lat="45.04204" lon="-0.39444">
        <ele>43.2</ele>
        <time>2021-11-27T14:31:49Z</time>
      </trkpt>
      <trkpt lat="45.04203" lon="-0.39445">
        <ele>43.2</ele>
        <time>2021-11-27T14:31:51Z</time>
      </trkpt>
      <trkpt lat="45.04201" lon="-0.39447">
        <ele>43.3</ele>
        <time>2021-11-27T14:31:52Z</time>
      </trkpt>
      <trkpt lat="45.04199" lon="-0.39448">
        <ele>43.4</ele>
        <time>2021-11-27T14:31:54Z</time>
      </trkpt>
      <trkpt lat="45.04197" lon="-0.39449">
        <ele>43.4</ele>
        <time>2021-11-27T14:31:55Z</time>
      </trkpt>
      <trkpt lat="45.04195" lon="-0.39451">
        <ele>43.5</ele>
        <time>2021-11-27T14:31:57Z</time>
      </trkpt>
      <trkpt lat="45.04193" lon="-0.39453">
        <ele>43.6</ele>
        <time>2021-11-27T14:31:58Z</time>
      </trkpt>
      <trkpt lat="45.04192" lon="-0.39453">
        <ele>43.6</ele>
        <time>2021-11-27T14:31:59Z</time>
      </trkpt>
      <trkpt lat="45.04189" lon="-0.39455">
        <ele>43.7</ele>
        <time>2021-11-27T14:32:01Z</time>
      </trkpt>
      <trkpt lat="45.04188" lon="-0.39456">
        <ele>43.7</ele>
        <time>2021-11-27T14:32:02Z</time>
      </trkpt>
      <trkpt lat="45.04186" lon="-0.39458">
        <ele>43.8</ele>
        <time>2021-11-27T14:32:04Z</time>
      </trkpt>
      <trkpt lat="45.04185" lon="-0.39459">
        <ele>43.8</ele>
        <time>2021-11-27T14:32:05Z</time>
      </trkpt>
      <trkpt lat="45.04183" lon="-0.39461">
        <ele>43.9</ele>
        <time>2021-11-27T14:32:06Z</time>
      </trkpt>
      <trkpt lat="45.04182" lon="-0.39461">
        <ele>43.9</ele>
        <time>2021-11-27T14:32:07Z</time>
      </trkpt>
      <trkpt lat="45.0418" lon="-0.39463">
        <ele>44</ele>
        <time>2021-11-27T14:32:09Z</time>
      </trkpt>
      <trkpt lat="45.04179" lon="-0.39464">
        <ele>44</ele>
        <time>2021-11-27T14:32:10Z</time>
      </trkpt>
      <trkpt lat="45.04178" lon="-0.39468">
        <ele>44.1</ele>
        <time>2021-11-27T14:32:12Z</time>
      </trkpt>
      <trkpt lat="45.04178" lon="-0.39469">
        <ele>44.1</ele>
        <time>2021-11-27T14:32:13Z</time>
      </trkpt>
      <trkpt lat="45.04177" lon="-0.39474">
        <ele>44.2</ele>
        <time>2021-11-27T14:32:15Z</time>
      </trkpt>
      <trkpt lat="45.04177" lon="-0.39476">
        <ele>44.2</ele>
        <time>2021-11-27T14:32:16Z</time>
      </trkpt>
      <trkpt lat="45.04176" lon="-0.39477">
        <ele>44.2</ele>
        <time>2021-11-27T14:32:18Z</time>
      </trkpt>
      <trkpt lat="45.04175" lon="-0.39478">
        <ele>44.2</ele>
        <time>2021-11-27T14:32:19Z</time>
      </trkpt>
      <trkpt lat="45.04174" lon="-0.39479">
        <ele>44.3</ele>
        <time>2021-11-27T14:32:20Z</time>
      </trkpt>
      <trkpt lat="45.04173" lon="-0.39481">
        <ele>44.4</ele>
        <time>2021-11-27T14:32:22Z</time>
      </trkpt>
      <trkpt lat="45.04172" lon="-0.39483">
        <ele>44.5</ele>
        <time>2021-11-27T14:32:23Z</time>
      </trkpt>
      <trkpt lat="45.04172" lon="-0.39484">
        <ele>44.5</ele>
        <time>2021-11-27T14:32:24Z</time>
      </trkpt>
      <trkpt lat="45.04174" lon="-0.39488">
        <ele>44.6</ele>
        <time>2021-11-27T14:32:25Z</time>
      </trkpt>
      <trkpt lat="45.04174" lon="-0.3949">
        <ele>44.6</ele>
        <time>2021-11-27T14:32:27Z</time>
      </trkpt>
      <trkpt lat="45.04175" lon="-0.39491">
        <ele>44.6</ele>
        <time>2021-11-27T14:32:28Z</time>
      </trkpt>
      <trkpt lat="45.04176" lon="-0.39493">
        <ele>44.7</ele>
        <time>2021-11-27T14:32:29Z</time>
      </trkpt>
      <trkpt lat="45.04179" lon="-0.39495">
        <ele>44.7</ele>
        <time>2021-11-27T14:32:31Z</time>
      </trkpt>
      <trkpt lat="45.0418" lon="-0.39495">
        <ele>44.7</ele>
        <time>2021-11-27T14:32:32Z</time>
      </trkpt>
      <trkpt lat="45.04181" lon="-0.39495">
        <ele>44.8</ele>
        <time>2021-11-27T14:32:33Z</time>
      </trkpt>
      <trkpt lat="45.04182" lon="-0.39495">
        <ele>44.8</ele>
        <time>2021-11-27T14:32:34Z</time>
      </trkpt>
      <trkpt lat="45.04183" lon="-0.39496">
        <ele>44.8</ele>
        <time>2021-11-27T14:32:35Z</time>
      </trkpt>
      <trkpt lat="45.04184" lon="-0.39499">
        <ele>44.9</ele>
        <time>2021-11-27T14:32:36Z</time>
      </trkpt>
      <trkpt lat="45.04184" lon="-0.39502">
        <ele>44.9</ele>
        <time>2021-11-27T14:32:37Z</time>
      </trkpt>
      <trkpt lat="45.04184" lon="-0.39503">
        <ele>44.9</ele>
        <time>2021-11-27T14:32:38Z</time>
      </trkpt>
      <trkpt lat="45.04185" lon="-0.39507">
        <ele>44.9</ele>
        <time>2021-11-27T14:32:40Z</time>
      </trkpt>
      <trkpt lat="45.04185" lon="-0.39509">
        <ele>44.9</ele>
        <time>2021-11-27T14:32:41Z</time>
      </trkpt>
      <trkpt lat="45.04187" lon="-0.39512">
        <ele>44.9</ele>
        <time>2021-11-27T14:32:43Z</time>
      </trkpt>
      <trkpt lat="45.04187" lon="-0.39514">
        <ele>44.9</ele>
        <time>2021-11-27T14:32:44Z</time>
      </trkpt>
      <trkpt lat="45.04188" lon="-0.39517">
        <ele>45</ele>
        <time>2021-11-27T14:32:46Z</time>
      </trkpt>
      <trkpt lat="45.04189" lon="-0.39519">
        <ele>45</ele>
        <time>2021-11-27T14:32:47Z</time>
      </trkpt>
      <trkpt lat="45.04191" lon="-0.39521">
        <ele>45</ele>
        <time>2021-11-27T14:32:49Z</time>
      </trkpt>
      <trkpt lat="45.04192" lon="-0.39522">
        <ele>45</ele>
        <time>2021-11-27T14:32:50Z</time>
      </trkpt>
      <trkpt lat="45.04192" lon="-0.39523">
        <ele>45</ele>
        <time>2021-11-27T14:32:51Z</time>
      </trkpt>
      <trkpt lat="45.04194" lon="-0.39529">
        <ele>45</ele>
        <time>2021-11-27T14:32:53Z</time>
      </trkpt>
      <trkpt lat="45.04194" lon="-0.3953">
        <ele>45</ele>
        <time>2021-11-27T14:32:54Z</time>
      </trkpt>
      <trkpt lat="45.04196" lon="-0.39533">
        <ele>45.1</ele>
        <time>2021-11-27T14:32:56Z</time>
      </trkpt>
      <trkpt lat="45.04196" lon="-0.39535">
        <ele>45.1</ele>
        <time>2021-11-27T14:32:57Z</time>
      </trkpt>
      <trkpt lat="45.04198" lon="-0.39538">
        <ele>45.1</ele>
        <time>2021-11-27T14:32:59Z</time>
      </trkpt>
      <trkpt lat="45.04199" lon="-0.3954">
        <ele>45.1</ele>
        <time>2021-11-27T14:33:00Z</time>
      </trkpt>
      <trkpt lat="45.042" lon="-0.39541">
        <ele>45.1</ele>
        <time>2021-11-27T14:33:01Z</time>
      </trkpt>
      <trkpt lat="45.04202" lon="-0.39545">
        <ele>45.1</ele>
        <time>2021-11-27T14:33:03Z</time>
      </trkpt>
      <trkpt lat="45.04202" lon="-0.39546">
        <ele>45.1</ele>
        <time>2021-11-27T14:33:04Z</time>
      </trkpt>
      <trkpt lat="45.04203" lon="-0.39549">
        <ele>45.2</ele>
        <time>2021-11-27T14:33:06Z</time>
      </trkpt>
      <trkpt lat="45.04203" lon="-0.39551">
        <ele>45.2</ele>
        <time>2021-11-27T14:33:07Z</time>
      </trkpt>
      <trkpt lat="45.04204" lon="-0.39554">
        <ele>45.2</ele>
        <time>2021-11-27T14:33:09Z</time>
      </trkpt>
      <trkpt lat="45.04205" lon="-0.39555">
        <ele>45.2</ele>
        <time>2021-11-27T14:33:10Z</time>
      </trkpt>
      <trkpt lat="45.04205" lon="-0.39558">
        <ele>45.2</ele>
        <time>2021-11-27T14:33:12Z</time>
      </trkpt>
      <trkpt lat="45.04207" lon="-0.39559">
        <ele>45.2</ele>
        <time>2021-11-27T14:33:14Z</time>
      </trkpt>
      <trkpt lat="45.04208" lon="-0.39559">
        <ele>45.2</ele>
        <time>2021-11-27T14:33:15Z</time>
      </trkpt>
      <trkpt lat="45.04209" lon="-0.39559">
        <ele>45.2</ele>
        <time>2021-11-27T14:33:16Z</time>
      </trkpt>
      <trkpt lat="45.0421" lon="-0.39557">
        <ele>45.2</ele>
        <time>2021-11-27T14:33:17Z</time>
      </trkpt>
      <trkpt lat="45.04212" lon="-0.39556">
        <ele>45.2</ele>
        <time>2021-11-27T14:33:18Z</time>
      </trkpt>
      <trkpt lat="45.04213" lon="-0.39556">
        <ele>45.2</ele>
        <time>2021-11-27T14:33:19Z</time>
      </trkpt>
      <trkpt lat="45.04214" lon="-0.39555">
        <ele>45.3</ele>
        <time>2021-11-27T14:33:20Z</time>
      </trkpt>
      <trkpt lat="45.04216" lon="-0.39555">
        <ele>45.3</ele>
        <time>2021-11-27T14:33:22Z</time>
      </trkpt>
      <trkpt lat="45.04217" lon="-0.39555">
        <ele>45.3</ele>
        <time>2021-11-27T14:33:23Z</time>
      </trkpt>
      <trkpt lat="45.04219" lon="-0.39554">
        <ele>45.3</ele>
        <time>2021-11-27T14:33:25Z</time>
      </trkpt>
      <trkpt lat="45.04221" lon="-0.39555">
        <ele>45.3</ele>
        <time>2021-11-27T14:33:27Z</time>
      </trkpt>
      <trkpt lat="45.04222" lon="-0.39555">
        <ele>45.3</ele>
        <time>2021-11-27T14:33:28Z</time>
      </trkpt>
      <trkpt lat="45.04223" lon="-0.39555">
        <ele>45.3</ele>
        <time>2021-11-27T14:33:29Z</time>
      </trkpt>
      <trkpt lat="45.04225" lon="-0.39557">
        <ele>45.3</ele>
        <time>2021-11-27T14:33:30Z</time>
      </trkpt>
      <trkpt lat="45.04226" lon="-0.39558">
        <ele>45.3</ele>
        <time>2021-11-27T14:33:31Z</time>
      </trkpt>
      <trkpt lat="45.04225" lon="-0.39563">
        <ele>45.3</ele>
        <time>2021-11-27T14:33:33Z</time>
      </trkpt>
      <trkpt lat="45.04227" lon="-0.39568">
        <ele>45.3</ele>
        <time>2021-11-27T14:33:35Z</time>
      </trkpt>
      <trkpt lat="45.04227" lon="-0.39569">
        <ele>45.3</ele>
        <time>2021-11-27T14:33:36Z</time>
      </trkpt>
      <trkpt lat="45.04228" lon="-0.39571">
        <ele>45.3</ele>
        <time>2021-11-27T14:33:37Z</time>
      </trkpt>
      <trkpt lat="45.04228" lon="-0.39573">
        <ele>45.3</ele>
        <time>2021-11-27T14:33:38Z</time>
      </trkpt>
      <trkpt lat="45.04231" lon="-0.39574">
        <ele>45.3</ele>
        <time>2021-11-27T14:33:40Z</time>
      </trkpt>
      <trkpt lat="45.04234" lon="-0.39575">
        <ele>45.3</ele>
        <time>2021-11-27T14:33:41Z</time>
      </trkpt>
      <trkpt lat="45.04235" lon="-0.39575">
        <ele>45.3</ele>
        <time>2021-11-27T14:33:42Z</time>
      </trkpt>
      <trkpt lat="45.04238" lon="-0.39575">
        <ele>45.3</ele>
        <time>2021-11-27T14:33:44Z</time>
      </trkpt>
      <trkpt lat="45.04239" lon="-0.39575">
        <ele>45.3</ele>
        <time>2021-11-27T14:33:45Z</time>
      </trkpt>
      <trkpt lat="45.0424" lon="-0.39576">
        <ele>45.3</ele>
        <time>2021-11-27T14:33:46Z</time>
      </trkpt>
      <trkpt lat="45.04241" lon="-0.39577">
        <ele>45.3</ele>
        <time>2021-11-27T14:33:47Z</time>
      </trkpt>
      <trkpt lat="45.04243" lon="-0.39578">
        <ele>45.2</ele>
        <time>2021-11-27T14:33:49Z</time>
      </trkpt>
      <trkpt lat="45.04246" lon="-0.39579">
        <ele>45.2</ele>
        <time>2021-11-27T14:33:51Z</time>
      </trkpt>
      <trkpt lat="45.04249" lon="-0.39579">
        <ele>45.2</ele>
        <time>2021-11-27T14:33:53Z</time>
      </trkpt>
      <trkpt lat="45.04251" lon="-0.39579">
        <ele>45.2</ele>
        <time>2021-11-27T14:33:55Z</time>
      </trkpt>
      <trkpt lat="45.04252" lon="-0.39578">
        <ele>45.2</ele>
        <time>2021-11-27T14:33:57Z</time>
      </trkpt>
      <trkpt lat="45.04252" lon="-0.39577">
        <ele>45.2</ele>
        <time>2021-11-27T14:33:58Z</time>
      </trkpt>
      <trkpt lat="45.0425" lon="-0.39574">
        <ele>45.2</ele>
        <time>2021-11-27T14:34:00Z</time>
      </trkpt>
      <trkpt lat="45.0425" lon="-0.39575">
        <ele>45.2</ele>
        <time>2021-11-27T14:34:01Z</time>
      </trkpt>
      <trkpt lat="45.0425" lon="-0.39575">
        <ele>45.2</ele>
        <time>2021-11-27T14:34:02Z</time>
      </trkpt>
      <trkpt lat="45.04249" lon="-0.39575">
        <ele>45.2</ele>
        <time>2021-11-27T14:34:04Z</time>
      </trkpt>
      <trkpt lat="45.04249" lon="-0.39576">
        <ele>45.2</ele>
        <time>2021-11-27T14:34:05Z</time>
      </trkpt>
      <trkpt lat="45.04249" lon="-0.39576">
        <ele>45.2</ele>
        <time>2021-11-27T14:34:07Z</time>
      </trkpt>
      <trkpt lat="45.04249" lon="-0.39576">
        <ele>45.2</ele>
        <time>2021-11-27T14:34:08Z</time>
      </trkpt>
      <trkpt lat="45.04249" lon="-0.39575">
        <ele>45.2</ele>
        <time>2021-11-27T14:34:09Z</time>
      </trkpt>
      <trkpt lat="45.04249" lon="-0.39575">
        <ele>45.2</ele>
        <time>2021-11-27T14:34:11Z</time>
      </trkpt>
      <trkpt lat="45.0425" lon="-0.39575">
        <ele>45.2</ele>
        <time>2021-11-27T14:34:13Z</time>
      </trkpt>
      <trkpt lat="45.0425" lon="-0.39575">
        <ele>45.2</ele>
        <time>2021-11-27T14:34:15Z</time>
      </trkpt>
      <trkpt lat="45.0425" lon="-0.39575">
        <ele>45.2</ele>
        <time>2021-11-27T14:34:16Z</time>
      </trkpt>
      <trkpt lat="45.04249" lon="-0.39575">
        <ele>45.2</ele>
        <time>2021-11-27T14:34:17Z</time>
      </trkpt>
      <trkpt lat="45.04249" lon="-0.39575">
        <ele>45.2</ele>
        <time>2021-11-27T14:34:18Z</time>
      </trkpt>
      <trkpt lat="45.04248" lon="-0.39575">
        <ele>45.2</ele>
        <time>2021-11-27T14:34:19Z</time>
      </trkpt>
      <trkpt lat="45.04248" lon="-0.39575">
        <ele>45.2</ele>
        <time>2021-11-27T14:34:20Z</time>
      </trkpt>
      <trkpt lat="45.04248" lon="-0.39575">
        <ele>45.2</ele>
        <time>2021-11-27T14:34:21Z</time>
      </trkpt>
      <trkpt lat="45.04249" lon="-0.39575">
        <ele>45.2</ele>
        <time>2021-11-27T14:34:23Z</time>
      </trkpt>
      <trkpt lat="45.04249" lon="-0.39576">
        <ele>45.2</ele>
        <time>2021-11-27T14:34:25Z</time>
      </trkpt>
      <trkpt lat="45.04249" lon="-0.39576">
        <ele>45.2</ele>
        <time>2021-11-27T14:34:27Z</time>
      </trkpt>
      <trkpt lat="45.04249" lon="-0.39576">
        <ele>45.2</ele>
        <time>2021-11-27T14:34:28Z</time>
      </trkpt>
    </trkseg>
  </trk>
</gpx>